<?xml version="1.0" encoding="UTF-8" standalone="no" ?>
<gpx xmlns="http://www.topografix.com/GPX/1/1" xmlns:xsi="http://www.w3.org/2001/XMLSchema-instance" xsi:schemaLocation="http://www.topografix.com/GPX/1/1 http://www.topografix.com/GPX/1/1/gpx.xsd" version="1.1" creator="VisuGPX - https://www.visugpx.com">
  <metadata>
    <name>corniche cavalaire sur mer</name>
    <desc><![CDATA[Cavalaire , Rayol, Cavalaire par la corniche]]></desc>
  </metadata>
  <trk>
    <name><![CDATA[corniche cavalaire sur mer_1]]></name>
    <trkseg>
      <trkpt lat="43.18375" lon="6.5152">
        <ele>87</ele>
        <time>2013-09-12T11:14:30.000Z</time>
      </trkpt>
      <trkpt lat="43.18376" lon="6.51519">
        <ele>87</ele>
        <time>2013-09-12T11:14:31.000Z</time>
      </trkpt>
      <trkpt lat="43.18377" lon="6.51519">
        <ele>87</ele>
        <time>2013-09-12T11:14:32.000Z</time>
      </trkpt>
      <trkpt lat="43.18377" lon="6.51519">
        <ele>87</ele>
        <time>2013-09-12T11:14:33.000Z</time>
      </trkpt>
      <trkpt lat="43.18376" lon="6.5152">
        <ele>87</ele>
        <time>2013-09-12T11:14:34.000Z</time>
      </trkpt>
      <trkpt lat="43.18376" lon="6.51521">
        <ele>87</ele>
        <time>2013-09-12T11:14:35.000Z</time>
      </trkpt>
      <trkpt lat="43.18377" lon="6.51522">
        <ele>87</ele>
        <time>2013-09-12T11:14:36.000Z</time>
      </trkpt>
      <trkpt lat="43.18377" lon="6.51521">
        <ele>87</ele>
        <time>2013-09-12T11:14:37.000Z</time>
      </trkpt>
      <trkpt lat="43.18377" lon="6.51521">
        <ele>87</ele>
        <time>2013-09-12T11:14:38.000Z</time>
      </trkpt>
      <trkpt lat="43.18378" lon="6.51522">
        <ele>87</ele>
        <time>2013-09-12T11:14:40.000Z</time>
      </trkpt>
      <trkpt lat="43.18378" lon="6.51522">
        <ele>87</ele>
        <time>2013-09-12T11:14:41.000Z</time>
      </trkpt>
      <trkpt lat="43.18379" lon="6.51522">
        <ele>87</ele>
        <time>2013-09-12T11:14:42.000Z</time>
      </trkpt>
      <trkpt lat="43.1838" lon="6.51521">
        <ele>87</ele>
        <time>2013-09-12T11:14:43.000Z</time>
      </trkpt>
      <trkpt lat="43.1838" lon="6.51522">
        <ele>87</ele>
        <time>2013-09-12T11:14:44.000Z</time>
      </trkpt>
      <trkpt lat="43.18382" lon="6.51522">
        <ele>87</ele>
        <time>2013-09-12T11:14:45.000Z</time>
      </trkpt>
      <trkpt lat="43.18382" lon="6.51522">
        <ele>87</ele>
        <time>2013-09-12T11:14:46.000Z</time>
      </trkpt>
      <trkpt lat="43.18383" lon="6.51521">
        <ele>87</ele>
        <time>2013-09-12T11:14:47.000Z</time>
      </trkpt>
      <trkpt lat="43.18383" lon="6.5152">
        <ele>87</ele>
        <time>2013-09-12T11:14:48.000Z</time>
      </trkpt>
      <trkpt lat="43.18384" lon="6.51519">
        <ele>87</ele>
        <time>2013-09-12T11:14:49.000Z</time>
      </trkpt>
      <trkpt lat="43.18385" lon="6.51518">
        <ele>87</ele>
        <time>2013-09-12T11:14:50.000Z</time>
      </trkpt>
      <trkpt lat="43.18386" lon="6.51518">
        <ele>87</ele>
        <time>2013-09-12T11:14:51.000Z</time>
      </trkpt>
      <trkpt lat="43.18387" lon="6.51518">
        <ele>87</ele>
        <time>2013-09-12T11:14:52.000Z</time>
      </trkpt>
      <trkpt lat="43.18388" lon="6.51517">
        <ele>87</ele>
        <time>2013-09-12T11:14:53.000Z</time>
      </trkpt>
      <trkpt lat="43.18389" lon="6.51517">
        <ele>87</ele>
        <time>2013-09-12T11:14:54.000Z</time>
      </trkpt>
      <trkpt lat="43.18388" lon="6.51517">
        <ele>87</ele>
        <time>2013-09-12T11:14:55.000Z</time>
      </trkpt>
      <trkpt lat="43.18388" lon="6.51517">
        <ele>87</ele>
        <time>2013-09-12T11:14:56.000Z</time>
      </trkpt>
      <trkpt lat="43.18388" lon="6.51516">
        <ele>87</ele>
        <time>2013-09-12T11:14:57.000Z</time>
      </trkpt>
      <trkpt lat="43.18388" lon="6.51516">
        <ele>87</ele>
        <time>2013-09-12T11:14:58.000Z</time>
      </trkpt>
      <trkpt lat="43.18387" lon="6.51516">
        <ele>87</ele>
        <time>2013-09-12T11:14:59.000Z</time>
      </trkpt>
      <trkpt lat="43.18387" lon="6.51517">
        <ele>87</ele>
        <time>2013-09-12T11:15:00.000Z</time>
      </trkpt>
      <trkpt lat="43.18387" lon="6.51518">
        <ele>87</ele>
        <time>2013-09-12T11:15:02.000Z</time>
      </trkpt>
      <trkpt lat="43.18386" lon="6.51518">
        <ele>87</ele>
        <time>2013-09-12T11:15:04.000Z</time>
      </trkpt>
      <trkpt lat="43.18386" lon="6.51518">
        <ele>87</ele>
        <time>2013-09-12T11:15:06.000Z</time>
      </trkpt>
      <trkpt lat="43.18386" lon="6.51517">
        <ele>87</ele>
        <time>2013-09-12T11:15:09.000Z</time>
      </trkpt>
      <trkpt lat="43.18386" lon="6.51517">
        <ele>87</ele>
        <time>2013-09-12T11:15:11.000Z</time>
      </trkpt>
      <trkpt lat="43.18386" lon="6.51517">
        <ele>87</ele>
        <time>2013-09-12T11:15:12.000Z</time>
      </trkpt>
      <trkpt lat="43.18386" lon="6.51517">
        <ele>87</ele>
        <time>2013-09-12T11:15:14.000Z</time>
      </trkpt>
      <trkpt lat="43.18386" lon="6.51517">
        <ele>87</ele>
        <time>2013-09-12T11:15:16.000Z</time>
      </trkpt>
      <trkpt lat="43.18385" lon="6.51517">
        <ele>87</ele>
        <time>2013-09-12T11:15:17.000Z</time>
      </trkpt>
      <trkpt lat="43.18385" lon="6.51517">
        <ele>87</ele>
        <time>2013-09-12T11:15:18.000Z</time>
      </trkpt>
      <trkpt lat="43.18385" lon="6.51517">
        <ele>87</ele>
        <time>2013-09-12T11:15:19.000Z</time>
      </trkpt>
      <trkpt lat="43.18386" lon="6.51517">
        <ele>87</ele>
        <time>2013-09-12T11:15:21.000Z</time>
      </trkpt>
      <trkpt lat="43.18385" lon="6.51517">
        <ele>87</ele>
        <time>2013-09-12T11:15:23.000Z</time>
      </trkpt>
      <trkpt lat="43.18385" lon="6.51517">
        <ele>87</ele>
        <time>2013-09-12T11:15:24.000Z</time>
      </trkpt>
      <trkpt lat="43.18385" lon="6.51517">
        <ele>87</ele>
        <time>2013-09-12T11:15:25.000Z</time>
      </trkpt>
      <trkpt lat="43.18386" lon="6.51517">
        <ele>87</ele>
        <time>2013-09-12T11:15:28.000Z</time>
      </trkpt>
      <trkpt lat="43.18386" lon="6.51517">
        <ele>87</ele>
        <time>2013-09-12T11:15:29.000Z</time>
      </trkpt>
      <trkpt lat="43.18387" lon="6.51517">
        <ele>87</ele>
        <time>2013-09-12T11:15:34.000Z</time>
      </trkpt>
      <trkpt lat="43.18387" lon="6.51517">
        <ele>87</ele>
        <time>2013-09-12T11:15:36.000Z</time>
      </trkpt>
      <trkpt lat="43.18387" lon="6.51517">
        <ele>87</ele>
        <time>2013-09-12T11:15:38.000Z</time>
      </trkpt>
      <trkpt lat="43.18388" lon="6.51517">
        <ele>87</ele>
        <time>2013-09-12T11:15:39.000Z</time>
      </trkpt>
      <trkpt lat="43.18388" lon="6.51516">
        <ele>87</ele>
        <time>2013-09-12T11:15:40.000Z</time>
      </trkpt>
      <trkpt lat="43.18388" lon="6.51516">
        <ele>87</ele>
        <time>2013-09-12T11:15:41.000Z</time>
      </trkpt>
      <trkpt lat="43.18388" lon="6.51516">
        <ele>87</ele>
        <time>2013-09-12T11:15:42.000Z</time>
      </trkpt>
      <trkpt lat="43.18389" lon="6.51517">
        <ele>87</ele>
        <time>2013-09-12T11:15:43.000Z</time>
      </trkpt>
      <trkpt lat="43.18389" lon="6.51516">
        <ele>87</ele>
        <time>2013-09-12T11:15:45.000Z</time>
      </trkpt>
      <trkpt lat="43.18389" lon="6.51516">
        <ele>87</ele>
        <time>2013-09-12T11:15:48.000Z</time>
      </trkpt>
      <trkpt lat="43.18389" lon="6.51516">
        <ele>87</ele>
        <time>2013-09-12T11:15:49.000Z</time>
      </trkpt>
      <trkpt lat="43.1839" lon="6.51516">
        <ele>87</ele>
        <time>2013-09-12T11:15:51.000Z</time>
      </trkpt>
      <trkpt lat="43.1839" lon="6.51516">
        <ele>87</ele>
        <time>2013-09-12T11:15:54.000Z</time>
      </trkpt>
      <trkpt lat="43.1839" lon="6.51516">
        <ele>87</ele>
        <time>2013-09-12T11:15:57.000Z</time>
      </trkpt>
      <trkpt lat="43.18391" lon="6.51515">
        <ele>87</ele>
        <time>2013-09-12T11:16:00.000Z</time>
      </trkpt>
      <trkpt lat="43.18391" lon="6.51515">
        <ele>87</ele>
        <time>2013-09-12T11:16:02.000Z</time>
      </trkpt>
      <trkpt lat="43.18391" lon="6.51515">
        <ele>87</ele>
        <time>2013-09-12T11:16:12.000Z</time>
      </trkpt>
      <trkpt lat="43.18391" lon="6.51516">
        <ele>87</ele>
        <time>2013-09-12T11:16:19.000Z</time>
      </trkpt>
      <trkpt lat="43.18391" lon="6.51516">
        <ele>87</ele>
        <time>2013-09-12T11:16:20.000Z</time>
      </trkpt>
      <trkpt lat="43.18391" lon="6.51515">
        <ele>87</ele>
        <time>2013-09-12T11:16:22.000Z</time>
      </trkpt>
      <trkpt lat="43.18391" lon="6.51516">
        <ele>87</ele>
        <time>2013-09-12T11:16:23.000Z</time>
      </trkpt>
      <trkpt lat="43.1839" lon="6.51516">
        <ele>87</ele>
        <time>2013-09-12T11:16:43.000Z</time>
      </trkpt>
      <trkpt lat="43.1839" lon="6.51516">
        <ele>87</ele>
        <time>2013-09-12T11:16:51.000Z</time>
      </trkpt>
      <trkpt lat="43.1839" lon="6.51516">
        <ele>87</ele>
        <time>2013-09-12T11:16:53.000Z</time>
      </trkpt>
      <trkpt lat="43.18389" lon="6.51517">
        <ele>87</ele>
        <time>2013-09-12T11:16:57.000Z</time>
      </trkpt>
      <trkpt lat="43.18389" lon="6.51518">
        <ele>87</ele>
        <time>2013-09-12T11:16:58.000Z</time>
      </trkpt>
      <trkpt lat="43.18388" lon="6.5152">
        <ele>87</ele>
        <time>2013-09-12T11:16:59.000Z</time>
      </trkpt>
      <trkpt lat="43.18386" lon="6.51522">
        <ele>87</ele>
        <time>2013-09-12T11:17:00.000Z</time>
      </trkpt>
      <trkpt lat="43.18385" lon="6.51524">
        <ele>86</ele>
        <time>2013-09-12T11:17:01.000Z</time>
      </trkpt>
      <trkpt lat="43.18383" lon="6.51527">
        <ele>86</ele>
        <time>2013-09-12T11:17:02.000Z</time>
      </trkpt>
      <trkpt lat="43.18381" lon="6.51529">
        <ele>86</ele>
        <time>2013-09-12T11:17:03.000Z</time>
      </trkpt>
      <trkpt lat="43.18379" lon="6.51532">
        <ele>86</ele>
        <time>2013-09-12T11:17:04.000Z</time>
      </trkpt>
      <trkpt lat="43.18377" lon="6.51534">
        <ele>86</ele>
        <time>2013-09-12T11:17:05.000Z</time>
      </trkpt>
      <trkpt lat="43.18375" lon="6.51537">
        <ele>86</ele>
        <time>2013-09-12T11:17:06.000Z</time>
      </trkpt>
      <trkpt lat="43.18373" lon="6.51539">
        <ele>86</ele>
        <time>2013-09-12T11:17:07.000Z</time>
      </trkpt>
      <trkpt lat="43.18372" lon="6.51542">
        <ele>86</ele>
        <time>2013-09-12T11:17:08.000Z</time>
      </trkpt>
      <trkpt lat="43.1837" lon="6.51544">
        <ele>85</ele>
        <time>2013-09-12T11:17:09.000Z</time>
      </trkpt>
      <trkpt lat="43.18367" lon="6.51547">
        <ele>85</ele>
        <time>2013-09-12T11:17:10.000Z</time>
      </trkpt>
      <trkpt lat="43.18365" lon="6.5155">
        <ele>85</ele>
        <time>2013-09-12T11:17:11.000Z</time>
      </trkpt>
      <trkpt lat="43.18362" lon="6.51553">
        <ele>85</ele>
        <time>2013-09-12T11:17:12.000Z</time>
      </trkpt>
      <trkpt lat="43.1836" lon="6.51555">
        <ele>85</ele>
        <time>2013-09-12T11:17:13.000Z</time>
      </trkpt>
      <trkpt lat="43.18358" lon="6.51558">
        <ele>85</ele>
        <time>2013-09-12T11:17:14.000Z</time>
      </trkpt>
      <trkpt lat="43.18356" lon="6.51562">
        <ele>84</ele>
        <time>2013-09-12T11:17:15.000Z</time>
      </trkpt>
      <trkpt lat="43.18353" lon="6.51566">
        <ele>84</ele>
        <time>2013-09-12T11:17:16.000Z</time>
      </trkpt>
      <trkpt lat="43.1835" lon="6.5157">
        <ele>84</ele>
        <time>2013-09-12T11:17:17.000Z</time>
      </trkpt>
      <trkpt lat="43.18348" lon="6.51574">
        <ele>83</ele>
        <time>2013-09-12T11:17:18.000Z</time>
      </trkpt>
      <trkpt lat="43.18345" lon="6.51578">
        <ele>83</ele>
        <time>2013-09-12T11:17:19.000Z</time>
      </trkpt>
      <trkpt lat="43.18342" lon="6.51582">
        <ele>82</ele>
        <time>2013-09-12T11:17:20.000Z</time>
      </trkpt>
      <trkpt lat="43.1834" lon="6.51585">
        <ele>80</ele>
        <time>2013-09-12T11:17:21.000Z</time>
      </trkpt>
      <trkpt lat="43.18337" lon="6.51589">
        <ele>80</ele>
        <time>2013-09-12T11:17:22.000Z</time>
      </trkpt>
      <trkpt lat="43.18335" lon="6.51592">
        <ele>80</ele>
        <time>2013-09-12T11:17:23.000Z</time>
      </trkpt>
      <trkpt lat="43.18333" lon="6.51595">
        <ele>78</ele>
        <time>2013-09-12T11:17:24.000Z</time>
      </trkpt>
      <trkpt lat="43.18331" lon="6.51599">
        <ele>77</ele>
        <time>2013-09-12T11:17:25.000Z</time>
      </trkpt>
      <trkpt lat="43.18328" lon="6.51602">
        <ele>77</ele>
        <time>2013-09-12T11:17:26.000Z</time>
      </trkpt>
      <trkpt lat="43.18326" lon="6.51606">
        <ele>76</ele>
        <time>2013-09-12T11:17:27.000Z</time>
      </trkpt>
      <trkpt lat="43.18324" lon="6.5161">
        <ele>76</ele>
        <time>2013-09-12T11:17:28.000Z</time>
      </trkpt>
      <trkpt lat="43.18322" lon="6.51613">
        <ele>75</ele>
        <time>2013-09-12T11:17:29.000Z</time>
      </trkpt>
      <trkpt lat="43.18319" lon="6.51617">
        <ele>75</ele>
        <time>2013-09-12T11:17:30.000Z</time>
      </trkpt>
      <trkpt lat="43.18315" lon="6.5162">
        <ele>74</ele>
        <time>2013-09-12T11:17:31.000Z</time>
      </trkpt>
      <trkpt lat="43.18311" lon="6.51622">
        <ele>74</ele>
        <time>2013-09-12T11:17:32.000Z</time>
      </trkpt>
      <trkpt lat="43.18308" lon="6.51623">
        <ele>74</ele>
        <time>2013-09-12T11:17:33.000Z</time>
      </trkpt>
      <trkpt lat="43.18305" lon="6.51625">
        <ele>74</ele>
        <time>2013-09-12T11:17:34.000Z</time>
      </trkpt>
      <trkpt lat="43.18301" lon="6.51626">
        <ele>74</ele>
        <time>2013-09-12T11:17:35.000Z</time>
      </trkpt>
      <trkpt lat="43.18298" lon="6.51628">
        <ele>73</ele>
        <time>2013-09-12T11:17:36.000Z</time>
      </trkpt>
      <trkpt lat="43.18295" lon="6.51631">
        <ele>73</ele>
        <time>2013-09-12T11:17:37.000Z</time>
      </trkpt>
      <trkpt lat="43.18292" lon="6.51634">
        <ele>73</ele>
        <time>2013-09-12T11:17:38.000Z</time>
      </trkpt>
      <trkpt lat="43.18289" lon="6.51637">
        <ele>73</ele>
        <time>2013-09-12T11:17:39.000Z</time>
      </trkpt>
      <trkpt lat="43.18286" lon="6.51641">
        <ele>73</ele>
        <time>2013-09-12T11:17:40.000Z</time>
      </trkpt>
      <trkpt lat="43.18283" lon="6.51645">
        <ele>72</ele>
        <time>2013-09-12T11:17:41.000Z</time>
      </trkpt>
      <trkpt lat="43.18279" lon="6.5165">
        <ele>72</ele>
        <time>2013-09-12T11:17:42.000Z</time>
      </trkpt>
      <trkpt lat="43.18274" lon="6.51654">
        <ele>71</ele>
        <time>2013-09-12T11:17:43.000Z</time>
      </trkpt>
      <trkpt lat="43.1827" lon="6.51658">
        <ele>71</ele>
        <time>2013-09-12T11:17:44.000Z</time>
      </trkpt>
      <trkpt lat="43.18265" lon="6.51662">
        <ele>70</ele>
        <time>2013-09-12T11:17:45.000Z</time>
      </trkpt>
      <trkpt lat="43.18261" lon="6.51666">
        <ele>70</ele>
        <time>2013-09-12T11:17:46.000Z</time>
      </trkpt>
      <trkpt lat="43.18257" lon="6.51668">
        <ele>67</ele>
        <time>2013-09-12T11:17:47.000Z</time>
      </trkpt>
      <trkpt lat="43.18254" lon="6.5167">
        <ele>68</ele>
        <time>2013-09-12T11:17:48.000Z</time>
      </trkpt>
      <trkpt lat="43.18251" lon="6.51671">
        <ele>68</ele>
        <time>2013-09-12T11:17:49.000Z</time>
      </trkpt>
      <trkpt lat="43.18245" lon="6.51671">
        <ele>66</ele>
        <time>2013-09-12T11:17:51.000Z</time>
      </trkpt>
      <trkpt lat="43.18242" lon="6.5167">
        <ele>65</ele>
        <time>2013-09-12T11:17:52.000Z</time>
      </trkpt>
      <trkpt lat="43.18239" lon="6.51668">
        <ele>65</ele>
        <time>2013-09-12T11:17:53.000Z</time>
      </trkpt>
      <trkpt lat="43.18237" lon="6.51666">
        <ele>67</ele>
        <time>2013-09-12T11:17:54.000Z</time>
      </trkpt>
      <trkpt lat="43.18236" lon="6.51664">
        <ele>67</ele>
        <time>2013-09-12T11:17:55.000Z</time>
      </trkpt>
      <trkpt lat="43.18235" lon="6.5166">
        <ele>67</ele>
        <time>2013-09-12T11:17:56.000Z</time>
      </trkpt>
      <trkpt lat="43.18234" lon="6.51657">
        <ele>66</ele>
        <time>2013-09-12T11:17:57.000Z</time>
      </trkpt>
      <trkpt lat="43.18233" lon="6.51654">
        <ele>66</ele>
        <time>2013-09-12T11:17:58.000Z</time>
      </trkpt>
      <trkpt lat="43.18232" lon="6.51651">
        <ele>66</ele>
        <time>2013-09-12T11:17:59.000Z</time>
      </trkpt>
      <trkpt lat="43.18231" lon="6.51648">
        <ele>66</ele>
        <time>2013-09-12T11:18:00.000Z</time>
      </trkpt>
      <trkpt lat="43.18231" lon="6.51645">
        <ele>66</ele>
        <time>2013-09-12T11:18:01.000Z</time>
      </trkpt>
      <trkpt lat="43.1823" lon="6.51642">
        <ele>66</ele>
        <time>2013-09-12T11:18:02.000Z</time>
      </trkpt>
      <trkpt lat="43.18229" lon="6.51639">
        <ele>66</ele>
        <time>2013-09-12T11:18:03.000Z</time>
      </trkpt>
      <trkpt lat="43.18229" lon="6.51637">
        <ele>66</ele>
        <time>2013-09-12T11:18:04.000Z</time>
      </trkpt>
      <trkpt lat="43.18228" lon="6.51634">
        <ele>66</ele>
        <time>2013-09-12T11:18:05.000Z</time>
      </trkpt>
      <trkpt lat="43.18227" lon="6.51632">
        <ele>66</ele>
        <time>2013-09-12T11:18:06.000Z</time>
      </trkpt>
      <trkpt lat="43.18226" lon="6.51629">
        <ele>66</ele>
        <time>2013-09-12T11:18:07.000Z</time>
      </trkpt>
      <trkpt lat="43.18224" lon="6.51626">
        <ele>66</ele>
        <time>2013-09-12T11:18:08.000Z</time>
      </trkpt>
      <trkpt lat="43.18223" lon="6.51623">
        <ele>66</ele>
        <time>2013-09-12T11:18:09.000Z</time>
      </trkpt>
      <trkpt lat="43.18221" lon="6.51621">
        <ele>66</ele>
        <time>2013-09-12T11:18:10.000Z</time>
      </trkpt>
      <trkpt lat="43.1822" lon="6.51618">
        <ele>66</ele>
        <time>2013-09-12T11:18:11.000Z</time>
      </trkpt>
      <trkpt lat="43.18218" lon="6.51615">
        <ele>66</ele>
        <time>2013-09-12T11:18:12.000Z</time>
      </trkpt>
      <trkpt lat="43.18216" lon="6.51611">
        <ele>66</ele>
        <time>2013-09-12T11:18:13.000Z</time>
      </trkpt>
      <trkpt lat="43.18214" lon="6.51607">
        <ele>66</ele>
        <time>2013-09-12T11:18:14.000Z</time>
      </trkpt>
      <trkpt lat="43.18212" lon="6.51601">
        <ele>66</ele>
        <time>2013-09-12T11:18:15.000Z</time>
      </trkpt>
      <trkpt lat="43.1821" lon="6.51595">
        <ele>66</ele>
        <time>2013-09-12T11:18:16.000Z</time>
      </trkpt>
      <trkpt lat="43.18207" lon="6.5159">
        <ele>66</ele>
        <time>2013-09-12T11:18:17.000Z</time>
      </trkpt>
      <trkpt lat="43.18205" lon="6.51584">
        <ele>66</ele>
        <time>2013-09-12T11:18:18.000Z</time>
      </trkpt>
      <trkpt lat="43.18203" lon="6.5158">
        <ele>69</ele>
        <time>2013-09-12T11:18:19.000Z</time>
      </trkpt>
      <trkpt lat="43.18201" lon="6.51575">
        <ele>68</ele>
        <time>2013-09-12T11:18:20.000Z</time>
      </trkpt>
      <trkpt lat="43.18198" lon="6.51573">
        <ele>68</ele>
        <time>2013-09-12T11:18:21.000Z</time>
      </trkpt>
      <trkpt lat="43.18195" lon="6.51573">
        <ele>68</ele>
        <time>2013-09-12T11:18:22.000Z</time>
      </trkpt>
      <trkpt lat="43.18193" lon="6.51574">
        <ele>67</ele>
        <time>2013-09-12T11:18:23.000Z</time>
      </trkpt>
      <trkpt lat="43.1819" lon="6.51576">
        <ele>67</ele>
        <time>2013-09-12T11:18:24.000Z</time>
      </trkpt>
      <trkpt lat="43.18187" lon="6.51581">
        <ele>66</ele>
        <time>2013-09-12T11:18:25.000Z</time>
      </trkpt>
      <trkpt lat="43.18186" lon="6.51586">
        <ele>64</ele>
        <time>2013-09-12T11:18:26.000Z</time>
      </trkpt>
      <trkpt lat="43.18185" lon="6.51591">
        <ele>64</ele>
        <time>2013-09-12T11:18:27.000Z</time>
      </trkpt>
      <trkpt lat="43.18184" lon="6.51598">
        <ele>64</ele>
        <time>2013-09-12T11:18:28.000Z</time>
      </trkpt>
      <trkpt lat="43.18182" lon="6.51605">
        <ele>64</ele>
        <time>2013-09-12T11:18:29.000Z</time>
      </trkpt>
      <trkpt lat="43.18179" lon="6.51611">
        <ele>64</ele>
        <time>2013-09-12T11:18:30.000Z</time>
      </trkpt>
      <trkpt lat="43.18176" lon="6.51619">
        <ele>63</ele>
        <time>2013-09-12T11:18:31.000Z</time>
      </trkpt>
      <trkpt lat="43.18174" lon="6.51628">
        <ele>63</ele>
        <time>2013-09-12T11:18:32.000Z</time>
      </trkpt>
      <trkpt lat="43.18172" lon="6.51636">
        <ele>62</ele>
        <time>2013-09-12T11:18:33.000Z</time>
      </trkpt>
      <trkpt lat="43.18171" lon="6.51644">
        <ele>62</ele>
        <time>2013-09-12T11:18:34.000Z</time>
      </trkpt>
      <trkpt lat="43.18169" lon="6.51651">
        <ele>61</ele>
        <time>2013-09-12T11:18:35.000Z</time>
      </trkpt>
      <trkpt lat="43.18168" lon="6.51658">
        <ele>59</ele>
        <time>2013-09-12T11:18:36.000Z</time>
      </trkpt>
      <trkpt lat="43.18167" lon="6.51665">
        <ele>58</ele>
        <time>2013-09-12T11:18:37.000Z</time>
      </trkpt>
      <trkpt lat="43.18165" lon="6.51673">
        <ele>56</ele>
        <time>2013-09-12T11:18:38.000Z</time>
      </trkpt>
      <trkpt lat="43.18164" lon="6.51681">
        <ele>55</ele>
        <time>2013-09-12T11:18:39.000Z</time>
      </trkpt>
      <trkpt lat="43.18164" lon="6.51689">
        <ele>54</ele>
        <time>2013-09-12T11:18:40.000Z</time>
      </trkpt>
      <trkpt lat="43.18162" lon="6.51698">
        <ele>53</ele>
        <time>2013-09-12T11:18:41.000Z</time>
      </trkpt>
      <trkpt lat="43.18162" lon="6.51708">
        <ele>53</ele>
        <time>2013-09-12T11:18:42.000Z</time>
      </trkpt>
      <trkpt lat="43.18161" lon="6.51718">
        <ele>52</ele>
        <time>2013-09-12T11:18:43.000Z</time>
      </trkpt>
      <trkpt lat="43.1816" lon="6.51727">
        <ele>51</ele>
        <time>2013-09-12T11:18:44.000Z</time>
      </trkpt>
      <trkpt lat="43.18159" lon="6.51736">
        <ele>51</ele>
        <time>2013-09-12T11:18:45.000Z</time>
      </trkpt>
      <trkpt lat="43.18159" lon="6.51744">
        <ele>51</ele>
        <time>2013-09-12T11:18:46.000Z</time>
      </trkpt>
      <trkpt lat="43.18158" lon="6.51752">
        <ele>49</ele>
        <time>2013-09-12T11:18:47.000Z</time>
      </trkpt>
      <trkpt lat="43.18158" lon="6.5176">
        <ele>49</ele>
        <time>2013-09-12T11:18:48.000Z</time>
      </trkpt>
      <trkpt lat="43.18157" lon="6.51767">
        <ele>48</ele>
        <time>2013-09-12T11:18:49.000Z</time>
      </trkpt>
      <trkpt lat="43.18156" lon="6.51776">
        <ele>48</ele>
        <time>2013-09-12T11:18:50.000Z</time>
      </trkpt>
      <trkpt lat="43.18155" lon="6.51785">
        <ele>47</ele>
        <time>2013-09-12T11:18:51.000Z</time>
      </trkpt>
      <trkpt lat="43.18154" lon="6.51794">
        <ele>47</ele>
        <time>2013-09-12T11:18:52.000Z</time>
      </trkpt>
      <trkpt lat="43.18151" lon="6.51802">
        <ele>47</ele>
        <time>2013-09-12T11:18:53.000Z</time>
      </trkpt>
      <trkpt lat="43.18149" lon="6.5181">
        <ele>47</ele>
        <time>2013-09-12T11:18:54.000Z</time>
      </trkpt>
      <trkpt lat="43.18146" lon="6.51817">
        <ele>46</ele>
        <time>2013-09-12T11:18:55.000Z</time>
      </trkpt>
      <trkpt lat="43.18143" lon="6.51824">
        <ele>46</ele>
        <time>2013-09-12T11:18:56.000Z</time>
      </trkpt>
      <trkpt lat="43.18139" lon="6.51831">
        <ele>46</ele>
        <time>2013-09-12T11:18:57.000Z</time>
      </trkpt>
      <trkpt lat="43.18134" lon="6.51836">
        <ele>45</ele>
        <time>2013-09-12T11:18:58.000Z</time>
      </trkpt>
      <trkpt lat="43.18128" lon="6.51841">
        <ele>45</ele>
        <time>2013-09-12T11:18:59.000Z</time>
      </trkpt>
      <trkpt lat="43.18123" lon="6.51847">
        <ele>45</ele>
        <time>2013-09-12T11:19:00.000Z</time>
      </trkpt>
      <trkpt lat="43.18117" lon="6.51853">
        <ele>45</ele>
        <time>2013-09-12T11:19:01.000Z</time>
      </trkpt>
      <trkpt lat="43.18112" lon="6.5186">
        <ele>45</ele>
        <time>2013-09-12T11:19:02.000Z</time>
      </trkpt>
      <trkpt lat="43.18108" lon="6.51868">
        <ele>44</ele>
        <time>2013-09-12T11:19:03.000Z</time>
      </trkpt>
      <trkpt lat="43.18103" lon="6.51877">
        <ele>44</ele>
        <time>2013-09-12T11:19:04.000Z</time>
      </trkpt>
      <trkpt lat="43.18098" lon="6.51886">
        <ele>44</ele>
        <time>2013-09-12T11:19:05.000Z</time>
      </trkpt>
      <trkpt lat="43.18093" lon="6.51896">
        <ele>43</ele>
        <time>2013-09-12T11:19:06.000Z</time>
      </trkpt>
      <trkpt lat="43.18088" lon="6.51905">
        <ele>43</ele>
        <time>2013-09-12T11:19:07.000Z</time>
      </trkpt>
      <trkpt lat="43.18084" lon="6.51914">
        <ele>42</ele>
        <time>2013-09-12T11:19:08.000Z</time>
      </trkpt>
      <trkpt lat="43.18079" lon="6.51922">
        <ele>42</ele>
        <time>2013-09-12T11:19:09.000Z</time>
      </trkpt>
      <trkpt lat="43.18075" lon="6.51931">
        <ele>42</ele>
        <time>2013-09-12T11:19:10.000Z</time>
      </trkpt>
      <trkpt lat="43.1807" lon="6.51939">
        <ele>43</ele>
        <time>2013-09-12T11:19:11.000Z</time>
      </trkpt>
      <trkpt lat="43.18066" lon="6.51947">
        <ele>43</ele>
        <time>2013-09-12T11:19:12.000Z</time>
      </trkpt>
      <trkpt lat="43.1806" lon="6.51954">
        <ele>43</ele>
        <time>2013-09-12T11:19:13.000Z</time>
      </trkpt>
      <trkpt lat="43.18055" lon="6.51962">
        <ele>43</ele>
        <time>2013-09-12T11:19:14.000Z</time>
      </trkpt>
      <trkpt lat="43.1805" lon="6.51969">
        <ele>43</ele>
        <time>2013-09-12T11:19:15.000Z</time>
      </trkpt>
      <trkpt lat="43.18045" lon="6.51977">
        <ele>43</ele>
        <time>2013-09-12T11:19:16.000Z</time>
      </trkpt>
      <trkpt lat="43.1804" lon="6.51985">
        <ele>43</ele>
        <time>2013-09-12T11:19:17.000Z</time>
      </trkpt>
      <trkpt lat="43.18035" lon="6.51993">
        <ele>43</ele>
        <time>2013-09-12T11:19:18.000Z</time>
      </trkpt>
      <trkpt lat="43.1803" lon="6.52001">
        <ele>41</ele>
        <time>2013-09-12T11:19:19.000Z</time>
      </trkpt>
      <trkpt lat="43.18025" lon="6.52009">
        <ele>41</ele>
        <time>2013-09-12T11:19:20.000Z</time>
      </trkpt>
      <trkpt lat="43.18021" lon="6.52018">
        <ele>41</ele>
        <time>2013-09-12T11:19:21.000Z</time>
      </trkpt>
      <trkpt lat="43.18018" lon="6.52026">
        <ele>41</ele>
        <time>2013-09-12T11:19:22.000Z</time>
      </trkpt>
      <trkpt lat="43.18014" lon="6.52035">
        <ele>40</ele>
        <time>2013-09-12T11:19:23.000Z</time>
      </trkpt>
      <trkpt lat="43.18011" lon="6.52043">
        <ele>40</ele>
        <time>2013-09-12T11:19:24.000Z</time>
      </trkpt>
      <trkpt lat="43.18008" lon="6.52051">
        <ele>39</ele>
        <time>2013-09-12T11:19:25.000Z</time>
      </trkpt>
      <trkpt lat="43.18005" lon="6.52059">
        <ele>39</ele>
        <time>2013-09-12T11:19:26.000Z</time>
      </trkpt>
      <trkpt lat="43.18001" lon="6.52066">
        <ele>38</ele>
        <time>2013-09-12T11:19:27.000Z</time>
      </trkpt>
      <trkpt lat="43.17998" lon="6.52074">
        <ele>38</ele>
        <time>2013-09-12T11:19:28.000Z</time>
      </trkpt>
      <trkpt lat="43.17994" lon="6.5208">
        <ele>38</ele>
        <time>2013-09-12T11:19:29.000Z</time>
      </trkpt>
      <trkpt lat="43.1799" lon="6.52087">
        <ele>37</ele>
        <time>2013-09-12T11:19:30.000Z</time>
      </trkpt>
      <trkpt lat="43.17986" lon="6.52093">
        <ele>37</ele>
        <time>2013-09-12T11:19:31.000Z</time>
      </trkpt>
      <trkpt lat="43.17982" lon="6.52098">
        <ele>37</ele>
        <time>2013-09-12T11:19:32.000Z</time>
      </trkpt>
      <trkpt lat="43.17977" lon="6.52103">
        <ele>37</ele>
        <time>2013-09-12T11:19:33.000Z</time>
      </trkpt>
      <trkpt lat="43.17972" lon="6.52107">
        <ele>37</ele>
        <time>2013-09-12T11:19:34.000Z</time>
      </trkpt>
      <trkpt lat="43.17968" lon="6.52111">
        <ele>37</ele>
        <time>2013-09-12T11:19:35.000Z</time>
      </trkpt>
      <trkpt lat="43.17963" lon="6.52115">
        <ele>37</ele>
        <time>2013-09-12T11:19:36.000Z</time>
      </trkpt>
      <trkpt lat="43.17947" lon="6.52125">
        <ele>37</ele>
        <time>2013-09-12T11:19:39.000Z</time>
      </trkpt>
      <trkpt lat="43.17955" lon="6.52111">
        <ele>38</ele>
        <time>2013-09-12T11:19:40.000Z</time>
      </trkpt>
      <trkpt lat="43.17946" lon="6.52118">
        <ele>38</ele>
        <time>2013-09-12T11:19:41.000Z</time>
      </trkpt>
      <trkpt lat="43.17939" lon="6.52123">
        <ele>38</ele>
        <time>2013-09-12T11:19:42.000Z</time>
      </trkpt>
      <trkpt lat="43.17932" lon="6.52128">
        <ele>38</ele>
        <time>2013-09-12T11:19:43.000Z</time>
      </trkpt>
      <trkpt lat="43.17925" lon="6.52133">
        <ele>38</ele>
        <time>2013-09-12T11:19:44.000Z</time>
      </trkpt>
      <trkpt lat="43.17918" lon="6.52137">
        <ele>37</ele>
        <time>2013-09-12T11:19:45.000Z</time>
      </trkpt>
      <trkpt lat="43.17912" lon="6.52142">
        <ele>40</ele>
        <time>2013-09-12T11:19:46.000Z</time>
      </trkpt>
      <trkpt lat="43.17906" lon="6.52146">
        <ele>39</ele>
        <time>2013-09-12T11:19:47.000Z</time>
      </trkpt>
      <trkpt lat="43.179" lon="6.52151">
        <ele>39</ele>
        <time>2013-09-12T11:19:48.000Z</time>
      </trkpt>
      <trkpt lat="43.17894" lon="6.52155">
        <ele>39</ele>
        <time>2013-09-12T11:19:49.000Z</time>
      </trkpt>
      <trkpt lat="43.17889" lon="6.52158">
        <ele>40</ele>
        <time>2013-09-12T11:19:50.000Z</time>
      </trkpt>
      <trkpt lat="43.17884" lon="6.52162">
        <ele>40</ele>
        <time>2013-09-12T11:19:51.000Z</time>
      </trkpt>
      <trkpt lat="43.17879" lon="6.52166">
        <ele>40</ele>
        <time>2013-09-12T11:19:52.000Z</time>
      </trkpt>
      <trkpt lat="43.17874" lon="6.5217">
        <ele>35</ele>
        <time>2013-09-12T11:19:53.000Z</time>
      </trkpt>
      <trkpt lat="43.17869" lon="6.52174">
        <ele>35</ele>
        <time>2013-09-12T11:19:54.000Z</time>
      </trkpt>
      <trkpt lat="43.17864" lon="6.52177">
        <ele>35</ele>
        <time>2013-09-12T11:19:55.000Z</time>
      </trkpt>
      <trkpt lat="43.17859" lon="6.52181">
        <ele>35</ele>
        <time>2013-09-12T11:19:56.000Z</time>
      </trkpt>
      <trkpt lat="43.17854" lon="6.52184">
        <ele>35</ele>
        <time>2013-09-12T11:19:57.000Z</time>
      </trkpt>
      <trkpt lat="43.17849" lon="6.52188">
        <ele>35</ele>
        <time>2013-09-12T11:19:58.000Z</time>
      </trkpt>
      <trkpt lat="43.17844" lon="6.52192">
        <ele>35</ele>
        <time>2013-09-12T11:19:59.000Z</time>
      </trkpt>
      <trkpt lat="43.17839" lon="6.52195">
        <ele>35</ele>
        <time>2013-09-12T11:20:00.000Z</time>
      </trkpt>
      <trkpt lat="43.17834" lon="6.52199">
        <ele>35</ele>
        <time>2013-09-12T11:20:01.000Z</time>
      </trkpt>
      <trkpt lat="43.1783" lon="6.52203">
        <ele>36</ele>
        <time>2013-09-12T11:20:02.000Z</time>
      </trkpt>
      <trkpt lat="43.17825" lon="6.52206">
        <ele>36</ele>
        <time>2013-09-12T11:20:03.000Z</time>
      </trkpt>
      <trkpt lat="43.1782" lon="6.52209">
        <ele>36</ele>
        <time>2013-09-12T11:20:04.000Z</time>
      </trkpt>
      <trkpt lat="43.17816" lon="6.52213">
        <ele>36</ele>
        <time>2013-09-12T11:20:05.000Z</time>
      </trkpt>
      <trkpt lat="43.17811" lon="6.52216">
        <ele>36</ele>
        <time>2013-09-12T11:20:06.000Z</time>
      </trkpt>
      <trkpt lat="43.17807" lon="6.52219">
        <ele>36</ele>
        <time>2013-09-12T11:20:07.000Z</time>
      </trkpt>
      <trkpt lat="43.17802" lon="6.52222">
        <ele>36</ele>
        <time>2013-09-12T11:20:08.000Z</time>
      </trkpt>
      <trkpt lat="43.17798" lon="6.52226">
        <ele>36</ele>
        <time>2013-09-12T11:20:09.000Z</time>
      </trkpt>
      <trkpt lat="43.17793" lon="6.52229">
        <ele>36</ele>
        <time>2013-09-12T11:20:10.000Z</time>
      </trkpt>
      <trkpt lat="43.17788" lon="6.52233">
        <ele>36</ele>
        <time>2013-09-12T11:20:11.000Z</time>
      </trkpt>
      <trkpt lat="43.17783" lon="6.52236">
        <ele>36</ele>
        <time>2013-09-12T11:20:12.000Z</time>
      </trkpt>
      <trkpt lat="43.17779" lon="6.5224">
        <ele>36</ele>
        <time>2013-09-12T11:20:13.000Z</time>
      </trkpt>
      <trkpt lat="43.17774" lon="6.52244">
        <ele>36</ele>
        <time>2013-09-12T11:20:14.000Z</time>
      </trkpt>
      <trkpt lat="43.17769" lon="6.52248">
        <ele>35</ele>
        <time>2013-09-12T11:20:15.000Z</time>
      </trkpt>
      <trkpt lat="43.17764" lon="6.52252">
        <ele>33</ele>
        <time>2013-09-12T11:20:16.000Z</time>
      </trkpt>
      <trkpt lat="43.17759" lon="6.52256">
        <ele>33</ele>
        <time>2013-09-12T11:20:17.000Z</time>
      </trkpt>
      <trkpt lat="43.17753" lon="6.52261">
        <ele>33</ele>
        <time>2013-09-12T11:20:18.000Z</time>
      </trkpt>
      <trkpt lat="43.17748" lon="6.52266">
        <ele>35</ele>
        <time>2013-09-12T11:20:19.000Z</time>
      </trkpt>
      <trkpt lat="43.17743" lon="6.5227">
        <ele>35</ele>
        <time>2013-09-12T11:20:20.000Z</time>
      </trkpt>
      <trkpt lat="43.17738" lon="6.52275">
        <ele>35</ele>
        <time>2013-09-12T11:20:21.000Z</time>
      </trkpt>
      <trkpt lat="43.17733" lon="6.52279">
        <ele>35</ele>
        <time>2013-09-12T11:20:22.000Z</time>
      </trkpt>
      <trkpt lat="43.17728" lon="6.52284">
        <ele>35</ele>
        <time>2013-09-12T11:20:23.000Z</time>
      </trkpt>
      <trkpt lat="43.17723" lon="6.52289">
        <ele>35</ele>
        <time>2013-09-12T11:20:24.000Z</time>
      </trkpt>
      <trkpt lat="43.17719" lon="6.52294">
        <ele>35</ele>
        <time>2013-09-12T11:20:25.000Z</time>
      </trkpt>
      <trkpt lat="43.17714" lon="6.523">
        <ele>35</ele>
        <time>2013-09-12T11:20:26.000Z</time>
      </trkpt>
      <trkpt lat="43.1771" lon="6.52307">
        <ele>35</ele>
        <time>2013-09-12T11:20:27.000Z</time>
      </trkpt>
      <trkpt lat="43.17705" lon="6.52313">
        <ele>35</ele>
        <time>2013-09-12T11:20:28.000Z</time>
      </trkpt>
      <trkpt lat="43.17701" lon="6.52321">
        <ele>35</ele>
        <time>2013-09-12T11:20:29.000Z</time>
      </trkpt>
      <trkpt lat="43.17697" lon="6.52328">
        <ele>35</ele>
        <time>2013-09-12T11:20:30.000Z</time>
      </trkpt>
      <trkpt lat="43.17693" lon="6.52335">
        <ele>32</ele>
        <time>2013-09-12T11:20:31.000Z</time>
      </trkpt>
      <trkpt lat="43.17689" lon="6.52341">
        <ele>32</ele>
        <time>2013-09-12T11:20:32.000Z</time>
      </trkpt>
      <trkpt lat="43.17686" lon="6.52347">
        <ele>32</ele>
        <time>2013-09-12T11:20:33.000Z</time>
      </trkpt>
      <trkpt lat="43.17682" lon="6.52353">
        <ele>32</ele>
        <time>2013-09-12T11:20:34.000Z</time>
      </trkpt>
      <trkpt lat="43.17678" lon="6.5236">
        <ele>31</ele>
        <time>2013-09-12T11:20:35.000Z</time>
      </trkpt>
      <trkpt lat="43.17675" lon="6.52366">
        <ele>31</ele>
        <time>2013-09-12T11:20:36.000Z</time>
      </trkpt>
      <trkpt lat="43.17671" lon="6.52372">
        <ele>31</ele>
        <time>2013-09-12T11:20:37.000Z</time>
      </trkpt>
      <trkpt lat="43.17668" lon="6.52377">
        <ele>30</ele>
        <time>2013-09-12T11:20:38.000Z</time>
      </trkpt>
      <trkpt lat="43.17665" lon="6.52383">
        <ele>33</ele>
        <time>2013-09-12T11:20:39.000Z</time>
      </trkpt>
      <trkpt lat="43.17662" lon="6.52389">
        <ele>32</ele>
        <time>2013-09-12T11:20:40.000Z</time>
      </trkpt>
      <trkpt lat="43.17659" lon="6.52394">
        <ele>32</ele>
        <time>2013-09-12T11:20:41.000Z</time>
      </trkpt>
      <trkpt lat="43.17655" lon="6.52399">
        <ele>32</ele>
        <time>2013-09-12T11:20:42.000Z</time>
      </trkpt>
      <trkpt lat="43.1765" lon="6.52402">
        <ele>32</ele>
        <time>2013-09-12T11:20:43.000Z</time>
      </trkpt>
      <trkpt lat="43.17646" lon="6.52405">
        <ele>32</ele>
        <time>2013-09-12T11:20:44.000Z</time>
      </trkpt>
      <trkpt lat="43.17643" lon="6.52411">
        <ele>32</ele>
        <time>2013-09-12T11:20:45.000Z</time>
      </trkpt>
      <trkpt lat="43.1764" lon="6.52417">
        <ele>27</ele>
        <time>2013-09-12T11:20:46.000Z</time>
      </trkpt>
      <trkpt lat="43.17636" lon="6.52424">
        <ele>27</ele>
        <time>2013-09-12T11:20:47.000Z</time>
      </trkpt>
      <trkpt lat="43.17632" lon="6.5243">
        <ele>27</ele>
        <time>2013-09-12T11:20:48.000Z</time>
      </trkpt>
      <trkpt lat="43.17626" lon="6.52436">
        <ele>27</ele>
        <time>2013-09-12T11:20:49.000Z</time>
      </trkpt>
      <trkpt lat="43.17621" lon="6.52442">
        <ele>27</ele>
        <time>2013-09-12T11:20:50.000Z</time>
      </trkpt>
      <trkpt lat="43.17615" lon="6.52447">
        <ele>27</ele>
        <time>2013-09-12T11:20:51.000Z</time>
      </trkpt>
      <trkpt lat="43.1761" lon="6.52453">
        <ele>27</ele>
        <time>2013-09-12T11:20:52.000Z</time>
      </trkpt>
      <trkpt lat="43.17606" lon="6.52459">
        <ele>26</ele>
        <time>2013-09-12T11:20:53.000Z</time>
      </trkpt>
      <trkpt lat="43.17602" lon="6.52465">
        <ele>26</ele>
        <time>2013-09-12T11:20:54.000Z</time>
      </trkpt>
      <trkpt lat="43.17598" lon="6.52471">
        <ele>26</ele>
        <time>2013-09-12T11:20:55.000Z</time>
      </trkpt>
      <trkpt lat="43.17595" lon="6.52477">
        <ele>25</ele>
        <time>2013-09-12T11:20:56.000Z</time>
      </trkpt>
      <trkpt lat="43.17591" lon="6.52484">
        <ele>25</ele>
        <time>2013-09-12T11:20:57.000Z</time>
      </trkpt>
      <trkpt lat="43.17588" lon="6.52489">
        <ele>24</ele>
        <time>2013-09-12T11:20:58.000Z</time>
      </trkpt>
      <trkpt lat="43.17584" lon="6.52495">
        <ele>23</ele>
        <time>2013-09-12T11:20:59.000Z</time>
      </trkpt>
      <trkpt lat="43.1758" lon="6.525">
        <ele>22</ele>
        <time>2013-09-12T11:21:00.000Z</time>
      </trkpt>
      <trkpt lat="43.17576" lon="6.52505">
        <ele>21</ele>
        <time>2013-09-12T11:21:01.000Z</time>
      </trkpt>
      <trkpt lat="43.17571" lon="6.52511">
        <ele>21</ele>
        <time>2013-09-12T11:21:02.000Z</time>
      </trkpt>
      <trkpt lat="43.17566" lon="6.52515">
        <ele>21</ele>
        <time>2013-09-12T11:21:03.000Z</time>
      </trkpt>
      <trkpt lat="43.1756" lon="6.52519">
        <ele>21</ele>
        <time>2013-09-12T11:21:04.000Z</time>
      </trkpt>
      <trkpt lat="43.17554" lon="6.52522">
        <ele>21</ele>
        <time>2013-09-12T11:21:05.000Z</time>
      </trkpt>
      <trkpt lat="43.17547" lon="6.52524">
        <ele>21</ele>
        <time>2013-09-12T11:21:06.000Z</time>
      </trkpt>
      <trkpt lat="43.1754" lon="6.52524">
        <ele>21</ele>
        <time>2013-09-12T11:21:07.000Z</time>
      </trkpt>
      <trkpt lat="43.17534" lon="6.52525">
        <ele>21</ele>
        <time>2013-09-12T11:21:08.000Z</time>
      </trkpt>
      <trkpt lat="43.17523" lon="6.52525">
        <ele>21</ele>
        <time>2013-09-12T11:21:10.000Z</time>
      </trkpt>
      <trkpt lat="43.17518" lon="6.52525">
        <ele>21</ele>
        <time>2013-09-12T11:21:11.000Z</time>
      </trkpt>
      <trkpt lat="43.17513" lon="6.52526">
        <ele>21</ele>
        <time>2013-09-12T11:21:12.000Z</time>
      </trkpt>
      <trkpt lat="43.17508" lon="6.52526">
        <ele>21</ele>
        <time>2013-09-12T11:21:13.000Z</time>
      </trkpt>
      <trkpt lat="43.17503" lon="6.52527">
        <ele>21</ele>
        <time>2013-09-12T11:21:14.000Z</time>
      </trkpt>
      <trkpt lat="43.17498" lon="6.52527">
        <ele>21</ele>
        <time>2013-09-12T11:21:15.000Z</time>
      </trkpt>
      <trkpt lat="43.17494" lon="6.52528">
        <ele>21</ele>
        <time>2013-09-12T11:21:16.000Z</time>
      </trkpt>
      <trkpt lat="43.1749" lon="6.52528">
        <ele>21</ele>
        <time>2013-09-12T11:21:17.000Z</time>
      </trkpt>
      <trkpt lat="43.17486" lon="6.52527">
        <ele>21</ele>
        <time>2013-09-12T11:21:18.000Z</time>
      </trkpt>
      <trkpt lat="43.17482" lon="6.52525">
        <ele>21</ele>
        <time>2013-09-12T11:21:19.000Z</time>
      </trkpt>
      <trkpt lat="43.17479" lon="6.52523">
        <ele>21</ele>
        <time>2013-09-12T11:21:20.000Z</time>
      </trkpt>
      <trkpt lat="43.17477" lon="6.5252">
        <ele>21</ele>
        <time>2013-09-12T11:21:21.000Z</time>
      </trkpt>
      <trkpt lat="43.17473" lon="6.52519">
        <ele>21</ele>
        <time>2013-09-12T11:21:22.000Z</time>
      </trkpt>
      <trkpt lat="43.1747" lon="6.52519">
        <ele>21</ele>
        <time>2013-09-12T11:21:23.000Z</time>
      </trkpt>
      <trkpt lat="43.17467" lon="6.52521">
        <ele>21</ele>
        <time>2013-09-12T11:21:24.000Z</time>
      </trkpt>
      <trkpt lat="43.17465" lon="6.52525">
        <ele>21</ele>
        <time>2013-09-12T11:21:25.000Z</time>
      </trkpt>
      <trkpt lat="43.17462" lon="6.5253">
        <ele>20</ele>
        <time>2013-09-12T11:21:26.000Z</time>
      </trkpt>
      <trkpt lat="43.17461" lon="6.52535">
        <ele>20</ele>
        <time>2013-09-12T11:21:27.000Z</time>
      </trkpt>
      <trkpt lat="43.17459" lon="6.52539">
        <ele>20</ele>
        <time>2013-09-12T11:21:28.000Z</time>
      </trkpt>
      <trkpt lat="43.17458" lon="6.52544">
        <ele>20</ele>
        <time>2013-09-12T11:21:29.000Z</time>
      </trkpt>
      <trkpt lat="43.17456" lon="6.52549">
        <ele>20</ele>
        <time>2013-09-12T11:21:30.000Z</time>
      </trkpt>
      <trkpt lat="43.17455" lon="6.52554">
        <ele>20</ele>
        <time>2013-09-12T11:21:31.000Z</time>
      </trkpt>
      <trkpt lat="43.17454" lon="6.5256">
        <ele>20</ele>
        <time>2013-09-12T11:21:32.000Z</time>
      </trkpt>
      <trkpt lat="43.17453" lon="6.52565">
        <ele>20</ele>
        <time>2013-09-12T11:21:33.000Z</time>
      </trkpt>
      <trkpt lat="43.17451" lon="6.52571">
        <ele>20</ele>
        <time>2013-09-12T11:21:34.000Z</time>
      </trkpt>
      <trkpt lat="43.17449" lon="6.52577">
        <ele>20</ele>
        <time>2013-09-12T11:21:35.000Z</time>
      </trkpt>
      <trkpt lat="43.17447" lon="6.52583">
        <ele>20</ele>
        <time>2013-09-12T11:21:36.000Z</time>
      </trkpt>
      <trkpt lat="43.17445" lon="6.52588">
        <ele>18</ele>
        <time>2013-09-12T11:21:37.000Z</time>
      </trkpt>
      <trkpt lat="43.17444" lon="6.52594">
        <ele>18</ele>
        <time>2013-09-12T11:21:38.000Z</time>
      </trkpt>
      <trkpt lat="43.17442" lon="6.526">
        <ele>18</ele>
        <time>2013-09-12T11:21:39.000Z</time>
      </trkpt>
      <trkpt lat="43.1744" lon="6.52606">
        <ele>18</ele>
        <time>2013-09-12T11:21:40.000Z</time>
      </trkpt>
      <trkpt lat="43.17438" lon="6.52612">
        <ele>18</ele>
        <time>2013-09-12T11:21:41.000Z</time>
      </trkpt>
      <trkpt lat="43.17436" lon="6.52618">
        <ele>18</ele>
        <time>2013-09-12T11:21:42.000Z</time>
      </trkpt>
      <trkpt lat="43.17434" lon="6.52624">
        <ele>17</ele>
        <time>2013-09-12T11:21:43.000Z</time>
      </trkpt>
      <trkpt lat="43.17432" lon="6.52629">
        <ele>17</ele>
        <time>2013-09-12T11:21:44.000Z</time>
      </trkpt>
      <trkpt lat="43.1743" lon="6.52636">
        <ele>17</ele>
        <time>2013-09-12T11:21:45.000Z</time>
      </trkpt>
      <trkpt lat="43.17427" lon="6.52643">
        <ele>17</ele>
        <time>2013-09-12T11:21:46.000Z</time>
      </trkpt>
      <trkpt lat="43.17425" lon="6.5265">
        <ele>17</ele>
        <time>2013-09-12T11:21:47.000Z</time>
      </trkpt>
      <trkpt lat="43.17423" lon="6.52657">
        <ele>16</ele>
        <time>2013-09-12T11:21:48.000Z</time>
      </trkpt>
      <trkpt lat="43.1742" lon="6.52665">
        <ele>16</ele>
        <time>2013-09-12T11:21:49.000Z</time>
      </trkpt>
      <trkpt lat="43.17418" lon="6.52672">
        <ele>16</ele>
        <time>2013-09-12T11:21:50.000Z</time>
      </trkpt>
      <trkpt lat="43.17416" lon="6.5268">
        <ele>15</ele>
        <time>2013-09-12T11:21:51.000Z</time>
      </trkpt>
      <trkpt lat="43.17414" lon="6.52688">
        <ele>15</ele>
        <time>2013-09-12T11:21:52.000Z</time>
      </trkpt>
      <trkpt lat="43.17412" lon="6.52696">
        <ele>14</ele>
        <time>2013-09-12T11:21:53.000Z</time>
      </trkpt>
      <trkpt lat="43.1741" lon="6.52704">
        <ele>14</ele>
        <time>2013-09-12T11:21:54.000Z</time>
      </trkpt>
      <trkpt lat="43.17409" lon="6.52711">
        <ele>14</ele>
        <time>2013-09-12T11:21:55.000Z</time>
      </trkpt>
      <trkpt lat="43.17407" lon="6.52717">
        <ele>14</ele>
        <time>2013-09-12T11:21:56.000Z</time>
      </trkpt>
      <trkpt lat="43.17406" lon="6.52724">
        <ele>14</ele>
        <time>2013-09-12T11:21:57.000Z</time>
      </trkpt>
      <trkpt lat="43.17405" lon="6.52731">
        <ele>14</ele>
        <time>2013-09-12T11:21:58.000Z</time>
      </trkpt>
      <trkpt lat="43.17403" lon="6.52739">
        <ele>14</ele>
        <time>2013-09-12T11:21:59.000Z</time>
      </trkpt>
      <trkpt lat="43.17401" lon="6.52746">
        <ele>14</ele>
        <time>2013-09-12T11:22:00.000Z</time>
      </trkpt>
      <trkpt lat="43.174" lon="6.52754">
        <ele>13</ele>
        <time>2013-09-12T11:22:01.000Z</time>
      </trkpt>
      <trkpt lat="43.17398" lon="6.52761">
        <ele>13</ele>
        <time>2013-09-12T11:22:02.000Z</time>
      </trkpt>
      <trkpt lat="43.17397" lon="6.52769">
        <ele>13</ele>
        <time>2013-09-12T11:22:03.000Z</time>
      </trkpt>
      <trkpt lat="43.17395" lon="6.52777">
        <ele>12</ele>
        <time>2013-09-12T11:22:04.000Z</time>
      </trkpt>
      <trkpt lat="43.17394" lon="6.52785">
        <ele>12</ele>
        <time>2013-09-12T11:22:05.000Z</time>
      </trkpt>
      <trkpt lat="43.17392" lon="6.52793">
        <ele>12</ele>
        <time>2013-09-12T11:22:06.000Z</time>
      </trkpt>
      <trkpt lat="43.17391" lon="6.52801">
        <ele>12</ele>
        <time>2013-09-12T11:22:07.000Z</time>
      </trkpt>
      <trkpt lat="43.17389" lon="6.52809">
        <ele>12</ele>
        <time>2013-09-12T11:22:08.000Z</time>
      </trkpt>
      <trkpt lat="43.17388" lon="6.52818">
        <ele>12</ele>
        <time>2013-09-12T11:22:09.000Z</time>
      </trkpt>
      <trkpt lat="43.17386" lon="6.52827">
        <ele>12</ele>
        <time>2013-09-12T11:22:10.000Z</time>
      </trkpt>
      <trkpt lat="43.17385" lon="6.52835">
        <ele>12</ele>
        <time>2013-09-12T11:22:11.000Z</time>
      </trkpt>
      <trkpt lat="43.17382" lon="6.52844">
        <ele>12</ele>
        <time>2013-09-12T11:22:12.000Z</time>
      </trkpt>
      <trkpt lat="43.1738" lon="6.52852">
        <ele>12</ele>
        <time>2013-09-12T11:22:13.000Z</time>
      </trkpt>
      <trkpt lat="43.17377" lon="6.5286">
        <ele>12</ele>
        <time>2013-09-12T11:22:14.000Z</time>
      </trkpt>
      <trkpt lat="43.17374" lon="6.52869">
        <ele>12</ele>
        <time>2013-09-12T11:22:15.000Z</time>
      </trkpt>
      <trkpt lat="43.17371" lon="6.52877">
        <ele>12</ele>
        <time>2013-09-12T11:22:16.000Z</time>
      </trkpt>
      <trkpt lat="43.17368" lon="6.52883">
        <ele>12</ele>
        <time>2013-09-12T11:22:17.000Z</time>
      </trkpt>
      <trkpt lat="43.17365" lon="6.52889">
        <ele>12</ele>
        <time>2013-09-12T11:22:18.000Z</time>
      </trkpt>
      <trkpt lat="43.17362" lon="6.52894">
        <ele>12</ele>
        <time>2013-09-12T11:22:19.000Z</time>
      </trkpt>
      <trkpt lat="43.17358" lon="6.52897">
        <ele>12</ele>
        <time>2013-09-12T11:22:20.000Z</time>
      </trkpt>
      <trkpt lat="43.17354" lon="6.52898">
        <ele>12</ele>
        <time>2013-09-12T11:22:21.000Z</time>
      </trkpt>
      <trkpt lat="43.17351" lon="6.52898">
        <ele>12</ele>
        <time>2013-09-12T11:22:22.000Z</time>
      </trkpt>
      <trkpt lat="43.17347" lon="6.52897">
        <ele>12</ele>
        <time>2013-09-12T11:22:23.000Z</time>
      </trkpt>
      <trkpt lat="43.17343" lon="6.52894">
        <ele>12</ele>
        <time>2013-09-12T11:22:24.000Z</time>
      </trkpt>
      <trkpt lat="43.17339" lon="6.5289">
        <ele>12</ele>
        <time>2013-09-12T11:22:25.000Z</time>
      </trkpt>
      <trkpt lat="43.17336" lon="6.52886">
        <ele>12</ele>
        <time>2013-09-12T11:22:26.000Z</time>
      </trkpt>
      <trkpt lat="43.17333" lon="6.52882">
        <ele>11</ele>
        <time>2013-09-12T11:22:27.000Z</time>
      </trkpt>
      <trkpt lat="43.1733" lon="6.52877">
        <ele>11</ele>
        <time>2013-09-12T11:22:28.000Z</time>
      </trkpt>
      <trkpt lat="43.17327" lon="6.52873">
        <ele>11</ele>
        <time>2013-09-12T11:22:29.000Z</time>
      </trkpt>
      <trkpt lat="43.17324" lon="6.52868">
        <ele>11</ele>
        <time>2013-09-12T11:22:30.000Z</time>
      </trkpt>
      <trkpt lat="43.17321" lon="6.52864">
        <ele>11</ele>
        <time>2013-09-12T11:22:31.000Z</time>
      </trkpt>
      <trkpt lat="43.17318" lon="6.5286">
        <ele>11</ele>
        <time>2013-09-12T11:22:32.000Z</time>
      </trkpt>
      <trkpt lat="43.17315" lon="6.52856">
        <ele>11</ele>
        <time>2013-09-12T11:22:33.000Z</time>
      </trkpt>
      <trkpt lat="43.17312" lon="6.52851">
        <ele>11</ele>
        <time>2013-09-12T11:22:34.000Z</time>
      </trkpt>
      <trkpt lat="43.17309" lon="6.52847">
        <ele>11</ele>
        <time>2013-09-12T11:22:35.000Z</time>
      </trkpt>
      <trkpt lat="43.17306" lon="6.52843">
        <ele>11</ele>
        <time>2013-09-12T11:22:36.000Z</time>
      </trkpt>
      <trkpt lat="43.17304" lon="6.52839">
        <ele>11</ele>
        <time>2013-09-12T11:22:37.000Z</time>
      </trkpt>
      <trkpt lat="43.17301" lon="6.52835">
        <ele>11</ele>
        <time>2013-09-12T11:22:38.000Z</time>
      </trkpt>
      <trkpt lat="43.17299" lon="6.5283">
        <ele>12</ele>
        <time>2013-09-12T11:22:39.000Z</time>
      </trkpt>
      <trkpt lat="43.17297" lon="6.52825">
        <ele>12</ele>
        <time>2013-09-12T11:22:40.000Z</time>
      </trkpt>
      <trkpt lat="43.17296" lon="6.52819">
        <ele>12</ele>
        <time>2013-09-12T11:22:41.000Z</time>
      </trkpt>
      <trkpt lat="43.17295" lon="6.52813">
        <ele>12</ele>
        <time>2013-09-12T11:22:42.000Z</time>
      </trkpt>
      <trkpt lat="43.17294" lon="6.52807">
        <ele>12</ele>
        <time>2013-09-12T11:22:43.000Z</time>
      </trkpt>
      <trkpt lat="43.17294" lon="6.52802">
        <ele>12</ele>
        <time>2013-09-12T11:22:44.000Z</time>
      </trkpt>
      <trkpt lat="43.17295" lon="6.52796">
        <ele>12</ele>
        <time>2013-09-12T11:22:45.000Z</time>
      </trkpt>
      <trkpt lat="43.17295" lon="6.52791">
        <ele>12</ele>
        <time>2013-09-12T11:22:46.000Z</time>
      </trkpt>
      <trkpt lat="43.17295" lon="6.52778">
        <ele>12</ele>
        <time>2013-09-12T11:22:48.000Z</time>
      </trkpt>
      <trkpt lat="43.17294" lon="6.52772">
        <ele>12</ele>
        <time>2013-09-12T11:22:49.000Z</time>
      </trkpt>
      <trkpt lat="43.17293" lon="6.52766">
        <ele>12</ele>
        <time>2013-09-12T11:22:50.000Z</time>
      </trkpt>
      <trkpt lat="43.17292" lon="6.5276">
        <ele>12</ele>
        <time>2013-09-12T11:22:51.000Z</time>
      </trkpt>
      <trkpt lat="43.17291" lon="6.52754">
        <ele>12</ele>
        <time>2013-09-12T11:22:52.000Z</time>
      </trkpt>
      <trkpt lat="43.17289" lon="6.52748">
        <ele>13</ele>
        <time>2013-09-12T11:22:53.000Z</time>
      </trkpt>
      <trkpt lat="43.17288" lon="6.52742">
        <ele>13</ele>
        <time>2013-09-12T11:22:54.000Z</time>
      </trkpt>
      <trkpt lat="43.17286" lon="6.52737">
        <ele>13</ele>
        <time>2013-09-12T11:22:55.000Z</time>
      </trkpt>
      <trkpt lat="43.17284" lon="6.52731">
        <ele>13</ele>
        <time>2013-09-12T11:22:56.000Z</time>
      </trkpt>
      <trkpt lat="43.17282" lon="6.52725">
        <ele>13</ele>
        <time>2013-09-12T11:22:57.000Z</time>
      </trkpt>
      <trkpt lat="43.1728" lon="6.5272">
        <ele>13</ele>
        <time>2013-09-12T11:22:58.000Z</time>
      </trkpt>
      <trkpt lat="43.17278" lon="6.52715">
        <ele>14</ele>
        <time>2013-09-12T11:22:59.000Z</time>
      </trkpt>
      <trkpt lat="43.17276" lon="6.52709">
        <ele>14</ele>
        <time>2013-09-12T11:23:00.000Z</time>
      </trkpt>
      <trkpt lat="43.17274" lon="6.52704">
        <ele>14</ele>
        <time>2013-09-12T11:23:01.000Z</time>
      </trkpt>
      <trkpt lat="43.17272" lon="6.52699">
        <ele>14</ele>
        <time>2013-09-12T11:23:02.000Z</time>
      </trkpt>
      <trkpt lat="43.17271" lon="6.52693">
        <ele>14</ele>
        <time>2013-09-12T11:23:03.000Z</time>
      </trkpt>
      <trkpt lat="43.17269" lon="6.52689">
        <ele>14</ele>
        <time>2013-09-12T11:23:04.000Z</time>
      </trkpt>
      <trkpt lat="43.17267" lon="6.52684">
        <ele>14</ele>
        <time>2013-09-12T11:23:05.000Z</time>
      </trkpt>
      <trkpt lat="43.17265" lon="6.5268">
        <ele>15</ele>
        <time>2013-09-12T11:23:06.000Z</time>
      </trkpt>
      <trkpt lat="43.17263" lon="6.52676">
        <ele>15</ele>
        <time>2013-09-12T11:23:07.000Z</time>
      </trkpt>
      <trkpt lat="43.17262" lon="6.52672">
        <ele>15</ele>
        <time>2013-09-12T11:23:08.000Z</time>
      </trkpt>
      <trkpt lat="43.1726" lon="6.52669">
        <ele>15</ele>
        <time>2013-09-12T11:23:09.000Z</time>
      </trkpt>
      <trkpt lat="43.17258" lon="6.52665">
        <ele>16</ele>
        <time>2013-09-12T11:23:10.000Z</time>
      </trkpt>
      <trkpt lat="43.17257" lon="6.52662">
        <ele>16</ele>
        <time>2013-09-12T11:23:11.000Z</time>
      </trkpt>
      <trkpt lat="43.17256" lon="6.52659">
        <ele>16</ele>
        <time>2013-09-12T11:23:12.000Z</time>
      </trkpt>
      <trkpt lat="43.17254" lon="6.52656">
        <ele>16</ele>
        <time>2013-09-12T11:23:13.000Z</time>
      </trkpt>
      <trkpt lat="43.17252" lon="6.52653">
        <ele>16</ele>
        <time>2013-09-12T11:23:14.000Z</time>
      </trkpt>
      <trkpt lat="43.1725" lon="6.52651">
        <ele>17</ele>
        <time>2013-09-12T11:23:15.000Z</time>
      </trkpt>
      <trkpt lat="43.17248" lon="6.52648">
        <ele>17</ele>
        <time>2013-09-12T11:23:16.000Z</time>
      </trkpt>
      <trkpt lat="43.17245" lon="6.52646">
        <ele>17</ele>
        <time>2013-09-12T11:23:17.000Z</time>
      </trkpt>
      <trkpt lat="43.17243" lon="6.52643">
        <ele>17</ele>
        <time>2013-09-12T11:23:18.000Z</time>
      </trkpt>
      <trkpt lat="43.17241" lon="6.5264">
        <ele>17</ele>
        <time>2013-09-12T11:23:19.000Z</time>
      </trkpt>
      <trkpt lat="43.17238" lon="6.52638">
        <ele>17</ele>
        <time>2013-09-12T11:23:20.000Z</time>
      </trkpt>
      <trkpt lat="43.17236" lon="6.52636">
        <ele>17</ele>
        <time>2013-09-12T11:23:21.000Z</time>
      </trkpt>
      <trkpt lat="43.17234" lon="6.52634">
        <ele>17</ele>
        <time>2013-09-12T11:23:22.000Z</time>
      </trkpt>
      <trkpt lat="43.17232" lon="6.52632">
        <ele>17</ele>
        <time>2013-09-12T11:23:23.000Z</time>
      </trkpt>
      <trkpt lat="43.17229" lon="6.5263">
        <ele>17</ele>
        <time>2013-09-12T11:23:24.000Z</time>
      </trkpt>
      <trkpt lat="43.17227" lon="6.52628">
        <ele>17</ele>
        <time>2013-09-12T11:23:25.000Z</time>
      </trkpt>
      <trkpt lat="43.17225" lon="6.52626">
        <ele>17</ele>
        <time>2013-09-12T11:23:26.000Z</time>
      </trkpt>
      <trkpt lat="43.17223" lon="6.52625">
        <ele>18</ele>
        <time>2013-09-12T11:23:27.000Z</time>
      </trkpt>
      <trkpt lat="43.17222" lon="6.52623">
        <ele>18</ele>
        <time>2013-09-12T11:23:28.000Z</time>
      </trkpt>
      <trkpt lat="43.1722" lon="6.52621">
        <ele>18</ele>
        <time>2013-09-12T11:23:29.000Z</time>
      </trkpt>
      <trkpt lat="43.17218" lon="6.52619">
        <ele>18</ele>
        <time>2013-09-12T11:23:30.000Z</time>
      </trkpt>
      <trkpt lat="43.17216" lon="6.52617">
        <ele>18</ele>
        <time>2013-09-12T11:23:31.000Z</time>
      </trkpt>
      <trkpt lat="43.17214" lon="6.52615">
        <ele>18</ele>
        <time>2013-09-12T11:23:32.000Z</time>
      </trkpt>
      <trkpt lat="43.17212" lon="6.52613">
        <ele>18</ele>
        <time>2013-09-12T11:23:33.000Z</time>
      </trkpt>
      <trkpt lat="43.1721" lon="6.52611">
        <ele>18</ele>
        <time>2013-09-12T11:23:34.000Z</time>
      </trkpt>
      <trkpt lat="43.17208" lon="6.5261">
        <ele>18</ele>
        <time>2013-09-12T11:23:35.000Z</time>
      </trkpt>
      <trkpt lat="43.17206" lon="6.52608">
        <ele>18</ele>
        <time>2013-09-12T11:23:36.000Z</time>
      </trkpt>
      <trkpt lat="43.17204" lon="6.52606">
        <ele>18</ele>
        <time>2013-09-12T11:23:37.000Z</time>
      </trkpt>
      <trkpt lat="43.17202" lon="6.52604">
        <ele>18</ele>
        <time>2013-09-12T11:23:38.000Z</time>
      </trkpt>
      <trkpt lat="43.172" lon="6.52602">
        <ele>18</ele>
        <time>2013-09-12T11:23:39.000Z</time>
      </trkpt>
      <trkpt lat="43.17198" lon="6.526">
        <ele>18</ele>
        <time>2013-09-12T11:23:40.000Z</time>
      </trkpt>
      <trkpt lat="43.17196" lon="6.52598">
        <ele>18</ele>
        <time>2013-09-12T11:23:41.000Z</time>
      </trkpt>
      <trkpt lat="43.17193" lon="6.52596">
        <ele>18</ele>
        <time>2013-09-12T11:23:42.000Z</time>
      </trkpt>
      <trkpt lat="43.17191" lon="6.52594">
        <ele>18</ele>
        <time>2013-09-12T11:23:43.000Z</time>
      </trkpt>
      <trkpt lat="43.17188" lon="6.52592">
        <ele>18</ele>
        <time>2013-09-12T11:23:44.000Z</time>
      </trkpt>
      <trkpt lat="43.17186" lon="6.52591">
        <ele>18</ele>
        <time>2013-09-12T11:23:45.000Z</time>
      </trkpt>
      <trkpt lat="43.17184" lon="6.5259">
        <ele>18</ele>
        <time>2013-09-12T11:23:46.000Z</time>
      </trkpt>
      <trkpt lat="43.17182" lon="6.5259">
        <ele>18</ele>
        <time>2013-09-12T11:23:47.000Z</time>
      </trkpt>
      <trkpt lat="43.17179" lon="6.52592">
        <ele>18</ele>
        <time>2013-09-12T11:23:48.000Z</time>
      </trkpt>
      <trkpt lat="43.17177" lon="6.52594">
        <ele>18</ele>
        <time>2013-09-12T11:23:49.000Z</time>
      </trkpt>
      <trkpt lat="43.17174" lon="6.52596">
        <ele>18</ele>
        <time>2013-09-12T11:23:50.000Z</time>
      </trkpt>
      <trkpt lat="43.17171" lon="6.52598">
        <ele>18</ele>
        <time>2013-09-12T11:23:51.000Z</time>
      </trkpt>
      <trkpt lat="43.17169" lon="6.52601">
        <ele>18</ele>
        <time>2013-09-12T11:23:52.000Z</time>
      </trkpt>
      <trkpt lat="43.17165" lon="6.52603">
        <ele>18</ele>
        <time>2013-09-12T11:23:53.000Z</time>
      </trkpt>
      <trkpt lat="43.17161" lon="6.52604">
        <ele>18</ele>
        <time>2013-09-12T11:23:54.000Z</time>
      </trkpt>
      <trkpt lat="43.17157" lon="6.52604">
        <ele>18</ele>
        <time>2013-09-12T11:23:55.000Z</time>
      </trkpt>
      <trkpt lat="43.17153" lon="6.52603">
        <ele>18</ele>
        <time>2013-09-12T11:23:56.000Z</time>
      </trkpt>
      <trkpt lat="43.17149" lon="6.526">
        <ele>18</ele>
        <time>2013-09-12T11:23:57.000Z</time>
      </trkpt>
      <trkpt lat="43.17146" lon="6.52598">
        <ele>18</ele>
        <time>2013-09-12T11:23:58.000Z</time>
      </trkpt>
      <trkpt lat="43.17143" lon="6.52594">
        <ele>18</ele>
        <time>2013-09-12T11:23:59.000Z</time>
      </trkpt>
      <trkpt lat="43.17141" lon="6.5259">
        <ele>18</ele>
        <time>2013-09-12T11:24:00.000Z</time>
      </trkpt>
      <trkpt lat="43.17139" lon="6.52586">
        <ele>18</ele>
        <time>2013-09-12T11:24:01.000Z</time>
      </trkpt>
      <trkpt lat="43.17137" lon="6.52582">
        <ele>19</ele>
        <time>2013-09-12T11:24:02.000Z</time>
      </trkpt>
      <trkpt lat="43.17136" lon="6.52578">
        <ele>19</ele>
        <time>2013-09-12T11:24:03.000Z</time>
      </trkpt>
      <trkpt lat="43.17135" lon="6.52575">
        <ele>19</ele>
        <time>2013-09-12T11:24:04.000Z</time>
      </trkpt>
      <trkpt lat="43.17134" lon="6.52571">
        <ele>19</ele>
        <time>2013-09-12T11:24:05.000Z</time>
      </trkpt>
      <trkpt lat="43.17133" lon="6.52567">
        <ele>19</ele>
        <time>2013-09-12T11:24:06.000Z</time>
      </trkpt>
      <trkpt lat="43.17132" lon="6.52563">
        <ele>19</ele>
        <time>2013-09-12T11:24:07.000Z</time>
      </trkpt>
      <trkpt lat="43.1713" lon="6.52559">
        <ele>19</ele>
        <time>2013-09-12T11:24:08.000Z</time>
      </trkpt>
      <trkpt lat="43.17129" lon="6.52555">
        <ele>19</ele>
        <time>2013-09-12T11:24:09.000Z</time>
      </trkpt>
      <trkpt lat="43.17127" lon="6.52551">
        <ele>19</ele>
        <time>2013-09-12T11:24:10.000Z</time>
      </trkpt>
      <trkpt lat="43.17126" lon="6.52547">
        <ele>19</ele>
        <time>2013-09-12T11:24:11.000Z</time>
      </trkpt>
      <trkpt lat="43.17124" lon="6.52543">
        <ele>19</ele>
        <time>2013-09-12T11:24:12.000Z</time>
      </trkpt>
      <trkpt lat="43.17122" lon="6.5254">
        <ele>19</ele>
        <time>2013-09-12T11:24:13.000Z</time>
      </trkpt>
      <trkpt lat="43.17121" lon="6.52536">
        <ele>19</ele>
        <time>2013-09-12T11:24:14.000Z</time>
      </trkpt>
      <trkpt lat="43.17119" lon="6.52532">
        <ele>19</ele>
        <time>2013-09-12T11:24:15.000Z</time>
      </trkpt>
      <trkpt lat="43.17117" lon="6.52529">
        <ele>19</ele>
        <time>2013-09-12T11:24:16.000Z</time>
      </trkpt>
      <trkpt lat="43.17115" lon="6.52526">
        <ele>19</ele>
        <time>2013-09-12T11:24:17.000Z</time>
      </trkpt>
      <trkpt lat="43.17113" lon="6.52523">
        <ele>19</ele>
        <time>2013-09-12T11:24:18.000Z</time>
      </trkpt>
      <trkpt lat="43.17112" lon="6.5252">
        <ele>20</ele>
        <time>2013-09-12T11:24:19.000Z</time>
      </trkpt>
      <trkpt lat="43.1711" lon="6.52517">
        <ele>20</ele>
        <time>2013-09-12T11:24:20.000Z</time>
      </trkpt>
      <trkpt lat="43.17107" lon="6.52514">
        <ele>20</ele>
        <time>2013-09-12T11:24:21.000Z</time>
      </trkpt>
      <trkpt lat="43.17105" lon="6.52511">
        <ele>20</ele>
        <time>2013-09-12T11:24:22.000Z</time>
      </trkpt>
      <trkpt lat="43.17103" lon="6.52507">
        <ele>20</ele>
        <time>2013-09-12T11:24:23.000Z</time>
      </trkpt>
      <trkpt lat="43.171" lon="6.52504">
        <ele>20</ele>
        <time>2013-09-12T11:24:24.000Z</time>
      </trkpt>
      <trkpt lat="43.17098" lon="6.525">
        <ele>20</ele>
        <time>2013-09-12T11:24:25.000Z</time>
      </trkpt>
      <trkpt lat="43.17096" lon="6.52497">
        <ele>20</ele>
        <time>2013-09-12T11:24:26.000Z</time>
      </trkpt>
      <trkpt lat="43.17094" lon="6.52494">
        <ele>20</ele>
        <time>2013-09-12T11:24:27.000Z</time>
      </trkpt>
      <trkpt lat="43.17092" lon="6.5249">
        <ele>20</ele>
        <time>2013-09-12T11:24:28.000Z</time>
      </trkpt>
      <trkpt lat="43.1709" lon="6.52487">
        <ele>20</ele>
        <time>2013-09-12T11:24:29.000Z</time>
      </trkpt>
      <trkpt lat="43.17089" lon="6.52484">
        <ele>20</ele>
        <time>2013-09-12T11:24:30.000Z</time>
      </trkpt>
      <trkpt lat="43.17087" lon="6.52481">
        <ele>20</ele>
        <time>2013-09-12T11:24:31.000Z</time>
      </trkpt>
      <trkpt lat="43.17084" lon="6.52478">
        <ele>20</ele>
        <time>2013-09-12T11:24:32.000Z</time>
      </trkpt>
      <trkpt lat="43.17082" lon="6.52475">
        <ele>20</ele>
        <time>2013-09-12T11:24:33.000Z</time>
      </trkpt>
      <trkpt lat="43.17079" lon="6.52472">
        <ele>20</ele>
        <time>2013-09-12T11:24:34.000Z</time>
      </trkpt>
      <trkpt lat="43.17077" lon="6.52469">
        <ele>20</ele>
        <time>2013-09-12T11:24:35.000Z</time>
      </trkpt>
      <trkpt lat="43.17074" lon="6.52467">
        <ele>20</ele>
        <time>2013-09-12T11:24:36.000Z</time>
      </trkpt>
      <trkpt lat="43.17072" lon="6.52464">
        <ele>20</ele>
        <time>2013-09-12T11:24:37.000Z</time>
      </trkpt>
      <trkpt lat="43.1707" lon="6.5246">
        <ele>20</ele>
        <time>2013-09-12T11:24:38.000Z</time>
      </trkpt>
      <trkpt lat="43.17067" lon="6.52457">
        <ele>20</ele>
        <time>2013-09-12T11:24:39.000Z</time>
      </trkpt>
      <trkpt lat="43.17065" lon="6.52453">
        <ele>20</ele>
        <time>2013-09-12T11:24:40.000Z</time>
      </trkpt>
      <trkpt lat="43.17063" lon="6.52449">
        <ele>20</ele>
        <time>2013-09-12T11:24:41.000Z</time>
      </trkpt>
      <trkpt lat="43.1706" lon="6.52446">
        <ele>20</ele>
        <time>2013-09-12T11:24:42.000Z</time>
      </trkpt>
      <trkpt lat="43.17058" lon="6.52442">
        <ele>20</ele>
        <time>2013-09-12T11:24:43.000Z</time>
      </trkpt>
      <trkpt lat="43.17056" lon="6.52438">
        <ele>20</ele>
        <time>2013-09-12T11:24:44.000Z</time>
      </trkpt>
      <trkpt lat="43.17053" lon="6.52434">
        <ele>20</ele>
        <time>2013-09-12T11:24:45.000Z</time>
      </trkpt>
      <trkpt lat="43.1705" lon="6.52431">
        <ele>20</ele>
        <time>2013-09-12T11:24:46.000Z</time>
      </trkpt>
      <trkpt lat="43.17047" lon="6.52427">
        <ele>20</ele>
        <time>2013-09-12T11:24:47.000Z</time>
      </trkpt>
      <trkpt lat="43.17045" lon="6.52424">
        <ele>20</ele>
        <time>2013-09-12T11:24:48.000Z</time>
      </trkpt>
      <trkpt lat="43.17042" lon="6.52421">
        <ele>20</ele>
        <time>2013-09-12T11:24:49.000Z</time>
      </trkpt>
      <trkpt lat="43.17038" lon="6.52417">
        <ele>20</ele>
        <time>2013-09-12T11:24:50.000Z</time>
      </trkpt>
      <trkpt lat="43.17035" lon="6.52414">
        <ele>20</ele>
        <time>2013-09-12T11:24:51.000Z</time>
      </trkpt>
      <trkpt lat="43.17033" lon="6.52411">
        <ele>20</ele>
        <time>2013-09-12T11:24:52.000Z</time>
      </trkpt>
      <trkpt lat="43.17029" lon="6.52408">
        <ele>20</ele>
        <time>2013-09-12T11:24:53.000Z</time>
      </trkpt>
      <trkpt lat="43.17027" lon="6.52405">
        <ele>20</ele>
        <time>2013-09-12T11:24:54.000Z</time>
      </trkpt>
      <trkpt lat="43.17024" lon="6.52402">
        <ele>20</ele>
        <time>2013-09-12T11:24:55.000Z</time>
      </trkpt>
      <trkpt lat="43.17021" lon="6.52399">
        <ele>20</ele>
        <time>2013-09-12T11:24:56.000Z</time>
      </trkpt>
      <trkpt lat="43.17018" lon="6.52396">
        <ele>20</ele>
        <time>2013-09-12T11:24:57.000Z</time>
      </trkpt>
      <trkpt lat="43.17015" lon="6.52393">
        <ele>20</ele>
        <time>2013-09-12T11:24:58.000Z</time>
      </trkpt>
      <trkpt lat="43.17012" lon="6.5239">
        <ele>20</ele>
        <time>2013-09-12T11:24:59.000Z</time>
      </trkpt>
      <trkpt lat="43.17009" lon="6.52387">
        <ele>20</ele>
        <time>2013-09-12T11:25:00.000Z</time>
      </trkpt>
      <trkpt lat="43.17006" lon="6.52384">
        <ele>20</ele>
        <time>2013-09-12T11:25:01.000Z</time>
      </trkpt>
      <trkpt lat="43.17003" lon="6.52382">
        <ele>20</ele>
        <time>2013-09-12T11:25:02.000Z</time>
      </trkpt>
      <trkpt lat="43.17" lon="6.52379">
        <ele>20</ele>
        <time>2013-09-12T11:25:03.000Z</time>
      </trkpt>
      <trkpt lat="43.16997" lon="6.52376">
        <ele>21</ele>
        <time>2013-09-12T11:25:04.000Z</time>
      </trkpt>
      <trkpt lat="43.16994" lon="6.52374">
        <ele>21</ele>
        <time>2013-09-12T11:25:05.000Z</time>
      </trkpt>
      <trkpt lat="43.16991" lon="6.52371">
        <ele>21</ele>
        <time>2013-09-12T11:25:06.000Z</time>
      </trkpt>
      <trkpt lat="43.16988" lon="6.5237">
        <ele>21</ele>
        <time>2013-09-12T11:25:07.000Z</time>
      </trkpt>
      <trkpt lat="43.16985" lon="6.52368">
        <ele>21</ele>
        <time>2013-09-12T11:25:08.000Z</time>
      </trkpt>
      <trkpt lat="43.16982" lon="6.52366">
        <ele>21</ele>
        <time>2013-09-12T11:25:09.000Z</time>
      </trkpt>
      <trkpt lat="43.16979" lon="6.52364">
        <ele>22</ele>
        <time>2013-09-12T11:25:10.000Z</time>
      </trkpt>
      <trkpt lat="43.16976" lon="6.52362">
        <ele>22</ele>
        <time>2013-09-12T11:25:11.000Z</time>
      </trkpt>
      <trkpt lat="43.16973" lon="6.52359">
        <ele>22</ele>
        <time>2013-09-12T11:25:12.000Z</time>
      </trkpt>
      <trkpt lat="43.16971" lon="6.52356">
        <ele>22</ele>
        <time>2013-09-12T11:25:13.000Z</time>
      </trkpt>
      <trkpt lat="43.16968" lon="6.52353">
        <ele>22</ele>
        <time>2013-09-12T11:25:14.000Z</time>
      </trkpt>
      <trkpt lat="43.16965" lon="6.5235">
        <ele>22</ele>
        <time>2013-09-12T11:25:15.000Z</time>
      </trkpt>
      <trkpt lat="43.16962" lon="6.52347">
        <ele>22</ele>
        <time>2013-09-12T11:25:16.000Z</time>
      </trkpt>
      <trkpt lat="43.1696" lon="6.52344">
        <ele>22</ele>
        <time>2013-09-12T11:25:17.000Z</time>
      </trkpt>
      <trkpt lat="43.16957" lon="6.52341">
        <ele>22</ele>
        <time>2013-09-12T11:25:18.000Z</time>
      </trkpt>
      <trkpt lat="43.16954" lon="6.52338">
        <ele>22</ele>
        <time>2013-09-12T11:25:19.000Z</time>
      </trkpt>
      <trkpt lat="43.16951" lon="6.52335">
        <ele>22</ele>
        <time>2013-09-12T11:25:20.000Z</time>
      </trkpt>
      <trkpt lat="43.16949" lon="6.52332">
        <ele>22</ele>
        <time>2013-09-12T11:25:21.000Z</time>
      </trkpt>
      <trkpt lat="43.16946" lon="6.52329">
        <ele>22</ele>
        <time>2013-09-12T11:25:22.000Z</time>
      </trkpt>
      <trkpt lat="43.16943" lon="6.52326">
        <ele>22</ele>
        <time>2013-09-12T11:25:23.000Z</time>
      </trkpt>
      <trkpt lat="43.16941" lon="6.52323">
        <ele>22</ele>
        <time>2013-09-12T11:25:24.000Z</time>
      </trkpt>
      <trkpt lat="43.16938" lon="6.5232">
        <ele>22</ele>
        <time>2013-09-12T11:25:25.000Z</time>
      </trkpt>
      <trkpt lat="43.16936" lon="6.52317">
        <ele>22</ele>
        <time>2013-09-12T11:25:26.000Z</time>
      </trkpt>
      <trkpt lat="43.16933" lon="6.52314">
        <ele>22</ele>
        <time>2013-09-12T11:25:27.000Z</time>
      </trkpt>
      <trkpt lat="43.1693" lon="6.52312">
        <ele>22</ele>
        <time>2013-09-12T11:25:28.000Z</time>
      </trkpt>
      <trkpt lat="43.16928" lon="6.5231">
        <ele>22</ele>
        <time>2013-09-12T11:25:29.000Z</time>
      </trkpt>
      <trkpt lat="43.16925" lon="6.52307">
        <ele>22</ele>
        <time>2013-09-12T11:25:30.000Z</time>
      </trkpt>
      <trkpt lat="43.16922" lon="6.52305">
        <ele>22</ele>
        <time>2013-09-12T11:25:31.000Z</time>
      </trkpt>
      <trkpt lat="43.16919" lon="6.52302">
        <ele>22</ele>
        <time>2013-09-12T11:25:32.000Z</time>
      </trkpt>
      <trkpt lat="43.16916" lon="6.52299">
        <ele>24</ele>
        <time>2013-09-12T11:25:33.000Z</time>
      </trkpt>
      <trkpt lat="43.16913" lon="6.52296">
        <ele>24</ele>
        <time>2013-09-12T11:25:34.000Z</time>
      </trkpt>
      <trkpt lat="43.16911" lon="6.52293">
        <ele>25</ele>
        <time>2013-09-12T11:25:35.000Z</time>
      </trkpt>
      <trkpt lat="43.16908" lon="6.52291">
        <ele>25</ele>
        <time>2013-09-12T11:25:36.000Z</time>
      </trkpt>
      <trkpt lat="43.16905" lon="6.52288">
        <ele>25</ele>
        <time>2013-09-12T11:25:37.000Z</time>
      </trkpt>
      <trkpt lat="43.16903" lon="6.52285">
        <ele>25</ele>
        <time>2013-09-12T11:25:38.000Z</time>
      </trkpt>
      <trkpt lat="43.169" lon="6.52282">
        <ele>25</ele>
        <time>2013-09-12T11:25:39.000Z</time>
      </trkpt>
      <trkpt lat="43.16897" lon="6.52279">
        <ele>25</ele>
        <time>2013-09-12T11:25:40.000Z</time>
      </trkpt>
      <trkpt lat="43.16895" lon="6.52277">
        <ele>25</ele>
        <time>2013-09-12T11:25:41.000Z</time>
      </trkpt>
      <trkpt lat="43.16892" lon="6.52274">
        <ele>25</ele>
        <time>2013-09-12T11:25:42.000Z</time>
      </trkpt>
      <trkpt lat="43.16889" lon="6.52271">
        <ele>25</ele>
        <time>2013-09-12T11:25:43.000Z</time>
      </trkpt>
      <trkpt lat="43.16886" lon="6.52269">
        <ele>25</ele>
        <time>2013-09-12T11:25:44.000Z</time>
      </trkpt>
      <trkpt lat="43.16884" lon="6.52266">
        <ele>25</ele>
        <time>2013-09-12T11:25:45.000Z</time>
      </trkpt>
      <trkpt lat="43.16881" lon="6.52263">
        <ele>25</ele>
        <time>2013-09-12T11:25:46.000Z</time>
      </trkpt>
      <trkpt lat="43.16878" lon="6.52261">
        <ele>26</ele>
        <time>2013-09-12T11:25:47.000Z</time>
      </trkpt>
      <trkpt lat="43.16876" lon="6.52258">
        <ele>26</ele>
        <time>2013-09-12T11:25:48.000Z</time>
      </trkpt>
      <trkpt lat="43.16873" lon="6.52255">
        <ele>26</ele>
        <time>2013-09-12T11:25:49.000Z</time>
      </trkpt>
      <trkpt lat="43.1687" lon="6.52253">
        <ele>26</ele>
        <time>2013-09-12T11:25:50.000Z</time>
      </trkpt>
      <trkpt lat="43.16868" lon="6.5225">
        <ele>26</ele>
        <time>2013-09-12T11:25:51.000Z</time>
      </trkpt>
      <trkpt lat="43.16865" lon="6.52247">
        <ele>26</ele>
        <time>2013-09-12T11:25:52.000Z</time>
      </trkpt>
      <trkpt lat="43.16862" lon="6.52245">
        <ele>26</ele>
        <time>2013-09-12T11:25:53.000Z</time>
      </trkpt>
      <trkpt lat="43.1686" lon="6.52242">
        <ele>26</ele>
        <time>2013-09-12T11:25:54.000Z</time>
      </trkpt>
      <trkpt lat="43.16857" lon="6.5224">
        <ele>26</ele>
        <time>2013-09-12T11:25:55.000Z</time>
      </trkpt>
      <trkpt lat="43.16854" lon="6.52238">
        <ele>26</ele>
        <time>2013-09-12T11:25:56.000Z</time>
      </trkpt>
      <trkpt lat="43.16852" lon="6.52236">
        <ele>26</ele>
        <time>2013-09-12T11:25:57.000Z</time>
      </trkpt>
      <trkpt lat="43.16849" lon="6.52233">
        <ele>26</ele>
        <time>2013-09-12T11:25:58.000Z</time>
      </trkpt>
      <trkpt lat="43.16846" lon="6.5223">
        <ele>26</ele>
        <time>2013-09-12T11:25:59.000Z</time>
      </trkpt>
      <trkpt lat="43.16844" lon="6.52227">
        <ele>26</ele>
        <time>2013-09-12T11:26:00.000Z</time>
      </trkpt>
      <trkpt lat="43.16841" lon="6.52224">
        <ele>26</ele>
        <time>2013-09-12T11:26:01.000Z</time>
      </trkpt>
      <trkpt lat="43.16839" lon="6.52221">
        <ele>26</ele>
        <time>2013-09-12T11:26:02.000Z</time>
      </trkpt>
      <trkpt lat="43.16836" lon="6.52218">
        <ele>26</ele>
        <time>2013-09-12T11:26:03.000Z</time>
      </trkpt>
      <trkpt lat="43.16834" lon="6.52215">
        <ele>26</ele>
        <time>2013-09-12T11:26:04.000Z</time>
      </trkpt>
      <trkpt lat="43.16831" lon="6.52213">
        <ele>27</ele>
        <time>2013-09-12T11:26:05.000Z</time>
      </trkpt>
      <trkpt lat="43.16828" lon="6.5221">
        <ele>27</ele>
        <time>2013-09-12T11:26:06.000Z</time>
      </trkpt>
      <trkpt lat="43.16826" lon="6.52207">
        <ele>27</ele>
        <time>2013-09-12T11:26:07.000Z</time>
      </trkpt>
      <trkpt lat="43.16823" lon="6.52204">
        <ele>27</ele>
        <time>2013-09-12T11:26:08.000Z</time>
      </trkpt>
      <trkpt lat="43.16821" lon="6.52201">
        <ele>27</ele>
        <time>2013-09-12T11:26:09.000Z</time>
      </trkpt>
      <trkpt lat="43.16818" lon="6.52199">
        <ele>27</ele>
        <time>2013-09-12T11:26:10.000Z</time>
      </trkpt>
      <trkpt lat="43.16815" lon="6.52196">
        <ele>27</ele>
        <time>2013-09-12T11:26:11.000Z</time>
      </trkpt>
      <trkpt lat="43.16813" lon="6.52193">
        <ele>27</ele>
        <time>2013-09-12T11:26:12.000Z</time>
      </trkpt>
      <trkpt lat="43.1681" lon="6.52191">
        <ele>27</ele>
        <time>2013-09-12T11:26:13.000Z</time>
      </trkpt>
      <trkpt lat="43.16807" lon="6.52189">
        <ele>27</ele>
        <time>2013-09-12T11:26:14.000Z</time>
      </trkpt>
      <trkpt lat="43.16805" lon="6.52186">
        <ele>27</ele>
        <time>2013-09-12T11:26:15.000Z</time>
      </trkpt>
      <trkpt lat="43.16802" lon="6.52184">
        <ele>27</ele>
        <time>2013-09-12T11:26:16.000Z</time>
      </trkpt>
      <trkpt lat="43.168" lon="6.52181">
        <ele>27</ele>
        <time>2013-09-12T11:26:17.000Z</time>
      </trkpt>
      <trkpt lat="43.16798" lon="6.52178">
        <ele>27</ele>
        <time>2013-09-12T11:26:18.000Z</time>
      </trkpt>
      <trkpt lat="43.16796" lon="6.52174">
        <ele>27</ele>
        <time>2013-09-12T11:26:19.000Z</time>
      </trkpt>
      <trkpt lat="43.16794" lon="6.5217">
        <ele>27</ele>
        <time>2013-09-12T11:26:20.000Z</time>
      </trkpt>
      <trkpt lat="43.16793" lon="6.52167">
        <ele>27</ele>
        <time>2013-09-12T11:26:21.000Z</time>
      </trkpt>
      <trkpt lat="43.1679" lon="6.52163">
        <ele>27</ele>
        <time>2013-09-12T11:26:22.000Z</time>
      </trkpt>
      <trkpt lat="43.16787" lon="6.5216">
        <ele>27</ele>
        <time>2013-09-12T11:26:23.000Z</time>
      </trkpt>
      <trkpt lat="43.16784" lon="6.52158">
        <ele>27</ele>
        <time>2013-09-12T11:26:24.000Z</time>
      </trkpt>
      <trkpt lat="43.1678" lon="6.52158">
        <ele>27</ele>
        <time>2013-09-12T11:26:25.000Z</time>
      </trkpt>
      <trkpt lat="43.16776" lon="6.52158">
        <ele>27</ele>
        <time>2013-09-12T11:26:26.000Z</time>
      </trkpt>
      <trkpt lat="43.16769" lon="6.52156">
        <ele>27</ele>
        <time>2013-09-12T11:26:28.000Z</time>
      </trkpt>
      <trkpt lat="43.16765" lon="6.52154">
        <ele>27</ele>
        <time>2013-09-12T11:26:29.000Z</time>
      </trkpt>
      <trkpt lat="43.16762" lon="6.52149">
        <ele>27</ele>
        <time>2013-09-12T11:26:30.000Z</time>
      </trkpt>
      <trkpt lat="43.16759" lon="6.52144">
        <ele>27</ele>
        <time>2013-09-12T11:26:31.000Z</time>
      </trkpt>
      <trkpt lat="43.16756" lon="6.52139">
        <ele>27</ele>
        <time>2013-09-12T11:26:32.000Z</time>
      </trkpt>
      <trkpt lat="43.16753" lon="6.52134">
        <ele>27</ele>
        <time>2013-09-12T11:26:33.000Z</time>
      </trkpt>
      <trkpt lat="43.1675" lon="6.52129">
        <ele>27</ele>
        <time>2013-09-12T11:26:34.000Z</time>
      </trkpt>
      <trkpt lat="43.16748" lon="6.52125">
        <ele>27</ele>
        <time>2013-09-12T11:26:35.000Z</time>
      </trkpt>
      <trkpt lat="43.16745" lon="6.5212">
        <ele>27</ele>
        <time>2013-09-12T11:26:36.000Z</time>
      </trkpt>
      <trkpt lat="43.16743" lon="6.52116">
        <ele>27</ele>
        <time>2013-09-12T11:26:37.000Z</time>
      </trkpt>
      <trkpt lat="43.16741" lon="6.52111">
        <ele>27</ele>
        <time>2013-09-12T11:26:38.000Z</time>
      </trkpt>
      <trkpt lat="43.16738" lon="6.52107">
        <ele>27</ele>
        <time>2013-09-12T11:26:39.000Z</time>
      </trkpt>
      <trkpt lat="43.16735" lon="6.52102">
        <ele>27</ele>
        <time>2013-09-12T11:26:40.000Z</time>
      </trkpt>
      <trkpt lat="43.16732" lon="6.52098">
        <ele>27</ele>
        <time>2013-09-12T11:26:41.000Z</time>
      </trkpt>
      <trkpt lat="43.16729" lon="6.52094">
        <ele>27</ele>
        <time>2013-09-12T11:26:42.000Z</time>
      </trkpt>
      <trkpt lat="43.16726" lon="6.52089">
        <ele>27</ele>
        <time>2013-09-12T11:26:43.000Z</time>
      </trkpt>
      <trkpt lat="43.16724" lon="6.52085">
        <ele>27</ele>
        <time>2013-09-12T11:26:44.000Z</time>
      </trkpt>
      <trkpt lat="43.16721" lon="6.5208">
        <ele>28</ele>
        <time>2013-09-12T11:26:45.000Z</time>
      </trkpt>
      <trkpt lat="43.16719" lon="6.52076">
        <ele>28</ele>
        <time>2013-09-12T11:26:46.000Z</time>
      </trkpt>
      <trkpt lat="43.16717" lon="6.52072">
        <ele>28</ele>
        <time>2013-09-12T11:26:47.000Z</time>
      </trkpt>
      <trkpt lat="43.16716" lon="6.52069">
        <ele>28</ele>
        <time>2013-09-12T11:26:48.000Z</time>
      </trkpt>
      <trkpt lat="43.16715" lon="6.52067">
        <ele>28</ele>
        <time>2013-09-12T11:26:49.000Z</time>
      </trkpt>
      <trkpt lat="43.16714" lon="6.52064">
        <ele>28</ele>
        <time>2013-09-12T11:26:50.000Z</time>
      </trkpt>
      <trkpt lat="43.16712" lon="6.52062">
        <ele>28</ele>
        <time>2013-09-12T11:26:51.000Z</time>
      </trkpt>
      <trkpt lat="43.16709" lon="6.52061">
        <ele>28</ele>
        <time>2013-09-12T11:26:52.000Z</time>
      </trkpt>
      <trkpt lat="43.16707" lon="6.5206">
        <ele>28</ele>
        <time>2013-09-12T11:26:53.000Z</time>
      </trkpt>
      <trkpt lat="43.16704" lon="6.52058">
        <ele>28</ele>
        <time>2013-09-12T11:26:54.000Z</time>
      </trkpt>
      <trkpt lat="43.16702" lon="6.52055">
        <ele>28</ele>
        <time>2013-09-12T11:26:55.000Z</time>
      </trkpt>
      <trkpt lat="43.167" lon="6.52052">
        <ele>28</ele>
        <time>2013-09-12T11:26:56.000Z</time>
      </trkpt>
      <trkpt lat="43.16699" lon="6.52048">
        <ele>28</ele>
        <time>2013-09-12T11:26:57.000Z</time>
      </trkpt>
      <trkpt lat="43.16697" lon="6.52045">
        <ele>28</ele>
        <time>2013-09-12T11:26:58.000Z</time>
      </trkpt>
      <trkpt lat="43.16695" lon="6.52041">
        <ele>28</ele>
        <time>2013-09-12T11:26:59.000Z</time>
      </trkpt>
      <trkpt lat="43.16693" lon="6.52037">
        <ele>28</ele>
        <time>2013-09-12T11:27:00.000Z</time>
      </trkpt>
      <trkpt lat="43.1669" lon="6.52033">
        <ele>28</ele>
        <time>2013-09-12T11:27:01.000Z</time>
      </trkpt>
      <trkpt lat="43.16688" lon="6.52028">
        <ele>28</ele>
        <time>2013-09-12T11:27:02.000Z</time>
      </trkpt>
      <trkpt lat="43.16686" lon="6.52024">
        <ele>28</ele>
        <time>2013-09-12T11:27:03.000Z</time>
      </trkpt>
      <trkpt lat="43.16684" lon="6.52019">
        <ele>28</ele>
        <time>2013-09-12T11:27:04.000Z</time>
      </trkpt>
      <trkpt lat="43.16682" lon="6.52015">
        <ele>28</ele>
        <time>2013-09-12T11:27:05.000Z</time>
      </trkpt>
      <trkpt lat="43.16679" lon="6.52011">
        <ele>28</ele>
        <time>2013-09-12T11:27:06.000Z</time>
      </trkpt>
      <trkpt lat="43.16677" lon="6.52007">
        <ele>28</ele>
        <time>2013-09-12T11:27:07.000Z</time>
      </trkpt>
      <trkpt lat="43.16675" lon="6.52002">
        <ele>27</ele>
        <time>2013-09-12T11:27:08.000Z</time>
      </trkpt>
      <trkpt lat="43.16673" lon="6.51998">
        <ele>28</ele>
        <time>2013-09-12T11:27:09.000Z</time>
      </trkpt>
      <trkpt lat="43.1667" lon="6.51993">
        <ele>29</ele>
        <time>2013-09-12T11:27:10.000Z</time>
      </trkpt>
      <trkpt lat="43.16668" lon="6.51989">
        <ele>29</ele>
        <time>2013-09-12T11:27:11.000Z</time>
      </trkpt>
      <trkpt lat="43.16666" lon="6.51984">
        <ele>25</ele>
        <time>2013-09-12T11:27:12.000Z</time>
      </trkpt>
      <trkpt lat="43.16663" lon="6.5198">
        <ele>24</ele>
        <time>2013-09-12T11:27:13.000Z</time>
      </trkpt>
      <trkpt lat="43.16661" lon="6.51976">
        <ele>24</ele>
        <time>2013-09-12T11:27:14.000Z</time>
      </trkpt>
      <trkpt lat="43.16659" lon="6.51972">
        <ele>24</ele>
        <time>2013-09-12T11:27:15.000Z</time>
      </trkpt>
      <trkpt lat="43.16656" lon="6.51967">
        <ele>23</ele>
        <time>2013-09-12T11:27:16.000Z</time>
      </trkpt>
      <trkpt lat="43.16654" lon="6.51963">
        <ele>23</ele>
        <time>2013-09-12T11:27:17.000Z</time>
      </trkpt>
      <trkpt lat="43.16652" lon="6.51958">
        <ele>23</ele>
        <time>2013-09-12T11:27:18.000Z</time>
      </trkpt>
      <trkpt lat="43.1665" lon="6.51954">
        <ele>23</ele>
        <time>2013-09-12T11:27:19.000Z</time>
      </trkpt>
      <trkpt lat="43.16647" lon="6.51949">
        <ele>23</ele>
        <time>2013-09-12T11:27:20.000Z</time>
      </trkpt>
      <trkpt lat="43.16645" lon="6.51945">
        <ele>23</ele>
        <time>2013-09-12T11:27:21.000Z</time>
      </trkpt>
      <trkpt lat="43.16643" lon="6.51941">
        <ele>23</ele>
        <time>2013-09-12T11:27:22.000Z</time>
      </trkpt>
      <trkpt lat="43.16641" lon="6.51937">
        <ele>23</ele>
        <time>2013-09-12T11:27:23.000Z</time>
      </trkpt>
      <trkpt lat="43.16639" lon="6.51932">
        <ele>23</ele>
        <time>2013-09-12T11:27:24.000Z</time>
      </trkpt>
      <trkpt lat="43.16636" lon="6.51927">
        <ele>23</ele>
        <time>2013-09-12T11:27:25.000Z</time>
      </trkpt>
      <trkpt lat="43.16633" lon="6.51922">
        <ele>22</ele>
        <time>2013-09-12T11:27:26.000Z</time>
      </trkpt>
      <trkpt lat="43.1663" lon="6.51918">
        <ele>22</ele>
        <time>2013-09-12T11:27:27.000Z</time>
      </trkpt>
      <trkpt lat="43.16627" lon="6.51913">
        <ele>24</ele>
        <time>2013-09-12T11:27:28.000Z</time>
      </trkpt>
      <trkpt lat="43.16624" lon="6.51908">
        <ele>24</ele>
        <time>2013-09-12T11:27:29.000Z</time>
      </trkpt>
      <trkpt lat="43.16622" lon="6.51903">
        <ele>23</ele>
        <time>2013-09-12T11:27:30.000Z</time>
      </trkpt>
      <trkpt lat="43.16619" lon="6.51898">
        <ele>23</ele>
        <time>2013-09-12T11:27:31.000Z</time>
      </trkpt>
      <trkpt lat="43.16617" lon="6.51893">
        <ele>23</ele>
        <time>2013-09-12T11:27:32.000Z</time>
      </trkpt>
      <trkpt lat="43.16615" lon="6.51887">
        <ele>23</ele>
        <time>2013-09-12T11:27:33.000Z</time>
      </trkpt>
      <trkpt lat="43.16613" lon="6.51882">
        <ele>23</ele>
        <time>2013-09-12T11:27:34.000Z</time>
      </trkpt>
      <trkpt lat="43.16612" lon="6.51876">
        <ele>23</ele>
        <time>2013-09-12T11:27:35.000Z</time>
      </trkpt>
      <trkpt lat="43.1661" lon="6.51871">
        <ele>23</ele>
        <time>2013-09-12T11:27:36.000Z</time>
      </trkpt>
      <trkpt lat="43.16609" lon="6.51865">
        <ele>23</ele>
        <time>2013-09-12T11:27:37.000Z</time>
      </trkpt>
      <trkpt lat="43.16607" lon="6.5186">
        <ele>23</ele>
        <time>2013-09-12T11:27:38.000Z</time>
      </trkpt>
      <trkpt lat="43.16607" lon="6.51854">
        <ele>23</ele>
        <time>2013-09-12T11:27:39.000Z</time>
      </trkpt>
      <trkpt lat="43.16606" lon="6.51848">
        <ele>23</ele>
        <time>2013-09-12T11:27:40.000Z</time>
      </trkpt>
      <trkpt lat="43.16606" lon="6.51842">
        <ele>23</ele>
        <time>2013-09-12T11:27:41.000Z</time>
      </trkpt>
      <trkpt lat="43.16606" lon="6.51836">
        <ele>22</ele>
        <time>2013-09-12T11:27:42.000Z</time>
      </trkpt>
      <trkpt lat="43.16605" lon="6.5183">
        <ele>24</ele>
        <time>2013-09-12T11:27:43.000Z</time>
      </trkpt>
      <trkpt lat="43.16606" lon="6.51824">
        <ele>24</ele>
        <time>2013-09-12T11:27:44.000Z</time>
      </trkpt>
      <trkpt lat="43.16606" lon="6.51819">
        <ele>24</ele>
        <time>2013-09-12T11:27:45.000Z</time>
      </trkpt>
      <trkpt lat="43.16606" lon="6.51813">
        <ele>24</ele>
        <time>2013-09-12T11:27:46.000Z</time>
      </trkpt>
      <trkpt lat="43.16607" lon="6.51807">
        <ele>25</ele>
        <time>2013-09-12T11:27:47.000Z</time>
      </trkpt>
      <trkpt lat="43.16608" lon="6.51802">
        <ele>25</ele>
        <time>2013-09-12T11:27:48.000Z</time>
      </trkpt>
      <trkpt lat="43.16608" lon="6.51796">
        <ele>25</ele>
        <time>2013-09-12T11:27:49.000Z</time>
      </trkpt>
      <trkpt lat="43.16609" lon="6.51791">
        <ele>25</ele>
        <time>2013-09-12T11:27:50.000Z</time>
      </trkpt>
      <trkpt lat="43.16611" lon="6.51785">
        <ele>25</ele>
        <time>2013-09-12T11:27:51.000Z</time>
      </trkpt>
      <trkpt lat="43.16612" lon="6.5178">
        <ele>25</ele>
        <time>2013-09-12T11:27:52.000Z</time>
      </trkpt>
      <trkpt lat="43.16613" lon="6.51774">
        <ele>25</ele>
        <time>2013-09-12T11:27:53.000Z</time>
      </trkpt>
      <trkpt lat="43.16614" lon="6.51769">
        <ele>25</ele>
        <time>2013-09-12T11:27:54.000Z</time>
      </trkpt>
      <trkpt lat="43.16615" lon="6.51763">
        <ele>25</ele>
        <time>2013-09-12T11:27:55.000Z</time>
      </trkpt>
      <trkpt lat="43.16616" lon="6.51758">
        <ele>25</ele>
        <time>2013-09-12T11:27:56.000Z</time>
      </trkpt>
      <trkpt lat="43.16617" lon="6.51753">
        <ele>25</ele>
        <time>2013-09-12T11:27:57.000Z</time>
      </trkpt>
      <trkpt lat="43.16619" lon="6.51747">
        <ele>26</ele>
        <time>2013-09-12T11:27:58.000Z</time>
      </trkpt>
      <trkpt lat="43.1662" lon="6.51741">
        <ele>26</ele>
        <time>2013-09-12T11:27:59.000Z</time>
      </trkpt>
      <trkpt lat="43.16621" lon="6.51736">
        <ele>26</ele>
        <time>2013-09-12T11:28:00.000Z</time>
      </trkpt>
      <trkpt lat="43.16622" lon="6.51729">
        <ele>27</ele>
        <time>2013-09-12T11:28:01.000Z</time>
      </trkpt>
      <trkpt lat="43.16623" lon="6.51723">
        <ele>27</ele>
        <time>2013-09-12T11:28:02.000Z</time>
      </trkpt>
      <trkpt lat="43.16624" lon="6.51717">
        <ele>27</ele>
        <time>2013-09-12T11:28:03.000Z</time>
      </trkpt>
      <trkpt lat="43.16625" lon="6.51711">
        <ele>27</ele>
        <time>2013-09-12T11:28:04.000Z</time>
      </trkpt>
      <trkpt lat="43.16626" lon="6.51705">
        <ele>27</ele>
        <time>2013-09-12T11:28:05.000Z</time>
      </trkpt>
      <trkpt lat="43.16627" lon="6.51699">
        <ele>27</ele>
        <time>2013-09-12T11:28:06.000Z</time>
      </trkpt>
      <trkpt lat="43.16627" lon="6.51693">
        <ele>27</ele>
        <time>2013-09-12T11:28:07.000Z</time>
      </trkpt>
      <trkpt lat="43.16628" lon="6.51687">
        <ele>27</ele>
        <time>2013-09-12T11:28:08.000Z</time>
      </trkpt>
      <trkpt lat="43.16628" lon="6.51681">
        <ele>28</ele>
        <time>2013-09-12T11:28:09.000Z</time>
      </trkpt>
      <trkpt lat="43.16628" lon="6.51675">
        <ele>28</ele>
        <time>2013-09-12T11:28:10.000Z</time>
      </trkpt>
      <trkpt lat="43.16629" lon="6.51668">
        <ele>28</ele>
        <time>2013-09-12T11:28:11.000Z</time>
      </trkpt>
      <trkpt lat="43.16629" lon="6.51662">
        <ele>28</ele>
        <time>2013-09-12T11:28:12.000Z</time>
      </trkpt>
      <trkpt lat="43.16629" lon="6.51656">
        <ele>28</ele>
        <time>2013-09-12T11:28:13.000Z</time>
      </trkpt>
      <trkpt lat="43.16629" lon="6.51644">
        <ele>28</ele>
        <time>2013-09-12T11:28:15.000Z</time>
      </trkpt>
      <trkpt lat="43.16629" lon="6.51619">
        <ele>28</ele>
        <time>2013-09-12T11:28:19.000Z</time>
      </trkpt>
      <trkpt lat="43.16629" lon="6.51613">
        <ele>28</ele>
        <time>2013-09-12T11:28:20.000Z</time>
      </trkpt>
      <trkpt lat="43.16629" lon="6.51606">
        <ele>28</ele>
        <time>2013-09-12T11:28:21.000Z</time>
      </trkpt>
      <trkpt lat="43.16629" lon="6.516">
        <ele>28</ele>
        <time>2013-09-12T11:28:22.000Z</time>
      </trkpt>
      <trkpt lat="43.1663" lon="6.51576">
        <ele>28</ele>
        <time>2013-09-12T11:28:26.000Z</time>
      </trkpt>
      <trkpt lat="43.1663" lon="6.5157">
        <ele>28</ele>
        <time>2013-09-12T11:28:27.000Z</time>
      </trkpt>
      <trkpt lat="43.1663" lon="6.51564">
        <ele>28</ele>
        <time>2013-09-12T11:28:28.000Z</time>
      </trkpt>
      <trkpt lat="43.1663" lon="6.5154">
        <ele>28</ele>
        <time>2013-09-12T11:28:32.000Z</time>
      </trkpt>
      <trkpt lat="43.1663" lon="6.51535">
        <ele>28</ele>
        <time>2013-09-12T11:28:33.000Z</time>
      </trkpt>
      <trkpt lat="43.16629" lon="6.51529">
        <ele>28</ele>
        <time>2013-09-12T11:28:34.000Z</time>
      </trkpt>
      <trkpt lat="43.16629" lon="6.51516">
        <ele>28</ele>
        <time>2013-09-12T11:28:36.000Z</time>
      </trkpt>
      <trkpt lat="43.16629" lon="6.51504">
        <ele>28</ele>
        <time>2013-09-12T11:28:38.000Z</time>
      </trkpt>
      <trkpt lat="43.16629" lon="6.51497">
        <ele>28</ele>
        <time>2013-09-12T11:28:39.000Z</time>
      </trkpt>
      <trkpt lat="43.16629" lon="6.51485">
        <ele>28</ele>
        <time>2013-09-12T11:28:41.000Z</time>
      </trkpt>
      <trkpt lat="43.16629" lon="6.51473">
        <ele>28</ele>
        <time>2013-09-12T11:28:43.000Z</time>
      </trkpt>
      <trkpt lat="43.16628" lon="6.51467">
        <ele>28</ele>
        <time>2013-09-12T11:28:44.000Z</time>
      </trkpt>
      <trkpt lat="43.16629" lon="6.51449">
        <ele>28</ele>
        <time>2013-09-12T11:28:47.000Z</time>
      </trkpt>
      <trkpt lat="43.16628" lon="6.51443">
        <ele>29</ele>
        <time>2013-09-12T11:28:48.000Z</time>
      </trkpt>
      <trkpt lat="43.16628" lon="6.51437">
        <ele>29</ele>
        <time>2013-09-12T11:28:49.000Z</time>
      </trkpt>
      <trkpt lat="43.16628" lon="6.51431">
        <ele>29</ele>
        <time>2013-09-12T11:28:50.000Z</time>
      </trkpt>
      <trkpt lat="43.16628" lon="6.51425">
        <ele>29</ele>
        <time>2013-09-12T11:28:51.000Z</time>
      </trkpt>
      <trkpt lat="43.16628" lon="6.51419">
        <ele>29</ele>
        <time>2013-09-12T11:28:52.000Z</time>
      </trkpt>
      <trkpt lat="43.16628" lon="6.51407">
        <ele>29</ele>
        <time>2013-09-12T11:28:54.000Z</time>
      </trkpt>
      <trkpt lat="43.16628" lon="6.514">
        <ele>29</ele>
        <time>2013-09-12T11:28:55.000Z</time>
      </trkpt>
      <trkpt lat="43.16629" lon="6.51394">
        <ele>29</ele>
        <time>2013-09-12T11:28:56.000Z</time>
      </trkpt>
      <trkpt lat="43.16629" lon="6.51388">
        <ele>29</ele>
        <time>2013-09-12T11:28:57.000Z</time>
      </trkpt>
      <trkpt lat="43.16629" lon="6.51375">
        <ele>29</ele>
        <time>2013-09-12T11:28:59.000Z</time>
      </trkpt>
      <trkpt lat="43.16629" lon="6.51369">
        <ele>29</ele>
        <time>2013-09-12T11:29:00.000Z</time>
      </trkpt>
      <trkpt lat="43.16629" lon="6.51363">
        <ele>29</ele>
        <time>2013-09-12T11:29:01.000Z</time>
      </trkpt>
      <trkpt lat="43.1663" lon="6.51357">
        <ele>29</ele>
        <time>2013-09-12T11:29:02.000Z</time>
      </trkpt>
      <trkpt lat="43.1663" lon="6.5135">
        <ele>29</ele>
        <time>2013-09-12T11:29:03.000Z</time>
      </trkpt>
      <trkpt lat="43.16631" lon="6.51344">
        <ele>29</ele>
        <time>2013-09-12T11:29:04.000Z</time>
      </trkpt>
      <trkpt lat="43.16631" lon="6.51338">
        <ele>29</ele>
        <time>2013-09-12T11:29:05.000Z</time>
      </trkpt>
      <trkpt lat="43.16632" lon="6.51332">
        <ele>29</ele>
        <time>2013-09-12T11:29:06.000Z</time>
      </trkpt>
      <trkpt lat="43.16632" lon="6.51327">
        <ele>29</ele>
        <time>2013-09-12T11:29:07.000Z</time>
      </trkpt>
      <trkpt lat="43.16633" lon="6.51321">
        <ele>30</ele>
        <time>2013-09-12T11:29:08.000Z</time>
      </trkpt>
      <trkpt lat="43.16633" lon="6.51316">
        <ele>30</ele>
        <time>2013-09-12T11:29:09.000Z</time>
      </trkpt>
      <trkpt lat="43.16634" lon="6.5131">
        <ele>30</ele>
        <time>2013-09-12T11:29:10.000Z</time>
      </trkpt>
      <trkpt lat="43.16634" lon="6.51305">
        <ele>30</ele>
        <time>2013-09-12T11:29:11.000Z</time>
      </trkpt>
      <trkpt lat="43.16634" lon="6.51299">
        <ele>30</ele>
        <time>2013-09-12T11:29:12.000Z</time>
      </trkpt>
      <trkpt lat="43.16635" lon="6.51293">
        <ele>30</ele>
        <time>2013-09-12T11:29:13.000Z</time>
      </trkpt>
      <trkpt lat="43.16635" lon="6.51287">
        <ele>30</ele>
        <time>2013-09-12T11:29:14.000Z</time>
      </trkpt>
      <trkpt lat="43.16636" lon="6.51282">
        <ele>30</ele>
        <time>2013-09-12T11:29:15.000Z</time>
      </trkpt>
      <trkpt lat="43.16636" lon="6.51276">
        <ele>30</ele>
        <time>2013-09-12T11:29:16.000Z</time>
      </trkpt>
      <trkpt lat="43.16636" lon="6.51271">
        <ele>30</ele>
        <time>2013-09-12T11:29:17.000Z</time>
      </trkpt>
      <trkpt lat="43.16637" lon="6.51266">
        <ele>30</ele>
        <time>2013-09-12T11:29:18.000Z</time>
      </trkpt>
      <trkpt lat="43.16637" lon="6.5126">
        <ele>31</ele>
        <time>2013-09-12T11:29:19.000Z</time>
      </trkpt>
      <trkpt lat="43.16637" lon="6.51249">
        <ele>32</ele>
        <time>2013-09-12T11:29:21.000Z</time>
      </trkpt>
      <trkpt lat="43.16637" lon="6.51243">
        <ele>32</ele>
        <time>2013-09-12T11:29:22.000Z</time>
      </trkpt>
      <trkpt lat="43.16637" lon="6.51236">
        <ele>32</ele>
        <time>2013-09-12T11:29:23.000Z</time>
      </trkpt>
      <trkpt lat="43.16636" lon="6.51223">
        <ele>32</ele>
        <time>2013-09-12T11:29:25.000Z</time>
      </trkpt>
      <trkpt lat="43.16636" lon="6.51217">
        <ele>32</ele>
        <time>2013-09-12T11:29:26.000Z</time>
      </trkpt>
      <trkpt lat="43.16636" lon="6.51211">
        <ele>32</ele>
        <time>2013-09-12T11:29:27.000Z</time>
      </trkpt>
      <trkpt lat="43.16635" lon="6.51205">
        <ele>32</ele>
        <time>2013-09-12T11:29:28.000Z</time>
      </trkpt>
      <trkpt lat="43.16634" lon="6.512">
        <ele>32</ele>
        <time>2013-09-12T11:29:29.000Z</time>
      </trkpt>
      <trkpt lat="43.16634" lon="6.51196">
        <ele>32</ele>
        <time>2013-09-12T11:29:30.000Z</time>
      </trkpt>
      <trkpt lat="43.16633" lon="6.51191">
        <ele>32</ele>
        <time>2013-09-12T11:29:31.000Z</time>
      </trkpt>
      <trkpt lat="43.16633" lon="6.51185">
        <ele>32</ele>
        <time>2013-09-12T11:29:32.000Z</time>
      </trkpt>
      <trkpt lat="43.16632" lon="6.5118">
        <ele>32</ele>
        <time>2013-09-12T11:29:33.000Z</time>
      </trkpt>
      <trkpt lat="43.16632" lon="6.51174">
        <ele>32</ele>
        <time>2013-09-12T11:29:34.000Z</time>
      </trkpt>
      <trkpt lat="43.16632" lon="6.51169">
        <ele>32</ele>
        <time>2013-09-12T11:29:35.000Z</time>
      </trkpt>
      <trkpt lat="43.16631" lon="6.51163">
        <ele>34</ele>
        <time>2013-09-12T11:29:36.000Z</time>
      </trkpt>
      <trkpt lat="43.16631" lon="6.51157">
        <ele>34</ele>
        <time>2013-09-12T11:29:37.000Z</time>
      </trkpt>
      <trkpt lat="43.1663" lon="6.51152">
        <ele>34</ele>
        <time>2013-09-12T11:29:38.000Z</time>
      </trkpt>
      <trkpt lat="43.16629" lon="6.51147">
        <ele>34</ele>
        <time>2013-09-12T11:29:39.000Z</time>
      </trkpt>
      <trkpt lat="43.16629" lon="6.51141">
        <ele>34</ele>
        <time>2013-09-12T11:29:40.000Z</time>
      </trkpt>
      <trkpt lat="43.16628" lon="6.51135">
        <ele>34</ele>
        <time>2013-09-12T11:29:41.000Z</time>
      </trkpt>
      <trkpt lat="43.16628" lon="6.51129">
        <ele>34</ele>
        <time>2013-09-12T11:29:42.000Z</time>
      </trkpt>
      <trkpt lat="43.16628" lon="6.51117">
        <ele>34</ele>
        <time>2013-09-12T11:29:44.000Z</time>
      </trkpt>
      <trkpt lat="43.16628" lon="6.51105">
        <ele>35</ele>
        <time>2013-09-12T11:29:46.000Z</time>
      </trkpt>
      <trkpt lat="43.16628" lon="6.51098">
        <ele>35</ele>
        <time>2013-09-12T11:29:47.000Z</time>
      </trkpt>
      <trkpt lat="43.16628" lon="6.51092">
        <ele>35</ele>
        <time>2013-09-12T11:29:48.000Z</time>
      </trkpt>
      <trkpt lat="43.16627" lon="6.51086">
        <ele>35</ele>
        <time>2013-09-12T11:29:49.000Z</time>
      </trkpt>
      <trkpt lat="43.16627" lon="6.5108">
        <ele>38</ele>
        <time>2013-09-12T11:29:50.000Z</time>
      </trkpt>
      <trkpt lat="43.16626" lon="6.51074">
        <ele>38</ele>
        <time>2013-09-12T11:29:51.000Z</time>
      </trkpt>
      <trkpt lat="43.16625" lon="6.51068">
        <ele>38</ele>
        <time>2013-09-12T11:29:52.000Z</time>
      </trkpt>
      <trkpt lat="43.16624" lon="6.51063">
        <ele>38</ele>
        <time>2013-09-12T11:29:53.000Z</time>
      </trkpt>
      <trkpt lat="43.16622" lon="6.51057">
        <ele>38</ele>
        <time>2013-09-12T11:29:54.000Z</time>
      </trkpt>
      <trkpt lat="43.16621" lon="6.51052">
        <ele>38</ele>
        <time>2013-09-12T11:29:55.000Z</time>
      </trkpt>
      <trkpt lat="43.1662" lon="6.51047">
        <ele>38</ele>
        <time>2013-09-12T11:29:56.000Z</time>
      </trkpt>
      <trkpt lat="43.16619" lon="6.51042">
        <ele>38</ele>
        <time>2013-09-12T11:29:57.000Z</time>
      </trkpt>
      <trkpt lat="43.16618" lon="6.51037">
        <ele>38</ele>
        <time>2013-09-12T11:29:58.000Z</time>
      </trkpt>
      <trkpt lat="43.16616" lon="6.51032">
        <ele>38</ele>
        <time>2013-09-12T11:29:59.000Z</time>
      </trkpt>
      <trkpt lat="43.16615" lon="6.51027">
        <ele>38</ele>
        <time>2013-09-12T11:30:00.000Z</time>
      </trkpt>
      <trkpt lat="43.16613" lon="6.51022">
        <ele>38</ele>
        <time>2013-09-12T11:30:01.000Z</time>
      </trkpt>
      <trkpt lat="43.16612" lon="6.51017">
        <ele>38</ele>
        <time>2013-09-12T11:30:02.000Z</time>
      </trkpt>
      <trkpt lat="43.16611" lon="6.51011">
        <ele>38</ele>
        <time>2013-09-12T11:30:03.000Z</time>
      </trkpt>
      <trkpt lat="43.16609" lon="6.51006">
        <ele>38</ele>
        <time>2013-09-12T11:30:04.000Z</time>
      </trkpt>
      <trkpt lat="43.16608" lon="6.51">
        <ele>38</ele>
        <time>2013-09-12T11:30:05.000Z</time>
      </trkpt>
      <trkpt lat="43.16607" lon="6.50995">
        <ele>40</ele>
        <time>2013-09-12T11:30:06.000Z</time>
      </trkpt>
      <trkpt lat="43.16606" lon="6.50989">
        <ele>40</ele>
        <time>2013-09-12T11:30:07.000Z</time>
      </trkpt>
      <trkpt lat="43.16606" lon="6.50983">
        <ele>41</ele>
        <time>2013-09-12T11:30:08.000Z</time>
      </trkpt>
      <trkpt lat="43.16605" lon="6.50977">
        <ele>41</ele>
        <time>2013-09-12T11:30:09.000Z</time>
      </trkpt>
      <trkpt lat="43.16604" lon="6.50971">
        <ele>41</ele>
        <time>2013-09-12T11:30:10.000Z</time>
      </trkpt>
      <trkpt lat="43.16604" lon="6.50966">
        <ele>41</ele>
        <time>2013-09-12T11:30:11.000Z</time>
      </trkpt>
      <trkpt lat="43.16604" lon="6.50961">
        <ele>42</ele>
        <time>2013-09-12T11:30:12.000Z</time>
      </trkpt>
      <trkpt lat="43.16604" lon="6.50956">
        <ele>42</ele>
        <time>2013-09-12T11:30:13.000Z</time>
      </trkpt>
      <trkpt lat="43.16604" lon="6.50949">
        <ele>42</ele>
        <time>2013-09-12T11:30:15.000Z</time>
      </trkpt>
      <trkpt lat="43.16603" lon="6.50945">
        <ele>42</ele>
        <time>2013-09-12T11:30:16.000Z</time>
      </trkpt>
      <trkpt lat="43.16602" lon="6.50942">
        <ele>42</ele>
        <time>2013-09-12T11:30:17.000Z</time>
      </trkpt>
      <trkpt lat="43.166" lon="6.50939">
        <ele>41</ele>
        <time>2013-09-12T11:30:18.000Z</time>
      </trkpt>
      <trkpt lat="43.16598" lon="6.50937">
        <ele>41</ele>
        <time>2013-09-12T11:30:19.000Z</time>
      </trkpt>
      <trkpt lat="43.16597" lon="6.50934">
        <ele>41</ele>
        <time>2013-09-12T11:30:20.000Z</time>
      </trkpt>
      <trkpt lat="43.16596" lon="6.50932">
        <ele>41</ele>
        <time>2013-09-12T11:30:21.000Z</time>
      </trkpt>
      <trkpt lat="43.16596" lon="6.5093">
        <ele>41</ele>
        <time>2013-09-12T11:30:22.000Z</time>
      </trkpt>
      <trkpt lat="43.16598" lon="6.50929">
        <ele>41</ele>
        <time>2013-09-12T11:30:23.000Z</time>
      </trkpt>
      <trkpt lat="43.16602" lon="6.5093">
        <ele>41</ele>
        <time>2013-09-12T11:30:25.000Z</time>
      </trkpt>
      <trkpt lat="43.16604" lon="6.50931">
        <ele>42</ele>
        <time>2013-09-12T11:30:26.000Z</time>
      </trkpt>
      <trkpt lat="43.16606" lon="6.50933">
        <ele>42</ele>
        <time>2013-09-12T11:30:27.000Z</time>
      </trkpt>
      <trkpt lat="43.16608" lon="6.50934">
        <ele>42</ele>
        <time>2013-09-12T11:30:28.000Z</time>
      </trkpt>
      <trkpt lat="43.1661" lon="6.50934">
        <ele>42</ele>
        <time>2013-09-12T11:30:29.000Z</time>
      </trkpt>
      <trkpt lat="43.16612" lon="6.50935">
        <ele>42</ele>
        <time>2013-09-12T11:30:30.000Z</time>
      </trkpt>
      <trkpt lat="43.16614" lon="6.50935">
        <ele>43</ele>
        <time>2013-09-12T11:30:31.000Z</time>
      </trkpt>
      <trkpt lat="43.16616" lon="6.50935">
        <ele>43</ele>
        <time>2013-09-12T11:30:32.000Z</time>
      </trkpt>
      <trkpt lat="43.16619" lon="6.50933">
        <ele>43</ele>
        <time>2013-09-12T11:30:33.000Z</time>
      </trkpt>
      <trkpt lat="43.16621" lon="6.5093">
        <ele>43</ele>
        <time>2013-09-12T11:30:34.000Z</time>
      </trkpt>
      <trkpt lat="43.16622" lon="6.50926">
        <ele>44</ele>
        <time>2013-09-12T11:30:35.000Z</time>
      </trkpt>
      <trkpt lat="43.16624" lon="6.50921">
        <ele>44</ele>
        <time>2013-09-12T11:30:36.000Z</time>
      </trkpt>
      <trkpt lat="43.16625" lon="6.50916">
        <ele>44</ele>
        <time>2013-09-12T11:30:37.000Z</time>
      </trkpt>
      <trkpt lat="43.16626" lon="6.50912">
        <ele>45</ele>
        <time>2013-09-12T11:30:38.000Z</time>
      </trkpt>
      <trkpt lat="43.16627" lon="6.50907">
        <ele>45</ele>
        <time>2013-09-12T11:30:39.000Z</time>
      </trkpt>
      <trkpt lat="43.16629" lon="6.50903">
        <ele>45</ele>
        <time>2013-09-12T11:30:40.000Z</time>
      </trkpt>
      <trkpt lat="43.1663" lon="6.50898">
        <ele>45</ele>
        <time>2013-09-12T11:30:41.000Z</time>
      </trkpt>
      <trkpt lat="43.16632" lon="6.50894">
        <ele>45</ele>
        <time>2013-09-12T11:30:42.000Z</time>
      </trkpt>
      <trkpt lat="43.16634" lon="6.5089">
        <ele>45</ele>
        <time>2013-09-12T11:30:43.000Z</time>
      </trkpt>
      <trkpt lat="43.16636" lon="6.50885">
        <ele>45</ele>
        <time>2013-09-12T11:30:44.000Z</time>
      </trkpt>
      <trkpt lat="43.16639" lon="6.50881">
        <ele>45</ele>
        <time>2013-09-12T11:30:45.000Z</time>
      </trkpt>
      <trkpt lat="43.1664" lon="6.50878">
        <ele>45</ele>
        <time>2013-09-12T11:30:46.000Z</time>
      </trkpt>
      <trkpt lat="43.16642" lon="6.50874">
        <ele>45</ele>
        <time>2013-09-12T11:30:47.000Z</time>
      </trkpt>
      <trkpt lat="43.16644" lon="6.50869">
        <ele>45</ele>
        <time>2013-09-12T11:30:48.000Z</time>
      </trkpt>
      <trkpt lat="43.16646" lon="6.50865">
        <ele>45</ele>
        <time>2013-09-12T11:30:49.000Z</time>
      </trkpt>
      <trkpt lat="43.16647" lon="6.50861">
        <ele>45</ele>
        <time>2013-09-12T11:30:50.000Z</time>
      </trkpt>
      <trkpt lat="43.16648" lon="6.50857">
        <ele>45</ele>
        <time>2013-09-12T11:30:51.000Z</time>
      </trkpt>
      <trkpt lat="43.1665" lon="6.50852">
        <ele>45</ele>
        <time>2013-09-12T11:30:52.000Z</time>
      </trkpt>
      <trkpt lat="43.1665" lon="6.50848">
        <ele>45</ele>
        <time>2013-09-12T11:30:53.000Z</time>
      </trkpt>
      <trkpt lat="43.16651" lon="6.50844">
        <ele>45</ele>
        <time>2013-09-12T11:30:54.000Z</time>
      </trkpt>
      <trkpt lat="43.16651" lon="6.5084">
        <ele>46</ele>
        <time>2013-09-12T11:30:55.000Z</time>
      </trkpt>
      <trkpt lat="43.16651" lon="6.50836">
        <ele>46</ele>
        <time>2013-09-12T11:30:56.000Z</time>
      </trkpt>
      <trkpt lat="43.16651" lon="6.50831">
        <ele>45</ele>
        <time>2013-09-12T11:30:57.000Z</time>
      </trkpt>
      <trkpt lat="43.1665" lon="6.50826">
        <ele>45</ele>
        <time>2013-09-12T11:30:58.000Z</time>
      </trkpt>
      <trkpt lat="43.16649" lon="6.50822">
        <ele>45</ele>
        <time>2013-09-12T11:30:59.000Z</time>
      </trkpt>
      <trkpt lat="43.16648" lon="6.50817">
        <ele>44</ele>
        <time>2013-09-12T11:31:00.000Z</time>
      </trkpt>
      <trkpt lat="43.16646" lon="6.50813">
        <ele>44</ele>
        <time>2013-09-12T11:31:01.000Z</time>
      </trkpt>
      <trkpt lat="43.16644" lon="6.50809">
        <ele>44</ele>
        <time>2013-09-12T11:31:02.000Z</time>
      </trkpt>
      <trkpt lat="43.16642" lon="6.50805">
        <ele>44</ele>
        <time>2013-09-12T11:31:03.000Z</time>
      </trkpt>
      <trkpt lat="43.16639" lon="6.50802">
        <ele>44</ele>
        <time>2013-09-12T11:31:04.000Z</time>
      </trkpt>
      <trkpt lat="43.16636" lon="6.50799">
        <ele>43</ele>
        <time>2013-09-12T11:31:05.000Z</time>
      </trkpt>
      <trkpt lat="43.16633" lon="6.50796">
        <ele>43</ele>
        <time>2013-09-12T11:31:06.000Z</time>
      </trkpt>
      <trkpt lat="43.16631" lon="6.50792">
        <ele>43</ele>
        <time>2013-09-12T11:31:07.000Z</time>
      </trkpt>
      <trkpt lat="43.16628" lon="6.50789">
        <ele>43</ele>
        <time>2013-09-12T11:31:08.000Z</time>
      </trkpt>
      <trkpt lat="43.16625" lon="6.50786">
        <ele>43</ele>
        <time>2013-09-12T11:31:09.000Z</time>
      </trkpt>
      <trkpt lat="43.16622" lon="6.50782">
        <ele>43</ele>
        <time>2013-09-12T11:31:10.000Z</time>
      </trkpt>
      <trkpt lat="43.16619" lon="6.50779">
        <ele>43</ele>
        <time>2013-09-12T11:31:11.000Z</time>
      </trkpt>
      <trkpt lat="43.16617" lon="6.50775">
        <ele>43</ele>
        <time>2013-09-12T11:31:12.000Z</time>
      </trkpt>
      <trkpt lat="43.16615" lon="6.50771">
        <ele>43</ele>
        <time>2013-09-12T11:31:13.000Z</time>
      </trkpt>
      <trkpt lat="43.16614" lon="6.50766">
        <ele>42</ele>
        <time>2013-09-12T11:31:14.000Z</time>
      </trkpt>
      <trkpt lat="43.16613" lon="6.50762">
        <ele>42</ele>
        <time>2013-09-12T11:31:15.000Z</time>
      </trkpt>
      <trkpt lat="43.16612" lon="6.50758">
        <ele>42</ele>
        <time>2013-09-12T11:31:16.000Z</time>
      </trkpt>
      <trkpt lat="43.16612" lon="6.50753">
        <ele>42</ele>
        <time>2013-09-12T11:31:17.000Z</time>
      </trkpt>
      <trkpt lat="43.16612" lon="6.50749">
        <ele>43</ele>
        <time>2013-09-12T11:31:18.000Z</time>
      </trkpt>
      <trkpt lat="43.16612" lon="6.5074">
        <ele>43</ele>
        <time>2013-09-12T11:31:20.000Z</time>
      </trkpt>
      <trkpt lat="43.16612" lon="6.50731">
        <ele>43</ele>
        <time>2013-09-12T11:31:22.000Z</time>
      </trkpt>
      <trkpt lat="43.16612" lon="6.50726">
        <ele>43</ele>
        <time>2013-09-12T11:31:23.000Z</time>
      </trkpt>
      <trkpt lat="43.16613" lon="6.50722">
        <ele>43</ele>
        <time>2013-09-12T11:31:24.000Z</time>
      </trkpt>
      <trkpt lat="43.16613" lon="6.50717">
        <ele>43</ele>
        <time>2013-09-12T11:31:25.000Z</time>
      </trkpt>
      <trkpt lat="43.16614" lon="6.50713">
        <ele>43</ele>
        <time>2013-09-12T11:31:26.000Z</time>
      </trkpt>
      <trkpt lat="43.16615" lon="6.50708">
        <ele>44</ele>
        <time>2013-09-12T11:31:27.000Z</time>
      </trkpt>
      <trkpt lat="43.16615" lon="6.50704">
        <ele>44</ele>
        <time>2013-09-12T11:31:28.000Z</time>
      </trkpt>
      <trkpt lat="43.16616" lon="6.50699">
        <ele>44</ele>
        <time>2013-09-12T11:31:29.000Z</time>
      </trkpt>
      <trkpt lat="43.16616" lon="6.50694">
        <ele>44</ele>
        <time>2013-09-12T11:31:30.000Z</time>
      </trkpt>
      <trkpt lat="43.16617" lon="6.50689">
        <ele>44</ele>
        <time>2013-09-12T11:31:31.000Z</time>
      </trkpt>
      <trkpt lat="43.16617" lon="6.50685">
        <ele>44</ele>
        <time>2013-09-12T11:31:32.000Z</time>
      </trkpt>
      <trkpt lat="43.16618" lon="6.5068">
        <ele>44</ele>
        <time>2013-09-12T11:31:33.000Z</time>
      </trkpt>
      <trkpt lat="43.16619" lon="6.50675">
        <ele>44</ele>
        <time>2013-09-12T11:31:34.000Z</time>
      </trkpt>
      <trkpt lat="43.16619" lon="6.5067">
        <ele>44</ele>
        <time>2013-09-12T11:31:35.000Z</time>
      </trkpt>
      <trkpt lat="43.1662" lon="6.50666">
        <ele>45</ele>
        <time>2013-09-12T11:31:36.000Z</time>
      </trkpt>
      <trkpt lat="43.1662" lon="6.50661">
        <ele>45</ele>
        <time>2013-09-12T11:31:37.000Z</time>
      </trkpt>
      <trkpt lat="43.16621" lon="6.50656">
        <ele>45</ele>
        <time>2013-09-12T11:31:38.000Z</time>
      </trkpt>
      <trkpt lat="43.16621" lon="6.50651">
        <ele>45</ele>
        <time>2013-09-12T11:31:39.000Z</time>
      </trkpt>
      <trkpt lat="43.16622" lon="6.50646">
        <ele>45</ele>
        <time>2013-09-12T11:31:40.000Z</time>
      </trkpt>
      <trkpt lat="43.16623" lon="6.50642">
        <ele>45</ele>
        <time>2013-09-12T11:31:41.000Z</time>
      </trkpt>
      <trkpt lat="43.16623" lon="6.50637">
        <ele>46</ele>
        <time>2013-09-12T11:31:42.000Z</time>
      </trkpt>
      <trkpt lat="43.16624" lon="6.50632">
        <ele>46</ele>
        <time>2013-09-12T11:31:43.000Z</time>
      </trkpt>
      <trkpt lat="43.16624" lon="6.50627">
        <ele>46</ele>
        <time>2013-09-12T11:31:44.000Z</time>
      </trkpt>
      <trkpt lat="43.16625" lon="6.50621">
        <ele>46</ele>
        <time>2013-09-12T11:31:45.000Z</time>
      </trkpt>
      <trkpt lat="43.16625" lon="6.50616">
        <ele>46</ele>
        <time>2013-09-12T11:31:46.000Z</time>
      </trkpt>
      <trkpt lat="43.16626" lon="6.50611">
        <ele>46</ele>
        <time>2013-09-12T11:31:47.000Z</time>
      </trkpt>
      <trkpt lat="43.16627" lon="6.50606">
        <ele>46</ele>
        <time>2013-09-12T11:31:48.000Z</time>
      </trkpt>
      <trkpt lat="43.16627" lon="6.50601">
        <ele>46</ele>
        <time>2013-09-12T11:31:49.000Z</time>
      </trkpt>
      <trkpt lat="43.16628" lon="6.50596">
        <ele>46</ele>
        <time>2013-09-12T11:31:50.000Z</time>
      </trkpt>
      <trkpt lat="43.16629" lon="6.50591">
        <ele>46</ele>
        <time>2013-09-12T11:31:51.000Z</time>
      </trkpt>
      <trkpt lat="43.1663" lon="6.50586">
        <ele>47</ele>
        <time>2013-09-12T11:31:52.000Z</time>
      </trkpt>
      <trkpt lat="43.1663" lon="6.50581">
        <ele>48</ele>
        <time>2013-09-12T11:31:53.000Z</time>
      </trkpt>
      <trkpt lat="43.16631" lon="6.50576">
        <ele>48</ele>
        <time>2013-09-12T11:31:54.000Z</time>
      </trkpt>
      <trkpt lat="43.16632" lon="6.50571">
        <ele>48</ele>
        <time>2013-09-12T11:31:55.000Z</time>
      </trkpt>
      <trkpt lat="43.16633" lon="6.50566">
        <ele>48</ele>
        <time>2013-09-12T11:31:56.000Z</time>
      </trkpt>
      <trkpt lat="43.16634" lon="6.5056">
        <ele>48</ele>
        <time>2013-09-12T11:31:57.000Z</time>
      </trkpt>
      <trkpt lat="43.16634" lon="6.50555">
        <ele>49</ele>
        <time>2013-09-12T11:31:58.000Z</time>
      </trkpt>
      <trkpt lat="43.16635" lon="6.5055">
        <ele>49</ele>
        <time>2013-09-12T11:31:59.000Z</time>
      </trkpt>
      <trkpt lat="43.16636" lon="6.50545">
        <ele>49</ele>
        <time>2013-09-12T11:32:00.000Z</time>
      </trkpt>
      <trkpt lat="43.16637" lon="6.50539">
        <ele>49</ele>
        <time>2013-09-12T11:32:01.000Z</time>
      </trkpt>
      <trkpt lat="43.16638" lon="6.50534">
        <ele>49</ele>
        <time>2013-09-12T11:32:02.000Z</time>
      </trkpt>
      <trkpt lat="43.16638" lon="6.50529">
        <ele>49</ele>
        <time>2013-09-12T11:32:03.000Z</time>
      </trkpt>
      <trkpt lat="43.16639" lon="6.50523">
        <ele>50</ele>
        <time>2013-09-12T11:32:04.000Z</time>
      </trkpt>
      <trkpt lat="43.1664" lon="6.50518">
        <ele>50</ele>
        <time>2013-09-12T11:32:05.000Z</time>
      </trkpt>
      <trkpt lat="43.1664" lon="6.50513">
        <ele>50</ele>
        <time>2013-09-12T11:32:06.000Z</time>
      </trkpt>
      <trkpt lat="43.16641" lon="6.50507">
        <ele>50</ele>
        <time>2013-09-12T11:32:07.000Z</time>
      </trkpt>
      <trkpt lat="43.16642" lon="6.50502">
        <ele>51</ele>
        <time>2013-09-12T11:32:08.000Z</time>
      </trkpt>
      <trkpt lat="43.16642" lon="6.50496">
        <ele>53</ele>
        <time>2013-09-12T11:32:09.000Z</time>
      </trkpt>
      <trkpt lat="43.16643" lon="6.50491">
        <ele>53</ele>
        <time>2013-09-12T11:32:10.000Z</time>
      </trkpt>
      <trkpt lat="43.16643" lon="6.50486">
        <ele>53</ele>
        <time>2013-09-12T11:32:11.000Z</time>
      </trkpt>
      <trkpt lat="43.16644" lon="6.5048">
        <ele>52</ele>
        <time>2013-09-12T11:32:12.000Z</time>
      </trkpt>
      <trkpt lat="43.16644" lon="6.50475">
        <ele>52</ele>
        <time>2013-09-12T11:32:13.000Z</time>
      </trkpt>
      <trkpt lat="43.16644" lon="6.50469">
        <ele>52</ele>
        <time>2013-09-12T11:32:14.000Z</time>
      </trkpt>
      <trkpt lat="43.16644" lon="6.50459">
        <ele>53</ele>
        <time>2013-09-12T11:32:16.000Z</time>
      </trkpt>
      <trkpt lat="43.16644" lon="6.50449">
        <ele>53</ele>
        <time>2013-09-12T11:32:18.000Z</time>
      </trkpt>
      <trkpt lat="43.16643" lon="6.50444">
        <ele>53</ele>
        <time>2013-09-12T11:32:19.000Z</time>
      </trkpt>
      <trkpt lat="43.16643" lon="6.50439">
        <ele>53</ele>
        <time>2013-09-12T11:32:20.000Z</time>
      </trkpt>
      <trkpt lat="43.16642" lon="6.50434">
        <ele>53</ele>
        <time>2013-09-12T11:32:21.000Z</time>
      </trkpt>
      <trkpt lat="43.1664" lon="6.50429">
        <ele>53</ele>
        <time>2013-09-12T11:32:22.000Z</time>
      </trkpt>
      <trkpt lat="43.16638" lon="6.50424">
        <ele>53</ele>
        <time>2013-09-12T11:32:23.000Z</time>
      </trkpt>
      <trkpt lat="43.16636" lon="6.50419">
        <ele>53</ele>
        <time>2013-09-12T11:32:24.000Z</time>
      </trkpt>
      <trkpt lat="43.16633" lon="6.50415">
        <ele>58</ele>
        <time>2013-09-12T11:32:25.000Z</time>
      </trkpt>
      <trkpt lat="43.16631" lon="6.50412">
        <ele>58</ele>
        <time>2013-09-12T11:32:26.000Z</time>
      </trkpt>
      <trkpt lat="43.16628" lon="6.50408">
        <ele>58</ele>
        <time>2013-09-12T11:32:27.000Z</time>
      </trkpt>
      <trkpt lat="43.16624" lon="6.50405">
        <ele>58</ele>
        <time>2013-09-12T11:32:28.000Z</time>
      </trkpt>
      <trkpt lat="43.16621" lon="6.50403">
        <ele>57</ele>
        <time>2013-09-12T11:32:29.000Z</time>
      </trkpt>
      <trkpt lat="43.16617" lon="6.504">
        <ele>57</ele>
        <time>2013-09-12T11:32:30.000Z</time>
      </trkpt>
      <trkpt lat="43.16614" lon="6.50398">
        <ele>57</ele>
        <time>2013-09-12T11:32:31.000Z</time>
      </trkpt>
      <trkpt lat="43.1661" lon="6.50396">
        <ele>57</ele>
        <time>2013-09-12T11:32:32.000Z</time>
      </trkpt>
      <trkpt lat="43.16606" lon="6.50393">
        <ele>56</ele>
        <time>2013-09-12T11:32:33.000Z</time>
      </trkpt>
      <trkpt lat="43.16602" lon="6.50391">
        <ele>56</ele>
        <time>2013-09-12T11:32:34.000Z</time>
      </trkpt>
      <trkpt lat="43.16598" lon="6.50389">
        <ele>56</ele>
        <time>2013-09-12T11:32:35.000Z</time>
      </trkpt>
      <trkpt lat="43.16595" lon="6.50387">
        <ele>56</ele>
        <time>2013-09-12T11:32:36.000Z</time>
      </trkpt>
      <trkpt lat="43.16591" lon="6.50384">
        <ele>56</ele>
        <time>2013-09-12T11:32:37.000Z</time>
      </trkpt>
      <trkpt lat="43.16587" lon="6.50382">
        <ele>56</ele>
        <time>2013-09-12T11:32:38.000Z</time>
      </trkpt>
      <trkpt lat="43.16583" lon="6.5038">
        <ele>53</ele>
        <time>2013-09-12T11:32:39.000Z</time>
      </trkpt>
      <trkpt lat="43.16579" lon="6.50378">
        <ele>53</ele>
        <time>2013-09-12T11:32:40.000Z</time>
      </trkpt>
      <trkpt lat="43.16575" lon="6.50376">
        <ele>53</ele>
        <time>2013-09-12T11:32:41.000Z</time>
      </trkpt>
      <trkpt lat="43.16571" lon="6.50373">
        <ele>53</ele>
        <time>2013-09-12T11:32:42.000Z</time>
      </trkpt>
      <trkpt lat="43.16567" lon="6.50371">
        <ele>54</ele>
        <time>2013-09-12T11:32:43.000Z</time>
      </trkpt>
      <trkpt lat="43.16564" lon="6.50369">
        <ele>54</ele>
        <time>2013-09-12T11:32:44.000Z</time>
      </trkpt>
      <trkpt lat="43.1656" lon="6.50366">
        <ele>54</ele>
        <time>2013-09-12T11:32:45.000Z</time>
      </trkpt>
      <trkpt lat="43.16557" lon="6.50364">
        <ele>54</ele>
        <time>2013-09-12T11:32:46.000Z</time>
      </trkpt>
      <trkpt lat="43.16553" lon="6.50362">
        <ele>54</ele>
        <time>2013-09-12T11:32:47.000Z</time>
      </trkpt>
      <trkpt lat="43.1655" lon="6.5036">
        <ele>54</ele>
        <time>2013-09-12T11:32:48.000Z</time>
      </trkpt>
      <trkpt lat="43.16547" lon="6.50357">
        <ele>54</ele>
        <time>2013-09-12T11:32:49.000Z</time>
      </trkpt>
      <trkpt lat="43.16543" lon="6.50355">
        <ele>54</ele>
        <time>2013-09-12T11:32:50.000Z</time>
      </trkpt>
      <trkpt lat="43.1654" lon="6.50353">
        <ele>54</ele>
        <time>2013-09-12T11:32:51.000Z</time>
      </trkpt>
      <trkpt lat="43.16536" lon="6.5035">
        <ele>54</ele>
        <time>2013-09-12T11:32:52.000Z</time>
      </trkpt>
      <trkpt lat="43.16533" lon="6.50347">
        <ele>53</ele>
        <time>2013-09-12T11:32:53.000Z</time>
      </trkpt>
      <trkpt lat="43.16529" lon="6.50344">
        <ele>53</ele>
        <time>2013-09-12T11:32:54.000Z</time>
      </trkpt>
      <trkpt lat="43.16526" lon="6.50341">
        <ele>53</ele>
        <time>2013-09-12T11:32:55.000Z</time>
      </trkpt>
      <trkpt lat="43.16523" lon="6.50337">
        <ele>53</ele>
        <time>2013-09-12T11:32:56.000Z</time>
      </trkpt>
      <trkpt lat="43.16521" lon="6.50333">
        <ele>54</ele>
        <time>2013-09-12T11:32:57.000Z</time>
      </trkpt>
      <trkpt lat="43.16518" lon="6.50329">
        <ele>54</ele>
        <time>2013-09-12T11:32:58.000Z</time>
      </trkpt>
      <trkpt lat="43.16517" lon="6.50325">
        <ele>54</ele>
        <time>2013-09-12T11:32:59.000Z</time>
      </trkpt>
      <trkpt lat="43.16515" lon="6.50321">
        <ele>54</ele>
        <time>2013-09-12T11:33:00.000Z</time>
      </trkpt>
      <trkpt lat="43.16513" lon="6.50316">
        <ele>54</ele>
        <time>2013-09-12T11:33:01.000Z</time>
      </trkpt>
      <trkpt lat="43.16512" lon="6.50312">
        <ele>54</ele>
        <time>2013-09-12T11:33:02.000Z</time>
      </trkpt>
      <trkpt lat="43.16511" lon="6.50308">
        <ele>55</ele>
        <time>2013-09-12T11:33:03.000Z</time>
      </trkpt>
      <trkpt lat="43.16511" lon="6.50304">
        <ele>55</ele>
        <time>2013-09-12T11:33:04.000Z</time>
      </trkpt>
      <trkpt lat="43.1651" lon="6.503">
        <ele>55</ele>
        <time>2013-09-12T11:33:05.000Z</time>
      </trkpt>
      <trkpt lat="43.1651" lon="6.50295">
        <ele>55</ele>
        <time>2013-09-12T11:33:06.000Z</time>
      </trkpt>
      <trkpt lat="43.16509" lon="6.50291">
        <ele>55</ele>
        <time>2013-09-12T11:33:07.000Z</time>
      </trkpt>
      <trkpt lat="43.16509" lon="6.50287">
        <ele>55</ele>
        <time>2013-09-12T11:33:08.000Z</time>
      </trkpt>
      <trkpt lat="43.16509" lon="6.50282">
        <ele>56</ele>
        <time>2013-09-12T11:33:09.000Z</time>
      </trkpt>
      <trkpt lat="43.1651" lon="6.50274">
        <ele>55</ele>
        <time>2013-09-12T11:33:11.000Z</time>
      </trkpt>
      <trkpt lat="43.1651" lon="6.50269">
        <ele>55</ele>
        <time>2013-09-12T11:33:12.000Z</time>
      </trkpt>
      <trkpt lat="43.1651" lon="6.50265">
        <ele>55</ele>
        <time>2013-09-12T11:33:13.000Z</time>
      </trkpt>
      <trkpt lat="43.16511" lon="6.50261">
        <ele>55</ele>
        <time>2013-09-12T11:33:14.000Z</time>
      </trkpt>
      <trkpt lat="43.16511" lon="6.50257">
        <ele>55</ele>
        <time>2013-09-12T11:33:15.000Z</time>
      </trkpt>
      <trkpt lat="43.16512" lon="6.50253">
        <ele>55</ele>
        <time>2013-09-12T11:33:16.000Z</time>
      </trkpt>
      <trkpt lat="43.16513" lon="6.50248">
        <ele>56</ele>
        <time>2013-09-12T11:33:17.000Z</time>
      </trkpt>
      <trkpt lat="43.16515" lon="6.50244">
        <ele>57</ele>
        <time>2013-09-12T11:33:18.000Z</time>
      </trkpt>
      <trkpt lat="43.16516" lon="6.5024">
        <ele>57</ele>
        <time>2013-09-12T11:33:19.000Z</time>
      </trkpt>
      <trkpt lat="43.16518" lon="6.50237">
        <ele>58</ele>
        <time>2013-09-12T11:33:20.000Z</time>
      </trkpt>
      <trkpt lat="43.1652" lon="6.50233">
        <ele>58</ele>
        <time>2013-09-12T11:33:21.000Z</time>
      </trkpt>
      <trkpt lat="43.16522" lon="6.5023">
        <ele>58</ele>
        <time>2013-09-12T11:33:22.000Z</time>
      </trkpt>
      <trkpt lat="43.16525" lon="6.50227">
        <ele>59</ele>
        <time>2013-09-12T11:33:23.000Z</time>
      </trkpt>
      <trkpt lat="43.16527" lon="6.50224">
        <ele>59</ele>
        <time>2013-09-12T11:33:24.000Z</time>
      </trkpt>
      <trkpt lat="43.1653" lon="6.50221">
        <ele>59</ele>
        <time>2013-09-12T11:33:25.000Z</time>
      </trkpt>
      <trkpt lat="43.16532" lon="6.50219">
        <ele>60</ele>
        <time>2013-09-12T11:33:26.000Z</time>
      </trkpt>
      <trkpt lat="43.16535" lon="6.50217">
        <ele>60</ele>
        <time>2013-09-12T11:33:27.000Z</time>
      </trkpt>
      <trkpt lat="43.16538" lon="6.50214">
        <ele>60</ele>
        <time>2013-09-12T11:33:28.000Z</time>
      </trkpt>
      <trkpt lat="43.1654" lon="6.50212">
        <ele>60</ele>
        <time>2013-09-12T11:33:29.000Z</time>
      </trkpt>
      <trkpt lat="43.16543" lon="6.5021">
        <ele>60</ele>
        <time>2013-09-12T11:33:30.000Z</time>
      </trkpt>
      <trkpt lat="43.16545" lon="6.50208">
        <ele>60</ele>
        <time>2013-09-12T11:33:31.000Z</time>
      </trkpt>
      <trkpt lat="43.16548" lon="6.50205">
        <ele>61</ele>
        <time>2013-09-12T11:33:32.000Z</time>
      </trkpt>
      <trkpt lat="43.1655" lon="6.50202">
        <ele>61</ele>
        <time>2013-09-12T11:33:33.000Z</time>
      </trkpt>
      <trkpt lat="43.16552" lon="6.502">
        <ele>61</ele>
        <time>2013-09-12T11:33:34.000Z</time>
      </trkpt>
      <trkpt lat="43.16554" lon="6.50196">
        <ele>61</ele>
        <time>2013-09-12T11:33:35.000Z</time>
      </trkpt>
      <trkpt lat="43.16556" lon="6.50193">
        <ele>61</ele>
        <time>2013-09-12T11:33:36.000Z</time>
      </trkpt>
      <trkpt lat="43.16558" lon="6.5019">
        <ele>61</ele>
        <time>2013-09-12T11:33:37.000Z</time>
      </trkpt>
      <trkpt lat="43.1656" lon="6.50186">
        <ele>61</ele>
        <time>2013-09-12T11:33:38.000Z</time>
      </trkpt>
      <trkpt lat="43.16561" lon="6.50182">
        <ele>62</ele>
        <time>2013-09-12T11:33:39.000Z</time>
      </trkpt>
      <trkpt lat="43.16562" lon="6.50178">
        <ele>62</ele>
        <time>2013-09-12T11:33:40.000Z</time>
      </trkpt>
      <trkpt lat="43.16563" lon="6.50174">
        <ele>62</ele>
        <time>2013-09-12T11:33:41.000Z</time>
      </trkpt>
      <trkpt lat="43.16564" lon="6.5017">
        <ele>62</ele>
        <time>2013-09-12T11:33:42.000Z</time>
      </trkpt>
      <trkpt lat="43.16564" lon="6.50166">
        <ele>63</ele>
        <time>2013-09-12T11:33:43.000Z</time>
      </trkpt>
      <trkpt lat="43.16565" lon="6.50162">
        <ele>63</ele>
        <time>2013-09-12T11:33:44.000Z</time>
      </trkpt>
      <trkpt lat="43.16565" lon="6.50157">
        <ele>63</ele>
        <time>2013-09-12T11:33:45.000Z</time>
      </trkpt>
      <trkpt lat="43.16565" lon="6.50148">
        <ele>62</ele>
        <time>2013-09-12T11:33:47.000Z</time>
      </trkpt>
      <trkpt lat="43.16564" lon="6.50144">
        <ele>62</ele>
        <time>2013-09-12T11:33:48.000Z</time>
      </trkpt>
      <trkpt lat="43.16564" lon="6.5014">
        <ele>62</ele>
        <time>2013-09-12T11:33:49.000Z</time>
      </trkpt>
      <trkpt lat="43.16563" lon="6.50135">
        <ele>62</ele>
        <time>2013-09-12T11:33:50.000Z</time>
      </trkpt>
      <trkpt lat="43.16562" lon="6.50131">
        <ele>62</ele>
        <time>2013-09-12T11:33:51.000Z</time>
      </trkpt>
      <trkpt lat="43.1656" lon="6.50127">
        <ele>62</ele>
        <time>2013-09-12T11:33:52.000Z</time>
      </trkpt>
      <trkpt lat="43.16559" lon="6.50123">
        <ele>62</ele>
        <time>2013-09-12T11:33:53.000Z</time>
      </trkpt>
      <trkpt lat="43.16558" lon="6.5012">
        <ele>62</ele>
        <time>2013-09-12T11:33:54.000Z</time>
      </trkpt>
      <trkpt lat="43.16557" lon="6.50116">
        <ele>62</ele>
        <time>2013-09-12T11:33:55.000Z</time>
      </trkpt>
      <trkpt lat="43.16555" lon="6.50112">
        <ele>63</ele>
        <time>2013-09-12T11:33:56.000Z</time>
      </trkpt>
      <trkpt lat="43.16554" lon="6.50108">
        <ele>63</ele>
        <time>2013-09-12T11:33:57.000Z</time>
      </trkpt>
      <trkpt lat="43.16552" lon="6.50105">
        <ele>63</ele>
        <time>2013-09-12T11:33:58.000Z</time>
      </trkpt>
      <trkpt lat="43.1655" lon="6.50101">
        <ele>62</ele>
        <time>2013-09-12T11:33:59.000Z</time>
      </trkpt>
      <trkpt lat="43.16549" lon="6.50098">
        <ele>62</ele>
        <time>2013-09-12T11:34:00.000Z</time>
      </trkpt>
      <trkpt lat="43.16547" lon="6.50094">
        <ele>62</ele>
        <time>2013-09-12T11:34:01.000Z</time>
      </trkpt>
      <trkpt lat="43.16545" lon="6.50091">
        <ele>62</ele>
        <time>2013-09-12T11:34:02.000Z</time>
      </trkpt>
      <trkpt lat="43.16543" lon="6.50088">
        <ele>62</ele>
        <time>2013-09-12T11:34:03.000Z</time>
      </trkpt>
      <trkpt lat="43.16542" lon="6.50085">
        <ele>62</ele>
        <time>2013-09-12T11:34:04.000Z</time>
      </trkpt>
      <trkpt lat="43.1654" lon="6.50082">
        <ele>63</ele>
        <time>2013-09-12T11:34:05.000Z</time>
      </trkpt>
      <trkpt lat="43.16538" lon="6.50079">
        <ele>63</ele>
        <time>2013-09-12T11:34:06.000Z</time>
      </trkpt>
      <trkpt lat="43.16536" lon="6.50076">
        <ele>63</ele>
        <time>2013-09-12T11:34:07.000Z</time>
      </trkpt>
      <trkpt lat="43.16534" lon="6.50073">
        <ele>63</ele>
        <time>2013-09-12T11:34:08.000Z</time>
      </trkpt>
      <trkpt lat="43.16531" lon="6.50071">
        <ele>63</ele>
        <time>2013-09-12T11:34:09.000Z</time>
      </trkpt>
      <trkpt lat="43.16529" lon="6.50068">
        <ele>62</ele>
        <time>2013-09-12T11:34:10.000Z</time>
      </trkpt>
      <trkpt lat="43.16527" lon="6.50066">
        <ele>62</ele>
        <time>2013-09-12T11:34:11.000Z</time>
      </trkpt>
      <trkpt lat="43.16525" lon="6.50064">
        <ele>62</ele>
        <time>2013-09-12T11:34:12.000Z</time>
      </trkpt>
      <trkpt lat="43.16523" lon="6.50062">
        <ele>62</ele>
        <time>2013-09-12T11:34:13.000Z</time>
      </trkpt>
      <trkpt lat="43.1652" lon="6.5006">
        <ele>62</ele>
        <time>2013-09-12T11:34:14.000Z</time>
      </trkpt>
      <trkpt lat="43.16518" lon="6.50058">
        <ele>62</ele>
        <time>2013-09-12T11:34:15.000Z</time>
      </trkpt>
      <trkpt lat="43.16516" lon="6.50057">
        <ele>62</ele>
        <time>2013-09-12T11:34:16.000Z</time>
      </trkpt>
      <trkpt lat="43.16513" lon="6.50056">
        <ele>62</ele>
        <time>2013-09-12T11:34:17.000Z</time>
      </trkpt>
      <trkpt lat="43.16511" lon="6.50054">
        <ele>62</ele>
        <time>2013-09-12T11:34:18.000Z</time>
      </trkpt>
      <trkpt lat="43.16509" lon="6.50053">
        <ele>62</ele>
        <time>2013-09-12T11:34:19.000Z</time>
      </trkpt>
      <trkpt lat="43.16507" lon="6.50052">
        <ele>62</ele>
        <time>2013-09-12T11:34:20.000Z</time>
      </trkpt>
      <trkpt lat="43.16505" lon="6.50052">
        <ele>62</ele>
        <time>2013-09-12T11:34:21.000Z</time>
      </trkpt>
      <trkpt lat="43.16503" lon="6.50051">
        <ele>61</ele>
        <time>2013-09-12T11:34:22.000Z</time>
      </trkpt>
      <trkpt lat="43.16501" lon="6.50051">
        <ele>61</ele>
        <time>2013-09-12T11:34:23.000Z</time>
      </trkpt>
      <trkpt lat="43.16499" lon="6.5005">
        <ele>64</ele>
        <time>2013-09-12T11:34:24.000Z</time>
      </trkpt>
      <trkpt lat="43.16497" lon="6.5005">
        <ele>64</ele>
        <time>2013-09-12T11:34:25.000Z</time>
      </trkpt>
      <trkpt lat="43.16493" lon="6.5005">
        <ele>65</ele>
        <time>2013-09-12T11:34:27.000Z</time>
      </trkpt>
      <trkpt lat="43.16491" lon="6.5005">
        <ele>65</ele>
        <time>2013-09-12T11:34:28.000Z</time>
      </trkpt>
      <trkpt lat="43.16489" lon="6.50051">
        <ele>65</ele>
        <time>2013-09-12T11:34:29.000Z</time>
      </trkpt>
      <trkpt lat="43.16487" lon="6.50051">
        <ele>65</ele>
        <time>2013-09-12T11:34:30.000Z</time>
      </trkpt>
      <trkpt lat="43.16485" lon="6.50052">
        <ele>65</ele>
        <time>2013-09-12T11:34:31.000Z</time>
      </trkpt>
      <trkpt lat="43.16483" lon="6.50053">
        <ele>65</ele>
        <time>2013-09-12T11:34:32.000Z</time>
      </trkpt>
      <trkpt lat="43.16481" lon="6.50054">
        <ele>65</ele>
        <time>2013-09-12T11:34:33.000Z</time>
      </trkpt>
      <trkpt lat="43.16479" lon="6.50055">
        <ele>66</ele>
        <time>2013-09-12T11:34:34.000Z</time>
      </trkpt>
      <trkpt lat="43.16477" lon="6.50056">
        <ele>66</ele>
        <time>2013-09-12T11:34:35.000Z</time>
      </trkpt>
      <trkpt lat="43.16476" lon="6.50057">
        <ele>66</ele>
        <time>2013-09-12T11:34:36.000Z</time>
      </trkpt>
      <trkpt lat="43.16474" lon="6.50059">
        <ele>66</ele>
        <time>2013-09-12T11:34:37.000Z</time>
      </trkpt>
      <trkpt lat="43.16472" lon="6.5006">
        <ele>66</ele>
        <time>2013-09-12T11:34:38.000Z</time>
      </trkpt>
      <trkpt lat="43.16471" lon="6.50062">
        <ele>67</ele>
        <time>2013-09-12T11:34:39.000Z</time>
      </trkpt>
      <trkpt lat="43.16469" lon="6.50064">
        <ele>67</ele>
        <time>2013-09-12T11:34:40.000Z</time>
      </trkpt>
      <trkpt lat="43.16468" lon="6.50065">
        <ele>67</ele>
        <time>2013-09-12T11:34:41.000Z</time>
      </trkpt>
      <trkpt lat="43.16467" lon="6.50067">
        <ele>67</ele>
        <time>2013-09-12T11:34:42.000Z</time>
      </trkpt>
      <trkpt lat="43.16465" lon="6.50069">
        <ele>67</ele>
        <time>2013-09-12T11:34:43.000Z</time>
      </trkpt>
      <trkpt lat="43.16464" lon="6.50071">
        <ele>67</ele>
        <time>2013-09-12T11:34:44.000Z</time>
      </trkpt>
      <trkpt lat="43.16463" lon="6.50074">
        <ele>68</ele>
        <time>2013-09-12T11:34:45.000Z</time>
      </trkpt>
      <trkpt lat="43.16462" lon="6.50076">
        <ele>68</ele>
        <time>2013-09-12T11:34:46.000Z</time>
      </trkpt>
      <trkpt lat="43.16461" lon="6.50078">
        <ele>68</ele>
        <time>2013-09-12T11:34:47.000Z</time>
      </trkpt>
      <trkpt lat="43.1646" lon="6.5008">
        <ele>68</ele>
        <time>2013-09-12T11:34:48.000Z</time>
      </trkpt>
      <trkpt lat="43.16459" lon="6.50083">
        <ele>68</ele>
        <time>2013-09-12T11:34:49.000Z</time>
      </trkpt>
      <trkpt lat="43.16459" lon="6.50085">
        <ele>69</ele>
        <time>2013-09-12T11:34:50.000Z</time>
      </trkpt>
      <trkpt lat="43.16458" lon="6.50087">
        <ele>69</ele>
        <time>2013-09-12T11:34:51.000Z</time>
      </trkpt>
      <trkpt lat="43.16458" lon="6.5009">
        <ele>69</ele>
        <time>2013-09-12T11:34:52.000Z</time>
      </trkpt>
      <trkpt lat="43.16457" lon="6.50092">
        <ele>70</ele>
        <time>2013-09-12T11:34:53.000Z</time>
      </trkpt>
      <trkpt lat="43.16457" lon="6.50095">
        <ele>70</ele>
        <time>2013-09-12T11:34:54.000Z</time>
      </trkpt>
      <trkpt lat="43.16456" lon="6.50097">
        <ele>70</ele>
        <time>2013-09-12T11:34:55.000Z</time>
      </trkpt>
      <trkpt lat="43.16456" lon="6.501">
        <ele>70</ele>
        <time>2013-09-12T11:34:56.000Z</time>
      </trkpt>
      <trkpt lat="43.16455" lon="6.50103">
        <ele>70</ele>
        <time>2013-09-12T11:34:57.000Z</time>
      </trkpt>
      <trkpt lat="43.16455" lon="6.50105">
        <ele>70</ele>
        <time>2013-09-12T11:34:58.000Z</time>
      </trkpt>
      <trkpt lat="43.16455" lon="6.50108">
        <ele>70</ele>
        <time>2013-09-12T11:34:59.000Z</time>
      </trkpt>
      <trkpt lat="43.16455" lon="6.50111">
        <ele>70</ele>
        <time>2013-09-12T11:35:00.000Z</time>
      </trkpt>
      <trkpt lat="43.16454" lon="6.50114">
        <ele>70</ele>
        <time>2013-09-12T11:35:01.000Z</time>
      </trkpt>
      <trkpt lat="43.16454" lon="6.50117">
        <ele>70</ele>
        <time>2013-09-12T11:35:02.000Z</time>
      </trkpt>
      <trkpt lat="43.16454" lon="6.50132">
        <ele>71</ele>
        <time>2013-09-12T11:35:07.000Z</time>
      </trkpt>
      <trkpt lat="43.16454" lon="6.50143">
        <ele>71</ele>
        <time>2013-09-12T11:35:11.000Z</time>
      </trkpt>
      <trkpt lat="43.16455" lon="6.50146">
        <ele>71</ele>
        <time>2013-09-12T11:35:12.000Z</time>
      </trkpt>
      <trkpt lat="43.16455" lon="6.50149">
        <ele>71</ele>
        <time>2013-09-12T11:35:13.000Z</time>
      </trkpt>
      <trkpt lat="43.16455" lon="6.50154">
        <ele>71</ele>
        <time>2013-09-12T11:35:15.000Z</time>
      </trkpt>
      <trkpt lat="43.16455" lon="6.50163">
        <ele>71</ele>
        <time>2013-09-12T11:35:18.000Z</time>
      </trkpt>
      <trkpt lat="43.16455" lon="6.50175">
        <ele>70</ele>
        <time>2013-09-12T11:35:22.000Z</time>
      </trkpt>
      <trkpt lat="43.16455" lon="6.50178">
        <ele>70</ele>
        <time>2013-09-12T11:35:23.000Z</time>
      </trkpt>
      <trkpt lat="43.16454" lon="6.50181">
        <ele>70</ele>
        <time>2013-09-12T11:35:24.000Z</time>
      </trkpt>
      <trkpt lat="43.16454" lon="6.50184">
        <ele>70</ele>
        <time>2013-09-12T11:35:25.000Z</time>
      </trkpt>
      <trkpt lat="43.16453" lon="6.50187">
        <ele>70</ele>
        <time>2013-09-12T11:35:26.000Z</time>
      </trkpt>
      <trkpt lat="43.16453" lon="6.5019">
        <ele>70</ele>
        <time>2013-09-12T11:35:27.000Z</time>
      </trkpt>
      <trkpt lat="43.16452" lon="6.50192">
        <ele>70</ele>
        <time>2013-09-12T11:35:28.000Z</time>
      </trkpt>
      <trkpt lat="43.16452" lon="6.50195">
        <ele>70</ele>
        <time>2013-09-12T11:35:29.000Z</time>
      </trkpt>
      <trkpt lat="43.16451" lon="6.50198">
        <ele>70</ele>
        <time>2013-09-12T11:35:30.000Z</time>
      </trkpt>
      <trkpt lat="43.16451" lon="6.50201">
        <ele>70</ele>
        <time>2013-09-12T11:35:31.000Z</time>
      </trkpt>
      <trkpt lat="43.1645" lon="6.50203">
        <ele>70</ele>
        <time>2013-09-12T11:35:32.000Z</time>
      </trkpt>
      <trkpt lat="43.1645" lon="6.50206">
        <ele>70</ele>
        <time>2013-09-12T11:35:33.000Z</time>
      </trkpt>
      <trkpt lat="43.16449" lon="6.50209">
        <ele>70</ele>
        <time>2013-09-12T11:35:34.000Z</time>
      </trkpt>
      <trkpt lat="43.16448" lon="6.50212">
        <ele>70</ele>
        <time>2013-09-12T11:35:35.000Z</time>
      </trkpt>
      <trkpt lat="43.16448" lon="6.50214">
        <ele>70</ele>
        <time>2013-09-12T11:35:36.000Z</time>
      </trkpt>
      <trkpt lat="43.16447" lon="6.50217">
        <ele>70</ele>
        <time>2013-09-12T11:35:37.000Z</time>
      </trkpt>
      <trkpt lat="43.16447" lon="6.5022">
        <ele>70</ele>
        <time>2013-09-12T11:35:38.000Z</time>
      </trkpt>
      <trkpt lat="43.16446" lon="6.50222">
        <ele>71</ele>
        <time>2013-09-12T11:35:39.000Z</time>
      </trkpt>
      <trkpt lat="43.16446" lon="6.50225">
        <ele>71</ele>
        <time>2013-09-12T11:35:40.000Z</time>
      </trkpt>
      <trkpt lat="43.16445" lon="6.50227">
        <ele>71</ele>
        <time>2013-09-12T11:35:41.000Z</time>
      </trkpt>
      <trkpt lat="43.16445" lon="6.5023">
        <ele>71</ele>
        <time>2013-09-12T11:35:42.000Z</time>
      </trkpt>
      <trkpt lat="43.16444" lon="6.50232">
        <ele>71</ele>
        <time>2013-09-12T11:35:43.000Z</time>
      </trkpt>
      <trkpt lat="43.16444" lon="6.50235">
        <ele>71</ele>
        <time>2013-09-12T11:35:44.000Z</time>
      </trkpt>
      <trkpt lat="43.16443" lon="6.50237">
        <ele>71</ele>
        <time>2013-09-12T11:35:45.000Z</time>
      </trkpt>
      <trkpt lat="43.16443" lon="6.5024">
        <ele>72</ele>
        <time>2013-09-12T11:35:46.000Z</time>
      </trkpt>
      <trkpt lat="43.16442" lon="6.50243">
        <ele>72</ele>
        <time>2013-09-12T11:35:47.000Z</time>
      </trkpt>
      <trkpt lat="43.16441" lon="6.50245">
        <ele>72</ele>
        <time>2013-09-12T11:35:48.000Z</time>
      </trkpt>
      <trkpt lat="43.16441" lon="6.50248">
        <ele>72</ele>
        <time>2013-09-12T11:35:49.000Z</time>
      </trkpt>
      <trkpt lat="43.1644" lon="6.50251">
        <ele>71</ele>
        <time>2013-09-12T11:35:50.000Z</time>
      </trkpt>
      <trkpt lat="43.1644" lon="6.50253">
        <ele>71</ele>
        <time>2013-09-12T11:35:51.000Z</time>
      </trkpt>
      <trkpt lat="43.16439" lon="6.50256">
        <ele>71</ele>
        <time>2013-09-12T11:35:52.000Z</time>
      </trkpt>
      <trkpt lat="43.16439" lon="6.50259">
        <ele>71</ele>
        <time>2013-09-12T11:35:53.000Z</time>
      </trkpt>
      <trkpt lat="43.16438" lon="6.50261">
        <ele>71</ele>
        <time>2013-09-12T11:35:54.000Z</time>
      </trkpt>
      <trkpt lat="43.16438" lon="6.50264">
        <ele>71</ele>
        <time>2013-09-12T11:35:55.000Z</time>
      </trkpt>
      <trkpt lat="43.16437" lon="6.50267">
        <ele>71</ele>
        <time>2013-09-12T11:35:56.000Z</time>
      </trkpt>
      <trkpt lat="43.16437" lon="6.5027">
        <ele>71</ele>
        <time>2013-09-12T11:35:57.000Z</time>
      </trkpt>
      <trkpt lat="43.16436" lon="6.50272">
        <ele>70</ele>
        <time>2013-09-12T11:35:58.000Z</time>
      </trkpt>
      <trkpt lat="43.16436" lon="6.50275">
        <ele>70</ele>
        <time>2013-09-12T11:35:59.000Z</time>
      </trkpt>
      <trkpt lat="43.16436" lon="6.50278">
        <ele>70</ele>
        <time>2013-09-12T11:36:00.000Z</time>
      </trkpt>
      <trkpt lat="43.16436" lon="6.50284">
        <ele>70</ele>
        <time>2013-09-12T11:36:02.000Z</time>
      </trkpt>
      <trkpt lat="43.16435" lon="6.50287">
        <ele>70</ele>
        <time>2013-09-12T11:36:03.000Z</time>
      </trkpt>
      <trkpt lat="43.16435" lon="6.50293">
        <ele>70</ele>
        <time>2013-09-12T11:36:05.000Z</time>
      </trkpt>
      <trkpt lat="43.16435" lon="6.50299">
        <ele>70</ele>
        <time>2013-09-12T11:36:07.000Z</time>
      </trkpt>
      <trkpt lat="43.16435" lon="6.50308">
        <ele>70</ele>
        <time>2013-09-12T11:36:10.000Z</time>
      </trkpt>
      <trkpt lat="43.16436" lon="6.50311">
        <ele>71</ele>
        <time>2013-09-12T11:36:11.000Z</time>
      </trkpt>
      <trkpt lat="43.16436" lon="6.50314">
        <ele>71</ele>
        <time>2013-09-12T11:36:12.000Z</time>
      </trkpt>
      <trkpt lat="43.16436" lon="6.50317">
        <ele>71</ele>
        <time>2013-09-12T11:36:13.000Z</time>
      </trkpt>
      <trkpt lat="43.16437" lon="6.5032">
        <ele>71</ele>
        <time>2013-09-12T11:36:14.000Z</time>
      </trkpt>
      <trkpt lat="43.16437" lon="6.50323">
        <ele>72</ele>
        <time>2013-09-12T11:36:15.000Z</time>
      </trkpt>
      <trkpt lat="43.16437" lon="6.50326">
        <ele>72</ele>
        <time>2013-09-12T11:36:16.000Z</time>
      </trkpt>
      <trkpt lat="43.16438" lon="6.50329">
        <ele>72</ele>
        <time>2013-09-12T11:36:17.000Z</time>
      </trkpt>
      <trkpt lat="43.16438" lon="6.50333">
        <ele>72</ele>
        <time>2013-09-12T11:36:18.000Z</time>
      </trkpt>
      <trkpt lat="43.16438" lon="6.50336">
        <ele>74</ele>
        <time>2013-09-12T11:36:19.000Z</time>
      </trkpt>
      <trkpt lat="43.16438" lon="6.50339">
        <ele>74</ele>
        <time>2013-09-12T11:36:20.000Z</time>
      </trkpt>
      <trkpt lat="43.16439" lon="6.50342">
        <ele>74</ele>
        <time>2013-09-12T11:36:21.000Z</time>
      </trkpt>
      <trkpt lat="43.16439" lon="6.50345">
        <ele>73</ele>
        <time>2013-09-12T11:36:22.000Z</time>
      </trkpt>
      <trkpt lat="43.1644" lon="6.50348">
        <ele>73</ele>
        <time>2013-09-12T11:36:23.000Z</time>
      </trkpt>
      <trkpt lat="43.1644" lon="6.50351">
        <ele>73</ele>
        <time>2013-09-12T11:36:24.000Z</time>
      </trkpt>
      <trkpt lat="43.1644" lon="6.50354">
        <ele>73</ele>
        <time>2013-09-12T11:36:25.000Z</time>
      </trkpt>
      <trkpt lat="43.16441" lon="6.50357">
        <ele>73</ele>
        <time>2013-09-12T11:36:26.000Z</time>
      </trkpt>
      <trkpt lat="43.16441" lon="6.5036">
        <ele>73</ele>
        <time>2013-09-12T11:36:27.000Z</time>
      </trkpt>
      <trkpt lat="43.16442" lon="6.50363">
        <ele>73</ele>
        <time>2013-09-12T11:36:28.000Z</time>
      </trkpt>
      <trkpt lat="43.16442" lon="6.50366">
        <ele>73</ele>
        <time>2013-09-12T11:36:29.000Z</time>
      </trkpt>
      <trkpt lat="43.16443" lon="6.50368">
        <ele>72</ele>
        <time>2013-09-12T11:36:30.000Z</time>
      </trkpt>
      <trkpt lat="43.16444" lon="6.50371">
        <ele>73</ele>
        <time>2013-09-12T11:36:31.000Z</time>
      </trkpt>
      <trkpt lat="43.16444" lon="6.50374">
        <ele>73</ele>
        <time>2013-09-12T11:36:32.000Z</time>
      </trkpt>
      <trkpt lat="43.16445" lon="6.50377">
        <ele>73</ele>
        <time>2013-09-12T11:36:33.000Z</time>
      </trkpt>
      <trkpt lat="43.16446" lon="6.5038">
        <ele>73</ele>
        <time>2013-09-12T11:36:34.000Z</time>
      </trkpt>
      <trkpt lat="43.16446" lon="6.50383">
        <ele>73</ele>
        <time>2013-09-12T11:36:35.000Z</time>
      </trkpt>
      <trkpt lat="43.16447" lon="6.50385">
        <ele>73</ele>
        <time>2013-09-12T11:36:36.000Z</time>
      </trkpt>
      <trkpt lat="43.16448" lon="6.50388">
        <ele>73</ele>
        <time>2013-09-12T11:36:37.000Z</time>
      </trkpt>
      <trkpt lat="43.16449" lon="6.50391">
        <ele>73</ele>
        <time>2013-09-12T11:36:38.000Z</time>
      </trkpt>
      <trkpt lat="43.1645" lon="6.50393">
        <ele>73</ele>
        <time>2013-09-12T11:36:39.000Z</time>
      </trkpt>
      <trkpt lat="43.16451" lon="6.50396">
        <ele>73</ele>
        <time>2013-09-12T11:36:40.000Z</time>
      </trkpt>
      <trkpt lat="43.16452" lon="6.50399">
        <ele>73</ele>
        <time>2013-09-12T11:36:41.000Z</time>
      </trkpt>
      <trkpt lat="43.16453" lon="6.50401">
        <ele>73</ele>
        <time>2013-09-12T11:36:42.000Z</time>
      </trkpt>
      <trkpt lat="43.16454" lon="6.50404">
        <ele>73</ele>
        <time>2013-09-12T11:36:43.000Z</time>
      </trkpt>
      <trkpt lat="43.16455" lon="6.50406">
        <ele>72</ele>
        <time>2013-09-12T11:36:44.000Z</time>
      </trkpt>
      <trkpt lat="43.16456" lon="6.50409">
        <ele>72</ele>
        <time>2013-09-12T11:36:45.000Z</time>
      </trkpt>
      <trkpt lat="43.16457" lon="6.50411">
        <ele>72</ele>
        <time>2013-09-12T11:36:46.000Z</time>
      </trkpt>
      <trkpt lat="43.16458" lon="6.50414">
        <ele>72</ele>
        <time>2013-09-12T11:36:47.000Z</time>
      </trkpt>
      <trkpt lat="43.16459" lon="6.50416">
        <ele>72</ele>
        <time>2013-09-12T11:36:48.000Z</time>
      </trkpt>
      <trkpt lat="43.1646" lon="6.50419">
        <ele>75</ele>
        <time>2013-09-12T11:36:49.000Z</time>
      </trkpt>
      <trkpt lat="43.16461" lon="6.50421">
        <ele>75</ele>
        <time>2013-09-12T11:36:50.000Z</time>
      </trkpt>
      <trkpt lat="43.16462" lon="6.50424">
        <ele>75</ele>
        <time>2013-09-12T11:36:51.000Z</time>
      </trkpt>
      <trkpt lat="43.16463" lon="6.50426">
        <ele>74</ele>
        <time>2013-09-12T11:36:52.000Z</time>
      </trkpt>
      <trkpt lat="43.16465" lon="6.50429">
        <ele>74</ele>
        <time>2013-09-12T11:36:53.000Z</time>
      </trkpt>
      <trkpt lat="43.16465" lon="6.50431">
        <ele>74</ele>
        <time>2013-09-12T11:36:54.000Z</time>
      </trkpt>
      <trkpt lat="43.16466" lon="6.50434">
        <ele>74</ele>
        <time>2013-09-12T11:36:55.000Z</time>
      </trkpt>
      <trkpt lat="43.16467" lon="6.50436">
        <ele>74</ele>
        <time>2013-09-12T11:36:56.000Z</time>
      </trkpt>
      <trkpt lat="43.16468" lon="6.50439">
        <ele>74</ele>
        <time>2013-09-12T11:36:57.000Z</time>
      </trkpt>
      <trkpt lat="43.16469" lon="6.50441">
        <ele>74</ele>
        <time>2013-09-12T11:36:58.000Z</time>
      </trkpt>
      <trkpt lat="43.1647" lon="6.50443">
        <ele>74</ele>
        <time>2013-09-12T11:36:59.000Z</time>
      </trkpt>
      <trkpt lat="43.1647" lon="6.50446">
        <ele>74</ele>
        <time>2013-09-12T11:37:00.000Z</time>
      </trkpt>
      <trkpt lat="43.16471" lon="6.50449">
        <ele>74</ele>
        <time>2013-09-12T11:37:01.000Z</time>
      </trkpt>
      <trkpt lat="43.16472" lon="6.50451">
        <ele>74</ele>
        <time>2013-09-12T11:37:02.000Z</time>
      </trkpt>
      <trkpt lat="43.16472" lon="6.50454">
        <ele>74</ele>
        <time>2013-09-12T11:37:03.000Z</time>
      </trkpt>
      <trkpt lat="43.16473" lon="6.50457">
        <ele>74</ele>
        <time>2013-09-12T11:37:04.000Z</time>
      </trkpt>
      <trkpt lat="43.16473" lon="6.5046">
        <ele>74</ele>
        <time>2013-09-12T11:37:05.000Z</time>
      </trkpt>
      <trkpt lat="43.16473" lon="6.50463">
        <ele>74</ele>
        <time>2013-09-12T11:37:06.000Z</time>
      </trkpt>
      <trkpt lat="43.16473" lon="6.50466">
        <ele>74</ele>
        <time>2013-09-12T11:37:07.000Z</time>
      </trkpt>
      <trkpt lat="43.16474" lon="6.50472">
        <ele>74</ele>
        <time>2013-09-12T11:37:09.000Z</time>
      </trkpt>
      <trkpt lat="43.16473" lon="6.50475">
        <ele>74</ele>
        <time>2013-09-12T11:37:10.000Z</time>
      </trkpt>
      <trkpt lat="43.16473" lon="6.50482">
        <ele>74</ele>
        <time>2013-09-12T11:37:12.000Z</time>
      </trkpt>
      <trkpt lat="43.16473" lon="6.50485">
        <ele>74</ele>
        <time>2013-09-12T11:37:13.000Z</time>
      </trkpt>
      <trkpt lat="43.16472" lon="6.50488">
        <ele>74</ele>
        <time>2013-09-12T11:37:14.000Z</time>
      </trkpt>
      <trkpt lat="43.16472" lon="6.50491">
        <ele>74</ele>
        <time>2013-09-12T11:37:15.000Z</time>
      </trkpt>
      <trkpt lat="43.16472" lon="6.50494">
        <ele>74</ele>
        <time>2013-09-12T11:37:16.000Z</time>
      </trkpt>
      <trkpt lat="43.16471" lon="6.50497">
        <ele>74</ele>
        <time>2013-09-12T11:37:17.000Z</time>
      </trkpt>
      <trkpt lat="43.16471" lon="6.505">
        <ele>74</ele>
        <time>2013-09-12T11:37:18.000Z</time>
      </trkpt>
      <trkpt lat="43.16471" lon="6.50503">
        <ele>73</ele>
        <time>2013-09-12T11:37:19.000Z</time>
      </trkpt>
      <trkpt lat="43.1647" lon="6.50506">
        <ele>73</ele>
        <time>2013-09-12T11:37:20.000Z</time>
      </trkpt>
      <trkpt lat="43.1647" lon="6.50509">
        <ele>73</ele>
        <time>2013-09-12T11:37:21.000Z</time>
      </trkpt>
      <trkpt lat="43.16469" lon="6.50512">
        <ele>74</ele>
        <time>2013-09-12T11:37:22.000Z</time>
      </trkpt>
      <trkpt lat="43.16469" lon="6.50515">
        <ele>74</ele>
        <time>2013-09-12T11:37:23.000Z</time>
      </trkpt>
      <trkpt lat="43.16469" lon="6.50518">
        <ele>74</ele>
        <time>2013-09-12T11:37:24.000Z</time>
      </trkpt>
      <trkpt lat="43.16468" lon="6.50521">
        <ele>74</ele>
        <time>2013-09-12T11:37:25.000Z</time>
      </trkpt>
      <trkpt lat="43.16468" lon="6.50524">
        <ele>74</ele>
        <time>2013-09-12T11:37:26.000Z</time>
      </trkpt>
      <trkpt lat="43.16467" lon="6.50527">
        <ele>74</ele>
        <time>2013-09-12T11:37:27.000Z</time>
      </trkpt>
      <trkpt lat="43.16467" lon="6.5053">
        <ele>74</ele>
        <time>2013-09-12T11:37:28.000Z</time>
      </trkpt>
      <trkpt lat="43.16466" lon="6.50533">
        <ele>74</ele>
        <time>2013-09-12T11:37:29.000Z</time>
      </trkpt>
      <trkpt lat="43.16466" lon="6.50536">
        <ele>74</ele>
        <time>2013-09-12T11:37:30.000Z</time>
      </trkpt>
      <trkpt lat="43.16465" lon="6.50539">
        <ele>74</ele>
        <time>2013-09-12T11:37:31.000Z</time>
      </trkpt>
      <trkpt lat="43.16465" lon="6.50541">
        <ele>74</ele>
        <time>2013-09-12T11:37:32.000Z</time>
      </trkpt>
      <trkpt lat="43.16464" lon="6.50544">
        <ele>74</ele>
        <time>2013-09-12T11:37:33.000Z</time>
      </trkpt>
      <trkpt lat="43.16464" lon="6.50547">
        <ele>74</ele>
        <time>2013-09-12T11:37:34.000Z</time>
      </trkpt>
      <trkpt lat="43.16463" lon="6.5055">
        <ele>74</ele>
        <time>2013-09-12T11:37:35.000Z</time>
      </trkpt>
      <trkpt lat="43.16463" lon="6.50553">
        <ele>74</ele>
        <time>2013-09-12T11:37:36.000Z</time>
      </trkpt>
      <trkpt lat="43.16462" lon="6.50556">
        <ele>74</ele>
        <time>2013-09-12T11:37:37.000Z</time>
      </trkpt>
      <trkpt lat="43.16462" lon="6.50559">
        <ele>74</ele>
        <time>2013-09-12T11:37:38.000Z</time>
      </trkpt>
      <trkpt lat="43.16461" lon="6.50561">
        <ele>74</ele>
        <time>2013-09-12T11:37:39.000Z</time>
      </trkpt>
      <trkpt lat="43.1646" lon="6.50564">
        <ele>74</ele>
        <time>2013-09-12T11:37:40.000Z</time>
      </trkpt>
      <trkpt lat="43.1646" lon="6.50567">
        <ele>74</ele>
        <time>2013-09-12T11:37:41.000Z</time>
      </trkpt>
      <trkpt lat="43.16459" lon="6.50569">
        <ele>74</ele>
        <time>2013-09-12T11:37:42.000Z</time>
      </trkpt>
      <trkpt lat="43.16458" lon="6.50572">
        <ele>74</ele>
        <time>2013-09-12T11:37:43.000Z</time>
      </trkpt>
      <trkpt lat="43.16457" lon="6.50575">
        <ele>74</ele>
        <time>2013-09-12T11:37:44.000Z</time>
      </trkpt>
      <trkpt lat="43.16456" lon="6.50577">
        <ele>75</ele>
        <time>2013-09-12T11:37:45.000Z</time>
      </trkpt>
      <trkpt lat="43.16455" lon="6.5058">
        <ele>75</ele>
        <time>2013-09-12T11:37:46.000Z</time>
      </trkpt>
      <trkpt lat="43.16455" lon="6.50582">
        <ele>75</ele>
        <time>2013-09-12T11:37:47.000Z</time>
      </trkpt>
      <trkpt lat="43.16454" lon="6.50585">
        <ele>70</ele>
        <time>2013-09-12T11:37:48.000Z</time>
      </trkpt>
      <trkpt lat="43.16452" lon="6.50587">
        <ele>70</ele>
        <time>2013-09-12T11:37:49.000Z</time>
      </trkpt>
      <trkpt lat="43.16451" lon="6.5059">
        <ele>71</ele>
        <time>2013-09-12T11:37:50.000Z</time>
      </trkpt>
      <trkpt lat="43.1645" lon="6.50592">
        <ele>71</ele>
        <time>2013-09-12T11:37:51.000Z</time>
      </trkpt>
      <trkpt lat="43.16449" lon="6.50595">
        <ele>71</ele>
        <time>2013-09-12T11:37:52.000Z</time>
      </trkpt>
      <trkpt lat="43.16448" lon="6.50597">
        <ele>71</ele>
        <time>2013-09-12T11:37:53.000Z</time>
      </trkpt>
      <trkpt lat="43.16447" lon="6.506">
        <ele>71</ele>
        <time>2013-09-12T11:37:54.000Z</time>
      </trkpt>
      <trkpt lat="43.16446" lon="6.50603">
        <ele>71</ele>
        <time>2013-09-12T11:37:55.000Z</time>
      </trkpt>
      <trkpt lat="43.16445" lon="6.50605">
        <ele>71</ele>
        <time>2013-09-12T11:37:56.000Z</time>
      </trkpt>
      <trkpt lat="43.16444" lon="6.50608">
        <ele>71</ele>
        <time>2013-09-12T11:37:57.000Z</time>
      </trkpt>
      <trkpt lat="43.16442" lon="6.5061">
        <ele>71</ele>
        <time>2013-09-12T11:37:58.000Z</time>
      </trkpt>
      <trkpt lat="43.16441" lon="6.50613">
        <ele>71</ele>
        <time>2013-09-12T11:37:59.000Z</time>
      </trkpt>
      <trkpt lat="43.1644" lon="6.50615">
        <ele>71</ele>
        <time>2013-09-12T11:38:00.000Z</time>
      </trkpt>
      <trkpt lat="43.16439" lon="6.50618">
        <ele>71</ele>
        <time>2013-09-12T11:38:01.000Z</time>
      </trkpt>
      <trkpt lat="43.16437" lon="6.50621">
        <ele>71</ele>
        <time>2013-09-12T11:38:02.000Z</time>
      </trkpt>
      <trkpt lat="43.16436" lon="6.50623">
        <ele>71</ele>
        <time>2013-09-12T11:38:03.000Z</time>
      </trkpt>
      <trkpt lat="43.16435" lon="6.50626">
        <ele>71</ele>
        <time>2013-09-12T11:38:04.000Z</time>
      </trkpt>
      <trkpt lat="43.16434" lon="6.50628">
        <ele>71</ele>
        <time>2013-09-12T11:38:05.000Z</time>
      </trkpt>
      <trkpt lat="43.16432" lon="6.50631">
        <ele>71</ele>
        <time>2013-09-12T11:38:06.000Z</time>
      </trkpt>
      <trkpt lat="43.16431" lon="6.50633">
        <ele>71</ele>
        <time>2013-09-12T11:38:07.000Z</time>
      </trkpt>
      <trkpt lat="43.1643" lon="6.50636">
        <ele>71</ele>
        <time>2013-09-12T11:38:08.000Z</time>
      </trkpt>
      <trkpt lat="43.16428" lon="6.50638">
        <ele>71</ele>
        <time>2013-09-12T11:38:09.000Z</time>
      </trkpt>
      <trkpt lat="43.16427" lon="6.5064">
        <ele>71</ele>
        <time>2013-09-12T11:38:10.000Z</time>
      </trkpt>
      <trkpt lat="43.16426" lon="6.50643">
        <ele>71</ele>
        <time>2013-09-12T11:38:11.000Z</time>
      </trkpt>
      <trkpt lat="43.16424" lon="6.50645">
        <ele>71</ele>
        <time>2013-09-12T11:38:12.000Z</time>
      </trkpt>
      <trkpt lat="43.16422" lon="6.50647">
        <ele>72</ele>
        <time>2013-09-12T11:38:13.000Z</time>
      </trkpt>
      <trkpt lat="43.16421" lon="6.50649">
        <ele>72</ele>
        <time>2013-09-12T11:38:14.000Z</time>
      </trkpt>
      <trkpt lat="43.16419" lon="6.50651">
        <ele>72</ele>
        <time>2013-09-12T11:38:15.000Z</time>
      </trkpt>
      <trkpt lat="43.16417" lon="6.50652">
        <ele>73</ele>
        <time>2013-09-12T11:38:16.000Z</time>
      </trkpt>
      <trkpt lat="43.16415" lon="6.50654">
        <ele>78</ele>
        <time>2013-09-12T11:38:17.000Z</time>
      </trkpt>
      <trkpt lat="43.16413" lon="6.50655">
        <ele>77</ele>
        <time>2013-09-12T11:38:18.000Z</time>
      </trkpt>
      <trkpt lat="43.1641" lon="6.50656">
        <ele>77</ele>
        <time>2013-09-12T11:38:19.000Z</time>
      </trkpt>
      <trkpt lat="43.16408" lon="6.50657">
        <ele>77</ele>
        <time>2013-09-12T11:38:20.000Z</time>
      </trkpt>
      <trkpt lat="43.16406" lon="6.50657">
        <ele>77</ele>
        <time>2013-09-12T11:38:21.000Z</time>
      </trkpt>
      <trkpt lat="43.16404" lon="6.50657">
        <ele>78</ele>
        <time>2013-09-12T11:38:22.000Z</time>
      </trkpt>
      <trkpt lat="43.16402" lon="6.50657">
        <ele>78</ele>
        <time>2013-09-12T11:38:23.000Z</time>
      </trkpt>
      <trkpt lat="43.16399" lon="6.50657">
        <ele>78</ele>
        <time>2013-09-12T11:38:24.000Z</time>
      </trkpt>
      <trkpt lat="43.16397" lon="6.50657">
        <ele>78</ele>
        <time>2013-09-12T11:38:25.000Z</time>
      </trkpt>
      <trkpt lat="43.16395" lon="6.50656">
        <ele>78</ele>
        <time>2013-09-12T11:38:26.000Z</time>
      </trkpt>
      <trkpt lat="43.16393" lon="6.50656">
        <ele>78</ele>
        <time>2013-09-12T11:38:27.000Z</time>
      </trkpt>
      <trkpt lat="43.16391" lon="6.50655">
        <ele>78</ele>
        <time>2013-09-12T11:38:28.000Z</time>
      </trkpt>
      <trkpt lat="43.16389" lon="6.50654">
        <ele>78</ele>
        <time>2013-09-12T11:38:29.000Z</time>
      </trkpt>
      <trkpt lat="43.16387" lon="6.50653">
        <ele>78</ele>
        <time>2013-09-12T11:38:30.000Z</time>
      </trkpt>
      <trkpt lat="43.16385" lon="6.50652">
        <ele>78</ele>
        <time>2013-09-12T11:38:31.000Z</time>
      </trkpt>
      <trkpt lat="43.16383" lon="6.5065">
        <ele>78</ele>
        <time>2013-09-12T11:38:32.000Z</time>
      </trkpt>
      <trkpt lat="43.16381" lon="6.50649">
        <ele>78</ele>
        <time>2013-09-12T11:38:33.000Z</time>
      </trkpt>
      <trkpt lat="43.1638" lon="6.50647">
        <ele>78</ele>
        <time>2013-09-12T11:38:34.000Z</time>
      </trkpt>
      <trkpt lat="43.16378" lon="6.50645">
        <ele>78</ele>
        <time>2013-09-12T11:38:35.000Z</time>
      </trkpt>
      <trkpt lat="43.16376" lon="6.50643">
        <ele>78</ele>
        <time>2013-09-12T11:38:36.000Z</time>
      </trkpt>
      <trkpt lat="43.16375" lon="6.50641">
        <ele>78</ele>
        <time>2013-09-12T11:38:37.000Z</time>
      </trkpt>
      <trkpt lat="43.16373" lon="6.50639">
        <ele>79</ele>
        <time>2013-09-12T11:38:38.000Z</time>
      </trkpt>
      <trkpt lat="43.16372" lon="6.50637">
        <ele>79</ele>
        <time>2013-09-12T11:38:39.000Z</time>
      </trkpt>
      <trkpt lat="43.1637" lon="6.50635">
        <ele>79</ele>
        <time>2013-09-12T11:38:40.000Z</time>
      </trkpt>
      <trkpt lat="43.16368" lon="6.50634">
        <ele>79</ele>
        <time>2013-09-12T11:38:41.000Z</time>
      </trkpt>
      <trkpt lat="43.16366" lon="6.50631">
        <ele>79</ele>
        <time>2013-09-12T11:38:42.000Z</time>
      </trkpt>
      <trkpt lat="43.16365" lon="6.50629">
        <ele>79</ele>
        <time>2013-09-12T11:38:43.000Z</time>
      </trkpt>
      <trkpt lat="43.16364" lon="6.50627">
        <ele>79</ele>
        <time>2013-09-12T11:38:44.000Z</time>
      </trkpt>
      <trkpt lat="43.16362" lon="6.50625">
        <ele>80</ele>
        <time>2013-09-12T11:38:45.000Z</time>
      </trkpt>
      <trkpt lat="43.1636" lon="6.50623">
        <ele>80</ele>
        <time>2013-09-12T11:38:46.000Z</time>
      </trkpt>
      <trkpt lat="43.16359" lon="6.50621">
        <ele>80</ele>
        <time>2013-09-12T11:38:47.000Z</time>
      </trkpt>
      <trkpt lat="43.16357" lon="6.50619">
        <ele>80</ele>
        <time>2013-09-12T11:38:48.000Z</time>
      </trkpt>
      <trkpt lat="43.16356" lon="6.50617">
        <ele>80</ele>
        <time>2013-09-12T11:38:49.000Z</time>
      </trkpt>
      <trkpt lat="43.16354" lon="6.50615">
        <ele>81</ele>
        <time>2013-09-12T11:38:50.000Z</time>
      </trkpt>
      <trkpt lat="43.16353" lon="6.50613">
        <ele>81</ele>
        <time>2013-09-12T11:38:51.000Z</time>
      </trkpt>
      <trkpt lat="43.16351" lon="6.50611">
        <ele>81</ele>
        <time>2013-09-12T11:38:52.000Z</time>
      </trkpt>
      <trkpt lat="43.1635" lon="6.50609">
        <ele>82</ele>
        <time>2013-09-12T11:38:53.000Z</time>
      </trkpt>
      <trkpt lat="43.16348" lon="6.50607">
        <ele>82</ele>
        <time>2013-09-12T11:38:54.000Z</time>
      </trkpt>
      <trkpt lat="43.16347" lon="6.50605">
        <ele>82</ele>
        <time>2013-09-12T11:38:55.000Z</time>
      </trkpt>
      <trkpt lat="43.16345" lon="6.50603">
        <ele>83</ele>
        <time>2013-09-12T11:38:56.000Z</time>
      </trkpt>
      <trkpt lat="43.16344" lon="6.50601">
        <ele>83</ele>
        <time>2013-09-12T11:38:57.000Z</time>
      </trkpt>
      <trkpt lat="43.16342" lon="6.50599">
        <ele>83</ele>
        <time>2013-09-12T11:38:58.000Z</time>
      </trkpt>
      <trkpt lat="43.16341" lon="6.50597">
        <ele>84</ele>
        <time>2013-09-12T11:38:59.000Z</time>
      </trkpt>
      <trkpt lat="43.1634" lon="6.50595">
        <ele>84</ele>
        <time>2013-09-12T11:39:00.000Z</time>
      </trkpt>
      <trkpt lat="43.16338" lon="6.50593">
        <ele>85</ele>
        <time>2013-09-12T11:39:01.000Z</time>
      </trkpt>
      <trkpt lat="43.16336" lon="6.50591">
        <ele>85</ele>
        <time>2013-09-12T11:39:02.000Z</time>
      </trkpt>
      <trkpt lat="43.16335" lon="6.50589">
        <ele>86</ele>
        <time>2013-09-12T11:39:03.000Z</time>
      </trkpt>
      <trkpt lat="43.16333" lon="6.50587">
        <ele>86</ele>
        <time>2013-09-12T11:39:04.000Z</time>
      </trkpt>
      <trkpt lat="43.16332" lon="6.50585">
        <ele>86</ele>
        <time>2013-09-12T11:39:05.000Z</time>
      </trkpt>
      <trkpt lat="43.1633" lon="6.50584">
        <ele>86</ele>
        <time>2013-09-12T11:39:06.000Z</time>
      </trkpt>
      <trkpt lat="43.16329" lon="6.50582">
        <ele>88</ele>
        <time>2013-09-12T11:39:07.000Z</time>
      </trkpt>
      <trkpt lat="43.16327" lon="6.5058">
        <ele>88</ele>
        <time>2013-09-12T11:39:08.000Z</time>
      </trkpt>
      <trkpt lat="43.16326" lon="6.50579">
        <ele>88</ele>
        <time>2013-09-12T11:39:09.000Z</time>
      </trkpt>
      <trkpt lat="43.16324" lon="6.50577">
        <ele>88</ele>
        <time>2013-09-12T11:39:10.000Z</time>
      </trkpt>
      <trkpt lat="43.16323" lon="6.50575">
        <ele>88</ele>
        <time>2013-09-12T11:39:11.000Z</time>
      </trkpt>
      <trkpt lat="43.16321" lon="6.50573">
        <ele>87</ele>
        <time>2013-09-12T11:39:12.000Z</time>
      </trkpt>
      <trkpt lat="43.16319" lon="6.50571">
        <ele>87</ele>
        <time>2013-09-12T11:39:13.000Z</time>
      </trkpt>
      <trkpt lat="43.16318" lon="6.50569">
        <ele>87</ele>
        <time>2013-09-12T11:39:14.000Z</time>
      </trkpt>
      <trkpt lat="43.16316" lon="6.50567">
        <ele>87</ele>
        <time>2013-09-12T11:39:15.000Z</time>
      </trkpt>
      <trkpt lat="43.16315" lon="6.50565">
        <ele>87</ele>
        <time>2013-09-12T11:39:16.000Z</time>
      </trkpt>
      <trkpt lat="43.16313" lon="6.50563">
        <ele>87</ele>
        <time>2013-09-12T11:39:17.000Z</time>
      </trkpt>
      <trkpt lat="43.16311" lon="6.50561">
        <ele>87</ele>
        <time>2013-09-12T11:39:18.000Z</time>
      </trkpt>
      <trkpt lat="43.16309" lon="6.50559">
        <ele>87</ele>
        <time>2013-09-12T11:39:19.000Z</time>
      </trkpt>
      <trkpt lat="43.16308" lon="6.50557">
        <ele>87</ele>
        <time>2013-09-12T11:39:20.000Z</time>
      </trkpt>
      <trkpt lat="43.16306" lon="6.50554">
        <ele>87</ele>
        <time>2013-09-12T11:39:21.000Z</time>
      </trkpt>
      <trkpt lat="43.16304" lon="6.50552">
        <ele>87</ele>
        <time>2013-09-12T11:39:22.000Z</time>
      </trkpt>
      <trkpt lat="43.16302" lon="6.5055">
        <ele>87</ele>
        <time>2013-09-12T11:39:23.000Z</time>
      </trkpt>
      <trkpt lat="43.16301" lon="6.50548">
        <ele>87</ele>
        <time>2013-09-12T11:39:24.000Z</time>
      </trkpt>
      <trkpt lat="43.16299" lon="6.50546">
        <ele>87</ele>
        <time>2013-09-12T11:39:25.000Z</time>
      </trkpt>
      <trkpt lat="43.16297" lon="6.50544">
        <ele>87</ele>
        <time>2013-09-12T11:39:26.000Z</time>
      </trkpt>
      <trkpt lat="43.16296" lon="6.50542">
        <ele>87</ele>
        <time>2013-09-12T11:39:27.000Z</time>
      </trkpt>
      <trkpt lat="43.16294" lon="6.5054">
        <ele>87</ele>
        <time>2013-09-12T11:39:28.000Z</time>
      </trkpt>
      <trkpt lat="43.16293" lon="6.50538">
        <ele>87</ele>
        <time>2013-09-12T11:39:29.000Z</time>
      </trkpt>
      <trkpt lat="43.16291" lon="6.50536">
        <ele>87</ele>
        <time>2013-09-12T11:39:30.000Z</time>
      </trkpt>
      <trkpt lat="43.16289" lon="6.50534">
        <ele>87</ele>
        <time>2013-09-12T11:39:31.000Z</time>
      </trkpt>
      <trkpt lat="43.16288" lon="6.50532">
        <ele>87</ele>
        <time>2013-09-12T11:39:32.000Z</time>
      </trkpt>
      <trkpt lat="43.16286" lon="6.5053">
        <ele>87</ele>
        <time>2013-09-12T11:39:33.000Z</time>
      </trkpt>
      <trkpt lat="43.16284" lon="6.50528">
        <ele>87</ele>
        <time>2013-09-12T11:39:34.000Z</time>
      </trkpt>
      <trkpt lat="43.16283" lon="6.50526">
        <ele>87</ele>
        <time>2013-09-12T11:39:35.000Z</time>
      </trkpt>
      <trkpt lat="43.16281" lon="6.50523">
        <ele>87</ele>
        <time>2013-09-12T11:39:36.000Z</time>
      </trkpt>
      <trkpt lat="43.1628" lon="6.50521">
        <ele>87</ele>
        <time>2013-09-12T11:39:37.000Z</time>
      </trkpt>
      <trkpt lat="43.16278" lon="6.50519">
        <ele>87</ele>
        <time>2013-09-12T11:39:38.000Z</time>
      </trkpt>
      <trkpt lat="43.16277" lon="6.50517">
        <ele>87</ele>
        <time>2013-09-12T11:39:39.000Z</time>
      </trkpt>
      <trkpt lat="43.16275" lon="6.50515">
        <ele>87</ele>
        <time>2013-09-12T11:39:40.000Z</time>
      </trkpt>
      <trkpt lat="43.16274" lon="6.50513">
        <ele>87</ele>
        <time>2013-09-12T11:39:41.000Z</time>
      </trkpt>
      <trkpt lat="43.16273" lon="6.50511">
        <ele>87</ele>
        <time>2013-09-12T11:39:42.000Z</time>
      </trkpt>
      <trkpt lat="43.16271" lon="6.50508">
        <ele>87</ele>
        <time>2013-09-12T11:39:43.000Z</time>
      </trkpt>
      <trkpt lat="43.16269" lon="6.50504">
        <ele>87</ele>
        <time>2013-09-12T11:39:45.000Z</time>
      </trkpt>
      <trkpt lat="43.16268" lon="6.50502">
        <ele>87</ele>
        <time>2013-09-12T11:39:46.000Z</time>
      </trkpt>
      <trkpt lat="43.16267" lon="6.50499">
        <ele>91</ele>
        <time>2013-09-12T11:39:47.000Z</time>
      </trkpt>
      <trkpt lat="43.16266" lon="6.50497">
        <ele>91</ele>
        <time>2013-09-12T11:39:48.000Z</time>
      </trkpt>
      <trkpt lat="43.16265" lon="6.50494">
        <ele>91</ele>
        <time>2013-09-12T11:39:49.000Z</time>
      </trkpt>
      <trkpt lat="43.16264" lon="6.50492">
        <ele>91</ele>
        <time>2013-09-12T11:39:50.000Z</time>
      </trkpt>
      <trkpt lat="43.16264" lon="6.50489">
        <ele>91</ele>
        <time>2013-09-12T11:39:51.000Z</time>
      </trkpt>
      <trkpt lat="43.16264" lon="6.50487">
        <ele>91</ele>
        <time>2013-09-12T11:39:52.000Z</time>
      </trkpt>
      <trkpt lat="43.16263" lon="6.50484">
        <ele>92</ele>
        <time>2013-09-12T11:39:53.000Z</time>
      </trkpt>
      <trkpt lat="43.16263" lon="6.50482">
        <ele>92</ele>
        <time>2013-09-12T11:39:54.000Z</time>
      </trkpt>
      <trkpt lat="43.16263" lon="6.50479">
        <ele>92</ele>
        <time>2013-09-12T11:39:55.000Z</time>
      </trkpt>
      <trkpt lat="43.16263" lon="6.50476">
        <ele>93</ele>
        <time>2013-09-12T11:39:56.000Z</time>
      </trkpt>
      <trkpt lat="43.16263" lon="6.50473">
        <ele>93</ele>
        <time>2013-09-12T11:39:57.000Z</time>
      </trkpt>
      <trkpt lat="43.16263" lon="6.50464">
        <ele>94</ele>
        <time>2013-09-12T11:40:00.000Z</time>
      </trkpt>
      <trkpt lat="43.16262" lon="6.50455">
        <ele>94</ele>
        <time>2013-09-12T11:40:03.000Z</time>
      </trkpt>
      <trkpt lat="43.16262" lon="6.50449">
        <ele>94</ele>
        <time>2013-09-12T11:40:05.000Z</time>
      </trkpt>
      <trkpt lat="43.16262" lon="6.50439">
        <ele>94</ele>
        <time>2013-09-12T11:40:08.000Z</time>
      </trkpt>
      <trkpt lat="43.16262" lon="6.5043">
        <ele>94</ele>
        <time>2013-09-12T11:40:11.000Z</time>
      </trkpt>
      <trkpt lat="43.16262" lon="6.50421">
        <ele>93</ele>
        <time>2013-09-12T11:40:14.000Z</time>
      </trkpt>
      <trkpt lat="43.16262" lon="6.50418">
        <ele>93</ele>
        <time>2013-09-12T11:40:15.000Z</time>
      </trkpt>
      <trkpt lat="43.16261" lon="6.5041">
        <ele>94</ele>
        <time>2013-09-12T11:40:18.000Z</time>
      </trkpt>
      <trkpt lat="43.16261" lon="6.50404">
        <ele>95</ele>
        <time>2013-09-12T11:40:20.000Z</time>
      </trkpt>
      <trkpt lat="43.16261" lon="6.50401">
        <ele>96</ele>
        <time>2013-09-12T11:40:21.000Z</time>
      </trkpt>
      <trkpt lat="43.16261" lon="6.50398">
        <ele>96</ele>
        <time>2013-09-12T11:40:22.000Z</time>
      </trkpt>
      <trkpt lat="43.16261" lon="6.50386">
        <ele>97</ele>
        <time>2013-09-12T11:40:26.000Z</time>
      </trkpt>
      <trkpt lat="43.16261" lon="6.5038">
        <ele>97</ele>
        <time>2013-09-12T11:40:28.000Z</time>
      </trkpt>
      <trkpt lat="43.16261" lon="6.50372">
        <ele>98</ele>
        <time>2013-09-12T11:40:31.000Z</time>
      </trkpt>
      <trkpt lat="43.16261" lon="6.50369">
        <ele>98</ele>
        <time>2013-09-12T11:40:32.000Z</time>
      </trkpt>
      <trkpt lat="43.16261" lon="6.50366">
        <ele>98</ele>
        <time>2013-09-12T11:40:33.000Z</time>
      </trkpt>
      <trkpt lat="43.16261" lon="6.50363">
        <ele>98</ele>
        <time>2013-09-12T11:40:34.000Z</time>
      </trkpt>
      <trkpt lat="43.16261" lon="6.5036">
        <ele>98</ele>
        <time>2013-09-12T11:40:35.000Z</time>
      </trkpt>
      <trkpt lat="43.16261" lon="6.50351">
        <ele>97</ele>
        <time>2013-09-12T11:40:38.000Z</time>
      </trkpt>
      <trkpt lat="43.16261" lon="6.50348">
        <ele>97</ele>
        <time>2013-09-12T11:40:39.000Z</time>
      </trkpt>
      <trkpt lat="43.1626" lon="6.50345">
        <ele>97</ele>
        <time>2013-09-12T11:40:40.000Z</time>
      </trkpt>
      <trkpt lat="43.1626" lon="6.50343">
        <ele>96</ele>
        <time>2013-09-12T11:40:41.000Z</time>
      </trkpt>
      <trkpt lat="43.1626" lon="6.5034">
        <ele>96</ele>
        <time>2013-09-12T11:40:42.000Z</time>
      </trkpt>
      <trkpt lat="43.16259" lon="6.50334">
        <ele>96</ele>
        <time>2013-09-12T11:40:44.000Z</time>
      </trkpt>
      <trkpt lat="43.16259" lon="6.50332">
        <ele>97</ele>
        <time>2013-09-12T11:40:45.000Z</time>
      </trkpt>
      <trkpt lat="43.16259" lon="6.50326">
        <ele>98</ele>
        <time>2013-09-12T11:40:47.000Z</time>
      </trkpt>
      <trkpt lat="43.16259" lon="6.50323">
        <ele>98</ele>
        <time>2013-09-12T11:40:48.000Z</time>
      </trkpt>
      <trkpt lat="43.16258" lon="6.5032">
        <ele>99</ele>
        <time>2013-09-12T11:40:49.000Z</time>
      </trkpt>
      <trkpt lat="43.16258" lon="6.50315">
        <ele>99</ele>
        <time>2013-09-12T11:40:51.000Z</time>
      </trkpt>
      <trkpt lat="43.16258" lon="6.50312">
        <ele>100</ele>
        <time>2013-09-12T11:40:52.000Z</time>
      </trkpt>
      <trkpt lat="43.16257" lon="6.50309">
        <ele>100</ele>
        <time>2013-09-12T11:40:53.000Z</time>
      </trkpt>
      <trkpt lat="43.16257" lon="6.50306">
        <ele>101</ele>
        <time>2013-09-12T11:40:54.000Z</time>
      </trkpt>
      <trkpt lat="43.16257" lon="6.50301">
        <ele>101</ele>
        <time>2013-09-12T11:40:56.000Z</time>
      </trkpt>
      <trkpt lat="43.16257" lon="6.50298">
        <ele>102</ele>
        <time>2013-09-12T11:40:57.000Z</time>
      </trkpt>
      <trkpt lat="43.16256" lon="6.50295">
        <ele>102</ele>
        <time>2013-09-12T11:40:58.000Z</time>
      </trkpt>
      <trkpt lat="43.16256" lon="6.50292">
        <ele>102</ele>
        <time>2013-09-12T11:40:59.000Z</time>
      </trkpt>
      <trkpt lat="43.16256" lon="6.50289">
        <ele>102</ele>
        <time>2013-09-12T11:41:00.000Z</time>
      </trkpt>
      <trkpt lat="43.16256" lon="6.50286">
        <ele>103</ele>
        <time>2013-09-12T11:41:01.000Z</time>
      </trkpt>
      <trkpt lat="43.16256" lon="6.50283">
        <ele>103</ele>
        <time>2013-09-12T11:41:02.000Z</time>
      </trkpt>
      <trkpt lat="43.16256" lon="6.50277">
        <ele>103</ele>
        <time>2013-09-12T11:41:04.000Z</time>
      </trkpt>
      <trkpt lat="43.16255" lon="6.50271">
        <ele>103</ele>
        <time>2013-09-12T11:41:06.000Z</time>
      </trkpt>
      <trkpt lat="43.16255" lon="6.50268">
        <ele>103</ele>
        <time>2013-09-12T11:41:07.000Z</time>
      </trkpt>
      <trkpt lat="43.16255" lon="6.50266">
        <ele>104</ele>
        <time>2013-09-12T11:41:08.000Z</time>
      </trkpt>
      <trkpt lat="43.16255" lon="6.50263">
        <ele>104</ele>
        <time>2013-09-12T11:41:09.000Z</time>
      </trkpt>
      <trkpt lat="43.16254" lon="6.5026">
        <ele>104</ele>
        <time>2013-09-12T11:41:10.000Z</time>
      </trkpt>
      <trkpt lat="43.16254" lon="6.50257">
        <ele>104</ele>
        <time>2013-09-12T11:41:11.000Z</time>
      </trkpt>
      <trkpt lat="43.16254" lon="6.50254">
        <ele>104</ele>
        <time>2013-09-12T11:41:12.000Z</time>
      </trkpt>
      <trkpt lat="43.16253" lon="6.50252">
        <ele>104</ele>
        <time>2013-09-12T11:41:13.000Z</time>
      </trkpt>
      <trkpt lat="43.16252" lon="6.50249">
        <ele>105</ele>
        <time>2013-09-12T11:41:14.000Z</time>
      </trkpt>
      <trkpt lat="43.16252" lon="6.50246">
        <ele>105</ele>
        <time>2013-09-12T11:41:15.000Z</time>
      </trkpt>
      <trkpt lat="43.16251" lon="6.50244">
        <ele>106</ele>
        <time>2013-09-12T11:41:16.000Z</time>
      </trkpt>
      <trkpt lat="43.1625" lon="6.50241">
        <ele>106</ele>
        <time>2013-09-12T11:41:17.000Z</time>
      </trkpt>
      <trkpt lat="43.16249" lon="6.50239">
        <ele>107</ele>
        <time>2013-09-12T11:41:18.000Z</time>
      </trkpt>
      <trkpt lat="43.16248" lon="6.50236">
        <ele>107</ele>
        <time>2013-09-12T11:41:19.000Z</time>
      </trkpt>
      <trkpt lat="43.16247" lon="6.50234">
        <ele>108</ele>
        <time>2013-09-12T11:41:20.000Z</time>
      </trkpt>
      <trkpt lat="43.16246" lon="6.50232">
        <ele>108</ele>
        <time>2013-09-12T11:41:21.000Z</time>
      </trkpt>
      <trkpt lat="43.16244" lon="6.50229">
        <ele>108</ele>
        <time>2013-09-12T11:41:22.000Z</time>
      </trkpt>
      <trkpt lat="43.16243" lon="6.50227">
        <ele>109</ele>
        <time>2013-09-12T11:41:23.000Z</time>
      </trkpt>
      <trkpt lat="43.16241" lon="6.50225">
        <ele>109</ele>
        <time>2013-09-12T11:41:24.000Z</time>
      </trkpt>
      <trkpt lat="43.16239" lon="6.50223">
        <ele>109</ele>
        <time>2013-09-12T11:41:25.000Z</time>
      </trkpt>
      <trkpt lat="43.16238" lon="6.50221">
        <ele>110</ele>
        <time>2013-09-12T11:41:26.000Z</time>
      </trkpt>
      <trkpt lat="43.16236" lon="6.50219">
        <ele>110</ele>
        <time>2013-09-12T11:41:27.000Z</time>
      </trkpt>
      <trkpt lat="43.16234" lon="6.50218">
        <ele>110</ele>
        <time>2013-09-12T11:41:28.000Z</time>
      </trkpt>
      <trkpt lat="43.16232" lon="6.50217">
        <ele>110</ele>
        <time>2013-09-12T11:41:29.000Z</time>
      </trkpt>
      <trkpt lat="43.1623" lon="6.50216">
        <ele>110</ele>
        <time>2013-09-12T11:41:30.000Z</time>
      </trkpt>
      <trkpt lat="43.16228" lon="6.50214">
        <ele>111</ele>
        <time>2013-09-12T11:41:31.000Z</time>
      </trkpt>
      <trkpt lat="43.16226" lon="6.50214">
        <ele>111</ele>
        <time>2013-09-12T11:41:32.000Z</time>
      </trkpt>
      <trkpt lat="43.16224" lon="6.50213">
        <ele>111</ele>
        <time>2013-09-12T11:41:33.000Z</time>
      </trkpt>
      <trkpt lat="43.16222" lon="6.50212">
        <ele>111</ele>
        <time>2013-09-12T11:41:34.000Z</time>
      </trkpt>
      <trkpt lat="43.1622" lon="6.50211">
        <ele>111</ele>
        <time>2013-09-12T11:41:35.000Z</time>
      </trkpt>
      <trkpt lat="43.16218" lon="6.5021">
        <ele>111</ele>
        <time>2013-09-12T11:41:36.000Z</time>
      </trkpt>
      <trkpt lat="43.16216" lon="6.5021">
        <ele>111</ele>
        <time>2013-09-12T11:41:37.000Z</time>
      </trkpt>
      <trkpt lat="43.16214" lon="6.50209">
        <ele>111</ele>
        <time>2013-09-12T11:41:38.000Z</time>
      </trkpt>
      <trkpt lat="43.16212" lon="6.50208">
        <ele>111</ele>
        <time>2013-09-12T11:41:39.000Z</time>
      </trkpt>
      <trkpt lat="43.1621" lon="6.50207">
        <ele>111</ele>
        <time>2013-09-12T11:41:40.000Z</time>
      </trkpt>
      <trkpt lat="43.16208" lon="6.50206">
        <ele>111</ele>
        <time>2013-09-12T11:41:41.000Z</time>
      </trkpt>
      <trkpt lat="43.16206" lon="6.50206">
        <ele>111</ele>
        <time>2013-09-12T11:41:42.000Z</time>
      </trkpt>
      <trkpt lat="43.16204" lon="6.50205">
        <ele>111</ele>
        <time>2013-09-12T11:41:43.000Z</time>
      </trkpt>
      <trkpt lat="43.16202" lon="6.50204">
        <ele>111</ele>
        <time>2013-09-12T11:41:44.000Z</time>
      </trkpt>
      <trkpt lat="43.162" lon="6.50204">
        <ele>111</ele>
        <time>2013-09-12T11:41:45.000Z</time>
      </trkpt>
      <trkpt lat="43.16198" lon="6.50203">
        <ele>111</ele>
        <time>2013-09-12T11:41:46.000Z</time>
      </trkpt>
      <trkpt lat="43.16196" lon="6.50202">
        <ele>112</ele>
        <time>2013-09-12T11:41:47.000Z</time>
      </trkpt>
      <trkpt lat="43.16194" lon="6.50202">
        <ele>112</ele>
        <time>2013-09-12T11:41:48.000Z</time>
      </trkpt>
      <trkpt lat="43.16192" lon="6.50201">
        <ele>112</ele>
        <time>2013-09-12T11:41:49.000Z</time>
      </trkpt>
      <trkpt lat="43.1619" lon="6.50201">
        <ele>112</ele>
        <time>2013-09-12T11:41:50.000Z</time>
      </trkpt>
      <trkpt lat="43.16186" lon="6.50201">
        <ele>112</ele>
        <time>2013-09-12T11:41:52.000Z</time>
      </trkpt>
      <trkpt lat="43.16184" lon="6.50201">
        <ele>112</ele>
        <time>2013-09-12T11:41:53.000Z</time>
      </trkpt>
      <trkpt lat="43.16182" lon="6.50201">
        <ele>112</ele>
        <time>2013-09-12T11:41:54.000Z</time>
      </trkpt>
      <trkpt lat="43.16179" lon="6.50202">
        <ele>112</ele>
        <time>2013-09-12T11:41:55.000Z</time>
      </trkpt>
      <trkpt lat="43.16177" lon="6.50203">
        <ele>112</ele>
        <time>2013-09-12T11:41:56.000Z</time>
      </trkpt>
      <trkpt lat="43.16175" lon="6.50203">
        <ele>111</ele>
        <time>2013-09-12T11:41:57.000Z</time>
      </trkpt>
      <trkpt lat="43.16173" lon="6.50204">
        <ele>111</ele>
        <time>2013-09-12T11:41:58.000Z</time>
      </trkpt>
      <trkpt lat="43.16171" lon="6.50205">
        <ele>111</ele>
        <time>2013-09-12T11:41:59.000Z</time>
      </trkpt>
      <trkpt lat="43.16168" lon="6.50206">
        <ele>111</ele>
        <time>2013-09-12T11:42:00.000Z</time>
      </trkpt>
      <trkpt lat="43.16166" lon="6.50207">
        <ele>114</ele>
        <time>2013-09-12T11:42:01.000Z</time>
      </trkpt>
      <trkpt lat="43.16164" lon="6.50209">
        <ele>114</ele>
        <time>2013-09-12T11:42:02.000Z</time>
      </trkpt>
      <trkpt lat="43.16162" lon="6.50211">
        <ele>114</ele>
        <time>2013-09-12T11:42:03.000Z</time>
      </trkpt>
      <trkpt lat="43.16161" lon="6.50212">
        <ele>113</ele>
        <time>2013-09-12T11:42:04.000Z</time>
      </trkpt>
      <trkpt lat="43.16159" lon="6.50214">
        <ele>113</ele>
        <time>2013-09-12T11:42:05.000Z</time>
      </trkpt>
      <trkpt lat="43.16157" lon="6.50216">
        <ele>113</ele>
        <time>2013-09-12T11:42:06.000Z</time>
      </trkpt>
      <trkpt lat="43.16155" lon="6.50217">
        <ele>113</ele>
        <time>2013-09-12T11:42:07.000Z</time>
      </trkpt>
      <trkpt lat="43.16153" lon="6.50219">
        <ele>113</ele>
        <time>2013-09-12T11:42:08.000Z</time>
      </trkpt>
      <trkpt lat="43.16152" lon="6.50221">
        <ele>112</ele>
        <time>2013-09-12T11:42:09.000Z</time>
      </trkpt>
      <trkpt lat="43.1615" lon="6.50223">
        <ele>112</ele>
        <time>2013-09-12T11:42:10.000Z</time>
      </trkpt>
      <trkpt lat="43.16149" lon="6.50225">
        <ele>112</ele>
        <time>2013-09-12T11:42:11.000Z</time>
      </trkpt>
      <trkpt lat="43.16147" lon="6.50227">
        <ele>112</ele>
        <time>2013-09-12T11:42:12.000Z</time>
      </trkpt>
      <trkpt lat="43.16146" lon="6.50229">
        <ele>112</ele>
        <time>2013-09-12T11:42:13.000Z</time>
      </trkpt>
      <trkpt lat="43.16144" lon="6.50232">
        <ele>112</ele>
        <time>2013-09-12T11:42:14.000Z</time>
      </trkpt>
      <trkpt lat="43.16143" lon="6.50234">
        <ele>112</ele>
        <time>2013-09-12T11:42:15.000Z</time>
      </trkpt>
      <trkpt lat="43.16141" lon="6.50235">
        <ele>112</ele>
        <time>2013-09-12T11:42:16.000Z</time>
      </trkpt>
      <trkpt lat="43.1614" lon="6.50237">
        <ele>112</ele>
        <time>2013-09-12T11:42:17.000Z</time>
      </trkpt>
      <trkpt lat="43.16138" lon="6.5024">
        <ele>112</ele>
        <time>2013-09-12T11:42:18.000Z</time>
      </trkpt>
      <trkpt lat="43.16137" lon="6.50242">
        <ele>112</ele>
        <time>2013-09-12T11:42:19.000Z</time>
      </trkpt>
      <trkpt lat="43.16135" lon="6.50244">
        <ele>112</ele>
        <time>2013-09-12T11:42:20.000Z</time>
      </trkpt>
      <trkpt lat="43.16134" lon="6.50246">
        <ele>112</ele>
        <time>2013-09-12T11:42:21.000Z</time>
      </trkpt>
      <trkpt lat="43.16132" lon="6.50248">
        <ele>112</ele>
        <time>2013-09-12T11:42:22.000Z</time>
      </trkpt>
      <trkpt lat="43.16131" lon="6.50249">
        <ele>112</ele>
        <time>2013-09-12T11:42:23.000Z</time>
      </trkpt>
      <trkpt lat="43.16129" lon="6.50251">
        <ele>104</ele>
        <time>2013-09-12T11:42:24.000Z</time>
      </trkpt>
      <trkpt lat="43.16128" lon="6.50253">
        <ele>104</ele>
        <time>2013-09-12T11:42:25.000Z</time>
      </trkpt>
      <trkpt lat="43.16126" lon="6.50255">
        <ele>104</ele>
        <time>2013-09-12T11:42:26.000Z</time>
      </trkpt>
      <trkpt lat="43.16125" lon="6.50256">
        <ele>104</ele>
        <time>2013-09-12T11:42:27.000Z</time>
      </trkpt>
      <trkpt lat="43.16123" lon="6.50258">
        <ele>104</ele>
        <time>2013-09-12T11:42:28.000Z</time>
      </trkpt>
      <trkpt lat="43.16121" lon="6.50259">
        <ele>105</ele>
        <time>2013-09-12T11:42:29.000Z</time>
      </trkpt>
      <trkpt lat="43.1612" lon="6.50261">
        <ele>105</ele>
        <time>2013-09-12T11:42:30.000Z</time>
      </trkpt>
      <trkpt lat="43.16118" lon="6.50263">
        <ele>105</ele>
        <time>2013-09-12T11:42:31.000Z</time>
      </trkpt>
      <trkpt lat="43.16116" lon="6.50264">
        <ele>105</ele>
        <time>2013-09-12T11:42:32.000Z</time>
      </trkpt>
      <trkpt lat="43.16115" lon="6.50265">
        <ele>105</ele>
        <time>2013-09-12T11:42:33.000Z</time>
      </trkpt>
      <trkpt lat="43.16113" lon="6.50267">
        <ele>105</ele>
        <time>2013-09-12T11:42:34.000Z</time>
      </trkpt>
      <trkpt lat="43.16111" lon="6.50268">
        <ele>106</ele>
        <time>2013-09-12T11:42:35.000Z</time>
      </trkpt>
      <trkpt lat="43.16109" lon="6.50269">
        <ele>106</ele>
        <time>2013-09-12T11:42:36.000Z</time>
      </trkpt>
      <trkpt lat="43.16107" lon="6.5027">
        <ele>106</ele>
        <time>2013-09-12T11:42:37.000Z</time>
      </trkpt>
      <trkpt lat="43.16105" lon="6.50271">
        <ele>106</ele>
        <time>2013-09-12T11:42:38.000Z</time>
      </trkpt>
      <trkpt lat="43.16103" lon="6.50273">
        <ele>106</ele>
        <time>2013-09-12T11:42:39.000Z</time>
      </trkpt>
      <trkpt lat="43.16101" lon="6.50274">
        <ele>106</ele>
        <time>2013-09-12T11:42:40.000Z</time>
      </trkpt>
      <trkpt lat="43.16099" lon="6.50275">
        <ele>106</ele>
        <time>2013-09-12T11:42:41.000Z</time>
      </trkpt>
      <trkpt lat="43.16097" lon="6.50275">
        <ele>106</ele>
        <time>2013-09-12T11:42:42.000Z</time>
      </trkpt>
      <trkpt lat="43.16095" lon="6.50276">
        <ele>106</ele>
        <time>2013-09-12T11:42:43.000Z</time>
      </trkpt>
      <trkpt lat="43.16093" lon="6.50277">
        <ele>107</ele>
        <time>2013-09-12T11:42:44.000Z</time>
      </trkpt>
      <trkpt lat="43.1609" lon="6.50278">
        <ele>107</ele>
        <time>2013-09-12T11:42:45.000Z</time>
      </trkpt>
      <trkpt lat="43.16088" lon="6.50278">
        <ele>107</ele>
        <time>2013-09-12T11:42:46.000Z</time>
      </trkpt>
      <trkpt lat="43.16086" lon="6.50279">
        <ele>107</ele>
        <time>2013-09-12T11:42:47.000Z</time>
      </trkpt>
      <trkpt lat="43.16084" lon="6.50279">
        <ele>107</ele>
        <time>2013-09-12T11:42:48.000Z</time>
      </trkpt>
      <trkpt lat="43.16082" lon="6.50279">
        <ele>108</ele>
        <time>2013-09-12T11:42:49.000Z</time>
      </trkpt>
      <trkpt lat="43.16079" lon="6.50279">
        <ele>108</ele>
        <time>2013-09-12T11:42:50.000Z</time>
      </trkpt>
      <trkpt lat="43.16077" lon="6.50279">
        <ele>108</ele>
        <time>2013-09-12T11:42:51.000Z</time>
      </trkpt>
      <trkpt lat="43.16075" lon="6.50279">
        <ele>108</ele>
        <time>2013-09-12T11:42:52.000Z</time>
      </trkpt>
      <trkpt lat="43.16073" lon="6.50278">
        <ele>108</ele>
        <time>2013-09-12T11:42:53.000Z</time>
      </trkpt>
      <trkpt lat="43.1607" lon="6.50278">
        <ele>108</ele>
        <time>2013-09-12T11:42:54.000Z</time>
      </trkpt>
      <trkpt lat="43.16068" lon="6.50277">
        <ele>108</ele>
        <time>2013-09-12T11:42:55.000Z</time>
      </trkpt>
      <trkpt lat="43.16066" lon="6.50276">
        <ele>108</ele>
        <time>2013-09-12T11:42:56.000Z</time>
      </trkpt>
      <trkpt lat="43.16064" lon="6.50275">
        <ele>107</ele>
        <time>2013-09-12T11:42:57.000Z</time>
      </trkpt>
      <trkpt lat="43.16062" lon="6.50274">
        <ele>107</ele>
        <time>2013-09-12T11:42:58.000Z</time>
      </trkpt>
      <trkpt lat="43.1606" lon="6.50273">
        <ele>107</ele>
        <time>2013-09-12T11:42:59.000Z</time>
      </trkpt>
      <trkpt lat="43.16058" lon="6.50271">
        <ele>107</ele>
        <time>2013-09-12T11:43:00.000Z</time>
      </trkpt>
      <trkpt lat="43.16057" lon="6.5027">
        <ele>107</ele>
        <time>2013-09-12T11:43:01.000Z</time>
      </trkpt>
      <trkpt lat="43.16055" lon="6.50268">
        <ele>107</ele>
        <time>2013-09-12T11:43:02.000Z</time>
      </trkpt>
      <trkpt lat="43.16053" lon="6.50266">
        <ele>107</ele>
        <time>2013-09-12T11:43:03.000Z</time>
      </trkpt>
      <trkpt lat="43.16051" lon="6.50264">
        <ele>107</ele>
        <time>2013-09-12T11:43:04.000Z</time>
      </trkpt>
      <trkpt lat="43.1605" lon="6.50262">
        <ele>107</ele>
        <time>2013-09-12T11:43:05.000Z</time>
      </trkpt>
      <trkpt lat="43.16048" lon="6.50259">
        <ele>107</ele>
        <time>2013-09-12T11:43:06.000Z</time>
      </trkpt>
      <trkpt lat="43.16047" lon="6.50257">
        <ele>107</ele>
        <time>2013-09-12T11:43:07.000Z</time>
      </trkpt>
      <trkpt lat="43.16046" lon="6.50255">
        <ele>106</ele>
        <time>2013-09-12T11:43:08.000Z</time>
      </trkpt>
      <trkpt lat="43.16044" lon="6.50252">
        <ele>106</ele>
        <time>2013-09-12T11:43:09.000Z</time>
      </trkpt>
      <trkpt lat="43.16043" lon="6.50249">
        <ele>112</ele>
        <time>2013-09-12T11:43:10.000Z</time>
      </trkpt>
      <trkpt lat="43.16042" lon="6.50247">
        <ele>112</ele>
        <time>2013-09-12T11:43:11.000Z</time>
      </trkpt>
      <trkpt lat="43.16041" lon="6.50244">
        <ele>112</ele>
        <time>2013-09-12T11:43:12.000Z</time>
      </trkpt>
      <trkpt lat="43.16039" lon="6.50241">
        <ele>112</ele>
        <time>2013-09-12T11:43:13.000Z</time>
      </trkpt>
      <trkpt lat="43.16038" lon="6.50238">
        <ele>111</ele>
        <time>2013-09-12T11:43:14.000Z</time>
      </trkpt>
      <trkpt lat="43.16037" lon="6.50236">
        <ele>111</ele>
        <time>2013-09-12T11:43:15.000Z</time>
      </trkpt>
      <trkpt lat="43.16036" lon="6.50233">
        <ele>112</ele>
        <time>2013-09-12T11:43:16.000Z</time>
      </trkpt>
      <trkpt lat="43.16035" lon="6.5023">
        <ele>112</ele>
        <time>2013-09-12T11:43:17.000Z</time>
      </trkpt>
      <trkpt lat="43.16034" lon="6.50227">
        <ele>112</ele>
        <time>2013-09-12T11:43:18.000Z</time>
      </trkpt>
      <trkpt lat="43.16032" lon="6.50224">
        <ele>112</ele>
        <time>2013-09-12T11:43:19.000Z</time>
      </trkpt>
      <trkpt lat="43.16031" lon="6.50222">
        <ele>112</ele>
        <time>2013-09-12T11:43:20.000Z</time>
      </trkpt>
      <trkpt lat="43.1603" lon="6.50219">
        <ele>112</ele>
        <time>2013-09-12T11:43:21.000Z</time>
      </trkpt>
      <trkpt lat="43.16027" lon="6.50218">
        <ele>112</ele>
        <time>2013-09-12T11:43:22.000Z</time>
      </trkpt>
      <trkpt lat="43.16024" lon="6.50217">
        <ele>111</ele>
        <time>2013-09-12T11:43:23.000Z</time>
      </trkpt>
      <trkpt lat="43.1602" lon="6.50216">
        <ele>111</ele>
        <time>2013-09-12T11:43:24.000Z</time>
      </trkpt>
      <trkpt lat="43.16018" lon="6.50214">
        <ele>111</ele>
        <time>2013-09-12T11:43:25.000Z</time>
      </trkpt>
      <trkpt lat="43.16016" lon="6.50211">
        <ele>111</ele>
        <time>2013-09-12T11:43:26.000Z</time>
      </trkpt>
      <trkpt lat="43.16015" lon="6.5021">
        <ele>111</ele>
        <time>2013-09-12T11:43:27.000Z</time>
      </trkpt>
      <trkpt lat="43.16014" lon="6.5021">
        <ele>111</ele>
        <time>2013-09-12T11:43:28.000Z</time>
      </trkpt>
      <trkpt lat="43.16014" lon="6.50209">
        <ele>111</ele>
        <time>2013-09-12T11:43:29.000Z</time>
      </trkpt>
      <trkpt lat="43.16014" lon="6.50208">
        <ele>111</ele>
        <time>2013-09-12T11:43:30.000Z</time>
      </trkpt>
      <trkpt lat="43.16013" lon="6.50207">
        <ele>112</ele>
        <time>2013-09-12T11:43:31.000Z</time>
      </trkpt>
      <trkpt lat="43.16013" lon="6.50206">
        <ele>112</ele>
        <time>2013-09-12T11:43:32.000Z</time>
      </trkpt>
      <trkpt lat="43.16012" lon="6.50205">
        <ele>112</ele>
        <time>2013-09-12T11:43:33.000Z</time>
      </trkpt>
      <trkpt lat="43.16012" lon="6.50203">
        <ele>112</ele>
        <time>2013-09-12T11:43:34.000Z</time>
      </trkpt>
      <trkpt lat="43.16011" lon="6.50202">
        <ele>112</ele>
        <time>2013-09-12T11:43:35.000Z</time>
      </trkpt>
      <trkpt lat="43.16011" lon="6.50201">
        <ele>112</ele>
        <time>2013-09-12T11:43:36.000Z</time>
      </trkpt>
      <trkpt lat="43.1601" lon="6.502">
        <ele>112</ele>
        <time>2013-09-12T11:43:37.000Z</time>
      </trkpt>
      <trkpt lat="43.1601" lon="6.50199">
        <ele>112</ele>
        <time>2013-09-12T11:43:38.000Z</time>
      </trkpt>
      <trkpt lat="43.1601" lon="6.50198">
        <ele>112</ele>
        <time>2013-09-12T11:43:39.000Z</time>
      </trkpt>
      <trkpt lat="43.16009" lon="6.50197">
        <ele>112</ele>
        <time>2013-09-12T11:43:40.000Z</time>
      </trkpt>
      <trkpt lat="43.16009" lon="6.50196">
        <ele>112</ele>
        <time>2013-09-12T11:43:41.000Z</time>
      </trkpt>
      <trkpt lat="43.16009" lon="6.50196">
        <ele>112</ele>
        <time>2013-09-12T11:43:42.000Z</time>
      </trkpt>
      <trkpt lat="43.16009" lon="6.50196">
        <ele>112</ele>
        <time>2013-09-12T11:43:50.000Z</time>
      </trkpt>
      <trkpt lat="43.16009" lon="6.50196">
        <ele>112</ele>
        <time>2013-09-12T11:43:55.000Z</time>
      </trkpt>
      <trkpt lat="43.16009" lon="6.50196">
        <ele>112</ele>
        <time>2013-09-12T11:44:07.000Z</time>
      </trkpt>
      <trkpt lat="43.16009" lon="6.50196">
        <ele>112</ele>
        <time>2013-09-12T11:44:19.000Z</time>
      </trkpt>
      <trkpt lat="43.16009" lon="6.50196">
        <ele>112</ele>
        <time>2013-09-12T11:44:27.000Z</time>
      </trkpt>
      <trkpt lat="43.16009" lon="6.50197">
        <ele>112</ele>
        <time>2013-09-12T11:44:28.000Z</time>
      </trkpt>
      <trkpt lat="43.16009" lon="6.50197">
        <ele>112</ele>
        <time>2013-09-12T11:44:30.000Z</time>
      </trkpt>
      <trkpt lat="43.1601" lon="6.50197">
        <ele>112</ele>
        <time>2013-09-12T11:44:32.000Z</time>
      </trkpt>
      <trkpt lat="43.1601" lon="6.50197">
        <ele>112</ele>
        <time>2013-09-12T11:44:33.000Z</time>
      </trkpt>
      <trkpt lat="43.1601" lon="6.50197">
        <ele>112</ele>
        <time>2013-09-12T11:44:35.000Z</time>
      </trkpt>
      <trkpt lat="43.1601" lon="6.50197">
        <ele>112</ele>
        <time>2013-09-12T11:44:37.000Z</time>
      </trkpt>
      <trkpt lat="43.1601" lon="6.50198">
        <ele>112</ele>
        <time>2013-09-12T11:44:40.000Z</time>
      </trkpt>
      <trkpt lat="43.16011" lon="6.50198">
        <ele>112</ele>
        <time>2013-09-12T11:44:41.000Z</time>
      </trkpt>
      <trkpt lat="43.16011" lon="6.50197">
        <ele>112</ele>
        <time>2013-09-12T11:44:42.000Z</time>
      </trkpt>
      <trkpt lat="43.16012" lon="6.50196">
        <ele>112</ele>
        <time>2013-09-12T11:44:43.000Z</time>
      </trkpt>
      <trkpt lat="43.16013" lon="6.50195">
        <ele>112</ele>
        <time>2013-09-12T11:44:44.000Z</time>
      </trkpt>
      <trkpt lat="43.16014" lon="6.50195">
        <ele>112</ele>
        <time>2013-09-12T11:44:45.000Z</time>
      </trkpt>
      <trkpt lat="43.16014" lon="6.50194">
        <ele>112</ele>
        <time>2013-09-12T11:44:46.000Z</time>
      </trkpt>
      <trkpt lat="43.16014" lon="6.50194">
        <ele>112</ele>
        <time>2013-09-12T11:44:47.000Z</time>
      </trkpt>
      <trkpt lat="43.16015" lon="6.50193">
        <ele>113</ele>
        <time>2013-09-12T11:44:48.000Z</time>
      </trkpt>
      <trkpt lat="43.16016" lon="6.50192">
        <ele>113</ele>
        <time>2013-09-12T11:44:49.000Z</time>
      </trkpt>
      <trkpt lat="43.16015" lon="6.50187">
        <ele>113</ele>
        <time>2013-09-12T11:44:51.000Z</time>
      </trkpt>
      <trkpt lat="43.16015" lon="6.50185">
        <ele>113</ele>
        <time>2013-09-12T11:44:52.000Z</time>
      </trkpt>
      <trkpt lat="43.16014" lon="6.50182">
        <ele>113</ele>
        <time>2013-09-12T11:44:53.000Z</time>
      </trkpt>
      <trkpt lat="43.16013" lon="6.50179">
        <ele>113</ele>
        <time>2013-09-12T11:44:54.000Z</time>
      </trkpt>
      <trkpt lat="43.16011" lon="6.50176">
        <ele>112</ele>
        <time>2013-09-12T11:44:55.000Z</time>
      </trkpt>
      <trkpt lat="43.1601" lon="6.50173">
        <ele>112</ele>
        <time>2013-09-12T11:44:56.000Z</time>
      </trkpt>
      <trkpt lat="43.16009" lon="6.50171">
        <ele>112</ele>
        <time>2013-09-12T11:44:57.000Z</time>
      </trkpt>
      <trkpt lat="43.16008" lon="6.50169">
        <ele>112</ele>
        <time>2013-09-12T11:44:58.000Z</time>
      </trkpt>
      <trkpt lat="43.16007" lon="6.50167">
        <ele>116</ele>
        <time>2013-09-12T11:44:59.000Z</time>
      </trkpt>
      <trkpt lat="43.16006" lon="6.50165">
        <ele>116</ele>
        <time>2013-09-12T11:45:00.000Z</time>
      </trkpt>
      <trkpt lat="43.16006" lon="6.50163">
        <ele>116</ele>
        <time>2013-09-12T11:45:01.000Z</time>
      </trkpt>
      <trkpt lat="43.16005" lon="6.5016">
        <ele>116</ele>
        <time>2013-09-12T11:45:02.000Z</time>
      </trkpt>
      <trkpt lat="43.16004" lon="6.50158">
        <ele>117</ele>
        <time>2013-09-12T11:45:03.000Z</time>
      </trkpt>
      <trkpt lat="43.16003" lon="6.50155">
        <ele>118</ele>
        <time>2013-09-12T11:45:04.000Z</time>
      </trkpt>
      <trkpt lat="43.16002" lon="6.50152">
        <ele>119</ele>
        <time>2013-09-12T11:45:05.000Z</time>
      </trkpt>
      <trkpt lat="43.16" lon="6.50149">
        <ele>120</ele>
        <time>2013-09-12T11:45:06.000Z</time>
      </trkpt>
      <trkpt lat="43.15999" lon="6.50146">
        <ele>109</ele>
        <time>2013-09-12T11:45:07.000Z</time>
      </trkpt>
      <trkpt lat="43.15998" lon="6.50144">
        <ele>109</ele>
        <time>2013-09-12T11:45:08.000Z</time>
      </trkpt>
      <trkpt lat="43.15997" lon="6.50141">
        <ele>109</ele>
        <time>2013-09-12T11:45:09.000Z</time>
      </trkpt>
      <trkpt lat="43.15995" lon="6.50138">
        <ele>109</ele>
        <time>2013-09-12T11:45:10.000Z</time>
      </trkpt>
      <trkpt lat="43.15994" lon="6.50136">
        <ele>109</ele>
        <time>2013-09-12T11:45:11.000Z</time>
      </trkpt>
      <trkpt lat="43.15993" lon="6.50134">
        <ele>109</ele>
        <time>2013-09-12T11:45:12.000Z</time>
      </trkpt>
      <trkpt lat="43.15992" lon="6.50132">
        <ele>109</ele>
        <time>2013-09-12T11:45:13.000Z</time>
      </trkpt>
      <trkpt lat="43.15991" lon="6.50129">
        <ele>109</ele>
        <time>2013-09-12T11:45:14.000Z</time>
      </trkpt>
      <trkpt lat="43.15989" lon="6.50127">
        <ele>109</ele>
        <time>2013-09-12T11:45:15.000Z</time>
      </trkpt>
      <trkpt lat="43.15988" lon="6.50125">
        <ele>110</ele>
        <time>2013-09-12T11:45:16.000Z</time>
      </trkpt>
      <trkpt lat="43.15987" lon="6.50122">
        <ele>110</ele>
        <time>2013-09-12T11:45:17.000Z</time>
      </trkpt>
      <trkpt lat="43.15986" lon="6.5012">
        <ele>110</ele>
        <time>2013-09-12T11:45:18.000Z</time>
      </trkpt>
      <trkpt lat="43.15985" lon="6.50117">
        <ele>111</ele>
        <time>2013-09-12T11:45:19.000Z</time>
      </trkpt>
      <trkpt lat="43.15984" lon="6.50115">
        <ele>111</ele>
        <time>2013-09-12T11:45:20.000Z</time>
      </trkpt>
      <trkpt lat="43.15983" lon="6.50114">
        <ele>111</ele>
        <time>2013-09-12T11:45:21.000Z</time>
      </trkpt>
      <trkpt lat="43.15983" lon="6.50113">
        <ele>111</ele>
        <time>2013-09-12T11:45:22.000Z</time>
      </trkpt>
      <trkpt lat="43.15983" lon="6.50113">
        <ele>111</ele>
        <time>2013-09-12T11:45:24.000Z</time>
      </trkpt>
      <trkpt lat="43.15982" lon="6.50113">
        <ele>111</ele>
        <time>2013-09-12T11:45:27.000Z</time>
      </trkpt>
      <trkpt lat="43.15982" lon="6.50111">
        <ele>111</ele>
        <time>2013-09-12T11:45:28.000Z</time>
      </trkpt>
      <trkpt lat="43.15981" lon="6.5011">
        <ele>112</ele>
        <time>2013-09-12T11:45:29.000Z</time>
      </trkpt>
      <trkpt lat="43.1598" lon="6.50108">
        <ele>112</ele>
        <time>2013-09-12T11:45:30.000Z</time>
      </trkpt>
      <trkpt lat="43.15978" lon="6.50105">
        <ele>112</ele>
        <time>2013-09-12T11:45:31.000Z</time>
      </trkpt>
      <trkpt lat="43.15977" lon="6.50102">
        <ele>112</ele>
        <time>2013-09-12T11:45:32.000Z</time>
      </trkpt>
      <trkpt lat="43.15975" lon="6.501">
        <ele>112</ele>
        <time>2013-09-12T11:45:33.000Z</time>
      </trkpt>
      <trkpt lat="43.15974" lon="6.50097">
        <ele>112</ele>
        <time>2013-09-12T11:45:34.000Z</time>
      </trkpt>
      <trkpt lat="43.15972" lon="6.50094">
        <ele>112</ele>
        <time>2013-09-12T11:45:35.000Z</time>
      </trkpt>
      <trkpt lat="43.15971" lon="6.50091">
        <ele>112</ele>
        <time>2013-09-12T11:45:36.000Z</time>
      </trkpt>
      <trkpt lat="43.1597" lon="6.50088">
        <ele>112</ele>
        <time>2013-09-12T11:45:37.000Z</time>
      </trkpt>
      <trkpt lat="43.15968" lon="6.50085">
        <ele>111</ele>
        <time>2013-09-12T11:45:38.000Z</time>
      </trkpt>
      <trkpt lat="43.15967" lon="6.50082">
        <ele>123</ele>
        <time>2013-09-12T11:45:39.000Z</time>
      </trkpt>
      <trkpt lat="43.15965" lon="6.50079">
        <ele>123</ele>
        <time>2013-09-12T11:45:40.000Z</time>
      </trkpt>
      <trkpt lat="43.15964" lon="6.50076">
        <ele>122</ele>
        <time>2013-09-12T11:45:41.000Z</time>
      </trkpt>
      <trkpt lat="43.15962" lon="6.50072">
        <ele>122</ele>
        <time>2013-09-12T11:45:42.000Z</time>
      </trkpt>
      <trkpt lat="43.15961" lon="6.5007">
        <ele>122</ele>
        <time>2013-09-12T11:45:43.000Z</time>
      </trkpt>
      <trkpt lat="43.15959" lon="6.50067">
        <ele>122</ele>
        <time>2013-09-12T11:45:44.000Z</time>
      </trkpt>
      <trkpt lat="43.15958" lon="6.50064">
        <ele>122</ele>
        <time>2013-09-12T11:45:45.000Z</time>
      </trkpt>
      <trkpt lat="43.15956" lon="6.50062">
        <ele>122</ele>
        <time>2013-09-12T11:45:46.000Z</time>
      </trkpt>
      <trkpt lat="43.15955" lon="6.50059">
        <ele>121</ele>
        <time>2013-09-12T11:45:47.000Z</time>
      </trkpt>
      <trkpt lat="43.15953" lon="6.50056">
        <ele>121</ele>
        <time>2013-09-12T11:45:48.000Z</time>
      </trkpt>
      <trkpt lat="43.15952" lon="6.50053">
        <ele>122</ele>
        <time>2013-09-12T11:45:49.000Z</time>
      </trkpt>
      <trkpt lat="43.1595" lon="6.5005">
        <ele>122</ele>
        <time>2013-09-12T11:45:50.000Z</time>
      </trkpt>
      <trkpt lat="43.15948" lon="6.50047">
        <ele>122</ele>
        <time>2013-09-12T11:45:51.000Z</time>
      </trkpt>
      <trkpt lat="43.15947" lon="6.50044">
        <ele>122</ele>
        <time>2013-09-12T11:45:52.000Z</time>
      </trkpt>
      <trkpt lat="43.15945" lon="6.50042">
        <ele>122</ele>
        <time>2013-09-12T11:45:53.000Z</time>
      </trkpt>
      <trkpt lat="43.15943" lon="6.50039">
        <ele>122</ele>
        <time>2013-09-12T11:45:54.000Z</time>
      </trkpt>
      <trkpt lat="43.15942" lon="6.50036">
        <ele>122</ele>
        <time>2013-09-12T11:45:55.000Z</time>
      </trkpt>
      <trkpt lat="43.1594" lon="6.50034">
        <ele>122</ele>
        <time>2013-09-12T11:45:56.000Z</time>
      </trkpt>
      <trkpt lat="43.15938" lon="6.50031">
        <ele>122</ele>
        <time>2013-09-12T11:45:57.000Z</time>
      </trkpt>
      <trkpt lat="43.15937" lon="6.50028">
        <ele>122</ele>
        <time>2013-09-12T11:45:58.000Z</time>
      </trkpt>
      <trkpt lat="43.15935" lon="6.50025">
        <ele>122</ele>
        <time>2013-09-12T11:45:59.000Z</time>
      </trkpt>
      <trkpt lat="43.15933" lon="6.50023">
        <ele>122</ele>
        <time>2013-09-12T11:46:00.000Z</time>
      </trkpt>
      <trkpt lat="43.15931" lon="6.5002">
        <ele>122</ele>
        <time>2013-09-12T11:46:01.000Z</time>
      </trkpt>
      <trkpt lat="43.15929" lon="6.50018">
        <ele>122</ele>
        <time>2013-09-12T11:46:02.000Z</time>
      </trkpt>
      <trkpt lat="43.15927" lon="6.50015">
        <ele>121</ele>
        <time>2013-09-12T11:46:03.000Z</time>
      </trkpt>
      <trkpt lat="43.15925" lon="6.50013">
        <ele>121</ele>
        <time>2013-09-12T11:46:04.000Z</time>
      </trkpt>
      <trkpt lat="43.15923" lon="6.50011">
        <ele>121</ele>
        <time>2013-09-12T11:46:05.000Z</time>
      </trkpt>
      <trkpt lat="43.15921" lon="6.50008">
        <ele>121</ele>
        <time>2013-09-12T11:46:06.000Z</time>
      </trkpt>
      <trkpt lat="43.15919" lon="6.50006">
        <ele>120</ele>
        <time>2013-09-12T11:46:07.000Z</time>
      </trkpt>
      <trkpt lat="43.15917" lon="6.50003">
        <ele>120</ele>
        <time>2013-09-12T11:46:08.000Z</time>
      </trkpt>
      <trkpt lat="43.15915" lon="6.50001">
        <ele>117</ele>
        <time>2013-09-12T11:46:09.000Z</time>
      </trkpt>
      <trkpt lat="43.15913" lon="6.49999">
        <ele>119</ele>
        <time>2013-09-12T11:46:10.000Z</time>
      </trkpt>
      <trkpt lat="43.15911" lon="6.49996">
        <ele>119</ele>
        <time>2013-09-12T11:46:11.000Z</time>
      </trkpt>
      <trkpt lat="43.15909" lon="6.49994">
        <ele>118</ele>
        <time>2013-09-12T11:46:12.000Z</time>
      </trkpt>
      <trkpt lat="43.15907" lon="6.49991">
        <ele>118</ele>
        <time>2013-09-12T11:46:13.000Z</time>
      </trkpt>
      <trkpt lat="43.15905" lon="6.49989">
        <ele>118</ele>
        <time>2013-09-12T11:46:14.000Z</time>
      </trkpt>
      <trkpt lat="43.15902" lon="6.49986">
        <ele>118</ele>
        <time>2013-09-12T11:46:15.000Z</time>
      </trkpt>
      <trkpt lat="43.159" lon="6.49983">
        <ele>118</ele>
        <time>2013-09-12T11:46:16.000Z</time>
      </trkpt>
      <trkpt lat="43.15898" lon="6.49981">
        <ele>118</ele>
        <time>2013-09-12T11:46:17.000Z</time>
      </trkpt>
      <trkpt lat="43.15896" lon="6.49978">
        <ele>118</ele>
        <time>2013-09-12T11:46:18.000Z</time>
      </trkpt>
      <trkpt lat="43.15894" lon="6.49976">
        <ele>118</ele>
        <time>2013-09-12T11:46:19.000Z</time>
      </trkpt>
      <trkpt lat="43.15892" lon="6.49973">
        <ele>118</ele>
        <time>2013-09-12T11:46:20.000Z</time>
      </trkpt>
      <trkpt lat="43.1589" lon="6.49971">
        <ele>118</ele>
        <time>2013-09-12T11:46:21.000Z</time>
      </trkpt>
      <trkpt lat="43.15888" lon="6.49968">
        <ele>118</ele>
        <time>2013-09-12T11:46:22.000Z</time>
      </trkpt>
      <trkpt lat="43.15886" lon="6.49965">
        <ele>118</ele>
        <time>2013-09-12T11:46:23.000Z</time>
      </trkpt>
      <trkpt lat="43.15884" lon="6.49963">
        <ele>118</ele>
        <time>2013-09-12T11:46:24.000Z</time>
      </trkpt>
      <trkpt lat="43.15882" lon="6.4996">
        <ele>118</ele>
        <time>2013-09-12T11:46:25.000Z</time>
      </trkpt>
      <trkpt lat="43.1588" lon="6.49957">
        <ele>119</ele>
        <time>2013-09-12T11:46:26.000Z</time>
      </trkpt>
      <trkpt lat="43.15878" lon="6.49955">
        <ele>119</ele>
        <time>2013-09-12T11:46:27.000Z</time>
      </trkpt>
      <trkpt lat="43.15876" lon="6.49952">
        <ele>119</ele>
        <time>2013-09-12T11:46:28.000Z</time>
      </trkpt>
      <trkpt lat="43.15874" lon="6.49949">
        <ele>119</ele>
        <time>2013-09-12T11:46:29.000Z</time>
      </trkpt>
      <trkpt lat="43.15872" lon="6.49946">
        <ele>119</ele>
        <time>2013-09-12T11:46:30.000Z</time>
      </trkpt>
      <trkpt lat="43.1587" lon="6.49943">
        <ele>119</ele>
        <time>2013-09-12T11:46:31.000Z</time>
      </trkpt>
      <trkpt lat="43.15868" lon="6.4994">
        <ele>119</ele>
        <time>2013-09-12T11:46:32.000Z</time>
      </trkpt>
      <trkpt lat="43.15866" lon="6.49938">
        <ele>119</ele>
        <time>2013-09-12T11:46:33.000Z</time>
      </trkpt>
      <trkpt lat="43.15864" lon="6.49935">
        <ele>119</ele>
        <time>2013-09-12T11:46:34.000Z</time>
      </trkpt>
      <trkpt lat="43.15862" lon="6.49931">
        <ele>118</ele>
        <time>2013-09-12T11:46:35.000Z</time>
      </trkpt>
      <trkpt lat="43.15861" lon="6.49928">
        <ele>118</ele>
        <time>2013-09-12T11:46:36.000Z</time>
      </trkpt>
      <trkpt lat="43.15859" lon="6.49925">
        <ele>118</ele>
        <time>2013-09-12T11:46:37.000Z</time>
      </trkpt>
      <trkpt lat="43.15858" lon="6.49922">
        <ele>118</ele>
        <time>2013-09-12T11:46:38.000Z</time>
      </trkpt>
      <trkpt lat="43.15856" lon="6.4992">
        <ele>118</ele>
        <time>2013-09-12T11:46:39.000Z</time>
      </trkpt>
      <trkpt lat="43.15854" lon="6.49917">
        <ele>118</ele>
        <time>2013-09-12T11:46:40.000Z</time>
      </trkpt>
      <trkpt lat="43.15853" lon="6.49914">
        <ele>130</ele>
        <time>2013-09-12T11:46:41.000Z</time>
      </trkpt>
      <trkpt lat="43.15851" lon="6.49911">
        <ele>130</ele>
        <time>2013-09-12T11:46:42.000Z</time>
      </trkpt>
      <trkpt lat="43.15849" lon="6.49908">
        <ele>130</ele>
        <time>2013-09-12T11:46:43.000Z</time>
      </trkpt>
      <trkpt lat="43.15848" lon="6.49906">
        <ele>130</ele>
        <time>2013-09-12T11:46:44.000Z</time>
      </trkpt>
      <trkpt lat="43.15846" lon="6.49903">
        <ele>130</ele>
        <time>2013-09-12T11:46:45.000Z</time>
      </trkpt>
      <trkpt lat="43.15845" lon="6.499">
        <ele>131</ele>
        <time>2013-09-12T11:46:46.000Z</time>
      </trkpt>
      <trkpt lat="43.15843" lon="6.49897">
        <ele>132</ele>
        <time>2013-09-12T11:46:47.000Z</time>
      </trkpt>
      <trkpt lat="43.15841" lon="6.49895">
        <ele>132</ele>
        <time>2013-09-12T11:46:48.000Z</time>
      </trkpt>
      <trkpt lat="43.15839" lon="6.49892">
        <ele>133</ele>
        <time>2013-09-12T11:46:49.000Z</time>
      </trkpt>
      <trkpt lat="43.15837" lon="6.49889">
        <ele>134</ele>
        <time>2013-09-12T11:46:50.000Z</time>
      </trkpt>
      <trkpt lat="43.15835" lon="6.49887">
        <ele>135</ele>
        <time>2013-09-12T11:46:51.000Z</time>
      </trkpt>
      <trkpt lat="43.15833" lon="6.49885">
        <ele>120</ele>
        <time>2013-09-12T11:46:52.000Z</time>
      </trkpt>
      <trkpt lat="43.15831" lon="6.49882">
        <ele>121</ele>
        <time>2013-09-12T11:46:53.000Z</time>
      </trkpt>
      <trkpt lat="43.15828" lon="6.4988">
        <ele>121</ele>
        <time>2013-09-12T11:46:54.000Z</time>
      </trkpt>
      <trkpt lat="43.15826" lon="6.49878">
        <ele>121</ele>
        <time>2013-09-12T11:46:55.000Z</time>
      </trkpt>
      <trkpt lat="43.15823" lon="6.49876">
        <ele>122</ele>
        <time>2013-09-12T11:46:56.000Z</time>
      </trkpt>
      <trkpt lat="43.15821" lon="6.49873">
        <ele>122</ele>
        <time>2013-09-12T11:46:57.000Z</time>
      </trkpt>
      <trkpt lat="43.15818" lon="6.49871">
        <ele>122</ele>
        <time>2013-09-12T11:46:58.000Z</time>
      </trkpt>
      <trkpt lat="43.15815" lon="6.49869">
        <ele>122</ele>
        <time>2013-09-12T11:46:59.000Z</time>
      </trkpt>
      <trkpt lat="43.15812" lon="6.49867">
        <ele>123</ele>
        <time>2013-09-12T11:47:00.000Z</time>
      </trkpt>
      <trkpt lat="43.15809" lon="6.49865">
        <ele>123</ele>
        <time>2013-09-12T11:47:01.000Z</time>
      </trkpt>
      <trkpt lat="43.15807" lon="6.49862">
        <ele>123</ele>
        <time>2013-09-12T11:47:02.000Z</time>
      </trkpt>
      <trkpt lat="43.15804" lon="6.4986">
        <ele>123</ele>
        <time>2013-09-12T11:47:03.000Z</time>
      </trkpt>
      <trkpt lat="43.15802" lon="6.49858">
        <ele>123</ele>
        <time>2013-09-12T11:47:04.000Z</time>
      </trkpt>
      <trkpt lat="43.15799" lon="6.49856">
        <ele>123</ele>
        <time>2013-09-12T11:47:05.000Z</time>
      </trkpt>
      <trkpt lat="43.15797" lon="6.49853">
        <ele>123</ele>
        <time>2013-09-12T11:47:06.000Z</time>
      </trkpt>
      <trkpt lat="43.15794" lon="6.49851">
        <ele>122</ele>
        <time>2013-09-12T11:47:07.000Z</time>
      </trkpt>
      <trkpt lat="43.15792" lon="6.49849">
        <ele>122</ele>
        <time>2013-09-12T11:47:08.000Z</time>
      </trkpt>
      <trkpt lat="43.15789" lon="6.49847">
        <ele>122</ele>
        <time>2013-09-12T11:47:09.000Z</time>
      </trkpt>
      <trkpt lat="43.15787" lon="6.49845">
        <ele>122</ele>
        <time>2013-09-12T11:47:10.000Z</time>
      </trkpt>
      <trkpt lat="43.15784" lon="6.49843">
        <ele>122</ele>
        <time>2013-09-12T11:47:11.000Z</time>
      </trkpt>
      <trkpt lat="43.15782" lon="6.49841">
        <ele>122</ele>
        <time>2013-09-12T11:47:12.000Z</time>
      </trkpt>
      <trkpt lat="43.15779" lon="6.49839">
        <ele>122</ele>
        <time>2013-09-12T11:47:13.000Z</time>
      </trkpt>
      <trkpt lat="43.15777" lon="6.49836">
        <ele>122</ele>
        <time>2013-09-12T11:47:14.000Z</time>
      </trkpt>
      <trkpt lat="43.15774" lon="6.49834">
        <ele>121</ele>
        <time>2013-09-12T11:47:15.000Z</time>
      </trkpt>
      <trkpt lat="43.15772" lon="6.49832">
        <ele>136</ele>
        <time>2013-09-12T11:47:16.000Z</time>
      </trkpt>
      <trkpt lat="43.15769" lon="6.4983">
        <ele>135</ele>
        <time>2013-09-12T11:47:17.000Z</time>
      </trkpt>
      <trkpt lat="43.15767" lon="6.49828">
        <ele>135</ele>
        <time>2013-09-12T11:47:18.000Z</time>
      </trkpt>
      <trkpt lat="43.15764" lon="6.49826">
        <ele>134</ele>
        <time>2013-09-12T11:47:19.000Z</time>
      </trkpt>
      <trkpt lat="43.15761" lon="6.49824">
        <ele>133</ele>
        <time>2013-09-12T11:47:20.000Z</time>
      </trkpt>
      <trkpt lat="43.15759" lon="6.49821">
        <ele>134</ele>
        <time>2013-09-12T11:47:21.000Z</time>
      </trkpt>
      <trkpt lat="43.15756" lon="6.49819">
        <ele>134</ele>
        <time>2013-09-12T11:47:22.000Z</time>
      </trkpt>
      <trkpt lat="43.15754" lon="6.49817">
        <ele>135</ele>
        <time>2013-09-12T11:47:23.000Z</time>
      </trkpt>
      <trkpt lat="43.15751" lon="6.49815">
        <ele>135</ele>
        <time>2013-09-12T11:47:24.000Z</time>
      </trkpt>
      <trkpt lat="43.15748" lon="6.49814">
        <ele>127</ele>
        <time>2013-09-12T11:47:25.000Z</time>
      </trkpt>
      <trkpt lat="43.15746" lon="6.49812">
        <ele>128</ele>
        <time>2013-09-12T11:47:26.000Z</time>
      </trkpt>
      <trkpt lat="43.15743" lon="6.4981">
        <ele>128</ele>
        <time>2013-09-12T11:47:27.000Z</time>
      </trkpt>
      <trkpt lat="43.1574" lon="6.49809">
        <ele>129</ele>
        <time>2013-09-12T11:47:28.000Z</time>
      </trkpt>
      <trkpt lat="43.15738" lon="6.49807">
        <ele>129</ele>
        <time>2013-09-12T11:47:29.000Z</time>
      </trkpt>
      <trkpt lat="43.15735" lon="6.49806">
        <ele>129</ele>
        <time>2013-09-12T11:47:30.000Z</time>
      </trkpt>
      <trkpt lat="43.15732" lon="6.49804">
        <ele>129</ele>
        <time>2013-09-12T11:47:31.000Z</time>
      </trkpt>
      <trkpt lat="43.15729" lon="6.49802">
        <ele>130</ele>
        <time>2013-09-12T11:47:32.000Z</time>
      </trkpt>
      <trkpt lat="43.15726" lon="6.49801">
        <ele>130</ele>
        <time>2013-09-12T11:47:33.000Z</time>
      </trkpt>
      <trkpt lat="43.15722" lon="6.498">
        <ele>130</ele>
        <time>2013-09-12T11:47:34.000Z</time>
      </trkpt>
      <trkpt lat="43.15719" lon="6.49799">
        <ele>130</ele>
        <time>2013-09-12T11:47:35.000Z</time>
      </trkpt>
      <trkpt lat="43.15715" lon="6.49799">
        <ele>130</ele>
        <time>2013-09-12T11:47:36.000Z</time>
      </trkpt>
      <trkpt lat="43.15712" lon="6.49798">
        <ele>129</ele>
        <time>2013-09-12T11:47:37.000Z</time>
      </trkpt>
      <trkpt lat="43.15708" lon="6.49797">
        <ele>129</ele>
        <time>2013-09-12T11:47:38.000Z</time>
      </trkpt>
      <trkpt lat="43.15705" lon="6.49797">
        <ele>129</ele>
        <time>2013-09-12T11:47:39.000Z</time>
      </trkpt>
      <trkpt lat="43.15701" lon="6.49796">
        <ele>129</ele>
        <time>2013-09-12T11:47:40.000Z</time>
      </trkpt>
      <trkpt lat="43.15698" lon="6.49795">
        <ele>129</ele>
        <time>2013-09-12T11:47:41.000Z</time>
      </trkpt>
      <trkpt lat="43.15695" lon="6.49795">
        <ele>129</ele>
        <time>2013-09-12T11:47:42.000Z</time>
      </trkpt>
      <trkpt lat="43.15691" lon="6.49794">
        <ele>128</ele>
        <time>2013-09-12T11:47:43.000Z</time>
      </trkpt>
      <trkpt lat="43.15688" lon="6.49794">
        <ele>128</ele>
        <time>2013-09-12T11:47:44.000Z</time>
      </trkpt>
      <trkpt lat="43.15685" lon="6.49794">
        <ele>128</ele>
        <time>2013-09-12T11:47:45.000Z</time>
      </trkpt>
      <trkpt lat="43.15681" lon="6.49793">
        <ele>128</ele>
        <time>2013-09-12T11:47:46.000Z</time>
      </trkpt>
      <trkpt lat="43.15678" lon="6.49793">
        <ele>128</ele>
        <time>2013-09-12T11:47:47.000Z</time>
      </trkpt>
      <trkpt lat="43.15675" lon="6.49792">
        <ele>128</ele>
        <time>2013-09-12T11:47:48.000Z</time>
      </trkpt>
      <trkpt lat="43.15672" lon="6.49791">
        <ele>128</ele>
        <time>2013-09-12T11:47:49.000Z</time>
      </trkpt>
      <trkpt lat="43.15668" lon="6.49791">
        <ele>128</ele>
        <time>2013-09-12T11:47:50.000Z</time>
      </trkpt>
      <trkpt lat="43.15665" lon="6.4979">
        <ele>122</ele>
        <time>2013-09-12T11:47:51.000Z</time>
      </trkpt>
      <trkpt lat="43.15662" lon="6.4979">
        <ele>122</ele>
        <time>2013-09-12T11:47:52.000Z</time>
      </trkpt>
      <trkpt lat="43.15659" lon="6.4979">
        <ele>122</ele>
        <time>2013-09-12T11:47:53.000Z</time>
      </trkpt>
      <trkpt lat="43.15656" lon="6.49789">
        <ele>122</ele>
        <time>2013-09-12T11:47:54.000Z</time>
      </trkpt>
      <trkpt lat="43.15652" lon="6.49788">
        <ele>122</ele>
        <time>2013-09-12T11:47:55.000Z</time>
      </trkpt>
      <trkpt lat="43.15649" lon="6.49788">
        <ele>122</ele>
        <time>2013-09-12T11:47:56.000Z</time>
      </trkpt>
      <trkpt lat="43.15646" lon="6.49787">
        <ele>122</ele>
        <time>2013-09-12T11:47:57.000Z</time>
      </trkpt>
      <trkpt lat="43.15643" lon="6.49786">
        <ele>122</ele>
        <time>2013-09-12T11:47:58.000Z</time>
      </trkpt>
      <trkpt lat="43.15639" lon="6.49786">
        <ele>122</ele>
        <time>2013-09-12T11:47:59.000Z</time>
      </trkpt>
      <trkpt lat="43.15636" lon="6.49785">
        <ele>122</ele>
        <time>2013-09-12T11:48:00.000Z</time>
      </trkpt>
      <trkpt lat="43.15633" lon="6.49785">
        <ele>121</ele>
        <time>2013-09-12T11:48:01.000Z</time>
      </trkpt>
      <trkpt lat="43.1563" lon="6.49784">
        <ele>121</ele>
        <time>2013-09-12T11:48:02.000Z</time>
      </trkpt>
      <trkpt lat="43.15626" lon="6.49783">
        <ele>121</ele>
        <time>2013-09-12T11:48:03.000Z</time>
      </trkpt>
      <trkpt lat="43.15623" lon="6.49782">
        <ele>121</ele>
        <time>2013-09-12T11:48:04.000Z</time>
      </trkpt>
      <trkpt lat="43.1562" lon="6.49781">
        <ele>121</ele>
        <time>2013-09-12T11:48:05.000Z</time>
      </trkpt>
      <trkpt lat="43.15616" lon="6.49781">
        <ele>121</ele>
        <time>2013-09-12T11:48:06.000Z</time>
      </trkpt>
      <trkpt lat="43.15613" lon="6.4978">
        <ele>121</ele>
        <time>2013-09-12T11:48:07.000Z</time>
      </trkpt>
      <trkpt lat="43.1561" lon="6.49779">
        <ele>121</ele>
        <time>2013-09-12T11:48:08.000Z</time>
      </trkpt>
      <trkpt lat="43.15607" lon="6.49779">
        <ele>121</ele>
        <time>2013-09-12T11:48:09.000Z</time>
      </trkpt>
      <trkpt lat="43.15603" lon="6.49779">
        <ele>121</ele>
        <time>2013-09-12T11:48:10.000Z</time>
      </trkpt>
      <trkpt lat="43.156" lon="6.49778">
        <ele>121</ele>
        <time>2013-09-12T11:48:11.000Z</time>
      </trkpt>
      <trkpt lat="43.15597" lon="6.49778">
        <ele>122</ele>
        <time>2013-09-12T11:48:12.000Z</time>
      </trkpt>
      <trkpt lat="43.15594" lon="6.49777">
        <ele>122</ele>
        <time>2013-09-12T11:48:13.000Z</time>
      </trkpt>
      <trkpt lat="43.1559" lon="6.49777">
        <ele>122</ele>
        <time>2013-09-12T11:48:14.000Z</time>
      </trkpt>
      <trkpt lat="43.15587" lon="6.49776">
        <ele>122</ele>
        <time>2013-09-12T11:48:15.000Z</time>
      </trkpt>
      <trkpt lat="43.15584" lon="6.49775">
        <ele>122</ele>
        <time>2013-09-12T11:48:16.000Z</time>
      </trkpt>
      <trkpt lat="43.15581" lon="6.49774">
        <ele>112</ele>
        <time>2013-09-12T11:48:17.000Z</time>
      </trkpt>
      <trkpt lat="43.15578" lon="6.49773">
        <ele>112</ele>
        <time>2013-09-12T11:48:18.000Z</time>
      </trkpt>
      <trkpt lat="43.15575" lon="6.49771">
        <ele>112</ele>
        <time>2013-09-12T11:48:19.000Z</time>
      </trkpt>
      <trkpt lat="43.15572" lon="6.49769">
        <ele>113</ele>
        <time>2013-09-12T11:48:20.000Z</time>
      </trkpt>
      <trkpt lat="43.15569" lon="6.49767">
        <ele>113</ele>
        <time>2013-09-12T11:48:21.000Z</time>
      </trkpt>
      <trkpt lat="43.15566" lon="6.49764">
        <ele>113</ele>
        <time>2013-09-12T11:48:22.000Z</time>
      </trkpt>
      <trkpt lat="43.15564" lon="6.49761">
        <ele>112</ele>
        <time>2013-09-12T11:48:23.000Z</time>
      </trkpt>
      <trkpt lat="43.15562" lon="6.49758">
        <ele>112</ele>
        <time>2013-09-12T11:48:24.000Z</time>
      </trkpt>
      <trkpt lat="43.15559" lon="6.49755">
        <ele>112</ele>
        <time>2013-09-12T11:48:25.000Z</time>
      </trkpt>
      <trkpt lat="43.15557" lon="6.49751">
        <ele>111</ele>
        <time>2013-09-12T11:48:26.000Z</time>
      </trkpt>
      <trkpt lat="43.15555" lon="6.49748">
        <ele>118</ele>
        <time>2013-09-12T11:48:27.000Z</time>
      </trkpt>
      <trkpt lat="43.15554" lon="6.49744">
        <ele>118</ele>
        <time>2013-09-12T11:48:28.000Z</time>
      </trkpt>
      <trkpt lat="43.15552" lon="6.49741">
        <ele>118</ele>
        <time>2013-09-12T11:48:29.000Z</time>
      </trkpt>
      <trkpt lat="43.1555" lon="6.49737">
        <ele>117</ele>
        <time>2013-09-12T11:48:30.000Z</time>
      </trkpt>
      <trkpt lat="43.15549" lon="6.49734">
        <ele>117</ele>
        <time>2013-09-12T11:48:31.000Z</time>
      </trkpt>
      <trkpt lat="43.15547" lon="6.49731">
        <ele>116</ele>
        <time>2013-09-12T11:48:32.000Z</time>
      </trkpt>
      <trkpt lat="43.15545" lon="6.49728">
        <ele>116</ele>
        <time>2013-09-12T11:48:33.000Z</time>
      </trkpt>
      <trkpt lat="43.15543" lon="6.49725">
        <ele>116</ele>
        <time>2013-09-12T11:48:34.000Z</time>
      </trkpt>
      <trkpt lat="43.15541" lon="6.49722">
        <ele>115</ele>
        <time>2013-09-12T11:48:35.000Z</time>
      </trkpt>
      <trkpt lat="43.1554" lon="6.49719">
        <ele>115</ele>
        <time>2013-09-12T11:48:36.000Z</time>
      </trkpt>
      <trkpt lat="43.15539" lon="6.49717">
        <ele>115</ele>
        <time>2013-09-12T11:48:37.000Z</time>
      </trkpt>
      <trkpt lat="43.15538" lon="6.49715">
        <ele>115</ele>
        <time>2013-09-12T11:48:38.000Z</time>
      </trkpt>
      <trkpt lat="43.15537" lon="6.49714">
        <ele>115</ele>
        <time>2013-09-12T11:48:39.000Z</time>
      </trkpt>
      <trkpt lat="43.15536" lon="6.49714">
        <ele>115</ele>
        <time>2013-09-12T11:48:40.000Z</time>
      </trkpt>
      <trkpt lat="43.15536" lon="6.49713">
        <ele>115</ele>
        <time>2013-09-12T11:48:42.000Z</time>
      </trkpt>
      <trkpt lat="43.15536" lon="6.49714">
        <ele>115</ele>
        <time>2013-09-12T11:48:44.000Z</time>
      </trkpt>
      <trkpt lat="43.15535" lon="6.49714">
        <ele>115</ele>
        <time>2013-09-12T11:48:45.000Z</time>
      </trkpt>
      <trkpt lat="43.15534" lon="6.49714">
        <ele>114</ele>
        <time>2013-09-12T11:48:46.000Z</time>
      </trkpt>
      <trkpt lat="43.15534" lon="6.49715">
        <ele>114</ele>
        <time>2013-09-12T11:48:47.000Z</time>
      </trkpt>
      <trkpt lat="43.15534" lon="6.49714">
        <ele>114</ele>
        <time>2013-09-12T11:48:50.000Z</time>
      </trkpt>
      <trkpt lat="43.15533" lon="6.49714">
        <ele>114</ele>
        <time>2013-09-12T11:48:51.000Z</time>
      </trkpt>
      <trkpt lat="43.15533" lon="6.49714">
        <ele>114</ele>
        <time>2013-09-12T11:48:53.000Z</time>
      </trkpt>
      <trkpt lat="43.15532" lon="6.49714">
        <ele>114</ele>
        <time>2013-09-12T11:48:55.000Z</time>
      </trkpt>
      <trkpt lat="43.15532" lon="6.49713">
        <ele>114</ele>
        <time>2013-09-12T11:48:56.000Z</time>
      </trkpt>
      <trkpt lat="43.15532" lon="6.49713">
        <ele>114</ele>
        <time>2013-09-12T11:48:57.000Z</time>
      </trkpt>
      <trkpt lat="43.15532" lon="6.49713">
        <ele>114</ele>
        <time>2013-09-12T11:48:59.000Z</time>
      </trkpt>
      <trkpt lat="43.15532" lon="6.49713">
        <ele>114</ele>
        <time>2013-09-12T11:49:00.000Z</time>
      </trkpt>
      <trkpt lat="43.15532" lon="6.49713">
        <ele>114</ele>
        <time>2013-09-12T11:49:01.000Z</time>
      </trkpt>
      <trkpt lat="43.15531" lon="6.49712">
        <ele>114</ele>
        <time>2013-09-12T11:49:03.000Z</time>
      </trkpt>
      <trkpt lat="43.15531" lon="6.49712">
        <ele>114</ele>
        <time>2013-09-12T11:49:06.000Z</time>
      </trkpt>
      <trkpt lat="43.15531" lon="6.49712">
        <ele>114</ele>
        <time>2013-09-12T11:49:09.000Z</time>
      </trkpt>
      <trkpt lat="43.15531" lon="6.49712">
        <ele>114</ele>
        <time>2013-09-12T11:49:13.000Z</time>
      </trkpt>
      <trkpt lat="43.1553" lon="6.49712">
        <ele>114</ele>
        <time>2013-09-12T11:49:21.000Z</time>
      </trkpt>
      <trkpt lat="43.1553" lon="6.49712">
        <ele>114</ele>
        <time>2013-09-12T11:49:45.000Z</time>
      </trkpt>
      <trkpt lat="43.1553" lon="6.49712">
        <ele>114</ele>
        <time>2013-09-12T11:49:51.000Z</time>
      </trkpt>
      <trkpt lat="43.1553" lon="6.49712">
        <ele>114</ele>
        <time>2013-09-12T11:49:58.000Z</time>
      </trkpt>
      <trkpt lat="43.1553" lon="6.49712">
        <ele>114</ele>
        <time>2013-09-12T11:50:10.000Z</time>
      </trkpt>
      <trkpt lat="43.1553" lon="6.49713">
        <ele>114</ele>
        <time>2013-09-12T11:50:25.000Z</time>
      </trkpt>
      <trkpt lat="43.1553" lon="6.49712">
        <ele>114</ele>
        <time>2013-09-12T11:50:34.000Z</time>
      </trkpt>
      <trkpt lat="43.1553" lon="6.49712">
        <ele>114</ele>
        <time>2013-09-12T11:50:35.000Z</time>
      </trkpt>
      <trkpt lat="43.1553" lon="6.49712">
        <ele>114</ele>
        <time>2013-09-12T11:50:38.000Z</time>
      </trkpt>
      <trkpt lat="43.1553" lon="6.49712">
        <ele>114</ele>
        <time>2013-09-12T11:50:39.000Z</time>
      </trkpt>
      <trkpt lat="43.15531" lon="6.49712">
        <ele>114</ele>
        <time>2013-09-12T11:50:40.000Z</time>
      </trkpt>
      <trkpt lat="43.15532" lon="6.49712">
        <ele>114</ele>
        <time>2013-09-12T11:50:41.000Z</time>
      </trkpt>
      <trkpt lat="43.15532" lon="6.49712">
        <ele>114</ele>
        <time>2013-09-12T11:50:42.000Z</time>
      </trkpt>
      <trkpt lat="43.15533" lon="6.49712">
        <ele>114</ele>
        <time>2013-09-12T11:50:43.000Z</time>
      </trkpt>
      <trkpt lat="43.15533" lon="6.49712">
        <ele>114</ele>
        <time>2013-09-12T11:50:45.000Z</time>
      </trkpt>
      <trkpt lat="43.15534" lon="6.49712">
        <ele>115</ele>
        <time>2013-09-12T11:50:49.000Z</time>
      </trkpt>
      <trkpt lat="43.15535" lon="6.49711">
        <ele>115</ele>
        <time>2013-09-12T11:50:50.000Z</time>
      </trkpt>
      <trkpt lat="43.15537" lon="6.49711">
        <ele>115</ele>
        <time>2013-09-12T11:50:51.000Z</time>
      </trkpt>
      <trkpt lat="43.15538" lon="6.49709">
        <ele>115</ele>
        <time>2013-09-12T11:50:52.000Z</time>
      </trkpt>
      <trkpt lat="43.1554" lon="6.49707">
        <ele>116</ele>
        <time>2013-09-12T11:50:53.000Z</time>
      </trkpt>
      <trkpt lat="43.15542" lon="6.49703">
        <ele>116</ele>
        <time>2013-09-12T11:50:54.000Z</time>
      </trkpt>
      <trkpt lat="43.15543" lon="6.49698">
        <ele>117</ele>
        <time>2013-09-12T11:50:55.000Z</time>
      </trkpt>
      <trkpt lat="43.15544" lon="6.49694">
        <ele>117</ele>
        <time>2013-09-12T11:50:56.000Z</time>
      </trkpt>
      <trkpt lat="43.15544" lon="6.49689">
        <ele>117</ele>
        <time>2013-09-12T11:50:57.000Z</time>
      </trkpt>
      <trkpt lat="43.15545" lon="6.49684">
        <ele>118</ele>
        <time>2013-09-12T11:50:58.000Z</time>
      </trkpt>
      <trkpt lat="43.15547" lon="6.4968">
        <ele>118</ele>
        <time>2013-09-12T11:50:59.000Z</time>
      </trkpt>
      <trkpt lat="43.15548" lon="6.49675">
        <ele>119</ele>
        <time>2013-09-12T11:51:00.000Z</time>
      </trkpt>
      <trkpt lat="43.1555" lon="6.4967">
        <ele>119</ele>
        <time>2013-09-12T11:51:01.000Z</time>
      </trkpt>
      <trkpt lat="43.15552" lon="6.49666">
        <ele>120</ele>
        <time>2013-09-12T11:51:02.000Z</time>
      </trkpt>
      <trkpt lat="43.15553" lon="6.49662">
        <ele>120</ele>
        <time>2013-09-12T11:51:03.000Z</time>
      </trkpt>
      <trkpt lat="43.15555" lon="6.49657">
        <ele>120</ele>
        <time>2013-09-12T11:51:04.000Z</time>
      </trkpt>
      <trkpt lat="43.15557" lon="6.49653">
        <ele>121</ele>
        <time>2013-09-12T11:51:05.000Z</time>
      </trkpt>
      <trkpt lat="43.15559" lon="6.49648">
        <ele>121</ele>
        <time>2013-09-12T11:51:06.000Z</time>
      </trkpt>
      <trkpt lat="43.15561" lon="6.49643">
        <ele>121</ele>
        <time>2013-09-12T11:51:07.000Z</time>
      </trkpt>
      <trkpt lat="43.15563" lon="6.49638">
        <ele>120</ele>
        <time>2013-09-12T11:51:08.000Z</time>
      </trkpt>
      <trkpt lat="43.15565" lon="6.49634">
        <ele>120</ele>
        <time>2013-09-12T11:51:09.000Z</time>
      </trkpt>
      <trkpt lat="43.15568" lon="6.49628">
        <ele>120</ele>
        <time>2013-09-12T11:51:10.000Z</time>
      </trkpt>
      <trkpt lat="43.1557" lon="6.49623">
        <ele>120</ele>
        <time>2013-09-12T11:51:11.000Z</time>
      </trkpt>
      <trkpt lat="43.15572" lon="6.49618">
        <ele>120</ele>
        <time>2013-09-12T11:51:12.000Z</time>
      </trkpt>
      <trkpt lat="43.15574" lon="6.49613">
        <ele>120</ele>
        <time>2013-09-12T11:51:13.000Z</time>
      </trkpt>
      <trkpt lat="43.15577" lon="6.49608">
        <ele>121</ele>
        <time>2013-09-12T11:51:14.000Z</time>
      </trkpt>
      <trkpt lat="43.15579" lon="6.49602">
        <ele>121</ele>
        <time>2013-09-12T11:51:15.000Z</time>
      </trkpt>
      <trkpt lat="43.15582" lon="6.49597">
        <ele>122</ele>
        <time>2013-09-12T11:51:16.000Z</time>
      </trkpt>
      <trkpt lat="43.15584" lon="6.49591">
        <ele>131</ele>
        <time>2013-09-12T11:51:17.000Z</time>
      </trkpt>
      <trkpt lat="43.15586" lon="6.49586">
        <ele>129</ele>
        <time>2013-09-12T11:51:18.000Z</time>
      </trkpt>
      <trkpt lat="43.15589" lon="6.4958">
        <ele>128</ele>
        <time>2013-09-12T11:51:19.000Z</time>
      </trkpt>
      <trkpt lat="43.1559" lon="6.49575">
        <ele>129</ele>
        <time>2013-09-12T11:51:20.000Z</time>
      </trkpt>
      <trkpt lat="43.15592" lon="6.49569">
        <ele>130</ele>
        <time>2013-09-12T11:51:21.000Z</time>
      </trkpt>
      <trkpt lat="43.15594" lon="6.49563">
        <ele>131</ele>
        <time>2013-09-12T11:51:22.000Z</time>
      </trkpt>
      <trkpt lat="43.15596" lon="6.49557">
        <ele>131</ele>
        <time>2013-09-12T11:51:23.000Z</time>
      </trkpt>
      <trkpt lat="43.15597" lon="6.49551">
        <ele>132</ele>
        <time>2013-09-12T11:51:24.000Z</time>
      </trkpt>
      <trkpt lat="43.15598" lon="6.49545">
        <ele>131</ele>
        <time>2013-09-12T11:51:25.000Z</time>
      </trkpt>
      <trkpt lat="43.15598" lon="6.49538">
        <ele>131</ele>
        <time>2013-09-12T11:51:26.000Z</time>
      </trkpt>
      <trkpt lat="43.15599" lon="6.49532">
        <ele>130</ele>
        <time>2013-09-12T11:51:27.000Z</time>
      </trkpt>
      <trkpt lat="43.156" lon="6.49525">
        <ele>129</ele>
        <time>2013-09-12T11:51:28.000Z</time>
      </trkpt>
      <trkpt lat="43.15601" lon="6.49518">
        <ele>128</ele>
        <time>2013-09-12T11:51:29.000Z</time>
      </trkpt>
      <trkpt lat="43.15602" lon="6.49511">
        <ele>127</ele>
        <time>2013-09-12T11:51:30.000Z</time>
      </trkpt>
      <trkpt lat="43.15602" lon="6.49503">
        <ele>126</ele>
        <time>2013-09-12T11:51:31.000Z</time>
      </trkpt>
      <trkpt lat="43.15603" lon="6.49496">
        <ele>121</ele>
        <time>2013-09-12T11:51:32.000Z</time>
      </trkpt>
      <trkpt lat="43.15604" lon="6.49488">
        <ele>121</ele>
        <time>2013-09-12T11:51:33.000Z</time>
      </trkpt>
      <trkpt lat="43.15605" lon="6.4948">
        <ele>121</ele>
        <time>2013-09-12T11:51:34.000Z</time>
      </trkpt>
      <trkpt lat="43.15607" lon="6.49472">
        <ele>121</ele>
        <time>2013-09-12T11:51:35.000Z</time>
      </trkpt>
      <trkpt lat="43.1561" lon="6.49464">
        <ele>121</ele>
        <time>2013-09-12T11:51:36.000Z</time>
      </trkpt>
      <trkpt lat="43.15613" lon="6.49456">
        <ele>121</ele>
        <time>2013-09-12T11:51:37.000Z</time>
      </trkpt>
      <trkpt lat="43.15617" lon="6.49449">
        <ele>121</ele>
        <time>2013-09-12T11:51:38.000Z</time>
      </trkpt>
      <trkpt lat="43.15622" lon="6.49443">
        <ele>121</ele>
        <time>2013-09-12T11:51:39.000Z</time>
      </trkpt>
      <trkpt lat="43.15627" lon="6.49437">
        <ele>122</ele>
        <time>2013-09-12T11:51:40.000Z</time>
      </trkpt>
      <trkpt lat="43.15633" lon="6.49432">
        <ele>123</ele>
        <time>2013-09-12T11:51:41.000Z</time>
      </trkpt>
      <trkpt lat="43.15639" lon="6.49428">
        <ele>124</ele>
        <time>2013-09-12T11:51:42.000Z</time>
      </trkpt>
      <trkpt lat="43.15644" lon="6.49423">
        <ele>125</ele>
        <time>2013-09-12T11:51:43.000Z</time>
      </trkpt>
      <trkpt lat="43.1565" lon="6.49419">
        <ele>126</ele>
        <time>2013-09-12T11:51:44.000Z</time>
      </trkpt>
      <trkpt lat="43.15655" lon="6.49414">
        <ele>123</ele>
        <time>2013-09-12T11:51:45.000Z</time>
      </trkpt>
      <trkpt lat="43.1566" lon="6.49408">
        <ele>124</ele>
        <time>2013-09-12T11:51:46.000Z</time>
      </trkpt>
      <trkpt lat="43.15664" lon="6.49402">
        <ele>122</ele>
        <time>2013-09-12T11:51:47.000Z</time>
      </trkpt>
      <trkpt lat="43.15667" lon="6.49396">
        <ele>121</ele>
        <time>2013-09-12T11:51:48.000Z</time>
      </trkpt>
      <trkpt lat="43.1567" lon="6.49381">
        <ele>141</ele>
        <time>2013-09-12T11:51:50.000Z</time>
      </trkpt>
      <trkpt lat="43.1567" lon="6.49374">
        <ele>141</ele>
        <time>2013-09-12T11:51:51.000Z</time>
      </trkpt>
      <trkpt lat="43.1567" lon="6.49359">
        <ele>139</ele>
        <time>2013-09-12T11:51:53.000Z</time>
      </trkpt>
      <trkpt lat="43.15669" lon="6.49352">
        <ele>137</ele>
        <time>2013-09-12T11:51:54.000Z</time>
      </trkpt>
      <trkpt lat="43.15668" lon="6.49344">
        <ele>134</ele>
        <time>2013-09-12T11:51:55.000Z</time>
      </trkpt>
      <trkpt lat="43.15667" lon="6.49336">
        <ele>128</ele>
        <time>2013-09-12T11:51:56.000Z</time>
      </trkpt>
      <trkpt lat="43.15666" lon="6.49328">
        <ele>123</ele>
        <time>2013-09-12T11:51:57.000Z</time>
      </trkpt>
      <trkpt lat="43.15664" lon="6.4932">
        <ele>119</ele>
        <time>2013-09-12T11:51:58.000Z</time>
      </trkpt>
      <trkpt lat="43.15663" lon="6.49312">
        <ele>117</ele>
        <time>2013-09-12T11:51:59.000Z</time>
      </trkpt>
      <trkpt lat="43.15661" lon="6.49304">
        <ele>115</ele>
        <time>2013-09-12T11:52:00.000Z</time>
      </trkpt>
      <trkpt lat="43.15659" lon="6.49296">
        <ele>115</ele>
        <time>2013-09-12T11:52:01.000Z</time>
      </trkpt>
      <trkpt lat="43.15657" lon="6.49288">
        <ele>115</ele>
        <time>2013-09-12T11:52:02.000Z</time>
      </trkpt>
      <trkpt lat="43.15654" lon="6.4928">
        <ele>115</ele>
        <time>2013-09-12T11:52:03.000Z</time>
      </trkpt>
      <trkpt lat="43.15651" lon="6.49273">
        <ele>116</ele>
        <time>2013-09-12T11:52:04.000Z</time>
      </trkpt>
      <trkpt lat="43.15647" lon="6.49265">
        <ele>116</ele>
        <time>2013-09-12T11:52:05.000Z</time>
      </trkpt>
      <trkpt lat="43.15644" lon="6.49257">
        <ele>116</ele>
        <time>2013-09-12T11:52:06.000Z</time>
      </trkpt>
      <trkpt lat="43.1564" lon="6.49249">
        <ele>117</ele>
        <time>2013-09-12T11:52:07.000Z</time>
      </trkpt>
      <trkpt lat="43.15637" lon="6.49241">
        <ele>116</ele>
        <time>2013-09-12T11:52:08.000Z</time>
      </trkpt>
      <trkpt lat="43.15635" lon="6.49231">
        <ele>114</ele>
        <time>2013-09-12T11:52:09.000Z</time>
      </trkpt>
      <trkpt lat="43.15633" lon="6.49222">
        <ele>114</ele>
        <time>2013-09-12T11:52:10.000Z</time>
      </trkpt>
      <trkpt lat="43.15631" lon="6.49212">
        <ele>113</ele>
        <time>2013-09-12T11:52:11.000Z</time>
      </trkpt>
      <trkpt lat="43.15629" lon="6.49202">
        <ele>113</ele>
        <time>2013-09-12T11:52:12.000Z</time>
      </trkpt>
      <trkpt lat="43.15628" lon="6.49192">
        <ele>113</ele>
        <time>2013-09-12T11:52:13.000Z</time>
      </trkpt>
      <trkpt lat="43.15626" lon="6.49182">
        <ele>113</ele>
        <time>2013-09-12T11:52:14.000Z</time>
      </trkpt>
      <trkpt lat="43.15625" lon="6.49172">
        <ele>113</ele>
        <time>2013-09-12T11:52:15.000Z</time>
      </trkpt>
      <trkpt lat="43.15624" lon="6.49162">
        <ele>112</ele>
        <time>2013-09-12T11:52:16.000Z</time>
      </trkpt>
      <trkpt lat="43.15622" lon="6.49152">
        <ele>111</ele>
        <time>2013-09-12T11:52:17.000Z</time>
      </trkpt>
      <trkpt lat="43.15621" lon="6.49142">
        <ele>111</ele>
        <time>2013-09-12T11:52:18.000Z</time>
      </trkpt>
      <trkpt lat="43.1562" lon="6.49132">
        <ele>111</ele>
        <time>2013-09-12T11:52:19.000Z</time>
      </trkpt>
      <trkpt lat="43.15619" lon="6.49123">
        <ele>110</ele>
        <time>2013-09-12T11:52:20.000Z</time>
      </trkpt>
      <trkpt lat="43.15619" lon="6.49113">
        <ele>110</ele>
        <time>2013-09-12T11:52:21.000Z</time>
      </trkpt>
      <trkpt lat="43.15621" lon="6.49104">
        <ele>110</ele>
        <time>2013-09-12T11:52:22.000Z</time>
      </trkpt>
      <trkpt lat="43.15623" lon="6.49096">
        <ele>110</ele>
        <time>2013-09-12T11:52:23.000Z</time>
      </trkpt>
      <trkpt lat="43.15627" lon="6.49089">
        <ele>110</ele>
        <time>2013-09-12T11:52:24.000Z</time>
      </trkpt>
      <trkpt lat="43.15631" lon="6.49082">
        <ele>104</ele>
        <time>2013-09-12T11:52:25.000Z</time>
      </trkpt>
      <trkpt lat="43.15636" lon="6.49077">
        <ele>105</ele>
        <time>2013-09-12T11:52:26.000Z</time>
      </trkpt>
      <trkpt lat="43.15642" lon="6.49072">
        <ele>106</ele>
        <time>2013-09-12T11:52:27.000Z</time>
      </trkpt>
      <trkpt lat="43.15647" lon="6.49068">
        <ele>107</ele>
        <time>2013-09-12T11:52:28.000Z</time>
      </trkpt>
      <trkpt lat="43.15653" lon="6.49064">
        <ele>107</ele>
        <time>2013-09-12T11:52:29.000Z</time>
      </trkpt>
      <trkpt lat="43.15658" lon="6.4906">
        <ele>107</ele>
        <time>2013-09-12T11:52:30.000Z</time>
      </trkpt>
      <trkpt lat="43.15663" lon="6.49056">
        <ele>107</ele>
        <time>2013-09-12T11:52:31.000Z</time>
      </trkpt>
      <trkpt lat="43.15667" lon="6.4905">
        <ele>124</ele>
        <time>2013-09-12T11:52:32.000Z</time>
      </trkpt>
      <trkpt lat="43.15671" lon="6.49045">
        <ele>124</ele>
        <time>2013-09-12T11:52:33.000Z</time>
      </trkpt>
      <trkpt lat="43.15675" lon="6.49039">
        <ele>124</ele>
        <time>2013-09-12T11:52:34.000Z</time>
      </trkpt>
      <trkpt lat="43.15678" lon="6.49032">
        <ele>123</ele>
        <time>2013-09-12T11:52:35.000Z</time>
      </trkpt>
      <trkpt lat="43.1568" lon="6.49024">
        <ele>122</ele>
        <time>2013-09-12T11:52:36.000Z</time>
      </trkpt>
      <trkpt lat="43.15683" lon="6.49017">
        <ele>121</ele>
        <time>2013-09-12T11:52:37.000Z</time>
      </trkpt>
      <trkpt lat="43.15685" lon="6.49009">
        <ele>119</ele>
        <time>2013-09-12T11:52:38.000Z</time>
      </trkpt>
      <trkpt lat="43.15686" lon="6.49001">
        <ele>119</ele>
        <time>2013-09-12T11:52:39.000Z</time>
      </trkpt>
      <trkpt lat="43.15687" lon="6.48993">
        <ele>114</ele>
        <time>2013-09-12T11:52:40.000Z</time>
      </trkpt>
      <trkpt lat="43.15688" lon="6.48984">
        <ele>115</ele>
        <time>2013-09-12T11:52:41.000Z</time>
      </trkpt>
      <trkpt lat="43.15689" lon="6.48975">
        <ele>115</ele>
        <time>2013-09-12T11:52:42.000Z</time>
      </trkpt>
      <trkpt lat="43.1569" lon="6.48966">
        <ele>115</ele>
        <time>2013-09-12T11:52:43.000Z</time>
      </trkpt>
      <trkpt lat="43.15691" lon="6.48957">
        <ele>115</ele>
        <time>2013-09-12T11:52:44.000Z</time>
      </trkpt>
      <trkpt lat="43.15691" lon="6.48948">
        <ele>114</ele>
        <time>2013-09-12T11:52:45.000Z</time>
      </trkpt>
      <trkpt lat="43.15692" lon="6.48939">
        <ele>113</ele>
        <time>2013-09-12T11:52:46.000Z</time>
      </trkpt>
      <trkpt lat="43.15692" lon="6.4893">
        <ele>112</ele>
        <time>2013-09-12T11:52:47.000Z</time>
      </trkpt>
      <trkpt lat="43.15692" lon="6.48912">
        <ele>105</ele>
        <time>2013-09-12T11:52:49.000Z</time>
      </trkpt>
      <trkpt lat="43.15691" lon="6.48902">
        <ele>105</ele>
        <time>2013-09-12T11:52:50.000Z</time>
      </trkpt>
      <trkpt lat="43.15691" lon="6.48894">
        <ele>105</ele>
        <time>2013-09-12T11:52:51.000Z</time>
      </trkpt>
      <trkpt lat="43.15691" lon="6.48886">
        <ele>105</ele>
        <time>2013-09-12T11:52:52.000Z</time>
      </trkpt>
      <trkpt lat="43.15691" lon="6.48878">
        <ele>105</ele>
        <time>2013-09-12T11:52:53.000Z</time>
      </trkpt>
      <trkpt lat="43.15692" lon="6.4887">
        <ele>105</ele>
        <time>2013-09-12T11:52:54.000Z</time>
      </trkpt>
      <trkpt lat="43.15694" lon="6.48862">
        <ele>105</ele>
        <time>2013-09-12T11:52:55.000Z</time>
      </trkpt>
      <trkpt lat="43.15698" lon="6.48855">
        <ele>105</ele>
        <time>2013-09-12T11:52:56.000Z</time>
      </trkpt>
      <trkpt lat="43.15702" lon="6.48848">
        <ele>105</ele>
        <time>2013-09-12T11:52:57.000Z</time>
      </trkpt>
      <trkpt lat="43.15708" lon="6.48843">
        <ele>105</ele>
        <time>2013-09-12T11:52:58.000Z</time>
      </trkpt>
      <trkpt lat="43.15714" lon="6.48839">
        <ele>106</ele>
        <time>2013-09-12T11:52:59.000Z</time>
      </trkpt>
      <trkpt lat="43.1572" lon="6.48836">
        <ele>106</ele>
        <time>2013-09-12T11:53:00.000Z</time>
      </trkpt>
      <trkpt lat="43.15726" lon="6.48834">
        <ele>107</ele>
        <time>2013-09-12T11:53:01.000Z</time>
      </trkpt>
      <trkpt lat="43.15732" lon="6.48833">
        <ele>100</ele>
        <time>2013-09-12T11:53:02.000Z</time>
      </trkpt>
      <trkpt lat="43.15737" lon="6.48833">
        <ele>102</ele>
        <time>2013-09-12T11:53:03.000Z</time>
      </trkpt>
      <trkpt lat="43.15743" lon="6.48832">
        <ele>104</ele>
        <time>2013-09-12T11:53:04.000Z</time>
      </trkpt>
      <trkpt lat="43.15749" lon="6.4883">
        <ele>106</ele>
        <time>2013-09-12T11:53:05.000Z</time>
      </trkpt>
      <trkpt lat="43.15755" lon="6.48828">
        <ele>108</ele>
        <time>2013-09-12T11:53:06.000Z</time>
      </trkpt>
      <trkpt lat="43.15761" lon="6.48824">
        <ele>108</ele>
        <time>2013-09-12T11:53:07.000Z</time>
      </trkpt>
      <trkpt lat="43.15767" lon="6.48819">
        <ele>108</ele>
        <time>2013-09-12T11:53:08.000Z</time>
      </trkpt>
      <trkpt lat="43.15773" lon="6.48814">
        <ele>108</ele>
        <time>2013-09-12T11:53:09.000Z</time>
      </trkpt>
      <trkpt lat="43.15778" lon="6.48807">
        <ele>108</ele>
        <time>2013-09-12T11:53:10.000Z</time>
      </trkpt>
      <trkpt lat="43.15783" lon="6.48799">
        <ele>108</ele>
        <time>2013-09-12T11:53:11.000Z</time>
      </trkpt>
      <trkpt lat="43.15787" lon="6.4879">
        <ele>107</ele>
        <time>2013-09-12T11:53:12.000Z</time>
      </trkpt>
      <trkpt lat="43.1579" lon="6.4878">
        <ele>106</ele>
        <time>2013-09-12T11:53:13.000Z</time>
      </trkpt>
      <trkpt lat="43.15793" lon="6.4877">
        <ele>105</ele>
        <time>2013-09-12T11:53:14.000Z</time>
      </trkpt>
      <trkpt lat="43.15795" lon="6.48759">
        <ele>105</ele>
        <time>2013-09-12T11:53:15.000Z</time>
      </trkpt>
      <trkpt lat="43.15798" lon="6.48748">
        <ele>94</ele>
        <time>2013-09-12T11:53:16.000Z</time>
      </trkpt>
      <trkpt lat="43.15801" lon="6.48739">
        <ele>94</ele>
        <time>2013-09-12T11:53:17.000Z</time>
      </trkpt>
      <trkpt lat="43.15805" lon="6.4873">
        <ele>94</ele>
        <time>2013-09-12T11:53:18.000Z</time>
      </trkpt>
      <trkpt lat="43.15809" lon="6.48723">
        <ele>94</ele>
        <time>2013-09-12T11:53:19.000Z</time>
      </trkpt>
      <trkpt lat="43.15815" lon="6.48716">
        <ele>93</ele>
        <time>2013-09-12T11:53:20.000Z</time>
      </trkpt>
      <trkpt lat="43.1582" lon="6.48709">
        <ele>93</ele>
        <time>2013-09-12T11:53:21.000Z</time>
      </trkpt>
      <trkpt lat="43.15825" lon="6.48701">
        <ele>93</ele>
        <time>2013-09-12T11:53:22.000Z</time>
      </trkpt>
      <trkpt lat="43.1583" lon="6.48693">
        <ele>93</ele>
        <time>2013-09-12T11:53:23.000Z</time>
      </trkpt>
      <trkpt lat="43.15833" lon="6.48683">
        <ele>93</ele>
        <time>2013-09-12T11:53:24.000Z</time>
      </trkpt>
      <trkpt lat="43.15836" lon="6.48673">
        <ele>99</ele>
        <time>2013-09-12T11:53:25.000Z</time>
      </trkpt>
      <trkpt lat="43.15837" lon="6.48662">
        <ele>98</ele>
        <time>2013-09-12T11:53:26.000Z</time>
      </trkpt>
      <trkpt lat="43.15837" lon="6.48651">
        <ele>101</ele>
        <time>2013-09-12T11:53:27.000Z</time>
      </trkpt>
      <trkpt lat="43.15836" lon="6.4864">
        <ele>103</ele>
        <time>2013-09-12T11:53:28.000Z</time>
      </trkpt>
      <trkpt lat="43.15834" lon="6.48629">
        <ele>104</ele>
        <time>2013-09-12T11:53:29.000Z</time>
      </trkpt>
      <trkpt lat="43.15832" lon="6.48619">
        <ele>86</ele>
        <time>2013-09-12T11:53:30.000Z</time>
      </trkpt>
      <trkpt lat="43.1583" lon="6.48608">
        <ele>87</ele>
        <time>2013-09-12T11:53:31.000Z</time>
      </trkpt>
      <trkpt lat="43.15827" lon="6.48597">
        <ele>89</ele>
        <time>2013-09-12T11:53:32.000Z</time>
      </trkpt>
      <trkpt lat="43.15825" lon="6.48585">
        <ele>92</ele>
        <time>2013-09-12T11:53:33.000Z</time>
      </trkpt>
      <trkpt lat="43.15823" lon="6.48574">
        <ele>90</ele>
        <time>2013-09-12T11:53:34.000Z</time>
      </trkpt>
      <trkpt lat="43.15821" lon="6.48563">
        <ele>88</ele>
        <time>2013-09-12T11:53:35.000Z</time>
      </trkpt>
      <trkpt lat="43.15819" lon="6.48552">
        <ele>86</ele>
        <time>2013-09-12T11:53:36.000Z</time>
      </trkpt>
      <trkpt lat="43.15818" lon="6.48541">
        <ele>86</ele>
        <time>2013-09-12T11:53:37.000Z</time>
      </trkpt>
      <trkpt lat="43.15816" lon="6.4853">
        <ele>86</ele>
        <time>2013-09-12T11:53:38.000Z</time>
      </trkpt>
      <trkpt lat="43.15813" lon="6.4852">
        <ele>87</ele>
        <time>2013-09-12T11:53:39.000Z</time>
      </trkpt>
      <trkpt lat="43.1581" lon="6.4851">
        <ele>87</ele>
        <time>2013-09-12T11:53:40.000Z</time>
      </trkpt>
      <trkpt lat="43.15807" lon="6.485">
        <ele>88</ele>
        <time>2013-09-12T11:53:41.000Z</time>
      </trkpt>
      <trkpt lat="43.15803" lon="6.48491">
        <ele>87</ele>
        <time>2013-09-12T11:53:42.000Z</time>
      </trkpt>
      <trkpt lat="43.15799" lon="6.48482">
        <ele>86</ele>
        <time>2013-09-12T11:53:43.000Z</time>
      </trkpt>
      <trkpt lat="43.15794" lon="6.48473">
        <ele>85</ele>
        <time>2013-09-12T11:53:44.000Z</time>
      </trkpt>
      <trkpt lat="43.15789" lon="6.48465">
        <ele>84</ele>
        <time>2013-09-12T11:53:45.000Z</time>
      </trkpt>
      <trkpt lat="43.15783" lon="6.48457">
        <ele>84</ele>
        <time>2013-09-12T11:53:46.000Z</time>
      </trkpt>
      <trkpt lat="43.15777" lon="6.4845">
        <ele>84</ele>
        <time>2013-09-12T11:53:47.000Z</time>
      </trkpt>
      <trkpt lat="43.15772" lon="6.48442">
        <ele>84</ele>
        <time>2013-09-12T11:53:48.000Z</time>
      </trkpt>
      <trkpt lat="43.15767" lon="6.48435">
        <ele>84</ele>
        <time>2013-09-12T11:53:49.000Z</time>
      </trkpt>
      <trkpt lat="43.15762" lon="6.48428">
        <ele>83</ele>
        <time>2013-09-12T11:53:50.000Z</time>
      </trkpt>
      <trkpt lat="43.15757" lon="6.48422">
        <ele>83</ele>
        <time>2013-09-12T11:53:51.000Z</time>
      </trkpt>
      <trkpt lat="43.15753" lon="6.48416">
        <ele>83</ele>
        <time>2013-09-12T11:53:52.000Z</time>
      </trkpt>
      <trkpt lat="43.1575" lon="6.4841">
        <ele>80</ele>
        <time>2013-09-12T11:53:53.000Z</time>
      </trkpt>
      <trkpt lat="43.15747" lon="6.48404">
        <ele>78</ele>
        <time>2013-09-12T11:53:54.000Z</time>
      </trkpt>
      <trkpt lat="43.15744" lon="6.48399">
        <ele>77</ele>
        <time>2013-09-12T11:53:55.000Z</time>
      </trkpt>
      <trkpt lat="43.15743" lon="6.48393">
        <ele>76</ele>
        <time>2013-09-12T11:53:56.000Z</time>
      </trkpt>
      <trkpt lat="43.15742" lon="6.48387">
        <ele>75</ele>
        <time>2013-09-12T11:53:57.000Z</time>
      </trkpt>
      <trkpt lat="43.15742" lon="6.4838">
        <ele>74</ele>
        <time>2013-09-12T11:53:58.000Z</time>
      </trkpt>
      <trkpt lat="43.15741" lon="6.48373">
        <ele>74</ele>
        <time>2013-09-12T11:53:59.000Z</time>
      </trkpt>
      <trkpt lat="43.15741" lon="6.48366">
        <ele>74</ele>
        <time>2013-09-12T11:54:00.000Z</time>
      </trkpt>
      <trkpt lat="43.15741" lon="6.48359">
        <ele>74</ele>
        <time>2013-09-12T11:54:01.000Z</time>
      </trkpt>
      <trkpt lat="43.15742" lon="6.48353">
        <ele>75</ele>
        <time>2013-09-12T11:54:02.000Z</time>
      </trkpt>
      <trkpt lat="43.15744" lon="6.48348">
        <ele>76</ele>
        <time>2013-09-12T11:54:03.000Z</time>
      </trkpt>
      <trkpt lat="43.15746" lon="6.48343">
        <ele>76</ele>
        <time>2013-09-12T11:54:04.000Z</time>
      </trkpt>
      <trkpt lat="43.15749" lon="6.48338">
        <ele>78</ele>
        <time>2013-09-12T11:54:05.000Z</time>
      </trkpt>
      <trkpt lat="43.15752" lon="6.48334">
        <ele>79</ele>
        <time>2013-09-12T11:54:06.000Z</time>
      </trkpt>
      <trkpt lat="43.15755" lon="6.48331">
        <ele>77</ele>
        <time>2013-09-12T11:54:07.000Z</time>
      </trkpt>
      <trkpt lat="43.15758" lon="6.48328">
        <ele>76</ele>
        <time>2013-09-12T11:54:08.000Z</time>
      </trkpt>
      <trkpt lat="43.15761" lon="6.48326">
        <ele>75</ele>
        <time>2013-09-12T11:54:09.000Z</time>
      </trkpt>
      <trkpt lat="43.15765" lon="6.48324">
        <ele>75</ele>
        <time>2013-09-12T11:54:10.000Z</time>
      </trkpt>
      <trkpt lat="43.15768" lon="6.48324">
        <ele>74</ele>
        <time>2013-09-12T11:54:11.000Z</time>
      </trkpt>
      <trkpt lat="43.15772" lon="6.48325">
        <ele>74</ele>
        <time>2013-09-12T11:54:12.000Z</time>
      </trkpt>
      <trkpt lat="43.15776" lon="6.48327">
        <ele>74</ele>
        <time>2013-09-12T11:54:13.000Z</time>
      </trkpt>
      <trkpt lat="43.1578" lon="6.48329">
        <ele>73</ele>
        <time>2013-09-12T11:54:14.000Z</time>
      </trkpt>
      <trkpt lat="43.15783" lon="6.48332">
        <ele>73</ele>
        <time>2013-09-12T11:54:15.000Z</time>
      </trkpt>
      <trkpt lat="43.15787" lon="6.48336">
        <ele>80</ele>
        <time>2013-09-12T11:54:16.000Z</time>
      </trkpt>
      <trkpt lat="43.1579" lon="6.4834">
        <ele>80</ele>
        <time>2013-09-12T11:54:17.000Z</time>
      </trkpt>
      <trkpt lat="43.15793" lon="6.48344">
        <ele>80</ele>
        <time>2013-09-12T11:54:18.000Z</time>
      </trkpt>
      <trkpt lat="43.15797" lon="6.48348">
        <ele>80</ele>
        <time>2013-09-12T11:54:19.000Z</time>
      </trkpt>
      <trkpt lat="43.158" lon="6.48352">
        <ele>80</ele>
        <time>2013-09-12T11:54:20.000Z</time>
      </trkpt>
      <trkpt lat="43.15804" lon="6.48357">
        <ele>80</ele>
        <time>2013-09-12T11:54:21.000Z</time>
      </trkpt>
      <trkpt lat="43.15808" lon="6.48362">
        <ele>80</ele>
        <time>2013-09-12T11:54:22.000Z</time>
      </trkpt>
      <trkpt lat="43.15812" lon="6.48367">
        <ele>81</ele>
        <time>2013-09-12T11:54:23.000Z</time>
      </trkpt>
      <trkpt lat="43.15816" lon="6.48372">
        <ele>81</ele>
        <time>2013-09-12T11:54:24.000Z</time>
      </trkpt>
      <trkpt lat="43.1582" lon="6.48377">
        <ele>81</ele>
        <time>2013-09-12T11:54:25.000Z</time>
      </trkpt>
      <trkpt lat="43.15823" lon="6.4838">
        <ele>82</ele>
        <time>2013-09-12T11:54:26.000Z</time>
      </trkpt>
      <trkpt lat="43.15825" lon="6.48383">
        <ele>82</ele>
        <time>2013-09-12T11:54:27.000Z</time>
      </trkpt>
      <trkpt lat="43.15827" lon="6.48384">
        <ele>82</ele>
        <time>2013-09-12T11:54:28.000Z</time>
      </trkpt>
      <trkpt lat="43.15829" lon="6.48385">
        <ele>82</ele>
        <time>2013-09-12T11:54:29.000Z</time>
      </trkpt>
      <trkpt lat="43.15831" lon="6.48385">
        <ele>82</ele>
        <time>2013-09-12T11:54:30.000Z</time>
      </trkpt>
      <trkpt lat="43.15832" lon="6.48385">
        <ele>82</ele>
        <time>2013-09-12T11:54:31.000Z</time>
      </trkpt>
      <trkpt lat="43.15833" lon="6.48386">
        <ele>82</ele>
        <time>2013-09-12T11:54:32.000Z</time>
      </trkpt>
      <trkpt lat="43.15835" lon="6.48386">
        <ele>87</ele>
        <time>2013-09-12T11:54:33.000Z</time>
      </trkpt>
      <trkpt lat="43.15836" lon="6.48387">
        <ele>87</ele>
        <time>2013-09-12T11:54:34.000Z</time>
      </trkpt>
      <trkpt lat="43.15838" lon="6.48387">
        <ele>87</ele>
        <time>2013-09-12T11:54:35.000Z</time>
      </trkpt>
      <trkpt lat="43.1584" lon="6.48387">
        <ele>88</ele>
        <time>2013-09-12T11:54:36.000Z</time>
      </trkpt>
      <trkpt lat="43.15842" lon="6.48387">
        <ele>88</ele>
        <time>2013-09-12T11:54:37.000Z</time>
      </trkpt>
      <trkpt lat="43.15843" lon="6.48386">
        <ele>88</ele>
        <time>2013-09-12T11:54:38.000Z</time>
      </trkpt>
      <trkpt lat="43.15845" lon="6.48386">
        <ele>88</ele>
        <time>2013-09-12T11:54:39.000Z</time>
      </trkpt>
      <trkpt lat="43.15847" lon="6.48385">
        <ele>88</ele>
        <time>2013-09-12T11:54:40.000Z</time>
      </trkpt>
      <trkpt lat="43.15849" lon="6.48383">
        <ele>88</ele>
        <time>2013-09-12T11:54:41.000Z</time>
      </trkpt>
      <trkpt lat="43.15852" lon="6.48382">
        <ele>88</ele>
        <time>2013-09-12T11:54:42.000Z</time>
      </trkpt>
      <trkpt lat="43.15855" lon="6.4838">
        <ele>88</ele>
        <time>2013-09-12T11:54:43.000Z</time>
      </trkpt>
      <trkpt lat="43.15857" lon="6.48378">
        <ele>88</ele>
        <time>2013-09-12T11:54:44.000Z</time>
      </trkpt>
      <trkpt lat="43.1586" lon="6.48376">
        <ele>88</ele>
        <time>2013-09-12T11:54:45.000Z</time>
      </trkpt>
      <trkpt lat="43.15862" lon="6.48374">
        <ele>88</ele>
        <time>2013-09-12T11:54:46.000Z</time>
      </trkpt>
      <trkpt lat="43.15864" lon="6.48373">
        <ele>88</ele>
        <time>2013-09-12T11:54:47.000Z</time>
      </trkpt>
      <trkpt lat="43.15866" lon="6.48371">
        <ele>88</ele>
        <time>2013-09-12T11:54:48.000Z</time>
      </trkpt>
      <trkpt lat="43.15867" lon="6.48368">
        <ele>88</ele>
        <time>2013-09-12T11:54:49.000Z</time>
      </trkpt>
      <trkpt lat="43.15869" lon="6.48366">
        <ele>88</ele>
        <time>2013-09-12T11:54:50.000Z</time>
      </trkpt>
      <trkpt lat="43.1587" lon="6.48363">
        <ele>88</ele>
        <time>2013-09-12T11:54:51.000Z</time>
      </trkpt>
      <trkpt lat="43.15871" lon="6.48359">
        <ele>88</ele>
        <time>2013-09-12T11:54:52.000Z</time>
      </trkpt>
      <trkpt lat="43.15872" lon="6.48355">
        <ele>88</ele>
        <time>2013-09-12T11:54:53.000Z</time>
      </trkpt>
      <trkpt lat="43.15874" lon="6.48351">
        <ele>88</ele>
        <time>2013-09-12T11:54:54.000Z</time>
      </trkpt>
      <trkpt lat="43.15875" lon="6.48346">
        <ele>88</ele>
        <time>2013-09-12T11:54:55.000Z</time>
      </trkpt>
      <trkpt lat="43.15876" lon="6.48341">
        <ele>88</ele>
        <time>2013-09-12T11:54:56.000Z</time>
      </trkpt>
      <trkpt lat="43.15877" lon="6.48336">
        <ele>88</ele>
        <time>2013-09-12T11:54:57.000Z</time>
      </trkpt>
      <trkpt lat="43.15878" lon="6.48331">
        <ele>81</ele>
        <time>2013-09-12T11:54:58.000Z</time>
      </trkpt>
      <trkpt lat="43.1588" lon="6.48326">
        <ele>81</ele>
        <time>2013-09-12T11:54:59.000Z</time>
      </trkpt>
      <trkpt lat="43.15881" lon="6.4832">
        <ele>81</ele>
        <time>2013-09-12T11:55:00.000Z</time>
      </trkpt>
      <trkpt lat="43.15882" lon="6.48315">
        <ele>81</ele>
        <time>2013-09-12T11:55:01.000Z</time>
      </trkpt>
      <trkpt lat="43.15884" lon="6.4831">
        <ele>80</ele>
        <time>2013-09-12T11:55:02.000Z</time>
      </trkpt>
      <trkpt lat="43.15885" lon="6.48305">
        <ele>80</ele>
        <time>2013-09-12T11:55:03.000Z</time>
      </trkpt>
      <trkpt lat="43.15887" lon="6.48299">
        <ele>80</ele>
        <time>2013-09-12T11:55:04.000Z</time>
      </trkpt>
      <trkpt lat="43.15889" lon="6.48293">
        <ele>80</ele>
        <time>2013-09-12T11:55:05.000Z</time>
      </trkpt>
      <trkpt lat="43.15892" lon="6.48288">
        <ele>79</ele>
        <time>2013-09-12T11:55:06.000Z</time>
      </trkpt>
      <trkpt lat="43.15895" lon="6.48282">
        <ele>79</ele>
        <time>2013-09-12T11:55:07.000Z</time>
      </trkpt>
      <trkpt lat="43.15898" lon="6.48276">
        <ele>79</ele>
        <time>2013-09-12T11:55:08.000Z</time>
      </trkpt>
      <trkpt lat="43.15902" lon="6.48271">
        <ele>79</ele>
        <time>2013-09-12T11:55:09.000Z</time>
      </trkpt>
      <trkpt lat="43.15906" lon="6.48266">
        <ele>80</ele>
        <time>2013-09-12T11:55:10.000Z</time>
      </trkpt>
      <trkpt lat="43.15909" lon="6.48261">
        <ele>80</ele>
        <time>2013-09-12T11:55:11.000Z</time>
      </trkpt>
      <trkpt lat="43.15913" lon="6.48256">
        <ele>80</ele>
        <time>2013-09-12T11:55:12.000Z</time>
      </trkpt>
      <trkpt lat="43.15917" lon="6.48251">
        <ele>82</ele>
        <time>2013-09-12T11:55:13.000Z</time>
      </trkpt>
      <trkpt lat="43.1592" lon="6.48247">
        <ele>83</ele>
        <time>2013-09-12T11:55:14.000Z</time>
      </trkpt>
      <trkpt lat="43.15924" lon="6.48242">
        <ele>84</ele>
        <time>2013-09-12T11:55:15.000Z</time>
      </trkpt>
      <trkpt lat="43.15927" lon="6.48237">
        <ele>85</ele>
        <time>2013-09-12T11:55:16.000Z</time>
      </trkpt>
      <trkpt lat="43.15931" lon="6.48231">
        <ele>86</ele>
        <time>2013-09-12T11:55:17.000Z</time>
      </trkpt>
      <trkpt lat="43.15934" lon="6.48226">
        <ele>87</ele>
        <time>2013-09-12T11:55:18.000Z</time>
      </trkpt>
      <trkpt lat="43.15937" lon="6.4822">
        <ele>87</ele>
        <time>2013-09-12T11:55:19.000Z</time>
      </trkpt>
      <trkpt lat="43.1594" lon="6.48215">
        <ele>88</ele>
        <time>2013-09-12T11:55:20.000Z</time>
      </trkpt>
      <trkpt lat="43.15943" lon="6.48209">
        <ele>88</ele>
        <time>2013-09-12T11:55:21.000Z</time>
      </trkpt>
      <trkpt lat="43.15945" lon="6.48202">
        <ele>88</ele>
        <time>2013-09-12T11:55:22.000Z</time>
      </trkpt>
      <trkpt lat="43.15947" lon="6.48196">
        <ele>88</ele>
        <time>2013-09-12T11:55:23.000Z</time>
      </trkpt>
      <trkpt lat="43.15948" lon="6.48189">
        <ele>87</ele>
        <time>2013-09-12T11:55:24.000Z</time>
      </trkpt>
      <trkpt lat="43.15948" lon="6.48182">
        <ele>87</ele>
        <time>2013-09-12T11:55:25.000Z</time>
      </trkpt>
      <trkpt lat="43.15948" lon="6.48176">
        <ele>86</ele>
        <time>2013-09-12T11:55:26.000Z</time>
      </trkpt>
      <trkpt lat="43.15947" lon="6.48169">
        <ele>86</ele>
        <time>2013-09-12T11:55:27.000Z</time>
      </trkpt>
      <trkpt lat="43.15946" lon="6.48162">
        <ele>84</ele>
        <time>2013-09-12T11:55:28.000Z</time>
      </trkpt>
      <trkpt lat="43.15945" lon="6.48156">
        <ele>84</ele>
        <time>2013-09-12T11:55:29.000Z</time>
      </trkpt>
      <trkpt lat="43.15943" lon="6.48149">
        <ele>84</ele>
        <time>2013-09-12T11:55:30.000Z</time>
      </trkpt>
      <trkpt lat="43.15942" lon="6.48142">
        <ele>84</ele>
        <time>2013-09-12T11:55:31.000Z</time>
      </trkpt>
      <trkpt lat="43.1594" lon="6.48135">
        <ele>84</ele>
        <time>2013-09-12T11:55:32.000Z</time>
      </trkpt>
      <trkpt lat="43.15938" lon="6.48129">
        <ele>84</ele>
        <time>2013-09-12T11:55:33.000Z</time>
      </trkpt>
      <trkpt lat="43.15936" lon="6.48122">
        <ele>84</ele>
        <time>2013-09-12T11:55:34.000Z</time>
      </trkpt>
      <trkpt lat="43.15933" lon="6.48116">
        <ele>84</ele>
        <time>2013-09-12T11:55:35.000Z</time>
      </trkpt>
      <trkpt lat="43.1593" lon="6.4811">
        <ele>84</ele>
        <time>2013-09-12T11:55:36.000Z</time>
      </trkpt>
      <trkpt lat="43.15926" lon="6.48105">
        <ele>83</ele>
        <time>2013-09-12T11:55:37.000Z</time>
      </trkpt>
      <trkpt lat="43.15921" lon="6.48101">
        <ele>82</ele>
        <time>2013-09-12T11:55:38.000Z</time>
      </trkpt>
      <trkpt lat="43.15916" lon="6.48097">
        <ele>74</ele>
        <time>2013-09-12T11:55:39.000Z</time>
      </trkpt>
      <trkpt lat="43.15911" lon="6.48094">
        <ele>75</ele>
        <time>2013-09-12T11:55:40.000Z</time>
      </trkpt>
      <trkpt lat="43.15906" lon="6.4809">
        <ele>74</ele>
        <time>2013-09-12T11:55:41.000Z</time>
      </trkpt>
      <trkpt lat="43.15901" lon="6.48087">
        <ele>73</ele>
        <time>2013-09-12T11:55:42.000Z</time>
      </trkpt>
      <trkpt lat="43.15896" lon="6.48084">
        <ele>72</ele>
        <time>2013-09-12T11:55:43.000Z</time>
      </trkpt>
      <trkpt lat="43.15891" lon="6.48081">
        <ele>73</ele>
        <time>2013-09-12T11:55:44.000Z</time>
      </trkpt>
      <trkpt lat="43.15886" lon="6.48078">
        <ele>72</ele>
        <time>2013-09-12T11:55:45.000Z</time>
      </trkpt>
      <trkpt lat="43.15881" lon="6.48074">
        <ele>71</ele>
        <time>2013-09-12T11:55:46.000Z</time>
      </trkpt>
      <trkpt lat="43.15877" lon="6.48069">
        <ele>71</ele>
        <time>2013-09-12T11:55:47.000Z</time>
      </trkpt>
      <trkpt lat="43.15873" lon="6.48063">
        <ele>70</ele>
        <time>2013-09-12T11:55:48.000Z</time>
      </trkpt>
      <trkpt lat="43.1587" lon="6.48057">
        <ele>70</ele>
        <time>2013-09-12T11:55:49.000Z</time>
      </trkpt>
      <trkpt lat="43.15868" lon="6.48049">
        <ele>70</ele>
        <time>2013-09-12T11:55:50.000Z</time>
      </trkpt>
      <trkpt lat="43.15867" lon="6.48041">
        <ele>70</ele>
        <time>2013-09-12T11:55:51.000Z</time>
      </trkpt>
      <trkpt lat="43.15867" lon="6.48034">
        <ele>70</ele>
        <time>2013-09-12T11:55:52.000Z</time>
      </trkpt>
      <trkpt lat="43.15868" lon="6.48026">
        <ele>70</ele>
        <time>2013-09-12T11:55:53.000Z</time>
      </trkpt>
      <trkpt lat="43.1587" lon="6.48019">
        <ele>70</ele>
        <time>2013-09-12T11:55:54.000Z</time>
      </trkpt>
      <trkpt lat="43.15872" lon="6.48011">
        <ele>70</ele>
        <time>2013-09-12T11:55:55.000Z</time>
      </trkpt>
      <trkpt lat="43.15875" lon="6.48005">
        <ele>71</ele>
        <time>2013-09-12T11:55:56.000Z</time>
      </trkpt>
      <trkpt lat="43.15879" lon="6.47998">
        <ele>68</ele>
        <time>2013-09-12T11:55:57.000Z</time>
      </trkpt>
      <trkpt lat="43.15882" lon="6.47992">
        <ele>69</ele>
        <time>2013-09-12T11:55:58.000Z</time>
      </trkpt>
      <trkpt lat="43.15886" lon="6.47985">
        <ele>69</ele>
        <time>2013-09-12T11:55:59.000Z</time>
      </trkpt>
      <trkpt lat="43.1589" lon="6.47979">
        <ele>69</ele>
        <time>2013-09-12T11:56:00.000Z</time>
      </trkpt>
      <trkpt lat="43.15894" lon="6.47972">
        <ele>69</ele>
        <time>2013-09-12T11:56:01.000Z</time>
      </trkpt>
      <trkpt lat="43.15898" lon="6.47966">
        <ele>69</ele>
        <time>2013-09-12T11:56:02.000Z</time>
      </trkpt>
      <trkpt lat="43.15903" lon="6.47959">
        <ele>68</ele>
        <time>2013-09-12T11:56:03.000Z</time>
      </trkpt>
      <trkpt lat="43.15907" lon="6.47953">
        <ele>68</ele>
        <time>2013-09-12T11:56:04.000Z</time>
      </trkpt>
      <trkpt lat="43.15911" lon="6.47946">
        <ele>68</ele>
        <time>2013-09-12T11:56:05.000Z</time>
      </trkpt>
      <trkpt lat="43.15915" lon="6.4794">
        <ele>68</ele>
        <time>2013-09-12T11:56:06.000Z</time>
      </trkpt>
      <trkpt lat="43.1592" lon="6.47934">
        <ele>74</ele>
        <time>2013-09-12T11:56:07.000Z</time>
      </trkpt>
      <trkpt lat="43.15925" lon="6.47929">
        <ele>73</ele>
        <time>2013-09-12T11:56:08.000Z</time>
      </trkpt>
      <trkpt lat="43.1593" lon="6.47924">
        <ele>73</ele>
        <time>2013-09-12T11:56:09.000Z</time>
      </trkpt>
      <trkpt lat="43.15936" lon="6.4792">
        <ele>74</ele>
        <time>2013-09-12T11:56:10.000Z</time>
      </trkpt>
      <trkpt lat="43.15942" lon="6.47917">
        <ele>69</ele>
        <time>2013-09-12T11:56:11.000Z</time>
      </trkpt>
      <trkpt lat="43.15949" lon="6.47914">
        <ele>70</ele>
        <time>2013-09-12T11:56:12.000Z</time>
      </trkpt>
      <trkpt lat="43.15955" lon="6.47913">
        <ele>70</ele>
        <time>2013-09-12T11:56:13.000Z</time>
      </trkpt>
      <trkpt lat="43.15962" lon="6.47913">
        <ele>70</ele>
        <time>2013-09-12T11:56:14.000Z</time>
      </trkpt>
      <trkpt lat="43.15968" lon="6.47912">
        <ele>71</ele>
        <time>2013-09-12T11:56:15.000Z</time>
      </trkpt>
      <trkpt lat="43.15975" lon="6.47911">
        <ele>72</ele>
        <time>2013-09-12T11:56:16.000Z</time>
      </trkpt>
      <trkpt lat="43.15981" lon="6.4791">
        <ele>73</ele>
        <time>2013-09-12T11:56:17.000Z</time>
      </trkpt>
      <trkpt lat="43.15987" lon="6.47907">
        <ele>73</ele>
        <time>2013-09-12T11:56:18.000Z</time>
      </trkpt>
      <trkpt lat="43.15993" lon="6.47904">
        <ele>74</ele>
        <time>2013-09-12T11:56:19.000Z</time>
      </trkpt>
      <trkpt lat="43.15999" lon="6.47901">
        <ele>73</ele>
        <time>2013-09-12T11:56:20.000Z</time>
      </trkpt>
      <trkpt lat="43.16004" lon="6.47896">
        <ele>79</ele>
        <time>2013-09-12T11:56:21.000Z</time>
      </trkpt>
      <trkpt lat="43.16008" lon="6.47891">
        <ele>79</ele>
        <time>2013-09-12T11:56:22.000Z</time>
      </trkpt>
      <trkpt lat="43.16013" lon="6.47885">
        <ele>79</ele>
        <time>2013-09-12T11:56:23.000Z</time>
      </trkpt>
      <trkpt lat="43.16017" lon="6.47879">
        <ele>78</ele>
        <time>2013-09-12T11:56:24.000Z</time>
      </trkpt>
      <trkpt lat="43.16021" lon="6.47873">
        <ele>78</ele>
        <time>2013-09-12T11:56:25.000Z</time>
      </trkpt>
      <trkpt lat="43.16025" lon="6.47867">
        <ele>78</ele>
        <time>2013-09-12T11:56:26.000Z</time>
      </trkpt>
      <trkpt lat="43.16029" lon="6.47861">
        <ele>78</ele>
        <time>2013-09-12T11:56:27.000Z</time>
      </trkpt>
      <trkpt lat="43.16033" lon="6.47855">
        <ele>78</ele>
        <time>2013-09-12T11:56:28.000Z</time>
      </trkpt>
      <trkpt lat="43.16038" lon="6.47849">
        <ele>78</ele>
        <time>2013-09-12T11:56:29.000Z</time>
      </trkpt>
      <trkpt lat="43.16042" lon="6.47843">
        <ele>78</ele>
        <time>2013-09-12T11:56:30.000Z</time>
      </trkpt>
      <trkpt lat="43.16046" lon="6.47837">
        <ele>79</ele>
        <time>2013-09-12T11:56:31.000Z</time>
      </trkpt>
      <trkpt lat="43.1605" lon="6.47831">
        <ele>72</ele>
        <time>2013-09-12T11:56:32.000Z</time>
      </trkpt>
      <trkpt lat="43.16055" lon="6.47826">
        <ele>73</ele>
        <time>2013-09-12T11:56:33.000Z</time>
      </trkpt>
      <trkpt lat="43.16059" lon="6.4782">
        <ele>73</ele>
        <time>2013-09-12T11:56:34.000Z</time>
      </trkpt>
      <trkpt lat="43.16063" lon="6.47815">
        <ele>73</ele>
        <time>2013-09-12T11:56:35.000Z</time>
      </trkpt>
      <trkpt lat="43.16066" lon="6.47809">
        <ele>73</ele>
        <time>2013-09-12T11:56:36.000Z</time>
      </trkpt>
      <trkpt lat="43.16069" lon="6.47804">
        <ele>73</ele>
        <time>2013-09-12T11:56:37.000Z</time>
      </trkpt>
      <trkpt lat="43.16073" lon="6.47798">
        <ele>72</ele>
        <time>2013-09-12T11:56:38.000Z</time>
      </trkpt>
      <trkpt lat="43.16076" lon="6.47792">
        <ele>72</ele>
        <time>2013-09-12T11:56:39.000Z</time>
      </trkpt>
      <trkpt lat="43.16079" lon="6.47786">
        <ele>72</ele>
        <time>2013-09-12T11:56:40.000Z</time>
      </trkpt>
      <trkpt lat="43.16082" lon="6.47781">
        <ele>72</ele>
        <time>2013-09-12T11:56:41.000Z</time>
      </trkpt>
      <trkpt lat="43.16085" lon="6.47775">
        <ele>81</ele>
        <time>2013-09-12T11:56:42.000Z</time>
      </trkpt>
      <trkpt lat="43.16088" lon="6.4777">
        <ele>81</ele>
        <time>2013-09-12T11:56:43.000Z</time>
      </trkpt>
      <trkpt lat="43.16091" lon="6.47764">
        <ele>80</ele>
        <time>2013-09-12T11:56:44.000Z</time>
      </trkpt>
      <trkpt lat="43.16093" lon="6.47759">
        <ele>79</ele>
        <time>2013-09-12T11:56:45.000Z</time>
      </trkpt>
      <trkpt lat="43.16096" lon="6.47753">
        <ele>79</ele>
        <time>2013-09-12T11:56:46.000Z</time>
      </trkpt>
      <trkpt lat="43.16099" lon="6.47747">
        <ele>78</ele>
        <time>2013-09-12T11:56:47.000Z</time>
      </trkpt>
      <trkpt lat="43.16101" lon="6.47741">
        <ele>79</ele>
        <time>2013-09-12T11:56:48.000Z</time>
      </trkpt>
      <trkpt lat="43.16104" lon="6.47735">
        <ele>80</ele>
        <time>2013-09-12T11:56:49.000Z</time>
      </trkpt>
      <trkpt lat="43.16107" lon="6.47729">
        <ele>81</ele>
        <time>2013-09-12T11:56:50.000Z</time>
      </trkpt>
      <trkpt lat="43.16109" lon="6.47722">
        <ele>81</ele>
        <time>2013-09-12T11:56:51.000Z</time>
      </trkpt>
      <trkpt lat="43.16111" lon="6.47716">
        <ele>82</ele>
        <time>2013-09-12T11:56:52.000Z</time>
      </trkpt>
      <trkpt lat="43.16113" lon="6.47709">
        <ele>82</ele>
        <time>2013-09-12T11:56:53.000Z</time>
      </trkpt>
      <trkpt lat="43.16114" lon="6.47703">
        <ele>82</ele>
        <time>2013-09-12T11:56:54.000Z</time>
      </trkpt>
      <trkpt lat="43.16115" lon="6.47696">
        <ele>82</ele>
        <time>2013-09-12T11:56:55.000Z</time>
      </trkpt>
      <trkpt lat="43.16116" lon="6.47689">
        <ele>82</ele>
        <time>2013-09-12T11:56:56.000Z</time>
      </trkpt>
      <trkpt lat="43.16116" lon="6.47681">
        <ele>82</ele>
        <time>2013-09-12T11:56:57.000Z</time>
      </trkpt>
      <trkpt lat="43.16115" lon="6.47674">
        <ele>81</ele>
        <time>2013-09-12T11:56:58.000Z</time>
      </trkpt>
      <trkpt lat="43.16113" lon="6.47668">
        <ele>81</ele>
        <time>2013-09-12T11:56:59.000Z</time>
      </trkpt>
      <trkpt lat="43.1611" lon="6.47663">
        <ele>83</ele>
        <time>2013-09-12T11:57:00.000Z</time>
      </trkpt>
      <trkpt lat="43.16107" lon="6.47657">
        <ele>83</ele>
        <time>2013-09-12T11:57:01.000Z</time>
      </trkpt>
      <trkpt lat="43.16104" lon="6.47651">
        <ele>83</ele>
        <time>2013-09-12T11:57:02.000Z</time>
      </trkpt>
      <trkpt lat="43.16101" lon="6.47645">
        <ele>83</ele>
        <time>2013-09-12T11:57:03.000Z</time>
      </trkpt>
      <trkpt lat="43.16097" lon="6.4764">
        <ele>83</ele>
        <time>2013-09-12T11:57:04.000Z</time>
      </trkpt>
      <trkpt lat="43.16094" lon="6.47634">
        <ele>84</ele>
        <time>2013-09-12T11:57:05.000Z</time>
      </trkpt>
      <trkpt lat="43.1609" lon="6.47628">
        <ele>84</ele>
        <time>2013-09-12T11:57:06.000Z</time>
      </trkpt>
      <trkpt lat="43.16087" lon="6.47622">
        <ele>85</ele>
        <time>2013-09-12T11:57:07.000Z</time>
      </trkpt>
      <trkpt lat="43.16084" lon="6.47617">
        <ele>85</ele>
        <time>2013-09-12T11:57:08.000Z</time>
      </trkpt>
      <trkpt lat="43.16081" lon="6.47611">
        <ele>72</ele>
        <time>2013-09-12T11:57:09.000Z</time>
      </trkpt>
      <trkpt lat="43.16078" lon="6.47606">
        <ele>73</ele>
        <time>2013-09-12T11:57:10.000Z</time>
      </trkpt>
      <trkpt lat="43.16075" lon="6.47601">
        <ele>73</ele>
        <time>2013-09-12T11:57:11.000Z</time>
      </trkpt>
      <trkpt lat="43.16071" lon="6.47596">
        <ele>74</ele>
        <time>2013-09-12T11:57:12.000Z</time>
      </trkpt>
      <trkpt lat="43.16068" lon="6.47592">
        <ele>74</ele>
        <time>2013-09-12T11:57:13.000Z</time>
      </trkpt>
      <trkpt lat="43.16063" lon="6.47588">
        <ele>73</ele>
        <time>2013-09-12T11:57:14.000Z</time>
      </trkpt>
      <trkpt lat="43.16059" lon="6.47585">
        <ele>72</ele>
        <time>2013-09-12T11:57:15.000Z</time>
      </trkpt>
      <trkpt lat="43.16054" lon="6.47583">
        <ele>82</ele>
        <time>2013-09-12T11:57:16.000Z</time>
      </trkpt>
      <trkpt lat="43.16049" lon="6.47581">
        <ele>82</ele>
        <time>2013-09-12T11:57:17.000Z</time>
      </trkpt>
      <trkpt lat="43.16044" lon="6.4758">
        <ele>81</ele>
        <time>2013-09-12T11:57:18.000Z</time>
      </trkpt>
      <trkpt lat="43.16038" lon="6.47578">
        <ele>81</ele>
        <time>2013-09-12T11:57:19.000Z</time>
      </trkpt>
      <trkpt lat="43.16033" lon="6.47576">
        <ele>80</ele>
        <time>2013-09-12T11:57:20.000Z</time>
      </trkpt>
      <trkpt lat="43.16028" lon="6.47574">
        <ele>79</ele>
        <time>2013-09-12T11:57:21.000Z</time>
      </trkpt>
      <trkpt lat="43.16023" lon="6.47572">
        <ele>79</ele>
        <time>2013-09-12T11:57:22.000Z</time>
      </trkpt>
      <trkpt lat="43.16017" lon="6.4757">
        <ele>78</ele>
        <time>2013-09-12T11:57:23.000Z</time>
      </trkpt>
      <trkpt lat="43.16012" lon="6.47567">
        <ele>77</ele>
        <time>2013-09-12T11:57:24.000Z</time>
      </trkpt>
      <trkpt lat="43.16008" lon="6.47565">
        <ele>77</ele>
        <time>2013-09-12T11:57:25.000Z</time>
      </trkpt>
      <trkpt lat="43.16003" lon="6.47563">
        <ele>77</ele>
        <time>2013-09-12T11:57:26.000Z</time>
      </trkpt>
      <trkpt lat="43.15998" lon="6.47561">
        <ele>69</ele>
        <time>2013-09-12T11:57:27.000Z</time>
      </trkpt>
      <trkpt lat="43.15993" lon="6.47559">
        <ele>69</ele>
        <time>2013-09-12T11:57:28.000Z</time>
      </trkpt>
      <trkpt lat="43.15988" lon="6.47556">
        <ele>69</ele>
        <time>2013-09-12T11:57:29.000Z</time>
      </trkpt>
      <trkpt lat="43.15983" lon="6.47552">
        <ele>70</ele>
        <time>2013-09-12T11:57:30.000Z</time>
      </trkpt>
      <trkpt lat="43.15979" lon="6.47548">
        <ele>70</ele>
        <time>2013-09-12T11:57:31.000Z</time>
      </trkpt>
      <trkpt lat="43.15975" lon="6.47543">
        <ele>70</ele>
        <time>2013-09-12T11:57:32.000Z</time>
      </trkpt>
      <trkpt lat="43.15972" lon="6.47537">
        <ele>70</ele>
        <time>2013-09-12T11:57:33.000Z</time>
      </trkpt>
      <trkpt lat="43.15968" lon="6.47531">
        <ele>70</ele>
        <time>2013-09-12T11:57:34.000Z</time>
      </trkpt>
      <trkpt lat="43.15965" lon="6.47525">
        <ele>71</ele>
        <time>2013-09-12T11:57:35.000Z</time>
      </trkpt>
      <trkpt lat="43.15962" lon="6.47519">
        <ele>71</ele>
        <time>2013-09-12T11:57:36.000Z</time>
      </trkpt>
      <trkpt lat="43.15959" lon="6.47512">
        <ele>71</ele>
        <time>2013-09-12T11:57:37.000Z</time>
      </trkpt>
      <trkpt lat="43.15955" lon="6.47506">
        <ele>70</ele>
        <time>2013-09-12T11:57:38.000Z</time>
      </trkpt>
      <trkpt lat="43.15952" lon="6.47499">
        <ele>79</ele>
        <time>2013-09-12T11:57:39.000Z</time>
      </trkpt>
      <trkpt lat="43.15949" lon="6.47492">
        <ele>78</ele>
        <time>2013-09-12T11:57:40.000Z</time>
      </trkpt>
      <trkpt lat="43.15946" lon="6.47485">
        <ele>78</ele>
        <time>2013-09-12T11:57:41.000Z</time>
      </trkpt>
      <trkpt lat="43.15942" lon="6.47478">
        <ele>78</ele>
        <time>2013-09-12T11:57:42.000Z</time>
      </trkpt>
      <trkpt lat="43.15939" lon="6.47471">
        <ele>78</ele>
        <time>2013-09-12T11:57:43.000Z</time>
      </trkpt>
      <trkpt lat="43.15935" lon="6.47464">
        <ele>79</ele>
        <time>2013-09-12T11:57:44.000Z</time>
      </trkpt>
      <trkpt lat="43.15932" lon="6.47457">
        <ele>79</ele>
        <time>2013-09-12T11:57:45.000Z</time>
      </trkpt>
      <trkpt lat="43.15928" lon="6.4745">
        <ele>79</ele>
        <time>2013-09-12T11:57:46.000Z</time>
      </trkpt>
      <trkpt lat="43.15925" lon="6.47442">
        <ele>79</ele>
        <time>2013-09-12T11:57:47.000Z</time>
      </trkpt>
      <trkpt lat="43.15921" lon="6.47435">
        <ele>79</ele>
        <time>2013-09-12T11:57:48.000Z</time>
      </trkpt>
      <trkpt lat="43.15917" lon="6.47427">
        <ele>77</ele>
        <time>2013-09-12T11:57:49.000Z</time>
      </trkpt>
      <trkpt lat="43.15913" lon="6.4742">
        <ele>72</ele>
        <time>2013-09-12T11:57:50.000Z</time>
      </trkpt>
      <trkpt lat="43.1591" lon="6.47413">
        <ele>74</ele>
        <time>2013-09-12T11:57:51.000Z</time>
      </trkpt>
      <trkpt lat="43.15906" lon="6.47406">
        <ele>73</ele>
        <time>2013-09-12T11:57:52.000Z</time>
      </trkpt>
      <trkpt lat="43.15902" lon="6.47399">
        <ele>73</ele>
        <time>2013-09-12T11:57:53.000Z</time>
      </trkpt>
      <trkpt lat="43.15898" lon="6.47392">
        <ele>73</ele>
        <time>2013-09-12T11:57:54.000Z</time>
      </trkpt>
      <trkpt lat="43.15895" lon="6.47385">
        <ele>73</ele>
        <time>2013-09-12T11:57:55.000Z</time>
      </trkpt>
      <trkpt lat="43.15892" lon="6.47378">
        <ele>73</ele>
        <time>2013-09-12T11:57:56.000Z</time>
      </trkpt>
      <trkpt lat="43.15888" lon="6.47371">
        <ele>74</ele>
        <time>2013-09-12T11:57:57.000Z</time>
      </trkpt>
      <trkpt lat="43.15884" lon="6.47364">
        <ele>74</ele>
        <time>2013-09-12T11:57:58.000Z</time>
      </trkpt>
      <trkpt lat="43.1588" lon="6.47358">
        <ele>74</ele>
        <time>2013-09-12T11:57:59.000Z</time>
      </trkpt>
      <trkpt lat="43.15875" lon="6.47352">
        <ele>74</ele>
        <time>2013-09-12T11:58:00.000Z</time>
      </trkpt>
      <trkpt lat="43.1587" lon="6.47346">
        <ele>73</ele>
        <time>2013-09-12T11:58:01.000Z</time>
      </trkpt>
      <trkpt lat="43.15865" lon="6.47341">
        <ele>73</ele>
        <time>2013-09-12T11:58:02.000Z</time>
      </trkpt>
      <trkpt lat="43.15859" lon="6.47337">
        <ele>72</ele>
        <time>2013-09-12T11:58:03.000Z</time>
      </trkpt>
      <trkpt lat="43.15854" lon="6.47333">
        <ele>79</ele>
        <time>2013-09-12T11:58:04.000Z</time>
      </trkpt>
      <trkpt lat="43.15848" lon="6.47329">
        <ele>77</ele>
        <time>2013-09-12T11:58:05.000Z</time>
      </trkpt>
      <trkpt lat="43.15842" lon="6.47326">
        <ele>76</ele>
        <time>2013-09-12T11:58:06.000Z</time>
      </trkpt>
      <trkpt lat="43.15836" lon="6.47324">
        <ele>75</ele>
        <time>2013-09-12T11:58:07.000Z</time>
      </trkpt>
      <trkpt lat="43.1583" lon="6.47322">
        <ele>71</ele>
        <time>2013-09-12T11:58:08.000Z</time>
      </trkpt>
      <trkpt lat="43.15824" lon="6.47321">
        <ele>71</ele>
        <time>2013-09-12T11:58:09.000Z</time>
      </trkpt>
      <trkpt lat="43.1581" lon="6.47321">
        <ele>71</ele>
        <time>2013-09-12T11:58:11.000Z</time>
      </trkpt>
      <trkpt lat="43.15804" lon="6.47322">
        <ele>71</ele>
        <time>2013-09-12T11:58:12.000Z</time>
      </trkpt>
      <trkpt lat="43.15797" lon="6.47324">
        <ele>71</ele>
        <time>2013-09-12T11:58:13.000Z</time>
      </trkpt>
      <trkpt lat="43.1579" lon="6.47325">
        <ele>71</ele>
        <time>2013-09-12T11:58:14.000Z</time>
      </trkpt>
      <trkpt lat="43.15784" lon="6.47326">
        <ele>70</ele>
        <time>2013-09-12T11:58:15.000Z</time>
      </trkpt>
      <trkpt lat="43.15777" lon="6.47327">
        <ele>70</ele>
        <time>2013-09-12T11:58:16.000Z</time>
      </trkpt>
      <trkpt lat="43.1577" lon="6.47329">
        <ele>69</ele>
        <time>2013-09-12T11:58:17.000Z</time>
      </trkpt>
      <trkpt lat="43.15763" lon="6.4733">
        <ele>68</ele>
        <time>2013-09-12T11:58:18.000Z</time>
      </trkpt>
      <trkpt lat="43.15757" lon="6.47331">
        <ele>67</ele>
        <time>2013-09-12T11:58:19.000Z</time>
      </trkpt>
      <trkpt lat="43.15743" lon="6.4733">
        <ele>65</ele>
        <time>2013-09-12T11:58:21.000Z</time>
      </trkpt>
      <trkpt lat="43.15736" lon="6.47328">
        <ele>65</ele>
        <time>2013-09-12T11:58:22.000Z</time>
      </trkpt>
      <trkpt lat="43.15729" lon="6.47325">
        <ele>65</ele>
        <time>2013-09-12T11:58:23.000Z</time>
      </trkpt>
      <trkpt lat="43.15723" lon="6.47321">
        <ele>64</ele>
        <time>2013-09-12T11:58:24.000Z</time>
      </trkpt>
      <trkpt lat="43.15717" lon="6.47317">
        <ele>64</ele>
        <time>2013-09-12T11:58:25.000Z</time>
      </trkpt>
      <trkpt lat="43.1571" lon="6.47313">
        <ele>64</ele>
        <time>2013-09-12T11:58:26.000Z</time>
      </trkpt>
      <trkpt lat="43.15705" lon="6.47308">
        <ele>64</ele>
        <time>2013-09-12T11:58:27.000Z</time>
      </trkpt>
      <trkpt lat="43.15699" lon="6.47303">
        <ele>64</ele>
        <time>2013-09-12T11:58:28.000Z</time>
      </trkpt>
      <trkpt lat="43.15693" lon="6.47298">
        <ele>64</ele>
        <time>2013-09-12T11:58:29.000Z</time>
      </trkpt>
      <trkpt lat="43.15688" lon="6.47292">
        <ele>64</ele>
        <time>2013-09-12T11:58:30.000Z</time>
      </trkpt>
      <trkpt lat="43.15683" lon="6.47287">
        <ele>64</ele>
        <time>2013-09-12T11:58:31.000Z</time>
      </trkpt>
      <trkpt lat="43.15678" lon="6.4728">
        <ele>64</ele>
        <time>2013-09-12T11:58:32.000Z</time>
      </trkpt>
      <trkpt lat="43.15673" lon="6.47274">
        <ele>65</ele>
        <time>2013-09-12T11:58:33.000Z</time>
      </trkpt>
      <trkpt lat="43.15669" lon="6.47267">
        <ele>65</ele>
        <time>2013-09-12T11:58:34.000Z</time>
      </trkpt>
      <trkpt lat="43.15666" lon="6.4726">
        <ele>62</ele>
        <time>2013-09-12T11:58:35.000Z</time>
      </trkpt>
      <trkpt lat="43.15662" lon="6.47253">
        <ele>63</ele>
        <time>2013-09-12T11:58:36.000Z</time>
      </trkpt>
      <trkpt lat="43.15659" lon="6.47245">
        <ele>64</ele>
        <time>2013-09-12T11:58:37.000Z</time>
      </trkpt>
      <trkpt lat="43.15656" lon="6.47237">
        <ele>63</ele>
        <time>2013-09-12T11:58:38.000Z</time>
      </trkpt>
      <trkpt lat="43.15654" lon="6.47229">
        <ele>63</ele>
        <time>2013-09-12T11:58:39.000Z</time>
      </trkpt>
      <trkpt lat="43.15652" lon="6.4722">
        <ele>62</ele>
        <time>2013-09-12T11:58:40.000Z</time>
      </trkpt>
      <trkpt lat="43.15652" lon="6.47212">
        <ele>62</ele>
        <time>2013-09-12T11:58:41.000Z</time>
      </trkpt>
      <trkpt lat="43.15652" lon="6.47204">
        <ele>62</ele>
        <time>2013-09-12T11:58:42.000Z</time>
      </trkpt>
      <trkpt lat="43.15654" lon="6.47197">
        <ele>62</ele>
        <time>2013-09-12T11:58:43.000Z</time>
      </trkpt>
      <trkpt lat="43.15657" lon="6.47189">
        <ele>62</ele>
        <time>2013-09-12T11:58:44.000Z</time>
      </trkpt>
      <trkpt lat="43.15661" lon="6.47182">
        <ele>62</ele>
        <time>2013-09-12T11:58:45.000Z</time>
      </trkpt>
      <trkpt lat="43.15666" lon="6.47177">
        <ele>63</ele>
        <time>2013-09-12T11:58:46.000Z</time>
      </trkpt>
      <trkpt lat="43.15672" lon="6.47173">
        <ele>64</ele>
        <time>2013-09-12T11:58:47.000Z</time>
      </trkpt>
      <trkpt lat="43.15679" lon="6.4717">
        <ele>64</ele>
        <time>2013-09-12T11:58:48.000Z</time>
      </trkpt>
      <trkpt lat="43.15686" lon="6.47168">
        <ele>65</ele>
        <time>2013-09-12T11:58:49.000Z</time>
      </trkpt>
      <trkpt lat="43.15694" lon="6.47166">
        <ele>60</ele>
        <time>2013-09-12T11:58:50.000Z</time>
      </trkpt>
      <trkpt lat="43.15701" lon="6.47165">
        <ele>60</ele>
        <time>2013-09-12T11:58:51.000Z</time>
      </trkpt>
      <trkpt lat="43.15708" lon="6.47164">
        <ele>60</ele>
        <time>2013-09-12T11:58:52.000Z</time>
      </trkpt>
      <trkpt lat="43.15715" lon="6.47163">
        <ele>60</ele>
        <time>2013-09-12T11:58:53.000Z</time>
      </trkpt>
      <trkpt lat="43.15722" lon="6.47162">
        <ele>60</ele>
        <time>2013-09-12T11:58:54.000Z</time>
      </trkpt>
      <trkpt lat="43.15729" lon="6.47161">
        <ele>61</ele>
        <time>2013-09-12T11:58:55.000Z</time>
      </trkpt>
      <trkpt lat="43.15735" lon="6.4716">
        <ele>61</ele>
        <time>2013-09-12T11:58:56.000Z</time>
      </trkpt>
      <trkpt lat="43.15742" lon="6.47159">
        <ele>62</ele>
        <time>2013-09-12T11:58:57.000Z</time>
      </trkpt>
      <trkpt lat="43.15749" lon="6.47158">
        <ele>62</ele>
        <time>2013-09-12T11:58:58.000Z</time>
      </trkpt>
      <trkpt lat="43.15755" lon="6.47156">
        <ele>64</ele>
        <time>2013-09-12T11:58:59.000Z</time>
      </trkpt>
      <trkpt lat="43.15761" lon="6.47153">
        <ele>65</ele>
        <time>2013-09-12T11:59:00.000Z</time>
      </trkpt>
      <trkpt lat="43.15767" lon="6.4715">
        <ele>65</ele>
        <time>2013-09-12T11:59:01.000Z</time>
      </trkpt>
      <trkpt lat="43.15772" lon="6.47145">
        <ele>65</ele>
        <time>2013-09-12T11:59:02.000Z</time>
      </trkpt>
      <trkpt lat="43.15777" lon="6.47138">
        <ele>65</ele>
        <time>2013-09-12T11:59:03.000Z</time>
      </trkpt>
      <trkpt lat="43.1578" lon="6.47131">
        <ele>65</ele>
        <time>2013-09-12T11:59:04.000Z</time>
      </trkpt>
      <trkpt lat="43.15783" lon="6.47123">
        <ele>65</ele>
        <time>2013-09-12T11:59:05.000Z</time>
      </trkpt>
      <trkpt lat="43.15784" lon="6.47115">
        <ele>64</ele>
        <time>2013-09-12T11:59:06.000Z</time>
      </trkpt>
      <trkpt lat="43.15784" lon="6.47106">
        <ele>63</ele>
        <time>2013-09-12T11:59:07.000Z</time>
      </trkpt>
      <trkpt lat="43.15782" lon="6.47098">
        <ele>63</ele>
        <time>2013-09-12T11:59:08.000Z</time>
      </trkpt>
      <trkpt lat="43.1578" lon="6.47091">
        <ele>62</ele>
        <time>2013-09-12T11:59:09.000Z</time>
      </trkpt>
      <trkpt lat="43.15777" lon="6.47083">
        <ele>56</ele>
        <time>2013-09-12T11:59:10.000Z</time>
      </trkpt>
      <trkpt lat="43.15775" lon="6.47075">
        <ele>56</ele>
        <time>2013-09-12T11:59:11.000Z</time>
      </trkpt>
      <trkpt lat="43.15776" lon="6.47055">
        <ele>56</ele>
        <time>2013-09-12T11:59:13.000Z</time>
      </trkpt>
      <trkpt lat="43.15778" lon="6.47045">
        <ele>55</ele>
        <time>2013-09-12T11:59:14.000Z</time>
      </trkpt>
      <trkpt lat="43.1578" lon="6.47035">
        <ele>55</ele>
        <time>2013-09-12T11:59:15.000Z</time>
      </trkpt>
      <trkpt lat="43.15782" lon="6.47024">
        <ele>55</ele>
        <time>2013-09-12T11:59:16.000Z</time>
      </trkpt>
      <trkpt lat="43.15784" lon="6.47014">
        <ele>54</ele>
        <time>2013-09-12T11:59:17.000Z</time>
      </trkpt>
      <trkpt lat="43.15786" lon="6.47004">
        <ele>54</ele>
        <time>2013-09-12T11:59:18.000Z</time>
      </trkpt>
      <trkpt lat="43.15788" lon="6.46993">
        <ele>50</ele>
        <time>2013-09-12T11:59:19.000Z</time>
      </trkpt>
      <trkpt lat="43.15789" lon="6.46983">
        <ele>50</ele>
        <time>2013-09-12T11:59:20.000Z</time>
      </trkpt>
      <trkpt lat="43.1579" lon="6.46973">
        <ele>50</ele>
        <time>2013-09-12T11:59:21.000Z</time>
      </trkpt>
      <trkpt lat="43.1579" lon="6.46962">
        <ele>50</ele>
        <time>2013-09-12T11:59:22.000Z</time>
      </trkpt>
      <trkpt lat="43.1579" lon="6.46941">
        <ele>49</ele>
        <time>2013-09-12T11:59:24.000Z</time>
      </trkpt>
      <trkpt lat="43.15789" lon="6.46929">
        <ele>48</ele>
        <time>2013-09-12T11:59:25.000Z</time>
      </trkpt>
      <trkpt lat="43.15789" lon="6.46918">
        <ele>48</ele>
        <time>2013-09-12T11:59:26.000Z</time>
      </trkpt>
      <trkpt lat="43.15789" lon="6.46908">
        <ele>44</ele>
        <time>2013-09-12T11:59:27.000Z</time>
      </trkpt>
      <trkpt lat="43.1579" lon="6.46897">
        <ele>44</ele>
        <time>2013-09-12T11:59:28.000Z</time>
      </trkpt>
      <trkpt lat="43.15791" lon="6.46887">
        <ele>43</ele>
        <time>2013-09-12T11:59:29.000Z</time>
      </trkpt>
      <trkpt lat="43.15793" lon="6.46877">
        <ele>43</ele>
        <time>2013-09-12T11:59:30.000Z</time>
      </trkpt>
      <trkpt lat="43.15795" lon="6.46867">
        <ele>43</ele>
        <time>2013-09-12T11:59:31.000Z</time>
      </trkpt>
      <trkpt lat="43.15799" lon="6.46858">
        <ele>43</ele>
        <time>2013-09-12T11:59:32.000Z</time>
      </trkpt>
      <trkpt lat="43.15803" lon="6.46849">
        <ele>43</ele>
        <time>2013-09-12T11:59:33.000Z</time>
      </trkpt>
      <trkpt lat="43.15808" lon="6.46841">
        <ele>44</ele>
        <time>2013-09-12T11:59:34.000Z</time>
      </trkpt>
      <trkpt lat="43.15814" lon="6.46834">
        <ele>44</ele>
        <time>2013-09-12T11:59:35.000Z</time>
      </trkpt>
      <trkpt lat="43.15821" lon="6.46826">
        <ele>41</ele>
        <time>2013-09-12T11:59:36.000Z</time>
      </trkpt>
      <trkpt lat="43.15828" lon="6.4682">
        <ele>41</ele>
        <time>2013-09-12T11:59:37.000Z</time>
      </trkpt>
      <trkpt lat="43.15836" lon="6.46814">
        <ele>45</ele>
        <time>2013-09-12T11:59:38.000Z</time>
      </trkpt>
      <trkpt lat="43.15843" lon="6.46808">
        <ele>44</ele>
        <time>2013-09-12T11:59:39.000Z</time>
      </trkpt>
      <trkpt lat="43.15851" lon="6.46802">
        <ele>44</ele>
        <time>2013-09-12T11:59:40.000Z</time>
      </trkpt>
      <trkpt lat="43.15857" lon="6.46796">
        <ele>44</ele>
        <time>2013-09-12T11:59:41.000Z</time>
      </trkpt>
      <trkpt lat="43.15864" lon="6.46789">
        <ele>43</ele>
        <time>2013-09-12T11:59:42.000Z</time>
      </trkpt>
      <trkpt lat="43.1587" lon="6.46782">
        <ele>43</ele>
        <time>2013-09-12T11:59:43.000Z</time>
      </trkpt>
      <trkpt lat="43.15876" lon="6.46774">
        <ele>43</ele>
        <time>2013-09-12T11:59:44.000Z</time>
      </trkpt>
      <trkpt lat="43.15881" lon="6.46765">
        <ele>43</ele>
        <time>2013-09-12T11:59:45.000Z</time>
      </trkpt>
      <trkpt lat="43.15886" lon="6.46755">
        <ele>42</ele>
        <time>2013-09-12T11:59:46.000Z</time>
      </trkpt>
      <trkpt lat="43.1589" lon="6.46746">
        <ele>37</ele>
        <time>2013-09-12T11:59:47.000Z</time>
      </trkpt>
      <trkpt lat="43.15894" lon="6.46737">
        <ele>36</ele>
        <time>2013-09-12T11:59:48.000Z</time>
      </trkpt>
      <trkpt lat="43.15898" lon="6.46727">
        <ele>36</ele>
        <time>2013-09-12T11:59:49.000Z</time>
      </trkpt>
      <trkpt lat="43.15902" lon="6.46717">
        <ele>35</ele>
        <time>2013-09-12T11:59:50.000Z</time>
      </trkpt>
      <trkpt lat="43.15906" lon="6.46708">
        <ele>35</ele>
        <time>2013-09-12T11:59:51.000Z</time>
      </trkpt>
      <trkpt lat="43.1591" lon="6.467">
        <ele>34</ele>
        <time>2013-09-12T11:59:52.000Z</time>
      </trkpt>
      <trkpt lat="43.15914" lon="6.46692">
        <ele>34</ele>
        <time>2013-09-12T11:59:53.000Z</time>
      </trkpt>
      <trkpt lat="43.15919" lon="6.46685">
        <ele>34</ele>
        <time>2013-09-12T11:59:54.000Z</time>
      </trkpt>
      <trkpt lat="43.15924" lon="6.4668">
        <ele>34</ele>
        <time>2013-09-12T11:59:55.000Z</time>
      </trkpt>
      <trkpt lat="43.1593" lon="6.46677">
        <ele>34</ele>
        <time>2013-09-12T11:59:56.000Z</time>
      </trkpt>
      <trkpt lat="43.15937" lon="6.46676">
        <ele>34</ele>
        <time>2013-09-12T11:59:57.000Z</time>
      </trkpt>
      <trkpt lat="43.15944" lon="6.46677">
        <ele>34</ele>
        <time>2013-09-12T11:59:58.000Z</time>
      </trkpt>
      <trkpt lat="43.15951" lon="6.46679">
        <ele>34</ele>
        <time>2013-09-12T11:59:59.000Z</time>
      </trkpt>
      <trkpt lat="43.15957" lon="6.46681">
        <ele>34</ele>
        <time>2013-09-12T12:00:00.000Z</time>
      </trkpt>
      <trkpt lat="43.15964" lon="6.46684">
        <ele>34</ele>
        <time>2013-09-12T12:00:01.000Z</time>
      </trkpt>
      <trkpt lat="43.15971" lon="6.46687">
        <ele>34</ele>
        <time>2013-09-12T12:00:02.000Z</time>
      </trkpt>
      <trkpt lat="43.15979" lon="6.4669">
        <ele>33</ele>
        <time>2013-09-12T12:00:03.000Z</time>
      </trkpt>
      <trkpt lat="43.15986" lon="6.46693">
        <ele>33</ele>
        <time>2013-09-12T12:00:04.000Z</time>
      </trkpt>
      <trkpt lat="43.15994" lon="6.46697">
        <ele>33</ele>
        <time>2013-09-12T12:00:05.000Z</time>
      </trkpt>
      <trkpt lat="43.16002" lon="6.467">
        <ele>32</ele>
        <time>2013-09-12T12:00:06.000Z</time>
      </trkpt>
      <trkpt lat="43.16009" lon="6.46704">
        <ele>32</ele>
        <time>2013-09-12T12:00:07.000Z</time>
      </trkpt>
      <trkpt lat="43.16017" lon="6.46708">
        <ele>33</ele>
        <time>2013-09-12T12:00:08.000Z</time>
      </trkpt>
      <trkpt lat="43.16024" lon="6.46714">
        <ele>33</ele>
        <time>2013-09-12T12:00:09.000Z</time>
      </trkpt>
      <trkpt lat="43.16031" lon="6.4672">
        <ele>33</ele>
        <time>2013-09-12T12:00:10.000Z</time>
      </trkpt>
      <trkpt lat="43.16037" lon="6.46727">
        <ele>33</ele>
        <time>2013-09-12T12:00:11.000Z</time>
      </trkpt>
      <trkpt lat="43.16044" lon="6.46734">
        <ele>33</ele>
        <time>2013-09-12T12:00:12.000Z</time>
      </trkpt>
      <trkpt lat="43.1605" lon="6.46741">
        <ele>33</ele>
        <time>2013-09-12T12:00:13.000Z</time>
      </trkpt>
      <trkpt lat="43.16057" lon="6.46746">
        <ele>33</ele>
        <time>2013-09-12T12:00:14.000Z</time>
      </trkpt>
      <trkpt lat="43.16064" lon="6.46751">
        <ele>38</ele>
        <time>2013-09-12T12:00:15.000Z</time>
      </trkpt>
      <trkpt lat="43.16071" lon="6.46755">
        <ele>37</ele>
        <time>2013-09-12T12:00:16.000Z</time>
      </trkpt>
      <trkpt lat="43.16079" lon="6.46757">
        <ele>36</ele>
        <time>2013-09-12T12:00:17.000Z</time>
      </trkpt>
      <trkpt lat="43.16086" lon="6.46757">
        <ele>34</ele>
        <time>2013-09-12T12:00:18.000Z</time>
      </trkpt>
      <trkpt lat="43.16094" lon="6.46757">
        <ele>35</ele>
        <time>2013-09-12T12:00:19.000Z</time>
      </trkpt>
      <trkpt lat="43.16101" lon="6.46754">
        <ele>35</ele>
        <time>2013-09-12T12:00:20.000Z</time>
      </trkpt>
      <trkpt lat="43.16108" lon="6.4675">
        <ele>36</ele>
        <time>2013-09-12T12:00:21.000Z</time>
      </trkpt>
      <trkpt lat="43.16114" lon="6.46745">
        <ele>33</ele>
        <time>2013-09-12T12:00:22.000Z</time>
      </trkpt>
      <trkpt lat="43.16119" lon="6.46739">
        <ele>33</ele>
        <time>2013-09-12T12:00:23.000Z</time>
      </trkpt>
      <trkpt lat="43.16123" lon="6.46731">
        <ele>33</ele>
        <time>2013-09-12T12:00:24.000Z</time>
      </trkpt>
      <trkpt lat="43.16125" lon="6.46725">
        <ele>33</ele>
        <time>2013-09-12T12:00:25.000Z</time>
      </trkpt>
      <trkpt lat="43.16128" lon="6.46718">
        <ele>33</ele>
        <time>2013-09-12T12:00:26.000Z</time>
      </trkpt>
      <trkpt lat="43.16129" lon="6.46713">
        <ele>33</ele>
        <time>2013-09-12T12:00:27.000Z</time>
      </trkpt>
      <trkpt lat="43.16131" lon="6.46709">
        <ele>33</ele>
        <time>2013-09-12T12:00:28.000Z</time>
      </trkpt>
      <trkpt lat="43.16131" lon="6.46706">
        <ele>33</ele>
        <time>2013-09-12T12:00:29.000Z</time>
      </trkpt>
      <trkpt lat="43.16131" lon="6.46703">
        <ele>33</ele>
        <time>2013-09-12T12:00:30.000Z</time>
      </trkpt>
      <trkpt lat="43.16131" lon="6.46703">
        <ele>33</ele>
        <time>2013-09-12T12:00:31.000Z</time>
      </trkpt>
      <trkpt lat="43.16131" lon="6.46702">
        <ele>33</ele>
        <time>2013-09-12T12:00:32.000Z</time>
      </trkpt>
      <trkpt lat="43.1613" lon="6.46702">
        <ele>33</ele>
        <time>2013-09-12T12:00:44.000Z</time>
      </trkpt>
      <trkpt lat="43.1613" lon="6.46702">
        <ele>33</ele>
        <time>2013-09-12T12:00:49.000Z</time>
      </trkpt>
      <trkpt lat="43.1613" lon="6.46702">
        <ele>33</ele>
        <time>2013-09-12T12:00:55.000Z</time>
      </trkpt>
      <trkpt lat="43.1613" lon="6.46701">
        <ele>33</ele>
        <time>2013-09-12T12:01:02.000Z</time>
      </trkpt>
      <trkpt lat="43.1613" lon="6.46701">
        <ele>33</ele>
        <time>2013-09-12T12:01:06.000Z</time>
      </trkpt>
      <trkpt lat="43.16131" lon="6.46701">
        <ele>33</ele>
        <time>2013-09-12T12:01:08.000Z</time>
      </trkpt>
      <trkpt lat="43.16131" lon="6.46702">
        <ele>33</ele>
        <time>2013-09-12T12:01:10.000Z</time>
      </trkpt>
      <trkpt lat="43.16131" lon="6.46702">
        <ele>33</ele>
        <time>2013-09-12T12:01:12.000Z</time>
      </trkpt>
      <trkpt lat="43.16131" lon="6.46702">
        <ele>33</ele>
        <time>2013-09-12T12:01:15.000Z</time>
      </trkpt>
      <trkpt lat="43.1613" lon="6.46702">
        <ele>33</ele>
        <time>2013-09-12T12:01:27.000Z</time>
      </trkpt>
      <trkpt lat="43.1613" lon="6.46701">
        <ele>33</ele>
        <time>2013-09-12T12:01:28.000Z</time>
      </trkpt>
      <trkpt lat="43.16129" lon="6.467">
        <ele>33</ele>
        <time>2013-09-12T12:01:29.000Z</time>
      </trkpt>
      <trkpt lat="43.16128" lon="6.46698">
        <ele>33</ele>
        <time>2013-09-12T12:01:30.000Z</time>
      </trkpt>
      <trkpt lat="43.16127" lon="6.46696">
        <ele>33</ele>
        <time>2013-09-12T12:01:31.000Z</time>
      </trkpt>
      <trkpt lat="43.16126" lon="6.46694">
        <ele>33</ele>
        <time>2013-09-12T12:01:32.000Z</time>
      </trkpt>
      <trkpt lat="43.16125" lon="6.46692">
        <ele>33</ele>
        <time>2013-09-12T12:01:33.000Z</time>
      </trkpt>
      <trkpt lat="43.16124" lon="6.46691">
        <ele>33</ele>
        <time>2013-09-12T12:01:34.000Z</time>
      </trkpt>
      <trkpt lat="43.16122" lon="6.46689">
        <ele>33</ele>
        <time>2013-09-12T12:01:35.000Z</time>
      </trkpt>
      <trkpt lat="43.16119" lon="6.46686">
        <ele>32</ele>
        <time>2013-09-12T12:01:36.000Z</time>
      </trkpt>
      <trkpt lat="43.16117" lon="6.46684">
        <ele>32</ele>
        <time>2013-09-12T12:01:37.000Z</time>
      </trkpt>
      <trkpt lat="43.16114" lon="6.4668">
        <ele>32</ele>
        <time>2013-09-12T12:01:38.000Z</time>
      </trkpt>
      <trkpt lat="43.1611" lon="6.46676">
        <ele>32</ele>
        <time>2013-09-12T12:01:39.000Z</time>
      </trkpt>
      <trkpt lat="43.16106" lon="6.46672">
        <ele>31</ele>
        <time>2013-09-12T12:01:40.000Z</time>
      </trkpt>
      <trkpt lat="43.16101" lon="6.46668">
        <ele>31</ele>
        <time>2013-09-12T12:01:41.000Z</time>
      </trkpt>
      <trkpt lat="43.16096" lon="6.46664">
        <ele>31</ele>
        <time>2013-09-12T12:01:42.000Z</time>
      </trkpt>
      <trkpt lat="43.16091" lon="6.4666">
        <ele>31</ele>
        <time>2013-09-12T12:01:43.000Z</time>
      </trkpt>
      <trkpt lat="43.16085" lon="6.46657">
        <ele>31</ele>
        <time>2013-09-12T12:01:44.000Z</time>
      </trkpt>
      <trkpt lat="43.1608" lon="6.46653">
        <ele>28</ele>
        <time>2013-09-12T12:01:45.000Z</time>
      </trkpt>
      <trkpt lat="43.16075" lon="6.46649">
        <ele>28</ele>
        <time>2013-09-12T12:01:46.000Z</time>
      </trkpt>
      <trkpt lat="43.1607" lon="6.46644">
        <ele>28</ele>
        <time>2013-09-12T12:01:47.000Z</time>
      </trkpt>
      <trkpt lat="43.16065" lon="6.46639">
        <ele>28</ele>
        <time>2013-09-12T12:01:48.000Z</time>
      </trkpt>
      <trkpt lat="43.1606" lon="6.46634">
        <ele>27</ele>
        <time>2013-09-12T12:01:49.000Z</time>
      </trkpt>
      <trkpt lat="43.16055" lon="6.46629">
        <ele>27</ele>
        <time>2013-09-12T12:01:50.000Z</time>
      </trkpt>
      <trkpt lat="43.1605" lon="6.46625">
        <ele>27</ele>
        <time>2013-09-12T12:01:51.000Z</time>
      </trkpt>
      <trkpt lat="43.16045" lon="6.4662">
        <ele>27</ele>
        <time>2013-09-12T12:01:52.000Z</time>
      </trkpt>
      <trkpt lat="43.16041" lon="6.46615">
        <ele>27</ele>
        <time>2013-09-12T12:01:53.000Z</time>
      </trkpt>
      <trkpt lat="43.16037" lon="6.46609">
        <ele>26</ele>
        <time>2013-09-12T12:01:54.000Z</time>
      </trkpt>
      <trkpt lat="43.16034" lon="6.46603">
        <ele>26</ele>
        <time>2013-09-12T12:01:55.000Z</time>
      </trkpt>
      <trkpt lat="43.16032" lon="6.46596">
        <ele>26</ele>
        <time>2013-09-12T12:01:56.000Z</time>
      </trkpt>
      <trkpt lat="43.1603" lon="6.46588">
        <ele>25</ele>
        <time>2013-09-12T12:01:57.000Z</time>
      </trkpt>
      <trkpt lat="43.16028" lon="6.46581">
        <ele>24</ele>
        <time>2013-09-12T12:01:58.000Z</time>
      </trkpt>
      <trkpt lat="43.16028" lon="6.46573">
        <ele>24</ele>
        <time>2013-09-12T12:01:59.000Z</time>
      </trkpt>
      <trkpt lat="43.16028" lon="6.46565">
        <ele>24</ele>
        <time>2013-09-12T12:02:00.000Z</time>
      </trkpt>
      <trkpt lat="43.16029" lon="6.46557">
        <ele>24</ele>
        <time>2013-09-12T12:02:01.000Z</time>
      </trkpt>
      <trkpt lat="43.16029" lon="6.46549">
        <ele>24</ele>
        <time>2013-09-12T12:02:02.000Z</time>
      </trkpt>
      <trkpt lat="43.1603" lon="6.46541">
        <ele>24</ele>
        <time>2013-09-12T12:02:03.000Z</time>
      </trkpt>
      <trkpt lat="43.16029" lon="6.46534">
        <ele>24</ele>
        <time>2013-09-12T12:02:04.000Z</time>
      </trkpt>
      <trkpt lat="43.16029" lon="6.46527">
        <ele>24</ele>
        <time>2013-09-12T12:02:05.000Z</time>
      </trkpt>
      <trkpt lat="43.16028" lon="6.46519">
        <ele>24</ele>
        <time>2013-09-12T12:02:06.000Z</time>
      </trkpt>
      <trkpt lat="43.16026" lon="6.46512">
        <ele>23</ele>
        <time>2013-09-12T12:02:07.000Z</time>
      </trkpt>
      <trkpt lat="43.16023" lon="6.46505">
        <ele>23</ele>
        <time>2013-09-12T12:02:08.000Z</time>
      </trkpt>
      <trkpt lat="43.1602" lon="6.46499">
        <ele>24</ele>
        <time>2013-09-12T12:02:09.000Z</time>
      </trkpt>
      <trkpt lat="43.16017" lon="6.46493">
        <ele>24</ele>
        <time>2013-09-12T12:02:10.000Z</time>
      </trkpt>
      <trkpt lat="43.16013" lon="6.46487">
        <ele>24</ele>
        <time>2013-09-12T12:02:11.000Z</time>
      </trkpt>
      <trkpt lat="43.16009" lon="6.46482">
        <ele>24</ele>
        <time>2013-09-12T12:02:12.000Z</time>
      </trkpt>
      <trkpt lat="43.16004" lon="6.46478">
        <ele>24</ele>
        <time>2013-09-12T12:02:13.000Z</time>
      </trkpt>
      <trkpt lat="43.16" lon="6.46474">
        <ele>21</ele>
        <time>2013-09-12T12:02:14.000Z</time>
      </trkpt>
      <trkpt lat="43.15995" lon="6.46471">
        <ele>21</ele>
        <time>2013-09-12T12:02:15.000Z</time>
      </trkpt>
      <trkpt lat="43.1599" lon="6.46468">
        <ele>21</ele>
        <time>2013-09-12T12:02:16.000Z</time>
      </trkpt>
      <trkpt lat="43.15985" lon="6.46465">
        <ele>21</ele>
        <time>2013-09-12T12:02:17.000Z</time>
      </trkpt>
      <trkpt lat="43.15981" lon="6.46462">
        <ele>21</ele>
        <time>2013-09-12T12:02:18.000Z</time>
      </trkpt>
      <trkpt lat="43.15976" lon="6.46459">
        <ele>21</ele>
        <time>2013-09-12T12:02:19.000Z</time>
      </trkpt>
      <trkpt lat="43.15971" lon="6.46457">
        <ele>21</ele>
        <time>2013-09-12T12:02:20.000Z</time>
      </trkpt>
      <trkpt lat="43.15966" lon="6.46454">
        <ele>21</ele>
        <time>2013-09-12T12:02:21.000Z</time>
      </trkpt>
      <trkpt lat="43.15962" lon="6.46451">
        <ele>21</ele>
        <time>2013-09-12T12:02:22.000Z</time>
      </trkpt>
      <trkpt lat="43.15957" lon="6.46448">
        <ele>21</ele>
        <time>2013-09-12T12:02:23.000Z</time>
      </trkpt>
      <trkpt lat="43.15953" lon="6.46445">
        <ele>21</ele>
        <time>2013-09-12T12:02:24.000Z</time>
      </trkpt>
      <trkpt lat="43.15949" lon="6.46443">
        <ele>20</ele>
        <time>2013-09-12T12:02:25.000Z</time>
      </trkpt>
      <trkpt lat="43.15946" lon="6.4644">
        <ele>20</ele>
        <time>2013-09-12T12:02:26.000Z</time>
      </trkpt>
      <trkpt lat="43.15942" lon="6.46437">
        <ele>20</ele>
        <time>2013-09-12T12:02:27.000Z</time>
      </trkpt>
      <trkpt lat="43.15939" lon="6.46435">
        <ele>20</ele>
        <time>2013-09-12T12:02:28.000Z</time>
      </trkpt>
      <trkpt lat="43.15936" lon="6.46432">
        <ele>20</ele>
        <time>2013-09-12T12:02:29.000Z</time>
      </trkpt>
      <trkpt lat="43.15934" lon="6.4643">
        <ele>20</ele>
        <time>2013-09-12T12:02:30.000Z</time>
      </trkpt>
      <trkpt lat="43.15932" lon="6.46428">
        <ele>20</ele>
        <time>2013-09-12T12:02:31.000Z</time>
      </trkpt>
      <trkpt lat="43.1593" lon="6.46426">
        <ele>20</ele>
        <time>2013-09-12T12:02:32.000Z</time>
      </trkpt>
      <trkpt lat="43.15928" lon="6.46424">
        <ele>20</ele>
        <time>2013-09-12T12:02:33.000Z</time>
      </trkpt>
      <trkpt lat="43.15926" lon="6.46421">
        <ele>20</ele>
        <time>2013-09-12T12:02:34.000Z</time>
      </trkpt>
      <trkpt lat="43.15925" lon="6.46419">
        <ele>20</ele>
        <time>2013-09-12T12:02:35.000Z</time>
      </trkpt>
      <trkpt lat="43.15923" lon="6.46417">
        <ele>22</ele>
        <time>2013-09-12T12:02:36.000Z</time>
      </trkpt>
      <trkpt lat="43.15922" lon="6.46414">
        <ele>22</ele>
        <time>2013-09-12T12:02:37.000Z</time>
      </trkpt>
      <trkpt lat="43.1592" lon="6.46411">
        <ele>22</ele>
        <time>2013-09-12T12:02:38.000Z</time>
      </trkpt>
      <trkpt lat="43.15919" lon="6.46408">
        <ele>22</ele>
        <time>2013-09-12T12:02:39.000Z</time>
      </trkpt>
      <trkpt lat="43.15917" lon="6.46405">
        <ele>23</ele>
        <time>2013-09-12T12:02:40.000Z</time>
      </trkpt>
      <trkpt lat="43.15916" lon="6.46401">
        <ele>21</ele>
        <time>2013-09-12T12:02:41.000Z</time>
      </trkpt>
      <trkpt lat="43.15915" lon="6.46398">
        <ele>21</ele>
        <time>2013-09-12T12:02:42.000Z</time>
      </trkpt>
      <trkpt lat="43.15914" lon="6.46395">
        <ele>21</ele>
        <time>2013-09-12T12:02:43.000Z</time>
      </trkpt>
      <trkpt lat="43.15912" lon="6.46392">
        <ele>21</ele>
        <time>2013-09-12T12:02:44.000Z</time>
      </trkpt>
      <trkpt lat="43.15911" lon="6.46389">
        <ele>21</ele>
        <time>2013-09-12T12:02:45.000Z</time>
      </trkpt>
      <trkpt lat="43.1591" lon="6.46385">
        <ele>22</ele>
        <time>2013-09-12T12:02:46.000Z</time>
      </trkpt>
      <trkpt lat="43.1591" lon="6.46382">
        <ele>22</ele>
        <time>2013-09-12T12:02:47.000Z</time>
      </trkpt>
      <trkpt lat="43.15908" lon="6.46379">
        <ele>22</ele>
        <time>2013-09-12T12:02:48.000Z</time>
      </trkpt>
      <trkpt lat="43.15908" lon="6.46375">
        <ele>22</ele>
        <time>2013-09-12T12:02:49.000Z</time>
      </trkpt>
      <trkpt lat="43.15907" lon="6.46372">
        <ele>23</ele>
        <time>2013-09-12T12:02:50.000Z</time>
      </trkpt>
      <trkpt lat="43.15906" lon="6.46369">
        <ele>23</ele>
        <time>2013-09-12T12:02:51.000Z</time>
      </trkpt>
      <trkpt lat="43.15905" lon="6.46365">
        <ele>23</ele>
        <time>2013-09-12T12:02:52.000Z</time>
      </trkpt>
      <trkpt lat="43.15904" lon="6.46362">
        <ele>23</ele>
        <time>2013-09-12T12:02:53.000Z</time>
      </trkpt>
      <trkpt lat="43.15903" lon="6.46358">
        <ele>24</ele>
        <time>2013-09-12T12:02:54.000Z</time>
      </trkpt>
      <trkpt lat="43.15902" lon="6.46355">
        <ele>24</ele>
        <time>2013-09-12T12:02:55.000Z</time>
      </trkpt>
      <trkpt lat="43.15901" lon="6.46351">
        <ele>24</ele>
        <time>2013-09-12T12:02:56.000Z</time>
      </trkpt>
      <trkpt lat="43.159" lon="6.46348">
        <ele>25</ele>
        <time>2013-09-12T12:02:57.000Z</time>
      </trkpt>
      <trkpt lat="43.15899" lon="6.46345">
        <ele>25</ele>
        <time>2013-09-12T12:02:58.000Z</time>
      </trkpt>
      <trkpt lat="43.15898" lon="6.46341">
        <ele>25</ele>
        <time>2013-09-12T12:02:59.000Z</time>
      </trkpt>
      <trkpt lat="43.15897" lon="6.46338">
        <ele>25</ele>
        <time>2013-09-12T12:03:00.000Z</time>
      </trkpt>
      <trkpt lat="43.15896" lon="6.46334">
        <ele>25</ele>
        <time>2013-09-12T12:03:01.000Z</time>
      </trkpt>
      <trkpt lat="43.15894" lon="6.46331">
        <ele>27</ele>
        <time>2013-09-12T12:03:02.000Z</time>
      </trkpt>
      <trkpt lat="43.15893" lon="6.46327">
        <ele>27</ele>
        <time>2013-09-12T12:03:03.000Z</time>
      </trkpt>
      <trkpt lat="43.15892" lon="6.46323">
        <ele>27</ele>
        <time>2013-09-12T12:03:04.000Z</time>
      </trkpt>
      <trkpt lat="43.1589" lon="6.4632">
        <ele>27</ele>
        <time>2013-09-12T12:03:05.000Z</time>
      </trkpt>
      <trkpt lat="43.15889" lon="6.46316">
        <ele>27</ele>
        <time>2013-09-12T12:03:06.000Z</time>
      </trkpt>
      <trkpt lat="43.15888" lon="6.46312">
        <ele>27</ele>
        <time>2013-09-12T12:03:07.000Z</time>
      </trkpt>
      <trkpt lat="43.15886" lon="6.46308">
        <ele>27</ele>
        <time>2013-09-12T12:03:08.000Z</time>
      </trkpt>
      <trkpt lat="43.15885" lon="6.46304">
        <ele>27</ele>
        <time>2013-09-12T12:03:09.000Z</time>
      </trkpt>
      <trkpt lat="43.15884" lon="6.463">
        <ele>27</ele>
        <time>2013-09-12T12:03:10.000Z</time>
      </trkpt>
      <trkpt lat="43.15883" lon="6.46295">
        <ele>27</ele>
        <time>2013-09-12T12:03:11.000Z</time>
      </trkpt>
      <trkpt lat="43.15882" lon="6.4629">
        <ele>27</ele>
        <time>2013-09-12T12:03:12.000Z</time>
      </trkpt>
      <trkpt lat="43.1588" lon="6.46286">
        <ele>27</ele>
        <time>2013-09-12T12:03:13.000Z</time>
      </trkpt>
      <trkpt lat="43.15879" lon="6.46281">
        <ele>27</ele>
        <time>2013-09-12T12:03:14.000Z</time>
      </trkpt>
      <trkpt lat="43.15878" lon="6.46276">
        <ele>26</ele>
        <time>2013-09-12T12:03:15.000Z</time>
      </trkpt>
      <trkpt lat="43.15877" lon="6.46271">
        <ele>26</ele>
        <time>2013-09-12T12:03:16.000Z</time>
      </trkpt>
      <trkpt lat="43.15877" lon="6.46267">
        <ele>26</ele>
        <time>2013-09-12T12:03:17.000Z</time>
      </trkpt>
      <trkpt lat="43.15876" lon="6.46263">
        <ele>26</ele>
        <time>2013-09-12T12:03:18.000Z</time>
      </trkpt>
      <trkpt lat="43.15875" lon="6.46259">
        <ele>26</ele>
        <time>2013-09-12T12:03:19.000Z</time>
      </trkpt>
      <trkpt lat="43.15874" lon="6.46255">
        <ele>26</ele>
        <time>2013-09-12T12:03:20.000Z</time>
      </trkpt>
      <trkpt lat="43.15873" lon="6.46252">
        <ele>26</ele>
        <time>2013-09-12T12:03:21.000Z</time>
      </trkpt>
      <trkpt lat="43.15874" lon="6.46249">
        <ele>28</ele>
        <time>2013-09-12T12:03:22.000Z</time>
      </trkpt>
      <trkpt lat="43.15874" lon="6.46247">
        <ele>28</ele>
        <time>2013-09-12T12:03:23.000Z</time>
      </trkpt>
      <trkpt lat="43.15875" lon="6.46246">
        <ele>29</ele>
        <time>2013-09-12T12:03:24.000Z</time>
      </trkpt>
      <trkpt lat="43.15876" lon="6.46245">
        <ele>29</ele>
        <time>2013-09-12T12:03:25.000Z</time>
      </trkpt>
      <trkpt lat="43.15878" lon="6.46246">
        <ele>29</ele>
        <time>2013-09-12T12:03:27.000Z</time>
      </trkpt>
      <trkpt lat="43.15878" lon="6.46247">
        <ele>29</ele>
        <time>2013-09-12T12:03:28.000Z</time>
      </trkpt>
      <trkpt lat="43.15879" lon="6.46248">
        <ele>29</ele>
        <time>2013-09-12T12:03:29.000Z</time>
      </trkpt>
      <trkpt lat="43.1588" lon="6.4625">
        <ele>27</ele>
        <time>2013-09-12T12:03:30.000Z</time>
      </trkpt>
      <trkpt lat="43.1588" lon="6.46252">
        <ele>27</ele>
        <time>2013-09-12T12:03:31.000Z</time>
      </trkpt>
      <trkpt lat="43.1588" lon="6.46253">
        <ele>27</ele>
        <time>2013-09-12T12:03:32.000Z</time>
      </trkpt>
      <trkpt lat="43.15881" lon="6.46255">
        <ele>27</ele>
        <time>2013-09-12T12:03:33.000Z</time>
      </trkpt>
      <trkpt lat="43.15881" lon="6.46257">
        <ele>27</ele>
        <time>2013-09-12T12:03:34.000Z</time>
      </trkpt>
      <trkpt lat="43.15881" lon="6.46259">
        <ele>27</ele>
        <time>2013-09-12T12:03:35.000Z</time>
      </trkpt>
      <trkpt lat="43.15881" lon="6.46262">
        <ele>27</ele>
        <time>2013-09-12T12:03:36.000Z</time>
      </trkpt>
      <trkpt lat="43.15882" lon="6.46264">
        <ele>27</ele>
        <time>2013-09-12T12:03:37.000Z</time>
      </trkpt>
      <trkpt lat="43.15882" lon="6.46266">
        <ele>27</ele>
        <time>2013-09-12T12:03:38.000Z</time>
      </trkpt>
      <trkpt lat="43.15883" lon="6.46269">
        <ele>27</ele>
        <time>2013-09-12T12:03:39.000Z</time>
      </trkpt>
      <trkpt lat="43.15883" lon="6.46271">
        <ele>27</ele>
        <time>2013-09-12T12:03:40.000Z</time>
      </trkpt>
      <trkpt lat="43.15884" lon="6.46274">
        <ele>27</ele>
        <time>2013-09-12T12:03:41.000Z</time>
      </trkpt>
      <trkpt lat="43.15885" lon="6.46277">
        <ele>27</ele>
        <time>2013-09-12T12:03:42.000Z</time>
      </trkpt>
      <trkpt lat="43.15886" lon="6.4628">
        <ele>27</ele>
        <time>2013-09-12T12:03:43.000Z</time>
      </trkpt>
      <trkpt lat="43.15886" lon="6.46283">
        <ele>27</ele>
        <time>2013-09-12T12:03:44.000Z</time>
      </trkpt>
      <trkpt lat="43.15887" lon="6.46286">
        <ele>27</ele>
        <time>2013-09-12T12:03:45.000Z</time>
      </trkpt>
      <trkpt lat="43.15888" lon="6.46289">
        <ele>27</ele>
        <time>2013-09-12T12:03:46.000Z</time>
      </trkpt>
      <trkpt lat="43.15889" lon="6.46292">
        <ele>27</ele>
        <time>2013-09-12T12:03:47.000Z</time>
      </trkpt>
      <trkpt lat="43.1589" lon="6.46295">
        <ele>27</ele>
        <time>2013-09-12T12:03:48.000Z</time>
      </trkpt>
      <trkpt lat="43.15891" lon="6.46297">
        <ele>27</ele>
        <time>2013-09-12T12:03:49.000Z</time>
      </trkpt>
      <trkpt lat="43.15892" lon="6.463">
        <ele>27</ele>
        <time>2013-09-12T12:03:50.000Z</time>
      </trkpt>
      <trkpt lat="43.15893" lon="6.46302">
        <ele>27</ele>
        <time>2013-09-12T12:03:51.000Z</time>
      </trkpt>
      <trkpt lat="43.15894" lon="6.46305">
        <ele>27</ele>
        <time>2013-09-12T12:03:52.000Z</time>
      </trkpt>
      <trkpt lat="43.15895" lon="6.46308">
        <ele>27</ele>
        <time>2013-09-12T12:03:53.000Z</time>
      </trkpt>
      <trkpt lat="43.15896" lon="6.4631">
        <ele>27</ele>
        <time>2013-09-12T12:03:54.000Z</time>
      </trkpt>
      <trkpt lat="43.15897" lon="6.46313">
        <ele>27</ele>
        <time>2013-09-12T12:03:55.000Z</time>
      </trkpt>
      <trkpt lat="43.15898" lon="6.46316">
        <ele>28</ele>
        <time>2013-09-12T12:03:56.000Z</time>
      </trkpt>
      <trkpt lat="43.15899" lon="6.46319">
        <ele>28</ele>
        <time>2013-09-12T12:03:57.000Z</time>
      </trkpt>
      <trkpt lat="43.159" lon="6.46322">
        <ele>28</ele>
        <time>2013-09-12T12:03:58.000Z</time>
      </trkpt>
      <trkpt lat="43.15901" lon="6.46325">
        <ele>28</ele>
        <time>2013-09-12T12:03:59.000Z</time>
      </trkpt>
      <trkpt lat="43.15902" lon="6.46328">
        <ele>28</ele>
        <time>2013-09-12T12:04:00.000Z</time>
      </trkpt>
      <trkpt lat="43.15903" lon="6.4633">
        <ele>28</ele>
        <time>2013-09-12T12:04:01.000Z</time>
      </trkpt>
      <trkpt lat="43.15904" lon="6.46333">
        <ele>28</ele>
        <time>2013-09-12T12:04:02.000Z</time>
      </trkpt>
      <trkpt lat="43.15905" lon="6.46336">
        <ele>27</ele>
        <time>2013-09-12T12:04:03.000Z</time>
      </trkpt>
      <trkpt lat="43.15907" lon="6.46339">
        <ele>27</ele>
        <time>2013-09-12T12:04:04.000Z</time>
      </trkpt>
      <trkpt lat="43.15908" lon="6.46341">
        <ele>27</ele>
        <time>2013-09-12T12:04:05.000Z</time>
      </trkpt>
      <trkpt lat="43.15909" lon="6.46344">
        <ele>26</ele>
        <time>2013-09-12T12:04:06.000Z</time>
      </trkpt>
      <trkpt lat="43.15911" lon="6.46346">
        <ele>26</ele>
        <time>2013-09-12T12:04:07.000Z</time>
      </trkpt>
      <trkpt lat="43.15913" lon="6.46349">
        <ele>26</ele>
        <time>2013-09-12T12:04:08.000Z</time>
      </trkpt>
      <trkpt lat="43.15914" lon="6.46351">
        <ele>25</ele>
        <time>2013-09-12T12:04:09.000Z</time>
      </trkpt>
      <trkpt lat="43.15916" lon="6.46353">
        <ele>25</ele>
        <time>2013-09-12T12:04:10.000Z</time>
      </trkpt>
      <trkpt lat="43.15919" lon="6.46355">
        <ele>29</ele>
        <time>2013-09-12T12:04:11.000Z</time>
      </trkpt>
      <trkpt lat="43.15921" lon="6.46356">
        <ele>28</ele>
        <time>2013-09-12T12:04:12.000Z</time>
      </trkpt>
      <trkpt lat="43.15923" lon="6.46358">
        <ele>28</ele>
        <time>2013-09-12T12:04:13.000Z</time>
      </trkpt>
      <trkpt lat="43.15926" lon="6.46358">
        <ele>28</ele>
        <time>2013-09-12T12:04:14.000Z</time>
      </trkpt>
      <trkpt lat="43.15928" lon="6.46359">
        <ele>28</ele>
        <time>2013-09-12T12:04:15.000Z</time>
      </trkpt>
      <trkpt lat="43.15931" lon="6.4636">
        <ele>28</ele>
        <time>2013-09-12T12:04:16.000Z</time>
      </trkpt>
      <trkpt lat="43.15934" lon="6.4636">
        <ele>28</ele>
        <time>2013-09-12T12:04:17.000Z</time>
      </trkpt>
      <trkpt lat="43.15938" lon="6.46359">
        <ele>29</ele>
        <time>2013-09-12T12:04:19.000Z</time>
      </trkpt>
      <trkpt lat="43.1594" lon="6.46358">
        <ele>29</ele>
        <time>2013-09-12T12:04:20.000Z</time>
      </trkpt>
      <trkpt lat="43.15942" lon="6.46357">
        <ele>29</ele>
        <time>2013-09-12T12:04:21.000Z</time>
      </trkpt>
      <trkpt lat="43.15944" lon="6.46355">
        <ele>29</ele>
        <time>2013-09-12T12:04:22.000Z</time>
      </trkpt>
      <trkpt lat="43.15947" lon="6.46354">
        <ele>29</ele>
        <time>2013-09-12T12:04:23.000Z</time>
      </trkpt>
      <trkpt lat="43.15949" lon="6.46352">
        <ele>29</ele>
        <time>2013-09-12T12:04:24.000Z</time>
      </trkpt>
      <trkpt lat="43.1595" lon="6.4635">
        <ele>29</ele>
        <time>2013-09-12T12:04:25.000Z</time>
      </trkpt>
      <trkpt lat="43.15952" lon="6.46348">
        <ele>29</ele>
        <time>2013-09-12T12:04:26.000Z</time>
      </trkpt>
      <trkpt lat="43.15954" lon="6.46346">
        <ele>30</ele>
        <time>2013-09-12T12:04:27.000Z</time>
      </trkpt>
      <trkpt lat="43.15956" lon="6.46344">
        <ele>30</ele>
        <time>2013-09-12T12:04:28.000Z</time>
      </trkpt>
      <trkpt lat="43.15957" lon="6.46342">
        <ele>30</ele>
        <time>2013-09-12T12:04:29.000Z</time>
      </trkpt>
      <trkpt lat="43.15959" lon="6.4634">
        <ele>30</ele>
        <time>2013-09-12T12:04:30.000Z</time>
      </trkpt>
      <trkpt lat="43.1596" lon="6.46338">
        <ele>30</ele>
        <time>2013-09-12T12:04:31.000Z</time>
      </trkpt>
      <trkpt lat="43.15962" lon="6.46337">
        <ele>30</ele>
        <time>2013-09-12T12:04:32.000Z</time>
      </trkpt>
      <trkpt lat="43.15964" lon="6.46335">
        <ele>30</ele>
        <time>2013-09-12T12:04:33.000Z</time>
      </trkpt>
      <trkpt lat="43.15965" lon="6.46333">
        <ele>36</ele>
        <time>2013-09-12T12:04:34.000Z</time>
      </trkpt>
      <trkpt lat="43.15967" lon="6.46332">
        <ele>36</ele>
        <time>2013-09-12T12:04:35.000Z</time>
      </trkpt>
      <trkpt lat="43.15968" lon="6.4633">
        <ele>36</ele>
        <time>2013-09-12T12:04:36.000Z</time>
      </trkpt>
      <trkpt lat="43.1597" lon="6.46329">
        <ele>36</ele>
        <time>2013-09-12T12:04:37.000Z</time>
      </trkpt>
      <trkpt lat="43.15971" lon="6.46327">
        <ele>36</ele>
        <time>2013-09-12T12:04:38.000Z</time>
      </trkpt>
      <trkpt lat="43.15972" lon="6.46326">
        <ele>36</ele>
        <time>2013-09-12T12:04:39.000Z</time>
      </trkpt>
      <trkpt lat="43.15974" lon="6.46324">
        <ele>36</ele>
        <time>2013-09-12T12:04:40.000Z</time>
      </trkpt>
      <trkpt lat="43.15975" lon="6.46322">
        <ele>36</ele>
        <time>2013-09-12T12:04:41.000Z</time>
      </trkpt>
      <trkpt lat="43.15977" lon="6.46321">
        <ele>36</ele>
        <time>2013-09-12T12:04:42.000Z</time>
      </trkpt>
      <trkpt lat="43.15978" lon="6.4632">
        <ele>36</ele>
        <time>2013-09-12T12:04:43.000Z</time>
      </trkpt>
      <trkpt lat="43.1598" lon="6.46318">
        <ele>36</ele>
        <time>2013-09-12T12:04:44.000Z</time>
      </trkpt>
      <trkpt lat="43.15981" lon="6.46316">
        <ele>37</ele>
        <time>2013-09-12T12:04:45.000Z</time>
      </trkpt>
      <trkpt lat="43.15983" lon="6.46315">
        <ele>37</ele>
        <time>2013-09-12T12:04:46.000Z</time>
      </trkpt>
      <trkpt lat="43.15985" lon="6.46313">
        <ele>37</ele>
        <time>2013-09-12T12:04:47.000Z</time>
      </trkpt>
      <trkpt lat="43.15986" lon="6.46312">
        <ele>37</ele>
        <time>2013-09-12T12:04:48.000Z</time>
      </trkpt>
      <trkpt lat="43.15988" lon="6.4631">
        <ele>37</ele>
        <time>2013-09-12T12:04:49.000Z</time>
      </trkpt>
      <trkpt lat="43.1599" lon="6.46309">
        <ele>37</ele>
        <time>2013-09-12T12:04:50.000Z</time>
      </trkpt>
      <trkpt lat="43.15992" lon="6.46308">
        <ele>37</ele>
        <time>2013-09-12T12:04:51.000Z</time>
      </trkpt>
      <trkpt lat="43.15994" lon="6.46307">
        <ele>37</ele>
        <time>2013-09-12T12:04:52.000Z</time>
      </trkpt>
      <trkpt lat="43.15996" lon="6.46306">
        <ele>37</ele>
        <time>2013-09-12T12:04:53.000Z</time>
      </trkpt>
      <trkpt lat="43.15998" lon="6.46306">
        <ele>37</ele>
        <time>2013-09-12T12:04:54.000Z</time>
      </trkpt>
      <trkpt lat="43.16004" lon="6.46307">
        <ele>43</ele>
        <time>2013-09-12T12:04:57.000Z</time>
      </trkpt>
      <trkpt lat="43.16006" lon="6.46307">
        <ele>43</ele>
        <time>2013-09-12T12:04:58.000Z</time>
      </trkpt>
      <trkpt lat="43.16007" lon="6.46309">
        <ele>43</ele>
        <time>2013-09-12T12:04:59.000Z</time>
      </trkpt>
      <trkpt lat="43.16009" lon="6.4631">
        <ele>43</ele>
        <time>2013-09-12T12:05:00.000Z</time>
      </trkpt>
      <trkpt lat="43.1601" lon="6.46312">
        <ele>43</ele>
        <time>2013-09-12T12:05:01.000Z</time>
      </trkpt>
      <trkpt lat="43.16012" lon="6.46314">
        <ele>43</ele>
        <time>2013-09-12T12:05:02.000Z</time>
      </trkpt>
      <trkpt lat="43.16013" lon="6.46316">
        <ele>43</ele>
        <time>2013-09-12T12:05:03.000Z</time>
      </trkpt>
      <trkpt lat="43.16014" lon="6.46317">
        <ele>42</ele>
        <time>2013-09-12T12:05:04.000Z</time>
      </trkpt>
      <trkpt lat="43.16015" lon="6.46319">
        <ele>42</ele>
        <time>2013-09-12T12:05:05.000Z</time>
      </trkpt>
      <trkpt lat="43.16016" lon="6.46321">
        <ele>42</ele>
        <time>2013-09-12T12:05:06.000Z</time>
      </trkpt>
      <trkpt lat="43.16017" lon="6.46323">
        <ele>42</ele>
        <time>2013-09-12T12:05:07.000Z</time>
      </trkpt>
      <trkpt lat="43.16018" lon="6.46326">
        <ele>42</ele>
        <time>2013-09-12T12:05:08.000Z</time>
      </trkpt>
      <trkpt lat="43.1602" lon="6.46328">
        <ele>42</ele>
        <time>2013-09-12T12:05:09.000Z</time>
      </trkpt>
      <trkpt lat="43.16021" lon="6.4633">
        <ele>42</ele>
        <time>2013-09-12T12:05:10.000Z</time>
      </trkpt>
      <trkpt lat="43.16023" lon="6.46333">
        <ele>43</ele>
        <time>2013-09-12T12:05:11.000Z</time>
      </trkpt>
      <trkpt lat="43.16024" lon="6.46335">
        <ele>36</ele>
        <time>2013-09-12T12:05:12.000Z</time>
      </trkpt>
      <trkpt lat="43.16025" lon="6.46337">
        <ele>36</ele>
        <time>2013-09-12T12:05:13.000Z</time>
      </trkpt>
      <trkpt lat="43.16027" lon="6.46339">
        <ele>36</ele>
        <time>2013-09-12T12:05:14.000Z</time>
      </trkpt>
      <trkpt lat="43.16028" lon="6.46341">
        <ele>36</ele>
        <time>2013-09-12T12:05:15.000Z</time>
      </trkpt>
      <trkpt lat="43.1603" lon="6.46343">
        <ele>36</ele>
        <time>2013-09-12T12:05:16.000Z</time>
      </trkpt>
      <trkpt lat="43.16032" lon="6.46345">
        <ele>37</ele>
        <time>2013-09-12T12:05:17.000Z</time>
      </trkpt>
      <trkpt lat="43.16034" lon="6.46346">
        <ele>37</ele>
        <time>2013-09-12T12:05:18.000Z</time>
      </trkpt>
      <trkpt lat="43.16035" lon="6.46347">
        <ele>37</ele>
        <time>2013-09-12T12:05:19.000Z</time>
      </trkpt>
      <trkpt lat="43.16037" lon="6.46348">
        <ele>37</ele>
        <time>2013-09-12T12:05:20.000Z</time>
      </trkpt>
      <trkpt lat="43.1604" lon="6.4635">
        <ele>37</ele>
        <time>2013-09-12T12:05:21.000Z</time>
      </trkpt>
      <trkpt lat="43.16042" lon="6.46351">
        <ele>37</ele>
        <time>2013-09-12T12:05:22.000Z</time>
      </trkpt>
      <trkpt lat="43.16044" lon="6.46352">
        <ele>37</ele>
        <time>2013-09-12T12:05:23.000Z</time>
      </trkpt>
      <trkpt lat="43.16045" lon="6.46353">
        <ele>37</ele>
        <time>2013-09-12T12:05:24.000Z</time>
      </trkpt>
      <trkpt lat="43.16047" lon="6.46354">
        <ele>37</ele>
        <time>2013-09-12T12:05:25.000Z</time>
      </trkpt>
      <trkpt lat="43.16049" lon="6.46355">
        <ele>37</ele>
        <time>2013-09-12T12:05:26.000Z</time>
      </trkpt>
      <trkpt lat="43.16051" lon="6.46356">
        <ele>37</ele>
        <time>2013-09-12T12:05:27.000Z</time>
      </trkpt>
      <trkpt lat="43.16053" lon="6.46356">
        <ele>38</ele>
        <time>2013-09-12T12:05:28.000Z</time>
      </trkpt>
      <trkpt lat="43.16055" lon="6.46356">
        <ele>38</ele>
        <time>2013-09-12T12:05:29.000Z</time>
      </trkpt>
      <trkpt lat="43.16057" lon="6.46357">
        <ele>38</ele>
        <time>2013-09-12T12:05:30.000Z</time>
      </trkpt>
      <trkpt lat="43.1606" lon="6.46357">
        <ele>38</ele>
        <time>2013-09-12T12:05:31.000Z</time>
      </trkpt>
      <trkpt lat="43.16061" lon="6.46358">
        <ele>38</ele>
        <time>2013-09-12T12:05:32.000Z</time>
      </trkpt>
      <trkpt lat="43.16063" lon="6.46358">
        <ele>38</ele>
        <time>2013-09-12T12:05:33.000Z</time>
      </trkpt>
      <trkpt lat="43.16065" lon="6.46359">
        <ele>38</ele>
        <time>2013-09-12T12:05:34.000Z</time>
      </trkpt>
      <trkpt lat="43.16068" lon="6.4636">
        <ele>38</ele>
        <time>2013-09-12T12:05:35.000Z</time>
      </trkpt>
      <trkpt lat="43.1607" lon="6.4636">
        <ele>38</ele>
        <time>2013-09-12T12:05:36.000Z</time>
      </trkpt>
      <trkpt lat="43.16072" lon="6.46361">
        <ele>38</ele>
        <time>2013-09-12T12:05:37.000Z</time>
      </trkpt>
      <trkpt lat="43.16074" lon="6.46362">
        <ele>38</ele>
        <time>2013-09-12T12:05:38.000Z</time>
      </trkpt>
      <trkpt lat="43.16077" lon="6.46362">
        <ele>38</ele>
        <time>2013-09-12T12:05:39.000Z</time>
      </trkpt>
      <trkpt lat="43.16079" lon="6.46363">
        <ele>38</ele>
        <time>2013-09-12T12:05:40.000Z</time>
      </trkpt>
      <trkpt lat="43.16081" lon="6.46363">
        <ele>38</ele>
        <time>2013-09-12T12:05:41.000Z</time>
      </trkpt>
      <trkpt lat="43.16083" lon="6.46364">
        <ele>38</ele>
        <time>2013-09-12T12:05:42.000Z</time>
      </trkpt>
      <trkpt lat="43.16085" lon="6.46364">
        <ele>43</ele>
        <time>2013-09-12T12:05:43.000Z</time>
      </trkpt>
      <trkpt lat="43.16087" lon="6.46365">
        <ele>43</ele>
        <time>2013-09-12T12:05:44.000Z</time>
      </trkpt>
      <trkpt lat="43.16089" lon="6.46365">
        <ele>43</ele>
        <time>2013-09-12T12:05:45.000Z</time>
      </trkpt>
      <trkpt lat="43.16091" lon="6.46366">
        <ele>42</ele>
        <time>2013-09-12T12:05:46.000Z</time>
      </trkpt>
      <trkpt lat="43.16093" lon="6.46367">
        <ele>42</ele>
        <time>2013-09-12T12:05:47.000Z</time>
      </trkpt>
      <trkpt lat="43.16095" lon="6.46367">
        <ele>42</ele>
        <time>2013-09-12T12:05:48.000Z</time>
      </trkpt>
      <trkpt lat="43.16097" lon="6.46367">
        <ele>42</ele>
        <time>2013-09-12T12:05:49.000Z</time>
      </trkpt>
      <trkpt lat="43.16098" lon="6.46367">
        <ele>42</ele>
        <time>2013-09-12T12:05:50.000Z</time>
      </trkpt>
      <trkpt lat="43.161" lon="6.46368">
        <ele>42</ele>
        <time>2013-09-12T12:05:51.000Z</time>
      </trkpt>
      <trkpt lat="43.16105" lon="6.46367">
        <ele>43</ele>
        <time>2013-09-12T12:05:54.000Z</time>
      </trkpt>
      <trkpt lat="43.16107" lon="6.46367">
        <ele>43</ele>
        <time>2013-09-12T12:05:55.000Z</time>
      </trkpt>
      <trkpt lat="43.16109" lon="6.46367">
        <ele>43</ele>
        <time>2013-09-12T12:05:56.000Z</time>
      </trkpt>
      <trkpt lat="43.1611" lon="6.46367">
        <ele>43</ele>
        <time>2013-09-12T12:05:57.000Z</time>
      </trkpt>
      <trkpt lat="43.16112" lon="6.46366">
        <ele>43</ele>
        <time>2013-09-12T12:05:58.000Z</time>
      </trkpt>
      <trkpt lat="43.16114" lon="6.46366">
        <ele>43</ele>
        <time>2013-09-12T12:05:59.000Z</time>
      </trkpt>
      <trkpt lat="43.16115" lon="6.46366">
        <ele>43</ele>
        <time>2013-09-12T12:06:00.000Z</time>
      </trkpt>
      <trkpt lat="43.16117" lon="6.46365">
        <ele>43</ele>
        <time>2013-09-12T12:06:01.000Z</time>
      </trkpt>
      <trkpt lat="43.16119" lon="6.46365">
        <ele>43</ele>
        <time>2013-09-12T12:06:02.000Z</time>
      </trkpt>
      <trkpt lat="43.1612" lon="6.46365">
        <ele>43</ele>
        <time>2013-09-12T12:06:03.000Z</time>
      </trkpt>
      <trkpt lat="43.16121" lon="6.46364">
        <ele>43</ele>
        <time>2013-09-12T12:06:04.000Z</time>
      </trkpt>
      <trkpt lat="43.16123" lon="6.46364">
        <ele>43</ele>
        <time>2013-09-12T12:06:05.000Z</time>
      </trkpt>
      <trkpt lat="43.16125" lon="6.46363">
        <ele>44</ele>
        <time>2013-09-12T12:06:06.000Z</time>
      </trkpt>
      <trkpt lat="43.16127" lon="6.46362">
        <ele>44</ele>
        <time>2013-09-12T12:06:07.000Z</time>
      </trkpt>
      <trkpt lat="43.16128" lon="6.46361">
        <ele>44</ele>
        <time>2013-09-12T12:06:08.000Z</time>
      </trkpt>
      <trkpt lat="43.16129" lon="6.4636">
        <ele>44</ele>
        <time>2013-09-12T12:06:09.000Z</time>
      </trkpt>
      <trkpt lat="43.16131" lon="6.46359">
        <ele>44</ele>
        <time>2013-09-12T12:06:10.000Z</time>
      </trkpt>
      <trkpt lat="43.16133" lon="6.46358">
        <ele>44</ele>
        <time>2013-09-12T12:06:11.000Z</time>
      </trkpt>
      <trkpt lat="43.16135" lon="6.46358">
        <ele>44</ele>
        <time>2013-09-12T12:06:12.000Z</time>
      </trkpt>
      <trkpt lat="43.16138" lon="6.46357">
        <ele>45</ele>
        <time>2013-09-12T12:06:13.000Z</time>
      </trkpt>
      <trkpt lat="43.16139" lon="6.46357">
        <ele>45</ele>
        <time>2013-09-12T12:06:14.000Z</time>
      </trkpt>
      <trkpt lat="43.16141" lon="6.46356">
        <ele>45</ele>
        <time>2013-09-12T12:06:15.000Z</time>
      </trkpt>
      <trkpt lat="43.16143" lon="6.46356">
        <ele>45</ele>
        <time>2013-09-12T12:06:16.000Z</time>
      </trkpt>
      <trkpt lat="43.16145" lon="6.46355">
        <ele>45</ele>
        <time>2013-09-12T12:06:17.000Z</time>
      </trkpt>
      <trkpt lat="43.16147" lon="6.46355">
        <ele>46</ele>
        <time>2013-09-12T12:06:18.000Z</time>
      </trkpt>
      <trkpt lat="43.16148" lon="6.46355">
        <ele>46</ele>
        <time>2013-09-12T12:06:19.000Z</time>
      </trkpt>
      <trkpt lat="43.1615" lon="6.46355">
        <ele>46</ele>
        <time>2013-09-12T12:06:20.000Z</time>
      </trkpt>
      <trkpt lat="43.16152" lon="6.46355">
        <ele>46</ele>
        <time>2013-09-12T12:06:21.000Z</time>
      </trkpt>
      <trkpt lat="43.16154" lon="6.46354">
        <ele>46</ele>
        <time>2013-09-12T12:06:22.000Z</time>
      </trkpt>
      <trkpt lat="43.16156" lon="6.46354">
        <ele>46</ele>
        <time>2013-09-12T12:06:23.000Z</time>
      </trkpt>
      <trkpt lat="43.16158" lon="6.46354">
        <ele>47</ele>
        <time>2013-09-12T12:06:24.000Z</time>
      </trkpt>
      <trkpt lat="43.1616" lon="6.46353">
        <ele>47</ele>
        <time>2013-09-12T12:06:25.000Z</time>
      </trkpt>
      <trkpt lat="43.16162" lon="6.46353">
        <ele>47</ele>
        <time>2013-09-12T12:06:26.000Z</time>
      </trkpt>
      <trkpt lat="43.16163" lon="6.46352">
        <ele>47</ele>
        <time>2013-09-12T12:06:27.000Z</time>
      </trkpt>
      <trkpt lat="43.16165" lon="6.46351">
        <ele>48</ele>
        <time>2013-09-12T12:06:28.000Z</time>
      </trkpt>
      <trkpt lat="43.16167" lon="6.46351">
        <ele>50</ele>
        <time>2013-09-12T12:06:29.000Z</time>
      </trkpt>
      <trkpt lat="43.1617" lon="6.4635">
        <ele>50</ele>
        <time>2013-09-12T12:06:30.000Z</time>
      </trkpt>
      <trkpt lat="43.16174" lon="6.4635">
        <ele>50</ele>
        <time>2013-09-12T12:06:32.000Z</time>
      </trkpt>
      <trkpt lat="43.16176" lon="6.46349">
        <ele>50</ele>
        <time>2013-09-12T12:06:33.000Z</time>
      </trkpt>
      <trkpt lat="43.16178" lon="6.46349">
        <ele>50</ele>
        <time>2013-09-12T12:06:34.000Z</time>
      </trkpt>
      <trkpt lat="43.16181" lon="6.46348">
        <ele>50</ele>
        <time>2013-09-12T12:06:35.000Z</time>
      </trkpt>
      <trkpt lat="43.16183" lon="6.46347">
        <ele>50</ele>
        <time>2013-09-12T12:06:36.000Z</time>
      </trkpt>
      <trkpt lat="43.16185" lon="6.46346">
        <ele>50</ele>
        <time>2013-09-12T12:06:37.000Z</time>
      </trkpt>
      <trkpt lat="43.16187" lon="6.46346">
        <ele>50</ele>
        <time>2013-09-12T12:06:38.000Z</time>
      </trkpt>
      <trkpt lat="43.16189" lon="6.46346">
        <ele>50</ele>
        <time>2013-09-12T12:06:39.000Z</time>
      </trkpt>
      <trkpt lat="43.16191" lon="6.46345">
        <ele>50</ele>
        <time>2013-09-12T12:06:40.000Z</time>
      </trkpt>
      <trkpt lat="43.16193" lon="6.46345">
        <ele>50</ele>
        <time>2013-09-12T12:06:41.000Z</time>
      </trkpt>
      <trkpt lat="43.16195" lon="6.46344">
        <ele>50</ele>
        <time>2013-09-12T12:06:42.000Z</time>
      </trkpt>
      <trkpt lat="43.16197" lon="6.46343">
        <ele>50</ele>
        <time>2013-09-12T12:06:43.000Z</time>
      </trkpt>
      <trkpt lat="43.16199" lon="6.46342">
        <ele>50</ele>
        <time>2013-09-12T12:06:44.000Z</time>
      </trkpt>
      <trkpt lat="43.16201" lon="6.46342">
        <ele>50</ele>
        <time>2013-09-12T12:06:45.000Z</time>
      </trkpt>
      <trkpt lat="43.16203" lon="6.46341">
        <ele>50</ele>
        <time>2013-09-12T12:06:46.000Z</time>
      </trkpt>
      <trkpt lat="43.16205" lon="6.4634">
        <ele>50</ele>
        <time>2013-09-12T12:06:47.000Z</time>
      </trkpt>
      <trkpt lat="43.16206" lon="6.46338">
        <ele>50</ele>
        <time>2013-09-12T12:06:48.000Z</time>
      </trkpt>
      <trkpt lat="43.16208" lon="6.46337">
        <ele>50</ele>
        <time>2013-09-12T12:06:49.000Z</time>
      </trkpt>
      <trkpt lat="43.1621" lon="6.46335">
        <ele>50</ele>
        <time>2013-09-12T12:06:50.000Z</time>
      </trkpt>
      <trkpt lat="43.16212" lon="6.46334">
        <ele>50</ele>
        <time>2013-09-12T12:06:51.000Z</time>
      </trkpt>
      <trkpt lat="43.16213" lon="6.46333">
        <ele>64</ele>
        <time>2013-09-12T12:06:52.000Z</time>
      </trkpt>
      <trkpt lat="43.16215" lon="6.46331">
        <ele>64</ele>
        <time>2013-09-12T12:06:53.000Z</time>
      </trkpt>
      <trkpt lat="43.16216" lon="6.4633">
        <ele>64</ele>
        <time>2013-09-12T12:06:54.000Z</time>
      </trkpt>
      <trkpt lat="43.16218" lon="6.46328">
        <ele>64</ele>
        <time>2013-09-12T12:06:55.000Z</time>
      </trkpt>
      <trkpt lat="43.16219" lon="6.46327">
        <ele>64</ele>
        <time>2013-09-12T12:06:56.000Z</time>
      </trkpt>
      <trkpt lat="43.1622" lon="6.46325">
        <ele>64</ele>
        <time>2013-09-12T12:06:57.000Z</time>
      </trkpt>
      <trkpt lat="43.16222" lon="6.46324">
        <ele>64</ele>
        <time>2013-09-12T12:06:58.000Z</time>
      </trkpt>
      <trkpt lat="43.16223" lon="6.46323">
        <ele>64</ele>
        <time>2013-09-12T12:06:59.000Z</time>
      </trkpt>
      <trkpt lat="43.16224" lon="6.46321">
        <ele>64</ele>
        <time>2013-09-12T12:07:00.000Z</time>
      </trkpt>
      <trkpt lat="43.16226" lon="6.46319">
        <ele>64</ele>
        <time>2013-09-12T12:07:01.000Z</time>
      </trkpt>
      <trkpt lat="43.16227" lon="6.46318">
        <ele>64</ele>
        <time>2013-09-12T12:07:02.000Z</time>
      </trkpt>
      <trkpt lat="43.16228" lon="6.46317">
        <ele>64</ele>
        <time>2013-09-12T12:07:03.000Z</time>
      </trkpt>
      <trkpt lat="43.1623" lon="6.46316">
        <ele>64</ele>
        <time>2013-09-12T12:07:04.000Z</time>
      </trkpt>
      <trkpt lat="43.16232" lon="6.46316">
        <ele>64</ele>
        <time>2013-09-12T12:07:05.000Z</time>
      </trkpt>
      <trkpt lat="43.16234" lon="6.46315">
        <ele>64</ele>
        <time>2013-09-12T12:07:06.000Z</time>
      </trkpt>
      <trkpt lat="43.16235" lon="6.46314">
        <ele>64</ele>
        <time>2013-09-12T12:07:07.000Z</time>
      </trkpt>
      <trkpt lat="43.16237" lon="6.46314">
        <ele>64</ele>
        <time>2013-09-12T12:07:08.000Z</time>
      </trkpt>
      <trkpt lat="43.16238" lon="6.46315">
        <ele>64</ele>
        <time>2013-09-12T12:07:09.000Z</time>
      </trkpt>
      <trkpt lat="43.1624" lon="6.46315">
        <ele>64</ele>
        <time>2013-09-12T12:07:10.000Z</time>
      </trkpt>
      <trkpt lat="43.16242" lon="6.46316">
        <ele>63</ele>
        <time>2013-09-12T12:07:11.000Z</time>
      </trkpt>
      <trkpt lat="43.16243" lon="6.46317">
        <ele>63</ele>
        <time>2013-09-12T12:07:12.000Z</time>
      </trkpt>
      <trkpt lat="43.16245" lon="6.46318">
        <ele>63</ele>
        <time>2013-09-12T12:07:13.000Z</time>
      </trkpt>
      <trkpt lat="43.16246" lon="6.46318">
        <ele>62</ele>
        <time>2013-09-12T12:07:14.000Z</time>
      </trkpt>
      <trkpt lat="43.16248" lon="6.46319">
        <ele>62</ele>
        <time>2013-09-12T12:07:15.000Z</time>
      </trkpt>
      <trkpt lat="43.16249" lon="6.46319">
        <ele>62</ele>
        <time>2013-09-12T12:07:16.000Z</time>
      </trkpt>
      <trkpt lat="43.16251" lon="6.4632">
        <ele>65</ele>
        <time>2013-09-12T12:07:17.000Z</time>
      </trkpt>
      <trkpt lat="43.16252" lon="6.46321">
        <ele>65</ele>
        <time>2013-09-12T12:07:18.000Z</time>
      </trkpt>
      <trkpt lat="43.16254" lon="6.46321">
        <ele>65</ele>
        <time>2013-09-12T12:07:19.000Z</time>
      </trkpt>
      <trkpt lat="43.16255" lon="6.46322">
        <ele>64</ele>
        <time>2013-09-12T12:07:20.000Z</time>
      </trkpt>
      <trkpt lat="43.16257" lon="6.46323">
        <ele>64</ele>
        <time>2013-09-12T12:07:21.000Z</time>
      </trkpt>
      <trkpt lat="43.16258" lon="6.46323">
        <ele>65</ele>
        <time>2013-09-12T12:07:22.000Z</time>
      </trkpt>
      <trkpt lat="43.1626" lon="6.46324">
        <ele>65</ele>
        <time>2013-09-12T12:07:23.000Z</time>
      </trkpt>
      <trkpt lat="43.16262" lon="6.46324">
        <ele>65</ele>
        <time>2013-09-12T12:07:24.000Z</time>
      </trkpt>
      <trkpt lat="43.16263" lon="6.46324">
        <ele>66</ele>
        <time>2013-09-12T12:07:25.000Z</time>
      </trkpt>
      <trkpt lat="43.16265" lon="6.46324">
        <ele>66</ele>
        <time>2013-09-12T12:07:26.000Z</time>
      </trkpt>
      <trkpt lat="43.16267" lon="6.46325">
        <ele>67</ele>
        <time>2013-09-12T12:07:27.000Z</time>
      </trkpt>
      <trkpt lat="43.16268" lon="6.46326">
        <ele>67</ele>
        <time>2013-09-12T12:07:28.000Z</time>
      </trkpt>
      <trkpt lat="43.1627" lon="6.46327">
        <ele>68</ele>
        <time>2013-09-12T12:07:29.000Z</time>
      </trkpt>
      <trkpt lat="43.16272" lon="6.46328">
        <ele>68</ele>
        <time>2013-09-12T12:07:30.000Z</time>
      </trkpt>
      <trkpt lat="43.16274" lon="6.46328">
        <ele>68</ele>
        <time>2013-09-12T12:07:31.000Z</time>
      </trkpt>
      <trkpt lat="43.16276" lon="6.46329">
        <ele>69</ele>
        <time>2013-09-12T12:07:32.000Z</time>
      </trkpt>
      <trkpt lat="43.16277" lon="6.4633">
        <ele>69</ele>
        <time>2013-09-12T12:07:33.000Z</time>
      </trkpt>
      <trkpt lat="43.16279" lon="6.46331">
        <ele>70</ele>
        <time>2013-09-12T12:07:34.000Z</time>
      </trkpt>
      <trkpt lat="43.16281" lon="6.46332">
        <ele>70</ele>
        <time>2013-09-12T12:07:35.000Z</time>
      </trkpt>
      <trkpt lat="43.16282" lon="6.46333">
        <ele>70</ele>
        <time>2013-09-12T12:07:36.000Z</time>
      </trkpt>
      <trkpt lat="43.16284" lon="6.46334">
        <ele>58</ele>
        <time>2013-09-12T12:07:37.000Z</time>
      </trkpt>
      <trkpt lat="43.16286" lon="6.46335">
        <ele>58</ele>
        <time>2013-09-12T12:07:38.000Z</time>
      </trkpt>
      <trkpt lat="43.16287" lon="6.46336">
        <ele>58</ele>
        <time>2013-09-12T12:07:39.000Z</time>
      </trkpt>
      <trkpt lat="43.16288" lon="6.46337">
        <ele>58</ele>
        <time>2013-09-12T12:07:40.000Z</time>
      </trkpt>
      <trkpt lat="43.1629" lon="6.46338">
        <ele>58</ele>
        <time>2013-09-12T12:07:41.000Z</time>
      </trkpt>
      <trkpt lat="43.16291" lon="6.46338">
        <ele>59</ele>
        <time>2013-09-12T12:07:42.000Z</time>
      </trkpt>
      <trkpt lat="43.16293" lon="6.46339">
        <ele>59</ele>
        <time>2013-09-12T12:07:43.000Z</time>
      </trkpt>
      <trkpt lat="43.16294" lon="6.4634">
        <ele>59</ele>
        <time>2013-09-12T12:07:44.000Z</time>
      </trkpt>
      <trkpt lat="43.16295" lon="6.46341">
        <ele>59</ele>
        <time>2013-09-12T12:07:45.000Z</time>
      </trkpt>
      <trkpt lat="43.16297" lon="6.46342">
        <ele>59</ele>
        <time>2013-09-12T12:07:46.000Z</time>
      </trkpt>
      <trkpt lat="43.16298" lon="6.46342">
        <ele>59</ele>
        <time>2013-09-12T12:07:47.000Z</time>
      </trkpt>
      <trkpt lat="43.16299" lon="6.46342">
        <ele>59</ele>
        <time>2013-09-12T12:07:48.000Z</time>
      </trkpt>
      <trkpt lat="43.163" lon="6.46343">
        <ele>60</ele>
        <time>2013-09-12T12:07:49.000Z</time>
      </trkpt>
      <trkpt lat="43.16302" lon="6.46344">
        <ele>60</ele>
        <time>2013-09-12T12:07:50.000Z</time>
      </trkpt>
      <trkpt lat="43.16303" lon="6.46344">
        <ele>60</ele>
        <time>2013-09-12T12:07:51.000Z</time>
      </trkpt>
      <trkpt lat="43.16305" lon="6.46345">
        <ele>60</ele>
        <time>2013-09-12T12:07:52.000Z</time>
      </trkpt>
      <trkpt lat="43.16306" lon="6.46346">
        <ele>60</ele>
        <time>2013-09-12T12:07:53.000Z</time>
      </trkpt>
      <trkpt lat="43.16307" lon="6.46347">
        <ele>60</ele>
        <time>2013-09-12T12:07:54.000Z</time>
      </trkpt>
      <trkpt lat="43.16309" lon="6.46347">
        <ele>60</ele>
        <time>2013-09-12T12:07:55.000Z</time>
      </trkpt>
      <trkpt lat="43.1631" lon="6.46348">
        <ele>61</ele>
        <time>2013-09-12T12:07:56.000Z</time>
      </trkpt>
      <trkpt lat="43.16311" lon="6.46349">
        <ele>61</ele>
        <time>2013-09-12T12:07:57.000Z</time>
      </trkpt>
      <trkpt lat="43.16313" lon="6.4635">
        <ele>61</ele>
        <time>2013-09-12T12:07:58.000Z</time>
      </trkpt>
      <trkpt lat="43.16314" lon="6.46351">
        <ele>61</ele>
        <time>2013-09-12T12:07:59.000Z</time>
      </trkpt>
      <trkpt lat="43.16316" lon="6.46351">
        <ele>61</ele>
        <time>2013-09-12T12:08:00.000Z</time>
      </trkpt>
      <trkpt lat="43.16317" lon="6.46352">
        <ele>61</ele>
        <time>2013-09-12T12:08:01.000Z</time>
      </trkpt>
      <trkpt lat="43.16318" lon="6.46353">
        <ele>61</ele>
        <time>2013-09-12T12:08:02.000Z</time>
      </trkpt>
      <trkpt lat="43.1632" lon="6.46354">
        <ele>61</ele>
        <time>2013-09-12T12:08:03.000Z</time>
      </trkpt>
      <trkpt lat="43.16321" lon="6.46355">
        <ele>61</ele>
        <time>2013-09-12T12:08:04.000Z</time>
      </trkpt>
      <trkpt lat="43.16322" lon="6.46356">
        <ele>61</ele>
        <time>2013-09-12T12:08:05.000Z</time>
      </trkpt>
      <trkpt lat="43.16323" lon="6.46357">
        <ele>61</ele>
        <time>2013-09-12T12:08:06.000Z</time>
      </trkpt>
      <trkpt lat="43.16325" lon="6.46359">
        <ele>61</ele>
        <time>2013-09-12T12:08:07.000Z</time>
      </trkpt>
      <trkpt lat="43.16327" lon="6.4636">
        <ele>61</ele>
        <time>2013-09-12T12:08:08.000Z</time>
      </trkpt>
      <trkpt lat="43.16328" lon="6.46361">
        <ele>61</ele>
        <time>2013-09-12T12:08:09.000Z</time>
      </trkpt>
      <trkpt lat="43.1633" lon="6.46362">
        <ele>61</ele>
        <time>2013-09-12T12:08:10.000Z</time>
      </trkpt>
      <trkpt lat="43.16331" lon="6.46363">
        <ele>60</ele>
        <time>2013-09-12T12:08:11.000Z</time>
      </trkpt>
      <trkpt lat="43.16332" lon="6.46364">
        <ele>60</ele>
        <time>2013-09-12T12:08:12.000Z</time>
      </trkpt>
      <trkpt lat="43.16334" lon="6.46365">
        <ele>68</ele>
        <time>2013-09-12T12:08:13.000Z</time>
      </trkpt>
      <trkpt lat="43.16335" lon="6.46366">
        <ele>68</ele>
        <time>2013-09-12T12:08:14.000Z</time>
      </trkpt>
      <trkpt lat="43.16337" lon="6.46367">
        <ele>68</ele>
        <time>2013-09-12T12:08:15.000Z</time>
      </trkpt>
      <trkpt lat="43.16338" lon="6.46368">
        <ele>68</ele>
        <time>2013-09-12T12:08:16.000Z</time>
      </trkpt>
      <trkpt lat="43.1634" lon="6.46369">
        <ele>68</ele>
        <time>2013-09-12T12:08:17.000Z</time>
      </trkpt>
      <trkpt lat="43.16341" lon="6.46369">
        <ele>68</ele>
        <time>2013-09-12T12:08:18.000Z</time>
      </trkpt>
      <trkpt lat="43.16343" lon="6.4637">
        <ele>68</ele>
        <time>2013-09-12T12:08:19.000Z</time>
      </trkpt>
      <trkpt lat="43.16344" lon="6.4637">
        <ele>68</ele>
        <time>2013-09-12T12:08:20.000Z</time>
      </trkpt>
      <trkpt lat="43.16349" lon="6.4637">
        <ele>68</ele>
        <time>2013-09-12T12:08:23.000Z</time>
      </trkpt>
      <trkpt lat="43.16351" lon="6.46371">
        <ele>68</ele>
        <time>2013-09-12T12:08:24.000Z</time>
      </trkpt>
      <trkpt lat="43.16353" lon="6.4637">
        <ele>68</ele>
        <time>2013-09-12T12:08:25.000Z</time>
      </trkpt>
      <trkpt lat="43.16356" lon="6.4637">
        <ele>68</ele>
        <time>2013-09-12T12:08:27.000Z</time>
      </trkpt>
      <trkpt lat="43.16358" lon="6.4637">
        <ele>69</ele>
        <time>2013-09-12T12:08:28.000Z</time>
      </trkpt>
      <trkpt lat="43.16359" lon="6.46369">
        <ele>69</ele>
        <time>2013-09-12T12:08:29.000Z</time>
      </trkpt>
      <trkpt lat="43.16361" lon="6.46369">
        <ele>69</ele>
        <time>2013-09-12T12:08:30.000Z</time>
      </trkpt>
      <trkpt lat="43.16363" lon="6.46368">
        <ele>69</ele>
        <time>2013-09-12T12:08:31.000Z</time>
      </trkpt>
      <trkpt lat="43.16364" lon="6.46368">
        <ele>69</ele>
        <time>2013-09-12T12:08:32.000Z</time>
      </trkpt>
      <trkpt lat="43.16366" lon="6.46367">
        <ele>69</ele>
        <time>2013-09-12T12:08:33.000Z</time>
      </trkpt>
      <trkpt lat="43.16367" lon="6.46366">
        <ele>69</ele>
        <time>2013-09-12T12:08:34.000Z</time>
      </trkpt>
      <trkpt lat="43.16369" lon="6.46366">
        <ele>70</ele>
        <time>2013-09-12T12:08:35.000Z</time>
      </trkpt>
      <trkpt lat="43.1637" lon="6.46365">
        <ele>70</ele>
        <time>2013-09-12T12:08:36.000Z</time>
      </trkpt>
      <trkpt lat="43.16372" lon="6.46365">
        <ele>70</ele>
        <time>2013-09-12T12:08:37.000Z</time>
      </trkpt>
      <trkpt lat="43.16373" lon="6.46364">
        <ele>70</ele>
        <time>2013-09-12T12:08:38.000Z</time>
      </trkpt>
      <trkpt lat="43.16376" lon="6.46364">
        <ele>70</ele>
        <time>2013-09-12T12:08:40.000Z</time>
      </trkpt>
      <trkpt lat="43.16378" lon="6.46364">
        <ele>70</ele>
        <time>2013-09-12T12:08:41.000Z</time>
      </trkpt>
      <trkpt lat="43.16379" lon="6.46365">
        <ele>70</ele>
        <time>2013-09-12T12:08:42.000Z</time>
      </trkpt>
      <trkpt lat="43.1638" lon="6.46365">
        <ele>71</ele>
        <time>2013-09-12T12:08:43.000Z</time>
      </trkpt>
      <trkpt lat="43.16382" lon="6.46365">
        <ele>71</ele>
        <time>2013-09-12T12:08:44.000Z</time>
      </trkpt>
      <trkpt lat="43.16384" lon="6.46366">
        <ele>71</ele>
        <time>2013-09-12T12:08:45.000Z</time>
      </trkpt>
      <trkpt lat="43.16389" lon="6.46366">
        <ele>71</ele>
        <time>2013-09-12T12:08:48.000Z</time>
      </trkpt>
      <trkpt lat="43.16391" lon="6.46366">
        <ele>71</ele>
        <time>2013-09-12T12:08:49.000Z</time>
      </trkpt>
      <trkpt lat="43.16392" lon="6.46367">
        <ele>71</ele>
        <time>2013-09-12T12:08:50.000Z</time>
      </trkpt>
      <trkpt lat="43.16394" lon="6.46367">
        <ele>72</ele>
        <time>2013-09-12T12:08:51.000Z</time>
      </trkpt>
      <trkpt lat="43.16396" lon="6.46368">
        <ele>72</ele>
        <time>2013-09-12T12:08:52.000Z</time>
      </trkpt>
      <trkpt lat="43.16397" lon="6.46368">
        <ele>72</ele>
        <time>2013-09-12T12:08:53.000Z</time>
      </trkpt>
      <trkpt lat="43.16399" lon="6.46368">
        <ele>72</ele>
        <time>2013-09-12T12:08:54.000Z</time>
      </trkpt>
      <trkpt lat="43.164" lon="6.46369">
        <ele>72</ele>
        <time>2013-09-12T12:08:55.000Z</time>
      </trkpt>
      <trkpt lat="43.16402" lon="6.46369">
        <ele>72</ele>
        <time>2013-09-12T12:08:56.000Z</time>
      </trkpt>
      <trkpt lat="43.16403" lon="6.4637">
        <ele>72</ele>
        <time>2013-09-12T12:08:57.000Z</time>
      </trkpt>
      <trkpt lat="43.16405" lon="6.4637">
        <ele>72</ele>
        <time>2013-09-12T12:08:58.000Z</time>
      </trkpt>
      <trkpt lat="43.16406" lon="6.46371">
        <ele>72</ele>
        <time>2013-09-12T12:08:59.000Z</time>
      </trkpt>
      <trkpt lat="43.16407" lon="6.46372">
        <ele>72</ele>
        <time>2013-09-12T12:09:00.000Z</time>
      </trkpt>
      <trkpt lat="43.16408" lon="6.46374">
        <ele>72</ele>
        <time>2013-09-12T12:09:01.000Z</time>
      </trkpt>
      <trkpt lat="43.1641" lon="6.46375">
        <ele>72</ele>
        <time>2013-09-12T12:09:02.000Z</time>
      </trkpt>
      <trkpt lat="43.16411" lon="6.46376">
        <ele>72</ele>
        <time>2013-09-12T12:09:03.000Z</time>
      </trkpt>
      <trkpt lat="43.16412" lon="6.46378">
        <ele>72</ele>
        <time>2013-09-12T12:09:04.000Z</time>
      </trkpt>
      <trkpt lat="43.16413" lon="6.4638">
        <ele>71</ele>
        <time>2013-09-12T12:09:05.000Z</time>
      </trkpt>
      <trkpt lat="43.16414" lon="6.46382">
        <ele>71</ele>
        <time>2013-09-12T12:09:06.000Z</time>
      </trkpt>
      <trkpt lat="43.16414" lon="6.46384">
        <ele>71</ele>
        <time>2013-09-12T12:09:07.000Z</time>
      </trkpt>
      <trkpt lat="43.16415" lon="6.46386">
        <ele>71</ele>
        <time>2013-09-12T12:09:08.000Z</time>
      </trkpt>
      <trkpt lat="43.16415" lon="6.46388">
        <ele>71</ele>
        <time>2013-09-12T12:09:09.000Z</time>
      </trkpt>
      <trkpt lat="43.16414" lon="6.4639">
        <ele>71</ele>
        <time>2013-09-12T12:09:10.000Z</time>
      </trkpt>
      <trkpt lat="43.16414" lon="6.46392">
        <ele>71</ele>
        <time>2013-09-12T12:09:11.000Z</time>
      </trkpt>
      <trkpt lat="43.16414" lon="6.46394">
        <ele>71</ele>
        <time>2013-09-12T12:09:12.000Z</time>
      </trkpt>
      <trkpt lat="43.16414" lon="6.46396">
        <ele>71</ele>
        <time>2013-09-12T12:09:13.000Z</time>
      </trkpt>
      <trkpt lat="43.16414" lon="6.46398">
        <ele>71</ele>
        <time>2013-09-12T12:09:14.000Z</time>
      </trkpt>
      <trkpt lat="43.16414" lon="6.46399">
        <ele>71</ele>
        <time>2013-09-12T12:09:15.000Z</time>
      </trkpt>
      <trkpt lat="43.16413" lon="6.46402">
        <ele>71</ele>
        <time>2013-09-12T12:09:16.000Z</time>
      </trkpt>
      <trkpt lat="43.16412" lon="6.46404">
        <ele>71</ele>
        <time>2013-09-12T12:09:17.000Z</time>
      </trkpt>
      <trkpt lat="43.16411" lon="6.46406">
        <ele>71</ele>
        <time>2013-09-12T12:09:18.000Z</time>
      </trkpt>
      <trkpt lat="43.1641" lon="6.46408">
        <ele>70</ele>
        <time>2013-09-12T12:09:19.000Z</time>
      </trkpt>
      <trkpt lat="43.1641" lon="6.4641">
        <ele>70</ele>
        <time>2013-09-12T12:09:20.000Z</time>
      </trkpt>
      <trkpt lat="43.16409" lon="6.46412">
        <ele>70</ele>
        <time>2013-09-12T12:09:21.000Z</time>
      </trkpt>
      <trkpt lat="43.16408" lon="6.46415">
        <ele>70</ele>
        <time>2013-09-12T12:09:22.000Z</time>
      </trkpt>
      <trkpt lat="43.16407" lon="6.46417">
        <ele>70</ele>
        <time>2013-09-12T12:09:23.000Z</time>
      </trkpt>
      <trkpt lat="43.16406" lon="6.46419">
        <ele>70</ele>
        <time>2013-09-12T12:09:24.000Z</time>
      </trkpt>
      <trkpt lat="43.16405" lon="6.4642">
        <ele>70</ele>
        <time>2013-09-12T12:09:25.000Z</time>
      </trkpt>
      <trkpt lat="43.16404" lon="6.46422">
        <ele>70</ele>
        <time>2013-09-12T12:09:26.000Z</time>
      </trkpt>
      <trkpt lat="43.16402" lon="6.46424">
        <ele>70</ele>
        <time>2013-09-12T12:09:27.000Z</time>
      </trkpt>
      <trkpt lat="43.16401" lon="6.46426">
        <ele>70</ele>
        <time>2013-09-12T12:09:28.000Z</time>
      </trkpt>
      <trkpt lat="43.164" lon="6.46429">
        <ele>70</ele>
        <time>2013-09-12T12:09:29.000Z</time>
      </trkpt>
      <trkpt lat="43.16399" lon="6.46431">
        <ele>70</ele>
        <time>2013-09-12T12:09:30.000Z</time>
      </trkpt>
      <trkpt lat="43.16398" lon="6.46432">
        <ele>70</ele>
        <time>2013-09-12T12:09:31.000Z</time>
      </trkpt>
      <trkpt lat="43.16397" lon="6.46434">
        <ele>70</ele>
        <time>2013-09-12T12:09:32.000Z</time>
      </trkpt>
      <trkpt lat="43.16396" lon="6.46436">
        <ele>70</ele>
        <time>2013-09-12T12:09:33.000Z</time>
      </trkpt>
      <trkpt lat="43.16395" lon="6.46438">
        <ele>70</ele>
        <time>2013-09-12T12:09:34.000Z</time>
      </trkpt>
      <trkpt lat="43.16394" lon="6.4644">
        <ele>70</ele>
        <time>2013-09-12T12:09:35.000Z</time>
      </trkpt>
      <trkpt lat="43.16392" lon="6.46442">
        <ele>70</ele>
        <time>2013-09-12T12:09:36.000Z</time>
      </trkpt>
      <trkpt lat="43.16391" lon="6.46444">
        <ele>70</ele>
        <time>2013-09-12T12:09:37.000Z</time>
      </trkpt>
      <trkpt lat="43.1639" lon="6.46446">
        <ele>70</ele>
        <time>2013-09-12T12:09:38.000Z</time>
      </trkpt>
      <trkpt lat="43.16388" lon="6.46448">
        <ele>70</ele>
        <time>2013-09-12T12:09:39.000Z</time>
      </trkpt>
      <trkpt lat="43.16387" lon="6.4645">
        <ele>70</ele>
        <time>2013-09-12T12:09:40.000Z</time>
      </trkpt>
      <trkpt lat="43.16386" lon="6.46452">
        <ele>70</ele>
        <time>2013-09-12T12:09:41.000Z</time>
      </trkpt>
      <trkpt lat="43.16385" lon="6.46454">
        <ele>70</ele>
        <time>2013-09-12T12:09:42.000Z</time>
      </trkpt>
      <trkpt lat="43.16384" lon="6.46456">
        <ele>70</ele>
        <time>2013-09-12T12:09:43.000Z</time>
      </trkpt>
      <trkpt lat="43.16383" lon="6.46458">
        <ele>70</ele>
        <time>2013-09-12T12:09:44.000Z</time>
      </trkpt>
      <trkpt lat="43.16382" lon="6.4646">
        <ele>70</ele>
        <time>2013-09-12T12:09:45.000Z</time>
      </trkpt>
      <trkpt lat="43.16381" lon="6.46462">
        <ele>70</ele>
        <time>2013-09-12T12:09:46.000Z</time>
      </trkpt>
      <trkpt lat="43.1638" lon="6.46465">
        <ele>70</ele>
        <time>2013-09-12T12:09:47.000Z</time>
      </trkpt>
      <trkpt lat="43.16379" lon="6.46467">
        <ele>70</ele>
        <time>2013-09-12T12:09:48.000Z</time>
      </trkpt>
      <trkpt lat="43.16378" lon="6.46469">
        <ele>70</ele>
        <time>2013-09-12T12:09:49.000Z</time>
      </trkpt>
      <trkpt lat="43.16377" lon="6.46471">
        <ele>70</ele>
        <time>2013-09-12T12:09:50.000Z</time>
      </trkpt>
      <trkpt lat="43.16376" lon="6.46473">
        <ele>70</ele>
        <time>2013-09-12T12:09:51.000Z</time>
      </trkpt>
      <trkpt lat="43.16374" lon="6.46475">
        <ele>70</ele>
        <time>2013-09-12T12:09:52.000Z</time>
      </trkpt>
      <trkpt lat="43.16374" lon="6.46477">
        <ele>70</ele>
        <time>2013-09-12T12:09:53.000Z</time>
      </trkpt>
      <trkpt lat="43.16373" lon="6.4648">
        <ele>70</ele>
        <time>2013-09-12T12:09:54.000Z</time>
      </trkpt>
      <trkpt lat="43.16371" lon="6.46481">
        <ele>70</ele>
        <time>2013-09-12T12:09:55.000Z</time>
      </trkpt>
      <trkpt lat="43.1637" lon="6.46482">
        <ele>70</ele>
        <time>2013-09-12T12:09:56.000Z</time>
      </trkpt>
      <trkpt lat="43.16369" lon="6.46484">
        <ele>70</ele>
        <time>2013-09-12T12:09:57.000Z</time>
      </trkpt>
      <trkpt lat="43.16367" lon="6.46485">
        <ele>70</ele>
        <time>2013-09-12T12:09:58.000Z</time>
      </trkpt>
      <trkpt lat="43.16365" lon="6.46485">
        <ele>70</ele>
        <time>2013-09-12T12:09:59.000Z</time>
      </trkpt>
      <trkpt lat="43.16364" lon="6.46486">
        <ele>70</ele>
        <time>2013-09-12T12:10:00.000Z</time>
      </trkpt>
      <trkpt lat="43.16362" lon="6.46487">
        <ele>70</ele>
        <time>2013-09-12T12:10:01.000Z</time>
      </trkpt>
      <trkpt lat="43.1636" lon="6.46488">
        <ele>69</ele>
        <time>2013-09-12T12:10:02.000Z</time>
      </trkpt>
      <trkpt lat="43.16358" lon="6.46489">
        <ele>69</ele>
        <time>2013-09-12T12:10:03.000Z</time>
      </trkpt>
      <trkpt lat="43.16357" lon="6.46491">
        <ele>69</ele>
        <time>2013-09-12T12:10:04.000Z</time>
      </trkpt>
      <trkpt lat="43.16355" lon="6.46492">
        <ele>69</ele>
        <time>2013-09-12T12:10:05.000Z</time>
      </trkpt>
      <trkpt lat="43.16354" lon="6.46493">
        <ele>69</ele>
        <time>2013-09-12T12:10:06.000Z</time>
      </trkpt>
      <trkpt lat="43.16352" lon="6.46494">
        <ele>69</ele>
        <time>2013-09-12T12:10:07.000Z</time>
      </trkpt>
      <trkpt lat="43.16351" lon="6.46496">
        <ele>69</ele>
        <time>2013-09-12T12:10:08.000Z</time>
      </trkpt>
      <trkpt lat="43.16349" lon="6.46497">
        <ele>69</ele>
        <time>2013-09-12T12:10:09.000Z</time>
      </trkpt>
      <trkpt lat="43.16347" lon="6.46498">
        <ele>69</ele>
        <time>2013-09-12T12:10:10.000Z</time>
      </trkpt>
      <trkpt lat="43.16345" lon="6.46499">
        <ele>69</ele>
        <time>2013-09-12T12:10:11.000Z</time>
      </trkpt>
      <trkpt lat="43.16343" lon="6.465">
        <ele>70</ele>
        <time>2013-09-12T12:10:12.000Z</time>
      </trkpt>
      <trkpt lat="43.16342" lon="6.46502">
        <ele>70</ele>
        <time>2013-09-12T12:10:13.000Z</time>
      </trkpt>
      <trkpt lat="43.1634" lon="6.46503">
        <ele>70</ele>
        <time>2013-09-12T12:10:14.000Z</time>
      </trkpt>
      <trkpt lat="43.16339" lon="6.46504">
        <ele>70</ele>
        <time>2013-09-12T12:10:15.000Z</time>
      </trkpt>
      <trkpt lat="43.16337" lon="6.46506">
        <ele>70</ele>
        <time>2013-09-12T12:10:16.000Z</time>
      </trkpt>
      <trkpt lat="43.16335" lon="6.46508">
        <ele>70</ele>
        <time>2013-09-12T12:10:17.000Z</time>
      </trkpt>
      <trkpt lat="43.16334" lon="6.46509">
        <ele>70</ele>
        <time>2013-09-12T12:10:18.000Z</time>
      </trkpt>
      <trkpt lat="43.16332" lon="6.46511">
        <ele>66</ele>
        <time>2013-09-12T12:10:19.000Z</time>
      </trkpt>
      <trkpt lat="43.16331" lon="6.46513">
        <ele>66</ele>
        <time>2013-09-12T12:10:20.000Z</time>
      </trkpt>
      <trkpt lat="43.16329" lon="6.46515">
        <ele>66</ele>
        <time>2013-09-12T12:10:21.000Z</time>
      </trkpt>
      <trkpt lat="43.16328" lon="6.46516">
        <ele>66</ele>
        <time>2013-09-12T12:10:22.000Z</time>
      </trkpt>
      <trkpt lat="43.16327" lon="6.46518">
        <ele>65</ele>
        <time>2013-09-12T12:10:23.000Z</time>
      </trkpt>
      <trkpt lat="43.16326" lon="6.4652">
        <ele>65</ele>
        <time>2013-09-12T12:10:24.000Z</time>
      </trkpt>
      <trkpt lat="43.16325" lon="6.46522">
        <ele>65</ele>
        <time>2013-09-12T12:10:25.000Z</time>
      </trkpt>
      <trkpt lat="43.16324" lon="6.46525">
        <ele>65</ele>
        <time>2013-09-12T12:10:26.000Z</time>
      </trkpt>
      <trkpt lat="43.16323" lon="6.46527">
        <ele>65</ele>
        <time>2013-09-12T12:10:27.000Z</time>
      </trkpt>
      <trkpt lat="43.16322" lon="6.46529">
        <ele>65</ele>
        <time>2013-09-12T12:10:28.000Z</time>
      </trkpt>
      <trkpt lat="43.1632" lon="6.46531">
        <ele>65</ele>
        <time>2013-09-12T12:10:29.000Z</time>
      </trkpt>
      <trkpt lat="43.16319" lon="6.46533">
        <ele>65</ele>
        <time>2013-09-12T12:10:30.000Z</time>
      </trkpt>
      <trkpt lat="43.16318" lon="6.46535">
        <ele>64</ele>
        <time>2013-09-12T12:10:31.000Z</time>
      </trkpt>
      <trkpt lat="43.16317" lon="6.46538">
        <ele>64</ele>
        <time>2013-09-12T12:10:32.000Z</time>
      </trkpt>
      <trkpt lat="43.16316" lon="6.4654">
        <ele>64</ele>
        <time>2013-09-12T12:10:33.000Z</time>
      </trkpt>
      <trkpt lat="43.16316" lon="6.46542">
        <ele>64</ele>
        <time>2013-09-12T12:10:34.000Z</time>
      </trkpt>
      <trkpt lat="43.16315" lon="6.46545">
        <ele>64</ele>
        <time>2013-09-12T12:10:35.000Z</time>
      </trkpt>
      <trkpt lat="43.16314" lon="6.46547">
        <ele>64</ele>
        <time>2013-09-12T12:10:36.000Z</time>
      </trkpt>
      <trkpt lat="43.16314" lon="6.4655">
        <ele>65</ele>
        <time>2013-09-12T12:10:37.000Z</time>
      </trkpt>
      <trkpt lat="43.16313" lon="6.46552">
        <ele>65</ele>
        <time>2013-09-12T12:10:38.000Z</time>
      </trkpt>
      <trkpt lat="43.16313" lon="6.46555">
        <ele>65</ele>
        <time>2013-09-12T12:10:39.000Z</time>
      </trkpt>
      <trkpt lat="43.16313" lon="6.46558">
        <ele>65</ele>
        <time>2013-09-12T12:10:40.000Z</time>
      </trkpt>
      <trkpt lat="43.16313" lon="6.4656">
        <ele>65</ele>
        <time>2013-09-12T12:10:41.000Z</time>
      </trkpt>
      <trkpt lat="43.16314" lon="6.46563">
        <ele>65</ele>
        <time>2013-09-12T12:10:42.000Z</time>
      </trkpt>
      <trkpt lat="43.16314" lon="6.46565">
        <ele>65</ele>
        <time>2013-09-12T12:10:43.000Z</time>
      </trkpt>
      <trkpt lat="43.16315" lon="6.46567">
        <ele>66</ele>
        <time>2013-09-12T12:10:44.000Z</time>
      </trkpt>
      <trkpt lat="43.16316" lon="6.4657">
        <ele>66</ele>
        <time>2013-09-12T12:10:45.000Z</time>
      </trkpt>
      <trkpt lat="43.16317" lon="6.46572">
        <ele>66</ele>
        <time>2013-09-12T12:10:46.000Z</time>
      </trkpt>
      <trkpt lat="43.16318" lon="6.46573">
        <ele>66</ele>
        <time>2013-09-12T12:10:47.000Z</time>
      </trkpt>
      <trkpt lat="43.16319" lon="6.46575">
        <ele>67</ele>
        <time>2013-09-12T12:10:48.000Z</time>
      </trkpt>
      <trkpt lat="43.1632" lon="6.46577">
        <ele>67</ele>
        <time>2013-09-12T12:10:49.000Z</time>
      </trkpt>
      <trkpt lat="43.16322" lon="6.46578">
        <ele>67</ele>
        <time>2013-09-12T12:10:50.000Z</time>
      </trkpt>
      <trkpt lat="43.16323" lon="6.46579">
        <ele>67</ele>
        <time>2013-09-12T12:10:51.000Z</time>
      </trkpt>
      <trkpt lat="43.16325" lon="6.4658">
        <ele>68</ele>
        <time>2013-09-12T12:10:52.000Z</time>
      </trkpt>
      <trkpt lat="43.16327" lon="6.46581">
        <ele>68</ele>
        <time>2013-09-12T12:10:53.000Z</time>
      </trkpt>
      <trkpt lat="43.16329" lon="6.46582">
        <ele>69</ele>
        <time>2013-09-12T12:10:54.000Z</time>
      </trkpt>
      <trkpt lat="43.16331" lon="6.46582">
        <ele>69</ele>
        <time>2013-09-12T12:10:55.000Z</time>
      </trkpt>
      <trkpt lat="43.16333" lon="6.46582">
        <ele>70</ele>
        <time>2013-09-12T12:10:56.000Z</time>
      </trkpt>
      <trkpt lat="43.16336" lon="6.46582">
        <ele>71</ele>
        <time>2013-09-12T12:10:58.000Z</time>
      </trkpt>
      <trkpt lat="43.16338" lon="6.46582">
        <ele>71</ele>
        <time>2013-09-12T12:10:59.000Z</time>
      </trkpt>
      <trkpt lat="43.16342" lon="6.46581">
        <ele>71</ele>
        <time>2013-09-12T12:11:01.000Z</time>
      </trkpt>
      <trkpt lat="43.16344" lon="6.46581">
        <ele>72</ele>
        <time>2013-09-12T12:11:02.000Z</time>
      </trkpt>
      <trkpt lat="43.16345" lon="6.4658">
        <ele>72</ele>
        <time>2013-09-12T12:11:03.000Z</time>
      </trkpt>
      <trkpt lat="43.16347" lon="6.46579">
        <ele>72</ele>
        <time>2013-09-12T12:11:04.000Z</time>
      </trkpt>
      <trkpt lat="43.16349" lon="6.46579">
        <ele>73</ele>
        <time>2013-09-12T12:11:05.000Z</time>
      </trkpt>
      <trkpt lat="43.16351" lon="6.46578">
        <ele>73</ele>
        <time>2013-09-12T12:11:06.000Z</time>
      </trkpt>
      <trkpt lat="43.16353" lon="6.46578">
        <ele>73</ele>
        <time>2013-09-12T12:11:07.000Z</time>
      </trkpt>
      <trkpt lat="43.16355" lon="6.46577">
        <ele>73</ele>
        <time>2013-09-12T12:11:08.000Z</time>
      </trkpt>
      <trkpt lat="43.16357" lon="6.46577">
        <ele>73</ele>
        <time>2013-09-12T12:11:09.000Z</time>
      </trkpt>
      <trkpt lat="43.16359" lon="6.46576">
        <ele>74</ele>
        <time>2013-09-12T12:11:10.000Z</time>
      </trkpt>
      <trkpt lat="43.16361" lon="6.46576">
        <ele>74</ele>
        <time>2013-09-12T12:11:11.000Z</time>
      </trkpt>
      <trkpt lat="43.16365" lon="6.46576">
        <ele>74</ele>
        <time>2013-09-12T12:11:13.000Z</time>
      </trkpt>
      <trkpt lat="43.16368" lon="6.46576">
        <ele>75</ele>
        <time>2013-09-12T12:11:15.000Z</time>
      </trkpt>
      <trkpt lat="43.1637" lon="6.46577">
        <ele>75</ele>
        <time>2013-09-12T12:11:16.000Z</time>
      </trkpt>
      <trkpt lat="43.16372" lon="6.46577">
        <ele>75</ele>
        <time>2013-09-12T12:11:17.000Z</time>
      </trkpt>
      <trkpt lat="43.16374" lon="6.46578">
        <ele>75</ele>
        <time>2013-09-12T12:11:18.000Z</time>
      </trkpt>
      <trkpt lat="43.16376" lon="6.46579">
        <ele>75</ele>
        <time>2013-09-12T12:11:19.000Z</time>
      </trkpt>
      <trkpt lat="43.16378" lon="6.4658">
        <ele>75</ele>
        <time>2013-09-12T12:11:20.000Z</time>
      </trkpt>
      <trkpt lat="43.16379" lon="6.46581">
        <ele>76</ele>
        <time>2013-09-12T12:11:21.000Z</time>
      </trkpt>
      <trkpt lat="43.16381" lon="6.46582">
        <ele>76</ele>
        <time>2013-09-12T12:11:22.000Z</time>
      </trkpt>
      <trkpt lat="43.16383" lon="6.46583">
        <ele>76</ele>
        <time>2013-09-12T12:11:23.000Z</time>
      </trkpt>
      <trkpt lat="43.16385" lon="6.46584">
        <ele>71</ele>
        <time>2013-09-12T12:11:24.000Z</time>
      </trkpt>
      <trkpt lat="43.16387" lon="6.46585">
        <ele>71</ele>
        <time>2013-09-12T12:11:25.000Z</time>
      </trkpt>
      <trkpt lat="43.16388" lon="6.46586">
        <ele>72</ele>
        <time>2013-09-12T12:11:26.000Z</time>
      </trkpt>
      <trkpt lat="43.1639" lon="6.46587">
        <ele>72</ele>
        <time>2013-09-12T12:11:27.000Z</time>
      </trkpt>
      <trkpt lat="43.16392" lon="6.46588">
        <ele>72</ele>
        <time>2013-09-12T12:11:28.000Z</time>
      </trkpt>
      <trkpt lat="43.16394" lon="6.46589">
        <ele>72</ele>
        <time>2013-09-12T12:11:29.000Z</time>
      </trkpt>
      <trkpt lat="43.16396" lon="6.4659">
        <ele>73</ele>
        <time>2013-09-12T12:11:30.000Z</time>
      </trkpt>
      <trkpt lat="43.16397" lon="6.46591">
        <ele>73</ele>
        <time>2013-09-12T12:11:31.000Z</time>
      </trkpt>
      <trkpt lat="43.16399" lon="6.46593">
        <ele>73</ele>
        <time>2013-09-12T12:11:32.000Z</time>
      </trkpt>
      <trkpt lat="43.16401" lon="6.46594">
        <ele>73</ele>
        <time>2013-09-12T12:11:33.000Z</time>
      </trkpt>
      <trkpt lat="43.16403" lon="6.46595">
        <ele>73</ele>
        <time>2013-09-12T12:11:34.000Z</time>
      </trkpt>
      <trkpt lat="43.16405" lon="6.46597">
        <ele>74</ele>
        <time>2013-09-12T12:11:35.000Z</time>
      </trkpt>
      <trkpt lat="43.16406" lon="6.46598">
        <ele>74</ele>
        <time>2013-09-12T12:11:36.000Z</time>
      </trkpt>
      <trkpt lat="43.16408" lon="6.46599">
        <ele>74</ele>
        <time>2013-09-12T12:11:37.000Z</time>
      </trkpt>
      <trkpt lat="43.1641" lon="6.466">
        <ele>74</ele>
        <time>2013-09-12T12:11:38.000Z</time>
      </trkpt>
      <trkpt lat="43.16412" lon="6.46601">
        <ele>74</ele>
        <time>2013-09-12T12:11:39.000Z</time>
      </trkpt>
      <trkpt lat="43.16413" lon="6.46601">
        <ele>73</ele>
        <time>2013-09-12T12:11:40.000Z</time>
      </trkpt>
      <trkpt lat="43.16415" lon="6.46602">
        <ele>73</ele>
        <time>2013-09-12T12:11:41.000Z</time>
      </trkpt>
      <trkpt lat="43.16418" lon="6.46603">
        <ele>79</ele>
        <time>2013-09-12T12:11:42.000Z</time>
      </trkpt>
      <trkpt lat="43.1642" lon="6.46603">
        <ele>79</ele>
        <time>2013-09-12T12:11:43.000Z</time>
      </trkpt>
      <trkpt lat="43.16422" lon="6.46603">
        <ele>79</ele>
        <time>2013-09-12T12:11:44.000Z</time>
      </trkpt>
      <trkpt lat="43.16424" lon="6.46603">
        <ele>79</ele>
        <time>2013-09-12T12:11:45.000Z</time>
      </trkpt>
      <trkpt lat="43.16426" lon="6.46603">
        <ele>79</ele>
        <time>2013-09-12T12:11:46.000Z</time>
      </trkpt>
      <trkpt lat="43.16428" lon="6.46603">
        <ele>80</ele>
        <time>2013-09-12T12:11:47.000Z</time>
      </trkpt>
      <trkpt lat="43.1643" lon="6.46602">
        <ele>80</ele>
        <time>2013-09-12T12:11:48.000Z</time>
      </trkpt>
      <trkpt lat="43.16432" lon="6.46602">
        <ele>80</ele>
        <time>2013-09-12T12:11:49.000Z</time>
      </trkpt>
      <trkpt lat="43.16434" lon="6.46601">
        <ele>80</ele>
        <time>2013-09-12T12:11:50.000Z</time>
      </trkpt>
      <trkpt lat="43.16436" lon="6.46601">
        <ele>80</ele>
        <time>2013-09-12T12:11:51.000Z</time>
      </trkpt>
      <trkpt lat="43.1644" lon="6.466">
        <ele>80</ele>
        <time>2013-09-12T12:11:53.000Z</time>
      </trkpt>
      <trkpt lat="43.16442" lon="6.466">
        <ele>80</ele>
        <time>2013-09-12T12:11:54.000Z</time>
      </trkpt>
      <trkpt lat="43.16445" lon="6.466">
        <ele>80</ele>
        <time>2013-09-12T12:11:56.000Z</time>
      </trkpt>
      <trkpt lat="43.16447" lon="6.466">
        <ele>80</ele>
        <time>2013-09-12T12:11:57.000Z</time>
      </trkpt>
      <trkpt lat="43.16449" lon="6.466">
        <ele>80</ele>
        <time>2013-09-12T12:11:58.000Z</time>
      </trkpt>
      <trkpt lat="43.16451" lon="6.46601">
        <ele>81</ele>
        <time>2013-09-12T12:11:59.000Z</time>
      </trkpt>
      <trkpt lat="43.16452" lon="6.46601">
        <ele>81</ele>
        <time>2013-09-12T12:12:00.000Z</time>
      </trkpt>
      <trkpt lat="43.16454" lon="6.46602">
        <ele>81</ele>
        <time>2013-09-12T12:12:01.000Z</time>
      </trkpt>
      <trkpt lat="43.16456" lon="6.46603">
        <ele>81</ele>
        <time>2013-09-12T12:12:02.000Z</time>
      </trkpt>
      <trkpt lat="43.16458" lon="6.46604">
        <ele>81</ele>
        <time>2013-09-12T12:12:03.000Z</time>
      </trkpt>
      <trkpt lat="43.1646" lon="6.46604">
        <ele>81</ele>
        <time>2013-09-12T12:12:04.000Z</time>
      </trkpt>
      <trkpt lat="43.16462" lon="6.46605">
        <ele>81</ele>
        <time>2013-09-12T12:12:05.000Z</time>
      </trkpt>
      <trkpt lat="43.16465" lon="6.46605">
        <ele>82</ele>
        <time>2013-09-12T12:12:07.000Z</time>
      </trkpt>
      <trkpt lat="43.16467" lon="6.46605">
        <ele>82</ele>
        <time>2013-09-12T12:12:08.000Z</time>
      </trkpt>
      <trkpt lat="43.16469" lon="6.46604">
        <ele>82</ele>
        <time>2013-09-12T12:12:09.000Z</time>
      </trkpt>
      <trkpt lat="43.16471" lon="6.46603">
        <ele>82</ele>
        <time>2013-09-12T12:12:10.000Z</time>
      </trkpt>
      <trkpt lat="43.16472" lon="6.46603">
        <ele>83</ele>
        <time>2013-09-12T12:12:11.000Z</time>
      </trkpt>
      <trkpt lat="43.16474" lon="6.46602">
        <ele>83</ele>
        <time>2013-09-12T12:12:12.000Z</time>
      </trkpt>
      <trkpt lat="43.16476" lon="6.46601">
        <ele>83</ele>
        <time>2013-09-12T12:12:13.000Z</time>
      </trkpt>
      <trkpt lat="43.16478" lon="6.46601">
        <ele>83</ele>
        <time>2013-09-12T12:12:14.000Z</time>
      </trkpt>
      <trkpt lat="43.1648" lon="6.466">
        <ele>84</ele>
        <time>2013-09-12T12:12:15.000Z</time>
      </trkpt>
      <trkpt lat="43.16482" lon="6.46599">
        <ele>84</ele>
        <time>2013-09-12T12:12:16.000Z</time>
      </trkpt>
      <trkpt lat="43.16484" lon="6.46599">
        <ele>84</ele>
        <time>2013-09-12T12:12:17.000Z</time>
      </trkpt>
      <trkpt lat="43.16486" lon="6.46598">
        <ele>85</ele>
        <time>2013-09-12T12:12:18.000Z</time>
      </trkpt>
      <trkpt lat="43.16488" lon="6.46598">
        <ele>85</ele>
        <time>2013-09-12T12:12:19.000Z</time>
      </trkpt>
      <trkpt lat="43.1649" lon="6.46598">
        <ele>85</ele>
        <time>2013-09-12T12:12:20.000Z</time>
      </trkpt>
      <trkpt lat="43.16492" lon="6.46597">
        <ele>86</ele>
        <time>2013-09-12T12:12:21.000Z</time>
      </trkpt>
      <trkpt lat="43.16494" lon="6.46597">
        <ele>86</ele>
        <time>2013-09-12T12:12:22.000Z</time>
      </trkpt>
      <trkpt lat="43.16498" lon="6.46596">
        <ele>87</ele>
        <time>2013-09-12T12:12:24.000Z</time>
      </trkpt>
      <trkpt lat="43.16499" lon="6.46596">
        <ele>87</ele>
        <time>2013-09-12T12:12:25.000Z</time>
      </trkpt>
      <trkpt lat="43.16501" lon="6.46595">
        <ele>94</ele>
        <time>2013-09-12T12:12:26.000Z</time>
      </trkpt>
      <trkpt lat="43.16503" lon="6.46594">
        <ele>94</ele>
        <time>2013-09-12T12:12:27.000Z</time>
      </trkpt>
      <trkpt lat="43.16505" lon="6.46594">
        <ele>94</ele>
        <time>2013-09-12T12:12:28.000Z</time>
      </trkpt>
      <trkpt lat="43.16507" lon="6.46593">
        <ele>94</ele>
        <time>2013-09-12T12:12:29.000Z</time>
      </trkpt>
      <trkpt lat="43.16509" lon="6.46592">
        <ele>94</ele>
        <time>2013-09-12T12:12:30.000Z</time>
      </trkpt>
      <trkpt lat="43.16511" lon="6.46591">
        <ele>94</ele>
        <time>2013-09-12T12:12:31.000Z</time>
      </trkpt>
      <trkpt lat="43.16513" lon="6.4659">
        <ele>95</ele>
        <time>2013-09-12T12:12:32.000Z</time>
      </trkpt>
      <trkpt lat="43.16515" lon="6.46589">
        <ele>95</ele>
        <time>2013-09-12T12:12:33.000Z</time>
      </trkpt>
      <trkpt lat="43.16517" lon="6.46588">
        <ele>95</ele>
        <time>2013-09-12T12:12:34.000Z</time>
      </trkpt>
      <trkpt lat="43.16518" lon="6.46587">
        <ele>96</ele>
        <time>2013-09-12T12:12:35.000Z</time>
      </trkpt>
      <trkpt lat="43.1652" lon="6.46586">
        <ele>96</ele>
        <time>2013-09-12T12:12:36.000Z</time>
      </trkpt>
      <trkpt lat="43.16522" lon="6.46585">
        <ele>96</ele>
        <time>2013-09-12T12:12:37.000Z</time>
      </trkpt>
      <trkpt lat="43.16524" lon="6.46584">
        <ele>97</ele>
        <time>2013-09-12T12:12:38.000Z</time>
      </trkpt>
      <trkpt lat="43.16526" lon="6.46583">
        <ele>101</ele>
        <time>2013-09-12T12:12:39.000Z</time>
      </trkpt>
      <trkpt lat="43.16528" lon="6.46583">
        <ele>102</ele>
        <time>2013-09-12T12:12:40.000Z</time>
      </trkpt>
      <trkpt lat="43.16529" lon="6.46583">
        <ele>102</ele>
        <time>2013-09-12T12:12:41.000Z</time>
      </trkpt>
      <trkpt lat="43.16533" lon="6.46583">
        <ele>103</ele>
        <time>2013-09-12T12:12:43.000Z</time>
      </trkpt>
      <trkpt lat="43.16535" lon="6.46584">
        <ele>99</ele>
        <time>2013-09-12T12:12:44.000Z</time>
      </trkpt>
      <trkpt lat="43.16537" lon="6.46585">
        <ele>99</ele>
        <time>2013-09-12T12:12:45.000Z</time>
      </trkpt>
      <trkpt lat="43.16539" lon="6.46586">
        <ele>100</ele>
        <time>2013-09-12T12:12:46.000Z</time>
      </trkpt>
      <trkpt lat="43.16541" lon="6.46587">
        <ele>100</ele>
        <time>2013-09-12T12:12:47.000Z</time>
      </trkpt>
      <trkpt lat="43.16542" lon="6.46589">
        <ele>100</ele>
        <time>2013-09-12T12:12:48.000Z</time>
      </trkpt>
      <trkpt lat="43.16544" lon="6.46591">
        <ele>100</ele>
        <time>2013-09-12T12:12:49.000Z</time>
      </trkpt>
      <trkpt lat="43.16545" lon="6.46593">
        <ele>101</ele>
        <time>2013-09-12T12:12:50.000Z</time>
      </trkpt>
      <trkpt lat="43.16547" lon="6.46595">
        <ele>101</ele>
        <time>2013-09-12T12:12:51.000Z</time>
      </trkpt>
      <trkpt lat="43.16548" lon="6.46597">
        <ele>101</ele>
        <time>2013-09-12T12:12:52.000Z</time>
      </trkpt>
      <trkpt lat="43.16548" lon="6.46599">
        <ele>101</ele>
        <time>2013-09-12T12:12:53.000Z</time>
      </trkpt>
      <trkpt lat="43.16549" lon="6.46602">
        <ele>101</ele>
        <time>2013-09-12T12:12:54.000Z</time>
      </trkpt>
      <trkpt lat="43.16548" lon="6.46606">
        <ele>101</ele>
        <time>2013-09-12T12:12:56.000Z</time>
      </trkpt>
      <trkpt lat="43.16548" lon="6.46608">
        <ele>101</ele>
        <time>2013-09-12T12:12:57.000Z</time>
      </trkpt>
      <trkpt lat="43.16547" lon="6.4661">
        <ele>100</ele>
        <time>2013-09-12T12:12:58.000Z</time>
      </trkpt>
      <trkpt lat="43.16546" lon="6.46612">
        <ele>100</ele>
        <time>2013-09-12T12:12:59.000Z</time>
      </trkpt>
      <trkpt lat="43.16545" lon="6.46614">
        <ele>100</ele>
        <time>2013-09-12T12:13:00.000Z</time>
      </trkpt>
      <trkpt lat="43.16544" lon="6.46616">
        <ele>100</ele>
        <time>2013-09-12T12:13:01.000Z</time>
      </trkpt>
      <trkpt lat="43.16544" lon="6.46618">
        <ele>100</ele>
        <time>2013-09-12T12:13:02.000Z</time>
      </trkpt>
      <trkpt lat="43.16543" lon="6.4662">
        <ele>99</ele>
        <time>2013-09-12T12:13:03.000Z</time>
      </trkpt>
      <trkpt lat="43.16543" lon="6.46622">
        <ele>99</ele>
        <time>2013-09-12T12:13:04.000Z</time>
      </trkpt>
      <trkpt lat="43.16542" lon="6.46623">
        <ele>99</ele>
        <time>2013-09-12T12:13:05.000Z</time>
      </trkpt>
      <trkpt lat="43.16541" lon="6.46625">
        <ele>99</ele>
        <time>2013-09-12T12:13:06.000Z</time>
      </trkpt>
      <trkpt lat="43.1654" lon="6.46627">
        <ele>99</ele>
        <time>2013-09-12T12:13:07.000Z</time>
      </trkpt>
      <trkpt lat="43.16539" lon="6.46629">
        <ele>99</ele>
        <time>2013-09-12T12:13:08.000Z</time>
      </trkpt>
      <trkpt lat="43.16538" lon="6.46631">
        <ele>98</ele>
        <time>2013-09-12T12:13:09.000Z</time>
      </trkpt>
      <trkpt lat="43.16537" lon="6.46633">
        <ele>98</ele>
        <time>2013-09-12T12:13:10.000Z</time>
      </trkpt>
      <trkpt lat="43.16537" lon="6.46634">
        <ele>98</ele>
        <time>2013-09-12T12:13:11.000Z</time>
      </trkpt>
      <trkpt lat="43.16536" lon="6.46636">
        <ele>98</ele>
        <time>2013-09-12T12:13:12.000Z</time>
      </trkpt>
      <trkpt lat="43.16535" lon="6.46638">
        <ele>97</ele>
        <time>2013-09-12T12:13:13.000Z</time>
      </trkpt>
      <trkpt lat="43.16534" lon="6.4664">
        <ele>97</ele>
        <time>2013-09-12T12:13:14.000Z</time>
      </trkpt>
      <trkpt lat="43.16533" lon="6.46642">
        <ele>97</ele>
        <time>2013-09-12T12:13:15.000Z</time>
      </trkpt>
      <trkpt lat="43.16532" lon="6.46643">
        <ele>97</ele>
        <time>2013-09-12T12:13:16.000Z</time>
      </trkpt>
      <trkpt lat="43.16531" lon="6.46645">
        <ele>96</ele>
        <time>2013-09-12T12:13:17.000Z</time>
      </trkpt>
      <trkpt lat="43.1653" lon="6.46647">
        <ele>96</ele>
        <time>2013-09-12T12:13:18.000Z</time>
      </trkpt>
      <trkpt lat="43.1653" lon="6.46649">
        <ele>96</ele>
        <time>2013-09-12T12:13:19.000Z</time>
      </trkpt>
      <trkpt lat="43.16529" lon="6.46651">
        <ele>95</ele>
        <time>2013-09-12T12:13:20.000Z</time>
      </trkpt>
      <trkpt lat="43.16528" lon="6.46653">
        <ele>95</ele>
        <time>2013-09-12T12:13:21.000Z</time>
      </trkpt>
      <trkpt lat="43.16527" lon="6.46655">
        <ele>95</ele>
        <time>2013-09-12T12:13:22.000Z</time>
      </trkpt>
      <trkpt lat="43.16526" lon="6.46656">
        <ele>94</ele>
        <time>2013-09-12T12:13:23.000Z</time>
      </trkpt>
      <trkpt lat="43.16525" lon="6.46658">
        <ele>94</ele>
        <time>2013-09-12T12:13:24.000Z</time>
      </trkpt>
      <trkpt lat="43.16525" lon="6.4666">
        <ele>94</ele>
        <time>2013-09-12T12:13:25.000Z</time>
      </trkpt>
      <trkpt lat="43.16524" lon="6.46662">
        <ele>93</ele>
        <time>2013-09-12T12:13:26.000Z</time>
      </trkpt>
      <trkpt lat="43.16524" lon="6.46664">
        <ele>93</ele>
        <time>2013-09-12T12:13:27.000Z</time>
      </trkpt>
      <trkpt lat="43.16523" lon="6.46666">
        <ele>93</ele>
        <time>2013-09-12T12:13:28.000Z</time>
      </trkpt>
      <trkpt lat="43.16523" lon="6.46668">
        <ele>92</ele>
        <time>2013-09-12T12:13:29.000Z</time>
      </trkpt>
      <trkpt lat="43.16523" lon="6.46671">
        <ele>92</ele>
        <time>2013-09-12T12:13:30.000Z</time>
      </trkpt>
      <trkpt lat="43.16523" lon="6.46673">
        <ele>92</ele>
        <time>2013-09-12T12:13:31.000Z</time>
      </trkpt>
      <trkpt lat="43.16523" lon="6.46677">
        <ele>93</ele>
        <time>2013-09-12T12:13:33.000Z</time>
      </trkpt>
      <trkpt lat="43.16523" lon="6.46679">
        <ele>93</ele>
        <time>2013-09-12T12:13:34.000Z</time>
      </trkpt>
      <trkpt lat="43.16524" lon="6.46682">
        <ele>93</ele>
        <time>2013-09-12T12:13:35.000Z</time>
      </trkpt>
      <trkpt lat="43.16524" lon="6.46684">
        <ele>93</ele>
        <time>2013-09-12T12:13:36.000Z</time>
      </trkpt>
      <trkpt lat="43.16525" lon="6.46686">
        <ele>94</ele>
        <time>2013-09-12T12:13:37.000Z</time>
      </trkpt>
      <trkpt lat="43.16526" lon="6.46688">
        <ele>94</ele>
        <time>2013-09-12T12:13:38.000Z</time>
      </trkpt>
      <trkpt lat="43.16526" lon="6.4669">
        <ele>94</ele>
        <time>2013-09-12T12:13:39.000Z</time>
      </trkpt>
      <trkpt lat="43.16527" lon="6.46692">
        <ele>95</ele>
        <time>2013-09-12T12:13:40.000Z</time>
      </trkpt>
      <trkpt lat="43.16528" lon="6.46694">
        <ele>95</ele>
        <time>2013-09-12T12:13:41.000Z</time>
      </trkpt>
      <trkpt lat="43.16529" lon="6.46696">
        <ele>95</ele>
        <time>2013-09-12T12:13:42.000Z</time>
      </trkpt>
      <trkpt lat="43.16529" lon="6.46698">
        <ele>95</ele>
        <time>2013-09-12T12:13:43.000Z</time>
      </trkpt>
      <trkpt lat="43.1653" lon="6.467">
        <ele>95</ele>
        <time>2013-09-12T12:13:44.000Z</time>
      </trkpt>
      <trkpt lat="43.16531" lon="6.46702">
        <ele>96</ele>
        <time>2013-09-12T12:13:45.000Z</time>
      </trkpt>
      <trkpt lat="43.16532" lon="6.46704">
        <ele>96</ele>
        <time>2013-09-12T12:13:46.000Z</time>
      </trkpt>
      <trkpt lat="43.16533" lon="6.46706">
        <ele>96</ele>
        <time>2013-09-12T12:13:47.000Z</time>
      </trkpt>
      <trkpt lat="43.16533" lon="6.46707">
        <ele>96</ele>
        <time>2013-09-12T12:13:48.000Z</time>
      </trkpt>
      <trkpt lat="43.16534" lon="6.46709">
        <ele>96</ele>
        <time>2013-09-12T12:13:49.000Z</time>
      </trkpt>
      <trkpt lat="43.16535" lon="6.46711">
        <ele>96</ele>
        <time>2013-09-12T12:13:50.000Z</time>
      </trkpt>
      <trkpt lat="43.16537" lon="6.46713">
        <ele>97</ele>
        <time>2013-09-12T12:13:51.000Z</time>
      </trkpt>
      <trkpt lat="43.16538" lon="6.46714">
        <ele>97</ele>
        <time>2013-09-12T12:13:52.000Z</time>
      </trkpt>
      <trkpt lat="43.16539" lon="6.46716">
        <ele>97</ele>
        <time>2013-09-12T12:13:53.000Z</time>
      </trkpt>
      <trkpt lat="43.1654" lon="6.46718">
        <ele>97</ele>
        <time>2013-09-12T12:13:54.000Z</time>
      </trkpt>
      <trkpt lat="43.16541" lon="6.4672">
        <ele>97</ele>
        <time>2013-09-12T12:13:55.000Z</time>
      </trkpt>
      <trkpt lat="43.16542" lon="6.46722">
        <ele>98</ele>
        <time>2013-09-12T12:13:56.000Z</time>
      </trkpt>
      <trkpt lat="43.16543" lon="6.46724">
        <ele>98</ele>
        <time>2013-09-12T12:13:57.000Z</time>
      </trkpt>
      <trkpt lat="43.16545" lon="6.46726">
        <ele>98</ele>
        <time>2013-09-12T12:13:58.000Z</time>
      </trkpt>
      <trkpt lat="43.16546" lon="6.46727">
        <ele>98</ele>
        <time>2013-09-12T12:13:59.000Z</time>
      </trkpt>
      <trkpt lat="43.16547" lon="6.46729">
        <ele>98</ele>
        <time>2013-09-12T12:14:00.000Z</time>
      </trkpt>
      <trkpt lat="43.16548" lon="6.4673">
        <ele>98</ele>
        <time>2013-09-12T12:14:01.000Z</time>
      </trkpt>
      <trkpt lat="43.16549" lon="6.46732">
        <ele>99</ele>
        <time>2013-09-12T12:14:02.000Z</time>
      </trkpt>
      <trkpt lat="43.1655" lon="6.46733">
        <ele>99</ele>
        <time>2013-09-12T12:14:03.000Z</time>
      </trkpt>
      <trkpt lat="43.16551" lon="6.46735">
        <ele>99</ele>
        <time>2013-09-12T12:14:04.000Z</time>
      </trkpt>
      <trkpt lat="43.16552" lon="6.46736">
        <ele>99</ele>
        <time>2013-09-12T12:14:05.000Z</time>
      </trkpt>
      <trkpt lat="43.16554" lon="6.46738">
        <ele>100</ele>
        <time>2013-09-12T12:14:06.000Z</time>
      </trkpt>
      <trkpt lat="43.16555" lon="6.46739">
        <ele>100</ele>
        <time>2013-09-12T12:14:07.000Z</time>
      </trkpt>
      <trkpt lat="43.16556" lon="6.46741">
        <ele>100</ele>
        <time>2013-09-12T12:14:08.000Z</time>
      </trkpt>
      <trkpt lat="43.16557" lon="6.46742">
        <ele>100</ele>
        <time>2013-09-12T12:14:09.000Z</time>
      </trkpt>
      <trkpt lat="43.16559" lon="6.46743">
        <ele>101</ele>
        <time>2013-09-12T12:14:10.000Z</time>
      </trkpt>
      <trkpt lat="43.1656" lon="6.46745">
        <ele>101</ele>
        <time>2013-09-12T12:14:11.000Z</time>
      </trkpt>
      <trkpt lat="43.16562" lon="6.46746">
        <ele>101</ele>
        <time>2013-09-12T12:14:12.000Z</time>
      </trkpt>
      <trkpt lat="43.16563" lon="6.46747">
        <ele>102</ele>
        <time>2013-09-12T12:14:13.000Z</time>
      </trkpt>
      <trkpt lat="43.16565" lon="6.46748">
        <ele>102</ele>
        <time>2013-09-12T12:14:14.000Z</time>
      </trkpt>
      <trkpt lat="43.16566" lon="6.46749">
        <ele>103</ele>
        <time>2013-09-12T12:14:15.000Z</time>
      </trkpt>
      <trkpt lat="43.16567" lon="6.4675">
        <ele>105</ele>
        <time>2013-09-12T12:14:16.000Z</time>
      </trkpt>
      <trkpt lat="43.16569" lon="6.46751">
        <ele>105</ele>
        <time>2013-09-12T12:14:17.000Z</time>
      </trkpt>
      <trkpt lat="43.16571" lon="6.46752">
        <ele>106</ele>
        <time>2013-09-12T12:14:18.000Z</time>
      </trkpt>
      <trkpt lat="43.16572" lon="6.46753">
        <ele>106</ele>
        <time>2013-09-12T12:14:19.000Z</time>
      </trkpt>
      <trkpt lat="43.16574" lon="6.46754">
        <ele>106</ele>
        <time>2013-09-12T12:14:20.000Z</time>
      </trkpt>
      <trkpt lat="43.16575" lon="6.46755">
        <ele>106</ele>
        <time>2013-09-12T12:14:21.000Z</time>
      </trkpt>
      <trkpt lat="43.16577" lon="6.46756">
        <ele>106</ele>
        <time>2013-09-12T12:14:22.000Z</time>
      </trkpt>
      <trkpt lat="43.16578" lon="6.46757">
        <ele>106</ele>
        <time>2013-09-12T12:14:23.000Z</time>
      </trkpt>
      <trkpt lat="43.1658" lon="6.46758">
        <ele>107</ele>
        <time>2013-09-12T12:14:24.000Z</time>
      </trkpt>
      <trkpt lat="43.16582" lon="6.46759">
        <ele>106</ele>
        <time>2013-09-12T12:14:25.000Z</time>
      </trkpt>
      <trkpt lat="43.16583" lon="6.4676">
        <ele>106</ele>
        <time>2013-09-12T12:14:26.000Z</time>
      </trkpt>
      <trkpt lat="43.16585" lon="6.46761">
        <ele>113</ele>
        <time>2013-09-12T12:14:27.000Z</time>
      </trkpt>
      <trkpt lat="43.16587" lon="6.46762">
        <ele>113</ele>
        <time>2013-09-12T12:14:28.000Z</time>
      </trkpt>
      <trkpt lat="43.16588" lon="6.46763">
        <ele>114</ele>
        <time>2013-09-12T12:14:29.000Z</time>
      </trkpt>
      <trkpt lat="43.1659" lon="6.46765">
        <ele>114</ele>
        <time>2013-09-12T12:14:30.000Z</time>
      </trkpt>
      <trkpt lat="43.16591" lon="6.46767">
        <ele>115</ele>
        <time>2013-09-12T12:14:31.000Z</time>
      </trkpt>
      <trkpt lat="43.16592" lon="6.46769">
        <ele>116</ele>
        <time>2013-09-12T12:14:32.000Z</time>
      </trkpt>
      <trkpt lat="43.16593" lon="6.46771">
        <ele>116</ele>
        <time>2013-09-12T12:14:33.000Z</time>
      </trkpt>
      <trkpt lat="43.16593" lon="6.46774">
        <ele>117</ele>
        <time>2013-09-12T12:14:34.000Z</time>
      </trkpt>
      <trkpt lat="43.16593" lon="6.46776">
        <ele>117</ele>
        <time>2013-09-12T12:14:35.000Z</time>
      </trkpt>
      <trkpt lat="43.16593" lon="6.46781">
        <ele>117</ele>
        <time>2013-09-12T12:14:37.000Z</time>
      </trkpt>
      <trkpt lat="43.16593" lon="6.46784">
        <ele>118</ele>
        <time>2013-09-12T12:14:38.000Z</time>
      </trkpt>
      <trkpt lat="43.16592" lon="6.46786">
        <ele>118</ele>
        <time>2013-09-12T12:14:39.000Z</time>
      </trkpt>
      <trkpt lat="43.16591" lon="6.46788">
        <ele>118</ele>
        <time>2013-09-12T12:14:40.000Z</time>
      </trkpt>
      <trkpt lat="43.1659" lon="6.4679">
        <ele>118</ele>
        <time>2013-09-12T12:14:41.000Z</time>
      </trkpt>
      <trkpt lat="43.16588" lon="6.46791">
        <ele>118</ele>
        <time>2013-09-12T12:14:42.000Z</time>
      </trkpt>
      <trkpt lat="43.16587" lon="6.46793">
        <ele>118</ele>
        <time>2013-09-12T12:14:43.000Z</time>
      </trkpt>
      <trkpt lat="43.16585" lon="6.46794">
        <ele>118</ele>
        <time>2013-09-12T12:14:44.000Z</time>
      </trkpt>
      <trkpt lat="43.16583" lon="6.46796">
        <ele>106</ele>
        <time>2013-09-12T12:14:45.000Z</time>
      </trkpt>
      <trkpt lat="43.16582" lon="6.46797">
        <ele>106</ele>
        <time>2013-09-12T12:14:46.000Z</time>
      </trkpt>
      <trkpt lat="43.1658" lon="6.46798">
        <ele>106</ele>
        <time>2013-09-12T12:14:47.000Z</time>
      </trkpt>
      <trkpt lat="43.16579" lon="6.468">
        <ele>106</ele>
        <time>2013-09-12T12:14:48.000Z</time>
      </trkpt>
      <trkpt lat="43.16577" lon="6.46801">
        <ele>106</ele>
        <time>2013-09-12T12:14:49.000Z</time>
      </trkpt>
      <trkpt lat="43.16576" lon="6.46802">
        <ele>106</ele>
        <time>2013-09-12T12:14:50.000Z</time>
      </trkpt>
      <trkpt lat="43.16575" lon="6.46803">
        <ele>106</ele>
        <time>2013-09-12T12:14:51.000Z</time>
      </trkpt>
      <trkpt lat="43.16573" lon="6.46803">
        <ele>106</ele>
        <time>2013-09-12T12:14:52.000Z</time>
      </trkpt>
      <trkpt lat="43.16572" lon="6.46805">
        <ele>106</ele>
        <time>2013-09-12T12:14:53.000Z</time>
      </trkpt>
      <trkpt lat="43.16571" lon="6.46806">
        <ele>106</ele>
        <time>2013-09-12T12:14:54.000Z</time>
      </trkpt>
      <trkpt lat="43.1657" lon="6.46807">
        <ele>106</ele>
        <time>2013-09-12T12:14:55.000Z</time>
      </trkpt>
      <trkpt lat="43.16568" lon="6.46808">
        <ele>106</ele>
        <time>2013-09-12T12:14:56.000Z</time>
      </trkpt>
      <trkpt lat="43.16567" lon="6.46809">
        <ele>106</ele>
        <time>2013-09-12T12:14:57.000Z</time>
      </trkpt>
      <trkpt lat="43.16565" lon="6.4681">
        <ele>106</ele>
        <time>2013-09-12T12:14:58.000Z</time>
      </trkpt>
      <trkpt lat="43.16563" lon="6.4681">
        <ele>106</ele>
        <time>2013-09-12T12:14:59.000Z</time>
      </trkpt>
      <trkpt lat="43.16561" lon="6.46811">
        <ele>106</ele>
        <time>2013-09-12T12:15:00.000Z</time>
      </trkpt>
      <trkpt lat="43.1656" lon="6.46812">
        <ele>106</ele>
        <time>2013-09-12T12:15:01.000Z</time>
      </trkpt>
      <trkpt lat="43.16558" lon="6.46812">
        <ele>106</ele>
        <time>2013-09-12T12:15:02.000Z</time>
      </trkpt>
      <trkpt lat="43.16557" lon="6.46813">
        <ele>106</ele>
        <time>2013-09-12T12:15:03.000Z</time>
      </trkpt>
      <trkpt lat="43.16555" lon="6.46814">
        <ele>105</ele>
        <time>2013-09-12T12:15:04.000Z</time>
      </trkpt>
      <trkpt lat="43.16554" lon="6.46815">
        <ele>105</ele>
        <time>2013-09-12T12:15:05.000Z</time>
      </trkpt>
      <trkpt lat="43.16552" lon="6.46815">
        <ele>105</ele>
        <time>2013-09-12T12:15:06.000Z</time>
      </trkpt>
      <trkpt lat="43.16551" lon="6.46816">
        <ele>105</ele>
        <time>2013-09-12T12:15:07.000Z</time>
      </trkpt>
      <trkpt lat="43.16549" lon="6.46817">
        <ele>105</ele>
        <time>2013-09-12T12:15:08.000Z</time>
      </trkpt>
      <trkpt lat="43.16548" lon="6.46817">
        <ele>105</ele>
        <time>2013-09-12T12:15:09.000Z</time>
      </trkpt>
      <trkpt lat="43.16546" lon="6.46819">
        <ele>105</ele>
        <time>2013-09-12T12:15:10.000Z</time>
      </trkpt>
      <trkpt lat="43.16545" lon="6.46819">
        <ele>104</ele>
        <time>2013-09-12T12:15:11.000Z</time>
      </trkpt>
      <trkpt lat="43.16544" lon="6.4682">
        <ele>104</ele>
        <time>2013-09-12T12:15:12.000Z</time>
      </trkpt>
      <trkpt lat="43.16542" lon="6.46822">
        <ele>104</ele>
        <time>2013-09-12T12:15:13.000Z</time>
      </trkpt>
      <trkpt lat="43.1654" lon="6.46823">
        <ele>104</ele>
        <time>2013-09-12T12:15:14.000Z</time>
      </trkpt>
      <trkpt lat="43.16539" lon="6.46823">
        <ele>104</ele>
        <time>2013-09-12T12:15:15.000Z</time>
      </trkpt>
      <trkpt lat="43.16538" lon="6.46825">
        <ele>104</ele>
        <time>2013-09-12T12:15:16.000Z</time>
      </trkpt>
      <trkpt lat="43.16536" lon="6.46826">
        <ele>104</ele>
        <time>2013-09-12T12:15:17.000Z</time>
      </trkpt>
      <trkpt lat="43.16535" lon="6.46828">
        <ele>103</ele>
        <time>2013-09-12T12:15:18.000Z</time>
      </trkpt>
      <trkpt lat="43.16533" lon="6.4683">
        <ele>103</ele>
        <time>2013-09-12T12:15:19.000Z</time>
      </trkpt>
      <trkpt lat="43.16531" lon="6.46832">
        <ele>103</ele>
        <time>2013-09-12T12:15:20.000Z</time>
      </trkpt>
      <trkpt lat="43.1653" lon="6.46834">
        <ele>108</ele>
        <time>2013-09-12T12:15:21.000Z</time>
      </trkpt>
      <trkpt lat="43.16529" lon="6.46836">
        <ele>108</ele>
        <time>2013-09-12T12:15:22.000Z</time>
      </trkpt>
      <trkpt lat="43.16528" lon="6.46839">
        <ele>107</ele>
        <time>2013-09-12T12:15:23.000Z</time>
      </trkpt>
      <trkpt lat="43.16526" lon="6.46841">
        <ele>107</ele>
        <time>2013-09-12T12:15:24.000Z</time>
      </trkpt>
      <trkpt lat="43.16525" lon="6.46843">
        <ele>107</ele>
        <time>2013-09-12T12:15:25.000Z</time>
      </trkpt>
      <trkpt lat="43.16525" lon="6.46845">
        <ele>107</ele>
        <time>2013-09-12T12:15:26.000Z</time>
      </trkpt>
      <trkpt lat="43.16524" lon="6.46847">
        <ele>107</ele>
        <time>2013-09-12T12:15:27.000Z</time>
      </trkpt>
      <trkpt lat="43.16523" lon="6.46849">
        <ele>107</ele>
        <time>2013-09-12T12:15:28.000Z</time>
      </trkpt>
      <trkpt lat="43.16523" lon="6.46851">
        <ele>107</ele>
        <time>2013-09-12T12:15:29.000Z</time>
      </trkpt>
      <trkpt lat="43.16522" lon="6.46853">
        <ele>108</ele>
        <time>2013-09-12T12:15:30.000Z</time>
      </trkpt>
      <trkpt lat="43.16522" lon="6.46855">
        <ele>108</ele>
        <time>2013-09-12T12:15:31.000Z</time>
      </trkpt>
      <trkpt lat="43.16522" lon="6.46858">
        <ele>108</ele>
        <time>2013-09-12T12:15:32.000Z</time>
      </trkpt>
      <trkpt lat="43.16521" lon="6.4686">
        <ele>108</ele>
        <time>2013-09-12T12:15:33.000Z</time>
      </trkpt>
      <trkpt lat="43.16521" lon="6.46863">
        <ele>108</ele>
        <time>2013-09-12T12:15:34.000Z</time>
      </trkpt>
      <trkpt lat="43.16521" lon="6.46865">
        <ele>108</ele>
        <time>2013-09-12T12:15:35.000Z</time>
      </trkpt>
      <trkpt lat="43.1652" lon="6.46867">
        <ele>108</ele>
        <time>2013-09-12T12:15:36.000Z</time>
      </trkpt>
      <trkpt lat="43.16521" lon="6.4687">
        <ele>109</ele>
        <time>2013-09-12T12:15:37.000Z</time>
      </trkpt>
      <trkpt lat="43.16521" lon="6.46872">
        <ele>109</ele>
        <time>2013-09-12T12:15:38.000Z</time>
      </trkpt>
      <trkpt lat="43.16521" lon="6.46874">
        <ele>109</ele>
        <time>2013-09-12T12:15:39.000Z</time>
      </trkpt>
      <trkpt lat="43.16521" lon="6.46877">
        <ele>109</ele>
        <time>2013-09-12T12:15:40.000Z</time>
      </trkpt>
      <trkpt lat="43.16522" lon="6.46879">
        <ele>109</ele>
        <time>2013-09-12T12:15:41.000Z</time>
      </trkpt>
      <trkpt lat="43.16522" lon="6.46881">
        <ele>109</ele>
        <time>2013-09-12T12:15:42.000Z</time>
      </trkpt>
      <trkpt lat="43.16523" lon="6.46883">
        <ele>109</ele>
        <time>2013-09-12T12:15:43.000Z</time>
      </trkpt>
      <trkpt lat="43.16524" lon="6.46885">
        <ele>109</ele>
        <time>2013-09-12T12:15:44.000Z</time>
      </trkpt>
      <trkpt lat="43.16525" lon="6.46888">
        <ele>110</ele>
        <time>2013-09-12T12:15:45.000Z</time>
      </trkpt>
      <trkpt lat="43.16525" lon="6.4689">
        <ele>110</ele>
        <time>2013-09-12T12:15:46.000Z</time>
      </trkpt>
      <trkpt lat="43.16526" lon="6.46891">
        <ele>110</ele>
        <time>2013-09-12T12:15:47.000Z</time>
      </trkpt>
      <trkpt lat="43.16527" lon="6.46893">
        <ele>110</ele>
        <time>2013-09-12T12:15:48.000Z</time>
      </trkpt>
      <trkpt lat="43.16528" lon="6.46895">
        <ele>110</ele>
        <time>2013-09-12T12:15:49.000Z</time>
      </trkpt>
      <trkpt lat="43.16529" lon="6.46897">
        <ele>110</ele>
        <time>2013-09-12T12:15:50.000Z</time>
      </trkpt>
      <trkpt lat="43.1653" lon="6.46899">
        <ele>110</ele>
        <time>2013-09-12T12:15:51.000Z</time>
      </trkpt>
      <trkpt lat="43.16531" lon="6.46901">
        <ele>110</ele>
        <time>2013-09-12T12:15:52.000Z</time>
      </trkpt>
      <trkpt lat="43.16531" lon="6.46903">
        <ele>111</ele>
        <time>2013-09-12T12:15:53.000Z</time>
      </trkpt>
      <trkpt lat="43.16532" lon="6.46905">
        <ele>111</ele>
        <time>2013-09-12T12:15:54.000Z</time>
      </trkpt>
      <trkpt lat="43.16533" lon="6.46907">
        <ele>111</ele>
        <time>2013-09-12T12:15:55.000Z</time>
      </trkpt>
      <trkpt lat="43.16534" lon="6.46908">
        <ele>111</ele>
        <time>2013-09-12T12:15:56.000Z</time>
      </trkpt>
      <trkpt lat="43.16534" lon="6.4691">
        <ele>111</ele>
        <time>2013-09-12T12:15:57.000Z</time>
      </trkpt>
      <trkpt lat="43.16535" lon="6.46912">
        <ele>111</ele>
        <time>2013-09-12T12:15:58.000Z</time>
      </trkpt>
      <trkpt lat="43.16536" lon="6.46913">
        <ele>111</ele>
        <time>2013-09-12T12:15:59.000Z</time>
      </trkpt>
      <trkpt lat="43.16536" lon="6.46915">
        <ele>111</ele>
        <time>2013-09-12T12:16:00.000Z</time>
      </trkpt>
      <trkpt lat="43.16537" lon="6.46917">
        <ele>115</ele>
        <time>2013-09-12T12:16:01.000Z</time>
      </trkpt>
      <trkpt lat="43.16537" lon="6.46919">
        <ele>115</ele>
        <time>2013-09-12T12:16:02.000Z</time>
      </trkpt>
      <trkpt lat="43.16537" lon="6.46921">
        <ele>115</ele>
        <time>2013-09-12T12:16:03.000Z</time>
      </trkpt>
      <trkpt lat="43.16538" lon="6.46923">
        <ele>115</ele>
        <time>2013-09-12T12:16:04.000Z</time>
      </trkpt>
      <trkpt lat="43.16538" lon="6.46928">
        <ele>116</ele>
        <time>2013-09-12T12:16:06.000Z</time>
      </trkpt>
      <trkpt lat="43.16538" lon="6.4693">
        <ele>116</ele>
        <time>2013-09-12T12:16:07.000Z</time>
      </trkpt>
      <trkpt lat="43.16538" lon="6.46934">
        <ele>116</ele>
        <time>2013-09-12T12:16:09.000Z</time>
      </trkpt>
      <trkpt lat="43.16538" lon="6.46936">
        <ele>116</ele>
        <time>2013-09-12T12:16:10.000Z</time>
      </trkpt>
      <trkpt lat="43.16537" lon="6.46938">
        <ele>116</ele>
        <time>2013-09-12T12:16:11.000Z</time>
      </trkpt>
      <trkpt lat="43.16537" lon="6.4694">
        <ele>116</ele>
        <time>2013-09-12T12:16:12.000Z</time>
      </trkpt>
      <trkpt lat="43.16537" lon="6.46942">
        <ele>116</ele>
        <time>2013-09-12T12:16:13.000Z</time>
      </trkpt>
      <trkpt lat="43.16537" lon="6.46944">
        <ele>116</ele>
        <time>2013-09-12T12:16:14.000Z</time>
      </trkpt>
      <trkpt lat="43.16537" lon="6.46948">
        <ele>116</ele>
        <time>2013-09-12T12:16:16.000Z</time>
      </trkpt>
      <trkpt lat="43.16536" lon="6.4695">
        <ele>116</ele>
        <time>2013-09-12T12:16:17.000Z</time>
      </trkpt>
      <trkpt lat="43.16535" lon="6.46952">
        <ele>116</ele>
        <time>2013-09-12T12:16:18.000Z</time>
      </trkpt>
      <trkpt lat="43.16535" lon="6.46954">
        <ele>116</ele>
        <time>2013-09-12T12:16:19.000Z</time>
      </trkpt>
      <trkpt lat="43.16534" lon="6.46956">
        <ele>116</ele>
        <time>2013-09-12T12:16:20.000Z</time>
      </trkpt>
      <trkpt lat="43.16534" lon="6.46959">
        <ele>116</ele>
        <time>2013-09-12T12:16:21.000Z</time>
      </trkpt>
      <trkpt lat="43.16533" lon="6.46961">
        <ele>116</ele>
        <time>2013-09-12T12:16:22.000Z</time>
      </trkpt>
      <trkpt lat="43.16533" lon="6.46963">
        <ele>116</ele>
        <time>2013-09-12T12:16:23.000Z</time>
      </trkpt>
      <trkpt lat="43.16533" lon="6.46965">
        <ele>116</ele>
        <time>2013-09-12T12:16:24.000Z</time>
      </trkpt>
      <trkpt lat="43.16532" lon="6.46967">
        <ele>116</ele>
        <time>2013-09-12T12:16:25.000Z</time>
      </trkpt>
      <trkpt lat="43.16532" lon="6.46969">
        <ele>116</ele>
        <time>2013-09-12T12:16:26.000Z</time>
      </trkpt>
      <trkpt lat="43.16531" lon="6.46971">
        <ele>116</ele>
        <time>2013-09-12T12:16:27.000Z</time>
      </trkpt>
      <trkpt lat="43.16531" lon="6.46973">
        <ele>116</ele>
        <time>2013-09-12T12:16:28.000Z</time>
      </trkpt>
      <trkpt lat="43.1653" lon="6.46975">
        <ele>116</ele>
        <time>2013-09-12T12:16:29.000Z</time>
      </trkpt>
      <trkpt lat="43.16529" lon="6.46977">
        <ele>115</ele>
        <time>2013-09-12T12:16:30.000Z</time>
      </trkpt>
      <trkpt lat="43.16529" lon="6.46979">
        <ele>115</ele>
        <time>2013-09-12T12:16:31.000Z</time>
      </trkpt>
      <trkpt lat="43.16528" lon="6.46981">
        <ele>115</ele>
        <time>2013-09-12T12:16:32.000Z</time>
      </trkpt>
      <trkpt lat="43.16528" lon="6.46983">
        <ele>115</ele>
        <time>2013-09-12T12:16:33.000Z</time>
      </trkpt>
      <trkpt lat="43.16527" lon="6.46985">
        <ele>115</ele>
        <time>2013-09-12T12:16:34.000Z</time>
      </trkpt>
      <trkpt lat="43.16526" lon="6.46987">
        <ele>115</ele>
        <time>2013-09-12T12:16:35.000Z</time>
      </trkpt>
      <trkpt lat="43.16526" lon="6.46989">
        <ele>115</ele>
        <time>2013-09-12T12:16:36.000Z</time>
      </trkpt>
      <trkpt lat="43.16525" lon="6.46991">
        <ele>114</ele>
        <time>2013-09-12T12:16:37.000Z</time>
      </trkpt>
      <trkpt lat="43.16525" lon="6.46993">
        <ele>114</ele>
        <time>2013-09-12T12:16:38.000Z</time>
      </trkpt>
      <trkpt lat="43.16524" lon="6.46994">
        <ele>114</ele>
        <time>2013-09-12T12:16:39.000Z</time>
      </trkpt>
      <trkpt lat="43.16524" lon="6.46996">
        <ele>114</ele>
        <time>2013-09-12T12:16:40.000Z</time>
      </trkpt>
      <trkpt lat="43.16524" lon="6.46998">
        <ele>114</ele>
        <time>2013-09-12T12:16:41.000Z</time>
      </trkpt>
      <trkpt lat="43.16524" lon="6.47002">
        <ele>116</ele>
        <time>2013-09-12T12:16:43.000Z</time>
      </trkpt>
      <trkpt lat="43.16523" lon="6.47004">
        <ele>116</ele>
        <time>2013-09-12T12:16:44.000Z</time>
      </trkpt>
      <trkpt lat="43.16523" lon="6.47007">
        <ele>116</ele>
        <time>2013-09-12T12:16:45.000Z</time>
      </trkpt>
      <trkpt lat="43.16523" lon="6.47009">
        <ele>116</ele>
        <time>2013-09-12T12:16:46.000Z</time>
      </trkpt>
      <trkpt lat="43.16523" lon="6.47011">
        <ele>116</ele>
        <time>2013-09-12T12:16:47.000Z</time>
      </trkpt>
      <trkpt lat="43.16523" lon="6.47021">
        <ele>117</ele>
        <time>2013-09-12T12:16:52.000Z</time>
      </trkpt>
      <trkpt lat="43.16523" lon="6.47023">
        <ele>117</ele>
        <time>2013-09-12T12:16:53.000Z</time>
      </trkpt>
      <trkpt lat="43.16523" lon="6.47025">
        <ele>117</ele>
        <time>2013-09-12T12:16:54.000Z</time>
      </trkpt>
      <trkpt lat="43.16523" lon="6.47027">
        <ele>117</ele>
        <time>2013-09-12T12:16:55.000Z</time>
      </trkpt>
      <trkpt lat="43.16524" lon="6.47029">
        <ele>118</ele>
        <time>2013-09-12T12:16:56.000Z</time>
      </trkpt>
      <trkpt lat="43.16524" lon="6.47031">
        <ele>118</ele>
        <time>2013-09-12T12:16:57.000Z</time>
      </trkpt>
      <trkpt lat="43.16525" lon="6.47033">
        <ele>118</ele>
        <time>2013-09-12T12:16:58.000Z</time>
      </trkpt>
      <trkpt lat="43.16525" lon="6.47035">
        <ele>118</ele>
        <time>2013-09-12T12:16:59.000Z</time>
      </trkpt>
      <trkpt lat="43.16526" lon="6.47037">
        <ele>118</ele>
        <time>2013-09-12T12:17:00.000Z</time>
      </trkpt>
      <trkpt lat="43.16527" lon="6.47039">
        <ele>118</ele>
        <time>2013-09-12T12:17:01.000Z</time>
      </trkpt>
      <trkpt lat="43.16528" lon="6.47041">
        <ele>119</ele>
        <time>2013-09-12T12:17:02.000Z</time>
      </trkpt>
      <trkpt lat="43.16529" lon="6.47042">
        <ele>119</ele>
        <time>2013-09-12T12:17:03.000Z</time>
      </trkpt>
      <trkpt lat="43.1653" lon="6.47044">
        <ele>119</ele>
        <time>2013-09-12T12:17:04.000Z</time>
      </trkpt>
      <trkpt lat="43.16531" lon="6.47046">
        <ele>119</ele>
        <time>2013-09-12T12:17:05.000Z</time>
      </trkpt>
      <trkpt lat="43.16531" lon="6.47048">
        <ele>119</ele>
        <time>2013-09-12T12:17:06.000Z</time>
      </trkpt>
      <trkpt lat="43.16532" lon="6.4705">
        <ele>119</ele>
        <time>2013-09-12T12:17:07.000Z</time>
      </trkpt>
      <trkpt lat="43.16533" lon="6.47052">
        <ele>119</ele>
        <time>2013-09-12T12:17:08.000Z</time>
      </trkpt>
      <trkpt lat="43.16533" lon="6.47054">
        <ele>119</ele>
        <time>2013-09-12T12:17:09.000Z</time>
      </trkpt>
      <trkpt lat="43.16534" lon="6.47056">
        <ele>119</ele>
        <time>2013-09-12T12:17:10.000Z</time>
      </trkpt>
      <trkpt lat="43.16534" lon="6.47058">
        <ele>120</ele>
        <time>2013-09-12T12:17:11.000Z</time>
      </trkpt>
      <trkpt lat="43.16534" lon="6.47062">
        <ele>120</ele>
        <time>2013-09-12T12:17:13.000Z</time>
      </trkpt>
      <trkpt lat="43.16534" lon="6.47076">
        <ele>119</ele>
        <time>2013-09-12T12:17:19.000Z</time>
      </trkpt>
      <trkpt lat="43.16534" lon="6.47085">
        <ele>122</ele>
        <time>2013-09-12T12:17:23.000Z</time>
      </trkpt>
      <trkpt lat="43.16534" lon="6.47088">
        <ele>122</ele>
        <time>2013-09-12T12:17:24.000Z</time>
      </trkpt>
      <trkpt lat="43.16534" lon="6.4709">
        <ele>122</ele>
        <time>2013-09-12T12:17:25.000Z</time>
      </trkpt>
      <trkpt lat="43.16535" lon="6.47092">
        <ele>123</ele>
        <time>2013-09-12T12:17:26.000Z</time>
      </trkpt>
      <trkpt lat="43.16535" lon="6.47094">
        <ele>123</ele>
        <time>2013-09-12T12:17:27.000Z</time>
      </trkpt>
      <trkpt lat="43.16535" lon="6.47096">
        <ele>123</ele>
        <time>2013-09-12T12:17:28.000Z</time>
      </trkpt>
      <trkpt lat="43.16534" lon="6.47101">
        <ele>123</ele>
        <time>2013-09-12T12:17:30.000Z</time>
      </trkpt>
      <trkpt lat="43.16534" lon="6.47108">
        <ele>123</ele>
        <time>2013-09-12T12:17:33.000Z</time>
      </trkpt>
      <trkpt lat="43.16535" lon="6.47113">
        <ele>124</ele>
        <time>2013-09-12T12:17:35.000Z</time>
      </trkpt>
      <trkpt lat="43.16535" lon="6.47115">
        <ele>124</ele>
        <time>2013-09-12T12:17:36.000Z</time>
      </trkpt>
      <trkpt lat="43.16535" lon="6.4712">
        <ele>124</ele>
        <time>2013-09-12T12:17:38.000Z</time>
      </trkpt>
      <trkpt lat="43.16535" lon="6.47122">
        <ele>124</ele>
        <time>2013-09-12T12:17:39.000Z</time>
      </trkpt>
      <trkpt lat="43.16535" lon="6.47133">
        <ele>124</ele>
        <time>2013-09-12T12:17:44.000Z</time>
      </trkpt>
      <trkpt lat="43.16535" lon="6.47135">
        <ele>124</ele>
        <time>2013-09-12T12:17:45.000Z</time>
      </trkpt>
      <trkpt lat="43.16534" lon="6.47137">
        <ele>124</ele>
        <time>2013-09-12T12:17:46.000Z</time>
      </trkpt>
      <trkpt lat="43.16534" lon="6.47138">
        <ele>124</ele>
        <time>2013-09-12T12:17:47.000Z</time>
      </trkpt>
      <trkpt lat="43.16535" lon="6.47143">
        <ele>125</ele>
        <time>2013-09-12T12:17:49.000Z</time>
      </trkpt>
      <trkpt lat="43.16535" lon="6.47145">
        <ele>125</ele>
        <time>2013-09-12T12:17:50.000Z</time>
      </trkpt>
      <trkpt lat="43.16535" lon="6.47147">
        <ele>125</ele>
        <time>2013-09-12T12:17:51.000Z</time>
      </trkpt>
      <trkpt lat="43.16535" lon="6.4715">
        <ele>125</ele>
        <time>2013-09-12T12:17:52.000Z</time>
      </trkpt>
      <trkpt lat="43.16535" lon="6.47156">
        <ele>125</ele>
        <time>2013-09-12T12:17:55.000Z</time>
      </trkpt>
      <trkpt lat="43.16535" lon="6.47158">
        <ele>125</ele>
        <time>2013-09-12T12:17:56.000Z</time>
      </trkpt>
      <trkpt lat="43.16535" lon="6.47159">
        <ele>125</ele>
        <time>2013-09-12T12:17:57.000Z</time>
      </trkpt>
      <trkpt lat="43.16535" lon="6.47161">
        <ele>125</ele>
        <time>2013-09-12T12:17:58.000Z</time>
      </trkpt>
      <trkpt lat="43.16535" lon="6.47169">
        <ele>130</ele>
        <time>2013-09-12T12:18:02.000Z</time>
      </trkpt>
      <trkpt lat="43.16534" lon="6.47171">
        <ele>130</ele>
        <time>2013-09-12T12:18:03.000Z</time>
      </trkpt>
      <trkpt lat="43.16534" lon="6.47177">
        <ele>130</ele>
        <time>2013-09-12T12:18:06.000Z</time>
      </trkpt>
      <trkpt lat="43.16534" lon="6.47178">
        <ele>130</ele>
        <time>2013-09-12T12:18:07.000Z</time>
      </trkpt>
      <trkpt lat="43.16534" lon="6.4718">
        <ele>130</ele>
        <time>2013-09-12T12:18:08.000Z</time>
      </trkpt>
      <trkpt lat="43.16533" lon="6.47182">
        <ele>130</ele>
        <time>2013-09-12T12:18:09.000Z</time>
      </trkpt>
      <trkpt lat="43.16533" lon="6.47184">
        <ele>130</ele>
        <time>2013-09-12T12:18:10.000Z</time>
      </trkpt>
      <trkpt lat="43.16533" lon="6.47186">
        <ele>130</ele>
        <time>2013-09-12T12:18:11.000Z</time>
      </trkpt>
      <trkpt lat="43.16533" lon="6.47188">
        <ele>131</ele>
        <time>2013-09-12T12:18:12.000Z</time>
      </trkpt>
      <trkpt lat="43.16532" lon="6.47192">
        <ele>131</ele>
        <time>2013-09-12T12:18:14.000Z</time>
      </trkpt>
      <trkpt lat="43.16532" lon="6.47194">
        <ele>131</ele>
        <time>2013-09-12T12:18:15.000Z</time>
      </trkpt>
      <trkpt lat="43.16532" lon="6.47197">
        <ele>131</ele>
        <time>2013-09-12T12:18:16.000Z</time>
      </trkpt>
      <trkpt lat="43.16532" lon="6.47199">
        <ele>131</ele>
        <time>2013-09-12T12:18:17.000Z</time>
      </trkpt>
      <trkpt lat="43.16531" lon="6.47201">
        <ele>131</ele>
        <time>2013-09-12T12:18:18.000Z</time>
      </trkpt>
      <trkpt lat="43.16531" lon="6.47204">
        <ele>132</ele>
        <time>2013-09-12T12:18:19.000Z</time>
      </trkpt>
      <trkpt lat="43.16531" lon="6.47206">
        <ele>132</ele>
        <time>2013-09-12T12:18:20.000Z</time>
      </trkpt>
      <trkpt lat="43.16531" lon="6.47213">
        <ele>132</ele>
        <time>2013-09-12T12:18:23.000Z</time>
      </trkpt>
      <trkpt lat="43.16531" lon="6.47215">
        <ele>132</ele>
        <time>2013-09-12T12:18:24.000Z</time>
      </trkpt>
      <trkpt lat="43.16531" lon="6.47218">
        <ele>132</ele>
        <time>2013-09-12T12:18:25.000Z</time>
      </trkpt>
      <trkpt lat="43.1653" lon="6.4722">
        <ele>132</ele>
        <time>2013-09-12T12:18:26.000Z</time>
      </trkpt>
      <trkpt lat="43.1653" lon="6.47222">
        <ele>133</ele>
        <time>2013-09-12T12:18:27.000Z</time>
      </trkpt>
      <trkpt lat="43.1653" lon="6.47227">
        <ele>133</ele>
        <time>2013-09-12T12:18:29.000Z</time>
      </trkpt>
      <trkpt lat="43.1653" lon="6.47229">
        <ele>133</ele>
        <time>2013-09-12T12:18:30.000Z</time>
      </trkpt>
      <trkpt lat="43.1653" lon="6.47231">
        <ele>133</ele>
        <time>2013-09-12T12:18:31.000Z</time>
      </trkpt>
      <trkpt lat="43.16529" lon="6.47233">
        <ele>133</ele>
        <time>2013-09-12T12:18:32.000Z</time>
      </trkpt>
      <trkpt lat="43.16529" lon="6.47244">
        <ele>133</ele>
        <time>2013-09-12T12:18:37.000Z</time>
      </trkpt>
      <trkpt lat="43.16529" lon="6.47246">
        <ele>133</ele>
        <time>2013-09-12T12:18:38.000Z</time>
      </trkpt>
      <trkpt lat="43.16529" lon="6.47249">
        <ele>133</ele>
        <time>2013-09-12T12:18:39.000Z</time>
      </trkpt>
      <trkpt lat="43.16528" lon="6.47251">
        <ele>140</ele>
        <time>2013-09-12T12:18:40.000Z</time>
      </trkpt>
      <trkpt lat="43.16528" lon="6.47253">
        <ele>140</ele>
        <time>2013-09-12T12:18:41.000Z</time>
      </trkpt>
      <trkpt lat="43.16527" lon="6.47256">
        <ele>140</ele>
        <time>2013-09-12T12:18:42.000Z</time>
      </trkpt>
      <trkpt lat="43.16526" lon="6.47258">
        <ele>140</ele>
        <time>2013-09-12T12:18:43.000Z</time>
      </trkpt>
      <trkpt lat="43.16525" lon="6.4726">
        <ele>140</ele>
        <time>2013-09-12T12:18:44.000Z</time>
      </trkpt>
      <trkpt lat="43.16524" lon="6.47263">
        <ele>140</ele>
        <time>2013-09-12T12:18:45.000Z</time>
      </trkpt>
      <trkpt lat="43.16523" lon="6.47265">
        <ele>140</ele>
        <time>2013-09-12T12:18:46.000Z</time>
      </trkpt>
      <trkpt lat="43.16522" lon="6.47267">
        <ele>140</ele>
        <time>2013-09-12T12:18:47.000Z</time>
      </trkpt>
      <trkpt lat="43.16521" lon="6.47269">
        <ele>140</ele>
        <time>2013-09-12T12:18:48.000Z</time>
      </trkpt>
      <trkpt lat="43.1652" lon="6.47271">
        <ele>140</ele>
        <time>2013-09-12T12:18:49.000Z</time>
      </trkpt>
      <trkpt lat="43.16518" lon="6.47272">
        <ele>140</ele>
        <time>2013-09-12T12:18:50.000Z</time>
      </trkpt>
      <trkpt lat="43.16517" lon="6.47273">
        <ele>140</ele>
        <time>2013-09-12T12:18:51.000Z</time>
      </trkpt>
      <trkpt lat="43.16515" lon="6.47274">
        <ele>140</ele>
        <time>2013-09-12T12:18:52.000Z</time>
      </trkpt>
      <trkpt lat="43.16514" lon="6.47275">
        <ele>140</ele>
        <time>2013-09-12T12:18:53.000Z</time>
      </trkpt>
      <trkpt lat="43.16513" lon="6.47275">
        <ele>140</ele>
        <time>2013-09-12T12:18:54.000Z</time>
      </trkpt>
      <trkpt lat="43.16511" lon="6.47275">
        <ele>140</ele>
        <time>2013-09-12T12:18:55.000Z</time>
      </trkpt>
      <trkpt lat="43.1651" lon="6.47275">
        <ele>139</ele>
        <time>2013-09-12T12:18:56.000Z</time>
      </trkpt>
      <trkpt lat="43.16508" lon="6.47274">
        <ele>139</ele>
        <time>2013-09-12T12:18:57.000Z</time>
      </trkpt>
      <trkpt lat="43.16507" lon="6.47273">
        <ele>139</ele>
        <time>2013-09-12T12:18:58.000Z</time>
      </trkpt>
      <trkpt lat="43.16505" lon="6.47272">
        <ele>138</ele>
        <time>2013-09-12T12:18:59.000Z</time>
      </trkpt>
      <trkpt lat="43.16504" lon="6.47271">
        <ele>138</ele>
        <time>2013-09-12T12:19:00.000Z</time>
      </trkpt>
      <trkpt lat="43.16503" lon="6.4727">
        <ele>138</ele>
        <time>2013-09-12T12:19:01.000Z</time>
      </trkpt>
      <trkpt lat="43.16502" lon="6.47269">
        <ele>137</ele>
        <time>2013-09-12T12:19:02.000Z</time>
      </trkpt>
      <trkpt lat="43.16501" lon="6.47268">
        <ele>137</ele>
        <time>2013-09-12T12:19:03.000Z</time>
      </trkpt>
      <trkpt lat="43.16499" lon="6.47266">
        <ele>132</ele>
        <time>2013-09-12T12:19:04.000Z</time>
      </trkpt>
      <trkpt lat="43.16498" lon="6.47265">
        <ele>132</ele>
        <time>2013-09-12T12:19:05.000Z</time>
      </trkpt>
      <trkpt lat="43.16497" lon="6.47264">
        <ele>132</ele>
        <time>2013-09-12T12:19:06.000Z</time>
      </trkpt>
      <trkpt lat="43.16496" lon="6.47263">
        <ele>132</ele>
        <time>2013-09-12T12:19:07.000Z</time>
      </trkpt>
      <trkpt lat="43.16494" lon="6.47261">
        <ele>132</ele>
        <time>2013-09-12T12:19:08.000Z</time>
      </trkpt>
      <trkpt lat="43.16493" lon="6.4726">
        <ele>132</ele>
        <time>2013-09-12T12:19:09.000Z</time>
      </trkpt>
      <trkpt lat="43.16492" lon="6.47259">
        <ele>132</ele>
        <time>2013-09-12T12:19:10.000Z</time>
      </trkpt>
      <trkpt lat="43.1649" lon="6.47259">
        <ele>132</ele>
        <time>2013-09-12T12:19:11.000Z</time>
      </trkpt>
      <trkpt lat="43.16488" lon="6.47258">
        <ele>132</ele>
        <time>2013-09-12T12:19:12.000Z</time>
      </trkpt>
      <trkpt lat="43.16487" lon="6.47257">
        <ele>132</ele>
        <time>2013-09-12T12:19:13.000Z</time>
      </trkpt>
      <trkpt lat="43.16485" lon="6.47257">
        <ele>132</ele>
        <time>2013-09-12T12:19:14.000Z</time>
      </trkpt>
      <trkpt lat="43.16484" lon="6.47257">
        <ele>132</ele>
        <time>2013-09-12T12:19:15.000Z</time>
      </trkpt>
      <trkpt lat="43.1648" lon="6.47257">
        <ele>132</ele>
        <time>2013-09-12T12:19:17.000Z</time>
      </trkpt>
      <trkpt lat="43.16479" lon="6.47258">
        <ele>133</ele>
        <time>2013-09-12T12:19:18.000Z</time>
      </trkpt>
      <trkpt lat="43.16477" lon="6.47258">
        <ele>133</ele>
        <time>2013-09-12T12:19:19.000Z</time>
      </trkpt>
      <trkpt lat="43.16476" lon="6.47259">
        <ele>133</ele>
        <time>2013-09-12T12:19:20.000Z</time>
      </trkpt>
      <trkpt lat="43.16474" lon="6.4726">
        <ele>133</ele>
        <time>2013-09-12T12:19:21.000Z</time>
      </trkpt>
      <trkpt lat="43.16473" lon="6.47261">
        <ele>133</ele>
        <time>2013-09-12T12:19:22.000Z</time>
      </trkpt>
      <trkpt lat="43.16471" lon="6.47262">
        <ele>133</ele>
        <time>2013-09-12T12:19:23.000Z</time>
      </trkpt>
      <trkpt lat="43.1647" lon="6.47263">
        <ele>133</ele>
        <time>2013-09-12T12:19:24.000Z</time>
      </trkpt>
      <trkpt lat="43.16468" lon="6.47264">
        <ele>133</ele>
        <time>2013-09-12T12:19:25.000Z</time>
      </trkpt>
      <trkpt lat="43.16467" lon="6.47265">
        <ele>133</ele>
        <time>2013-09-12T12:19:26.000Z</time>
      </trkpt>
      <trkpt lat="43.16466" lon="6.47266">
        <ele>134</ele>
        <time>2013-09-12T12:19:27.000Z</time>
      </trkpt>
      <trkpt lat="43.16465" lon="6.47267">
        <ele>134</ele>
        <time>2013-09-12T12:19:28.000Z</time>
      </trkpt>
      <trkpt lat="43.16464" lon="6.47269">
        <ele>134</ele>
        <time>2013-09-12T12:19:29.000Z</time>
      </trkpt>
      <trkpt lat="43.16462" lon="6.4727">
        <ele>134</ele>
        <time>2013-09-12T12:19:30.000Z</time>
      </trkpt>
      <trkpt lat="43.16461" lon="6.47272">
        <ele>134</ele>
        <time>2013-09-12T12:19:31.000Z</time>
      </trkpt>
      <trkpt lat="43.1646" lon="6.47273">
        <ele>134</ele>
        <time>2013-09-12T12:19:32.000Z</time>
      </trkpt>
      <trkpt lat="43.16459" lon="6.47275">
        <ele>134</ele>
        <time>2013-09-12T12:19:33.000Z</time>
      </trkpt>
      <trkpt lat="43.16457" lon="6.47277">
        <ele>134</ele>
        <time>2013-09-12T12:19:34.000Z</time>
      </trkpt>
      <trkpt lat="43.16456" lon="6.47279">
        <ele>134</ele>
        <time>2013-09-12T12:19:35.000Z</time>
      </trkpt>
      <trkpt lat="43.16455" lon="6.47281">
        <ele>135</ele>
        <time>2013-09-12T12:19:36.000Z</time>
      </trkpt>
      <trkpt lat="43.16454" lon="6.47283">
        <ele>135</ele>
        <time>2013-09-12T12:19:37.000Z</time>
      </trkpt>
      <trkpt lat="43.16454" lon="6.47285">
        <ele>135</ele>
        <time>2013-09-12T12:19:38.000Z</time>
      </trkpt>
      <trkpt lat="43.16453" lon="6.47287">
        <ele>135</ele>
        <time>2013-09-12T12:19:39.000Z</time>
      </trkpt>
      <trkpt lat="43.16452" lon="6.4729">
        <ele>135</ele>
        <time>2013-09-12T12:19:40.000Z</time>
      </trkpt>
      <trkpt lat="43.16451" lon="6.47292">
        <ele>136</ele>
        <time>2013-09-12T12:19:41.000Z</time>
      </trkpt>
      <trkpt lat="43.1645" lon="6.47294">
        <ele>136</ele>
        <time>2013-09-12T12:19:42.000Z</time>
      </trkpt>
      <trkpt lat="43.16449" lon="6.47295">
        <ele>136</ele>
        <time>2013-09-12T12:19:43.000Z</time>
      </trkpt>
      <trkpt lat="43.16448" lon="6.47297">
        <ele>136</ele>
        <time>2013-09-12T12:19:44.000Z</time>
      </trkpt>
      <trkpt lat="43.16447" lon="6.47299">
        <ele>136</ele>
        <time>2013-09-12T12:19:45.000Z</time>
      </trkpt>
      <trkpt lat="43.16445" lon="6.47301">
        <ele>136</ele>
        <time>2013-09-12T12:19:46.000Z</time>
      </trkpt>
      <trkpt lat="43.16444" lon="6.47303">
        <ele>137</ele>
        <time>2013-09-12T12:19:47.000Z</time>
      </trkpt>
      <trkpt lat="43.16443" lon="6.47304">
        <ele>137</ele>
        <time>2013-09-12T12:19:48.000Z</time>
      </trkpt>
      <trkpt lat="43.16442" lon="6.47306">
        <ele>137</ele>
        <time>2013-09-12T12:19:49.000Z</time>
      </trkpt>
      <trkpt lat="43.16441" lon="6.47308">
        <ele>137</ele>
        <time>2013-09-12T12:19:50.000Z</time>
      </trkpt>
      <trkpt lat="43.16439" lon="6.47309">
        <ele>137</ele>
        <time>2013-09-12T12:19:51.000Z</time>
      </trkpt>
      <trkpt lat="43.16438" lon="6.47311">
        <ele>137</ele>
        <time>2013-09-12T12:19:52.000Z</time>
      </trkpt>
      <trkpt lat="43.16437" lon="6.47313">
        <ele>138</ele>
        <time>2013-09-12T12:19:53.000Z</time>
      </trkpt>
      <trkpt lat="43.16436" lon="6.47314">
        <ele>138</ele>
        <time>2013-09-12T12:19:54.000Z</time>
      </trkpt>
      <trkpt lat="43.16435" lon="6.47316">
        <ele>138</ele>
        <time>2013-09-12T12:19:55.000Z</time>
      </trkpt>
      <trkpt lat="43.16433" lon="6.47318">
        <ele>138</ele>
        <time>2013-09-12T12:19:56.000Z</time>
      </trkpt>
      <trkpt lat="43.16432" lon="6.47319">
        <ele>139</ele>
        <time>2013-09-12T12:19:57.000Z</time>
      </trkpt>
      <trkpt lat="43.16431" lon="6.47321">
        <ele>139</ele>
        <time>2013-09-12T12:19:58.000Z</time>
      </trkpt>
      <trkpt lat="43.1643" lon="6.47323">
        <ele>139</ele>
        <time>2013-09-12T12:19:59.000Z</time>
      </trkpt>
      <trkpt lat="43.16429" lon="6.47324">
        <ele>139</ele>
        <time>2013-09-12T12:20:00.000Z</time>
      </trkpt>
      <trkpt lat="43.16427" lon="6.47325">
        <ele>139</ele>
        <time>2013-09-12T12:20:01.000Z</time>
      </trkpt>
      <trkpt lat="43.16426" lon="6.47326">
        <ele>140</ele>
        <time>2013-09-12T12:20:02.000Z</time>
      </trkpt>
      <trkpt lat="43.16425" lon="6.47328">
        <ele>140</ele>
        <time>2013-09-12T12:20:03.000Z</time>
      </trkpt>
      <trkpt lat="43.16423" lon="6.47329">
        <ele>140</ele>
        <time>2013-09-12T12:20:04.000Z</time>
      </trkpt>
      <trkpt lat="43.16422" lon="6.47329">
        <ele>141</ele>
        <time>2013-09-12T12:20:05.000Z</time>
      </trkpt>
      <trkpt lat="43.1642" lon="6.4733">
        <ele>141</ele>
        <time>2013-09-12T12:20:06.000Z</time>
      </trkpt>
      <trkpt lat="43.16415" lon="6.47329">
        <ele>141</ele>
        <time>2013-09-12T12:20:09.000Z</time>
      </trkpt>
      <trkpt lat="43.16412" lon="6.47329">
        <ele>141</ele>
        <time>2013-09-12T12:20:11.000Z</time>
      </trkpt>
      <trkpt lat="43.16406" lon="6.47329">
        <ele>140</ele>
        <time>2013-09-12T12:20:14.000Z</time>
      </trkpt>
      <trkpt lat="43.16405" lon="6.47328">
        <ele>140</ele>
        <time>2013-09-12T12:20:15.000Z</time>
      </trkpt>
      <trkpt lat="43.16403" lon="6.47328">
        <ele>139</ele>
        <time>2013-09-12T12:20:16.000Z</time>
      </trkpt>
      <trkpt lat="43.16401" lon="6.47328">
        <ele>139</ele>
        <time>2013-09-12T12:20:17.000Z</time>
      </trkpt>
      <trkpt lat="43.16399" lon="6.47327">
        <ele>139</ele>
        <time>2013-09-12T12:20:18.000Z</time>
      </trkpt>
      <trkpt lat="43.16397" lon="6.47327">
        <ele>139</ele>
        <time>2013-09-12T12:20:19.000Z</time>
      </trkpt>
      <trkpt lat="43.16396" lon="6.47327">
        <ele>139</ele>
        <time>2013-09-12T12:20:20.000Z</time>
      </trkpt>
      <trkpt lat="43.16394" lon="6.47328">
        <ele>139</ele>
        <time>2013-09-12T12:20:21.000Z</time>
      </trkpt>
      <trkpt lat="43.16392" lon="6.47329">
        <ele>139</ele>
        <time>2013-09-12T12:20:22.000Z</time>
      </trkpt>
      <trkpt lat="43.1639" lon="6.4733">
        <ele>139</ele>
        <time>2013-09-12T12:20:23.000Z</time>
      </trkpt>
      <trkpt lat="43.16388" lon="6.47331">
        <ele>139</ele>
        <time>2013-09-12T12:20:24.000Z</time>
      </trkpt>
      <trkpt lat="43.16387" lon="6.47333">
        <ele>139</ele>
        <time>2013-09-12T12:20:25.000Z</time>
      </trkpt>
      <trkpt lat="43.16386" lon="6.47334">
        <ele>148</ele>
        <time>2013-09-12T12:20:26.000Z</time>
      </trkpt>
      <trkpt lat="43.16385" lon="6.47337">
        <ele>148</ele>
        <time>2013-09-12T12:20:27.000Z</time>
      </trkpt>
      <trkpt lat="43.16384" lon="6.47339">
        <ele>148</ele>
        <time>2013-09-12T12:20:28.000Z</time>
      </trkpt>
      <trkpt lat="43.16384" lon="6.47341">
        <ele>148</ele>
        <time>2013-09-12T12:20:29.000Z</time>
      </trkpt>
      <trkpt lat="43.16384" lon="6.47343">
        <ele>149</ele>
        <time>2013-09-12T12:20:30.000Z</time>
      </trkpt>
      <trkpt lat="43.16384" lon="6.47345">
        <ele>149</ele>
        <time>2013-09-12T12:20:31.000Z</time>
      </trkpt>
      <trkpt lat="43.16384" lon="6.47347">
        <ele>149</ele>
        <time>2013-09-12T12:20:32.000Z</time>
      </trkpt>
      <trkpt lat="43.16385" lon="6.47349">
        <ele>149</ele>
        <time>2013-09-12T12:20:33.000Z</time>
      </trkpt>
      <trkpt lat="43.16386" lon="6.47351">
        <ele>149</ele>
        <time>2013-09-12T12:20:34.000Z</time>
      </trkpt>
      <trkpt lat="43.16387" lon="6.47353">
        <ele>149</ele>
        <time>2013-09-12T12:20:35.000Z</time>
      </trkpt>
      <trkpt lat="43.16388" lon="6.47355">
        <ele>149</ele>
        <time>2013-09-12T12:20:36.000Z</time>
      </trkpt>
      <trkpt lat="43.16389" lon="6.47356">
        <ele>149</ele>
        <time>2013-09-12T12:20:37.000Z</time>
      </trkpt>
      <trkpt lat="43.1639" lon="6.47358">
        <ele>149</ele>
        <time>2013-09-12T12:20:38.000Z</time>
      </trkpt>
      <trkpt lat="43.16391" lon="6.47359">
        <ele>149</ele>
        <time>2013-09-12T12:20:39.000Z</time>
      </trkpt>
      <trkpt lat="43.16393" lon="6.47359">
        <ele>149</ele>
        <time>2013-09-12T12:20:40.000Z</time>
      </trkpt>
      <trkpt lat="43.16396" lon="6.47359">
        <ele>149</ele>
        <time>2013-09-12T12:20:42.000Z</time>
      </trkpt>
      <trkpt lat="43.16398" lon="6.47358">
        <ele>149</ele>
        <time>2013-09-12T12:20:43.000Z</time>
      </trkpt>
      <trkpt lat="43.164" lon="6.47358">
        <ele>149</ele>
        <time>2013-09-12T12:20:44.000Z</time>
      </trkpt>
      <trkpt lat="43.16401" lon="6.47357">
        <ele>149</ele>
        <time>2013-09-12T12:20:45.000Z</time>
      </trkpt>
      <trkpt lat="43.16403" lon="6.47356">
        <ele>148</ele>
        <time>2013-09-12T12:20:46.000Z</time>
      </trkpt>
      <trkpt lat="43.16405" lon="6.47355">
        <ele>148</ele>
        <time>2013-09-12T12:20:47.000Z</time>
      </trkpt>
      <trkpt lat="43.16406" lon="6.47354">
        <ele>148</ele>
        <time>2013-09-12T12:20:48.000Z</time>
      </trkpt>
      <trkpt lat="43.16408" lon="6.47353">
        <ele>148</ele>
        <time>2013-09-12T12:20:49.000Z</time>
      </trkpt>
      <trkpt lat="43.1641" lon="6.47352">
        <ele>147</ele>
        <time>2013-09-12T12:20:50.000Z</time>
      </trkpt>
      <trkpt lat="43.16412" lon="6.47351">
        <ele>147</ele>
        <time>2013-09-12T12:20:51.000Z</time>
      </trkpt>
      <trkpt lat="43.16414" lon="6.4735">
        <ele>147</ele>
        <time>2013-09-12T12:20:52.000Z</time>
      </trkpt>
      <trkpt lat="43.16416" lon="6.47348">
        <ele>146</ele>
        <time>2013-09-12T12:20:53.000Z</time>
      </trkpt>
      <trkpt lat="43.16418" lon="6.47347">
        <ele>146</ele>
        <time>2013-09-12T12:20:54.000Z</time>
      </trkpt>
      <trkpt lat="43.1642" lon="6.47346">
        <ele>146</ele>
        <time>2013-09-12T12:20:55.000Z</time>
      </trkpt>
      <trkpt lat="43.16422" lon="6.47345">
        <ele>146</ele>
        <time>2013-09-12T12:20:56.000Z</time>
      </trkpt>
      <trkpt lat="43.16424" lon="6.47343">
        <ele>146</ele>
        <time>2013-09-12T12:20:57.000Z</time>
      </trkpt>
      <trkpt lat="43.16426" lon="6.47342">
        <ele>146</ele>
        <time>2013-09-12T12:20:58.000Z</time>
      </trkpt>
      <trkpt lat="43.16428" lon="6.47341">
        <ele>146</ele>
        <time>2013-09-12T12:20:59.000Z</time>
      </trkpt>
      <trkpt lat="43.16429" lon="6.47339">
        <ele>146</ele>
        <time>2013-09-12T12:21:00.000Z</time>
      </trkpt>
      <trkpt lat="43.16431" lon="6.47338">
        <ele>146</ele>
        <time>2013-09-12T12:21:01.000Z</time>
      </trkpt>
      <trkpt lat="43.16432" lon="6.47337">
        <ele>146</ele>
        <time>2013-09-12T12:21:02.000Z</time>
      </trkpt>
      <trkpt lat="43.16433" lon="6.47336">
        <ele>147</ele>
        <time>2013-09-12T12:21:03.000Z</time>
      </trkpt>
      <trkpt lat="43.16435" lon="6.47335">
        <ele>147</ele>
        <time>2013-09-12T12:21:04.000Z</time>
      </trkpt>
      <trkpt lat="43.16436" lon="6.47333">
        <ele>139</ele>
        <time>2013-09-12T12:21:05.000Z</time>
      </trkpt>
      <trkpt lat="43.16438" lon="6.47332">
        <ele>139</ele>
        <time>2013-09-12T12:21:06.000Z</time>
      </trkpt>
      <trkpt lat="43.1644" lon="6.4733">
        <ele>139</ele>
        <time>2013-09-12T12:21:07.000Z</time>
      </trkpt>
      <trkpt lat="43.16442" lon="6.47328">
        <ele>139</ele>
        <time>2013-09-12T12:21:08.000Z</time>
      </trkpt>
      <trkpt lat="43.16444" lon="6.47327">
        <ele>139</ele>
        <time>2013-09-12T12:21:09.000Z</time>
      </trkpt>
      <trkpt lat="43.16445" lon="6.47326">
        <ele>138</ele>
        <time>2013-09-12T12:21:10.000Z</time>
      </trkpt>
      <trkpt lat="43.16447" lon="6.47325">
        <ele>138</ele>
        <time>2013-09-12T12:21:11.000Z</time>
      </trkpt>
      <trkpt lat="43.16449" lon="6.47323">
        <ele>138</ele>
        <time>2013-09-12T12:21:12.000Z</time>
      </trkpt>
      <trkpt lat="43.16451" lon="6.47322">
        <ele>138</ele>
        <time>2013-09-12T12:21:13.000Z</time>
      </trkpt>
      <trkpt lat="43.16453" lon="6.4732">
        <ele>138</ele>
        <time>2013-09-12T12:21:14.000Z</time>
      </trkpt>
      <trkpt lat="43.16454" lon="6.47319">
        <ele>138</ele>
        <time>2013-09-12T12:21:15.000Z</time>
      </trkpt>
      <trkpt lat="43.16456" lon="6.47317">
        <ele>138</ele>
        <time>2013-09-12T12:21:16.000Z</time>
      </trkpt>
      <trkpt lat="43.16458" lon="6.47316">
        <ele>138</ele>
        <time>2013-09-12T12:21:17.000Z</time>
      </trkpt>
      <trkpt lat="43.1646" lon="6.47314">
        <ele>138</ele>
        <time>2013-09-12T12:21:18.000Z</time>
      </trkpt>
      <trkpt lat="43.16462" lon="6.47312">
        <ele>138</ele>
        <time>2013-09-12T12:21:19.000Z</time>
      </trkpt>
      <trkpt lat="43.16463" lon="6.4731">
        <ele>138</ele>
        <time>2013-09-12T12:21:20.000Z</time>
      </trkpt>
      <trkpt lat="43.16465" lon="6.47309">
        <ele>138</ele>
        <time>2013-09-12T12:21:21.000Z</time>
      </trkpt>
      <trkpt lat="43.16467" lon="6.47307">
        <ele>137</ele>
        <time>2013-09-12T12:21:22.000Z</time>
      </trkpt>
      <trkpt lat="43.16469" lon="6.47306">
        <ele>137</ele>
        <time>2013-09-12T12:21:23.000Z</time>
      </trkpt>
      <trkpt lat="43.1647" lon="6.47305">
        <ele>137</ele>
        <time>2013-09-12T12:21:24.000Z</time>
      </trkpt>
      <trkpt lat="43.16472" lon="6.47304">
        <ele>137</ele>
        <time>2013-09-12T12:21:25.000Z</time>
      </trkpt>
      <trkpt lat="43.16473" lon="6.47303">
        <ele>137</ele>
        <time>2013-09-12T12:21:26.000Z</time>
      </trkpt>
      <trkpt lat="43.16474" lon="6.47303">
        <ele>137</ele>
        <time>2013-09-12T12:21:27.000Z</time>
      </trkpt>
      <trkpt lat="43.16474" lon="6.47302">
        <ele>137</ele>
        <time>2013-09-12T12:21:29.000Z</time>
      </trkpt>
      <trkpt lat="43.16474" lon="6.47302">
        <ele>137</ele>
        <time>2013-09-12T12:21:31.000Z</time>
      </trkpt>
      <trkpt lat="43.16475" lon="6.47302">
        <ele>137</ele>
        <time>2013-09-12T12:21:33.000Z</time>
      </trkpt>
      <trkpt lat="43.16474" lon="6.47302">
        <ele>137</ele>
        <time>2013-09-12T12:21:44.000Z</time>
      </trkpt>
      <trkpt lat="43.16475" lon="6.47302">
        <ele>137</ele>
        <time>2013-09-12T12:21:46.000Z</time>
      </trkpt>
      <trkpt lat="43.16475" lon="6.47301">
        <ele>137</ele>
        <time>2013-09-12T12:21:52.000Z</time>
      </trkpt>
      <trkpt lat="43.16475" lon="6.47301">
        <ele>137</ele>
        <time>2013-09-12T12:21:55.000Z</time>
      </trkpt>
      <trkpt lat="43.16475" lon="6.47301">
        <ele>137</ele>
        <time>2013-09-12T12:21:56.000Z</time>
      </trkpt>
      <trkpt lat="43.16475" lon="6.47302">
        <ele>137</ele>
        <time>2013-09-12T12:22:03.000Z</time>
      </trkpt>
      <trkpt lat="43.16476" lon="6.47302">
        <ele>137</ele>
        <time>2013-09-12T12:22:13.000Z</time>
      </trkpt>
      <trkpt lat="43.16476" lon="6.47302">
        <ele>137</ele>
        <time>2013-09-12T12:22:14.000Z</time>
      </trkpt>
      <trkpt lat="43.16476" lon="6.47302">
        <ele>137</ele>
        <time>2013-09-12T12:22:15.000Z</time>
      </trkpt>
      <trkpt lat="43.16477" lon="6.47303">
        <ele>137</ele>
        <time>2013-09-12T12:22:18.000Z</time>
      </trkpt>
      <trkpt lat="43.16478" lon="6.47304">
        <ele>138</ele>
        <time>2013-09-12T12:22:19.000Z</time>
      </trkpt>
      <trkpt lat="43.1648" lon="6.47304">
        <ele>138</ele>
        <time>2013-09-12T12:22:20.000Z</time>
      </trkpt>
      <trkpt lat="43.16482" lon="6.47304">
        <ele>138</ele>
        <time>2013-09-12T12:22:21.000Z</time>
      </trkpt>
      <trkpt lat="43.16485" lon="6.47304">
        <ele>138</ele>
        <time>2013-09-12T12:22:22.000Z</time>
      </trkpt>
      <trkpt lat="43.16487" lon="6.47305">
        <ele>138</ele>
        <time>2013-09-12T12:22:23.000Z</time>
      </trkpt>
      <trkpt lat="43.16489" lon="6.47305">
        <ele>138</ele>
        <time>2013-09-12T12:22:24.000Z</time>
      </trkpt>
      <trkpt lat="43.16491" lon="6.47305">
        <ele>138</ele>
        <time>2013-09-12T12:22:25.000Z</time>
      </trkpt>
      <trkpt lat="43.16493" lon="6.47306">
        <ele>139</ele>
        <time>2013-09-12T12:22:26.000Z</time>
      </trkpt>
      <trkpt lat="43.16494" lon="6.47307">
        <ele>139</ele>
        <time>2013-09-12T12:22:27.000Z</time>
      </trkpt>
      <trkpt lat="43.16496" lon="6.47309">
        <ele>139</ele>
        <time>2013-09-12T12:22:28.000Z</time>
      </trkpt>
      <trkpt lat="43.16498" lon="6.4731">
        <ele>140</ele>
        <time>2013-09-12T12:22:29.000Z</time>
      </trkpt>
      <trkpt lat="43.165" lon="6.47312">
        <ele>140</ele>
        <time>2013-09-12T12:22:30.000Z</time>
      </trkpt>
      <trkpt lat="43.16501" lon="6.47314">
        <ele>145</ele>
        <time>2013-09-12T12:22:31.000Z</time>
      </trkpt>
      <trkpt lat="43.16503" lon="6.47315">
        <ele>145</ele>
        <time>2013-09-12T12:22:32.000Z</time>
      </trkpt>
      <trkpt lat="43.16504" lon="6.47317">
        <ele>145</ele>
        <time>2013-09-12T12:22:33.000Z</time>
      </trkpt>
      <trkpt lat="43.16506" lon="6.47319">
        <ele>145</ele>
        <time>2013-09-12T12:22:34.000Z</time>
      </trkpt>
      <trkpt lat="43.16507" lon="6.47321">
        <ele>145</ele>
        <time>2013-09-12T12:22:35.000Z</time>
      </trkpt>
      <trkpt lat="43.16508" lon="6.47322">
        <ele>145</ele>
        <time>2013-09-12T12:22:36.000Z</time>
      </trkpt>
      <trkpt lat="43.1651" lon="6.47324">
        <ele>145</ele>
        <time>2013-09-12T12:22:37.000Z</time>
      </trkpt>
      <trkpt lat="43.16511" lon="6.47326">
        <ele>145</ele>
        <time>2013-09-12T12:22:38.000Z</time>
      </trkpt>
      <trkpt lat="43.16512" lon="6.47327">
        <ele>146</ele>
        <time>2013-09-12T12:22:39.000Z</time>
      </trkpt>
      <trkpt lat="43.16514" lon="6.47329">
        <ele>146</ele>
        <time>2013-09-12T12:22:40.000Z</time>
      </trkpt>
      <trkpt lat="43.16515" lon="6.4733">
        <ele>146</ele>
        <time>2013-09-12T12:22:41.000Z</time>
      </trkpt>
      <trkpt lat="43.16517" lon="6.47331">
        <ele>146</ele>
        <time>2013-09-12T12:22:42.000Z</time>
      </trkpt>
      <trkpt lat="43.16519" lon="6.47331">
        <ele>146</ele>
        <time>2013-09-12T12:22:43.000Z</time>
      </trkpt>
      <trkpt lat="43.16521" lon="6.47332">
        <ele>146</ele>
        <time>2013-09-12T12:22:44.000Z</time>
      </trkpt>
      <trkpt lat="43.16526" lon="6.47332">
        <ele>146</ele>
        <time>2013-09-12T12:22:46.000Z</time>
      </trkpt>
      <trkpt lat="43.16528" lon="6.47331">
        <ele>146</ele>
        <time>2013-09-12T12:22:47.000Z</time>
      </trkpt>
      <trkpt lat="43.1653" lon="6.47329">
        <ele>146</ele>
        <time>2013-09-12T12:22:48.000Z</time>
      </trkpt>
      <trkpt lat="43.16532" lon="6.47328">
        <ele>146</ele>
        <time>2013-09-12T12:22:49.000Z</time>
      </trkpt>
      <trkpt lat="43.16534" lon="6.47327">
        <ele>146</ele>
        <time>2013-09-12T12:22:50.000Z</time>
      </trkpt>
      <trkpt lat="43.16536" lon="6.47325">
        <ele>146</ele>
        <time>2013-09-12T12:22:51.000Z</time>
      </trkpt>
      <trkpt lat="43.16537" lon="6.47323">
        <ele>147</ele>
        <time>2013-09-12T12:22:52.000Z</time>
      </trkpt>
      <trkpt lat="43.16539" lon="6.47321">
        <ele>147</ele>
        <time>2013-09-12T12:22:53.000Z</time>
      </trkpt>
      <trkpt lat="43.1654" lon="6.47318">
        <ele>147</ele>
        <time>2013-09-12T12:22:54.000Z</time>
      </trkpt>
      <trkpt lat="43.16541" lon="6.47315">
        <ele>146</ele>
        <time>2013-09-12T12:22:55.000Z</time>
      </trkpt>
      <trkpt lat="43.16542" lon="6.47313">
        <ele>146</ele>
        <time>2013-09-12T12:22:56.000Z</time>
      </trkpt>
      <trkpt lat="43.16543" lon="6.4731">
        <ele>146</ele>
        <time>2013-09-12T12:22:57.000Z</time>
      </trkpt>
      <trkpt lat="43.16545" lon="6.47308">
        <ele>146</ele>
        <time>2013-09-12T12:22:58.000Z</time>
      </trkpt>
      <trkpt lat="43.16546" lon="6.47306">
        <ele>146</ele>
        <time>2013-09-12T12:22:59.000Z</time>
      </trkpt>
      <trkpt lat="43.16547" lon="6.47304">
        <ele>146</ele>
        <time>2013-09-12T12:23:00.000Z</time>
      </trkpt>
      <trkpt lat="43.16549" lon="6.47302">
        <ele>146</ele>
        <time>2013-09-12T12:23:01.000Z</time>
      </trkpt>
      <trkpt lat="43.16551" lon="6.47301">
        <ele>146</ele>
        <time>2013-09-12T12:23:02.000Z</time>
      </trkpt>
      <trkpt lat="43.16552" lon="6.47299">
        <ele>146</ele>
        <time>2013-09-12T12:23:03.000Z</time>
      </trkpt>
      <trkpt lat="43.16554" lon="6.47298">
        <ele>146</ele>
        <time>2013-09-12T12:23:04.000Z</time>
      </trkpt>
      <trkpt lat="43.16556" lon="6.47297">
        <ele>146</ele>
        <time>2013-09-12T12:23:05.000Z</time>
      </trkpt>
      <trkpt lat="43.16558" lon="6.47296">
        <ele>146</ele>
        <time>2013-09-12T12:23:06.000Z</time>
      </trkpt>
      <trkpt lat="43.1656" lon="6.47296">
        <ele>147</ele>
        <time>2013-09-12T12:23:07.000Z</time>
      </trkpt>
      <trkpt lat="43.16562" lon="6.47295">
        <ele>147</ele>
        <time>2013-09-12T12:23:08.000Z</time>
      </trkpt>
      <trkpt lat="43.16564" lon="6.47295">
        <ele>147</ele>
        <time>2013-09-12T12:23:09.000Z</time>
      </trkpt>
      <trkpt lat="43.16566" lon="6.47295">
        <ele>147</ele>
        <time>2013-09-12T12:23:10.000Z</time>
      </trkpt>
      <trkpt lat="43.16568" lon="6.47295">
        <ele>147</ele>
        <time>2013-09-12T12:23:11.000Z</time>
      </trkpt>
      <trkpt lat="43.16572" lon="6.47294">
        <ele>147</ele>
        <time>2013-09-12T12:23:13.000Z</time>
      </trkpt>
      <trkpt lat="43.16574" lon="6.47294">
        <ele>147</ele>
        <time>2013-09-12T12:23:14.000Z</time>
      </trkpt>
      <trkpt lat="43.16576" lon="6.47294">
        <ele>147</ele>
        <time>2013-09-12T12:23:15.000Z</time>
      </trkpt>
      <trkpt lat="43.16578" lon="6.47294">
        <ele>148</ele>
        <time>2013-09-12T12:23:16.000Z</time>
      </trkpt>
      <trkpt lat="43.1658" lon="6.47293">
        <ele>148</ele>
        <time>2013-09-12T12:23:17.000Z</time>
      </trkpt>
      <trkpt lat="43.16582" lon="6.47293">
        <ele>148</ele>
        <time>2013-09-12T12:23:18.000Z</time>
      </trkpt>
      <trkpt lat="43.16583" lon="6.47292">
        <ele>148</ele>
        <time>2013-09-12T12:23:19.000Z</time>
      </trkpt>
      <trkpt lat="43.16585" lon="6.47292">
        <ele>159</ele>
        <time>2013-09-12T12:23:20.000Z</time>
      </trkpt>
      <trkpt lat="43.16587" lon="6.47291">
        <ele>159</ele>
        <time>2013-09-12T12:23:21.000Z</time>
      </trkpt>
      <trkpt lat="43.16588" lon="6.4729">
        <ele>159</ele>
        <time>2013-09-12T12:23:22.000Z</time>
      </trkpt>
      <trkpt lat="43.1659" lon="6.47289">
        <ele>159</ele>
        <time>2013-09-12T12:23:23.000Z</time>
      </trkpt>
      <trkpt lat="43.16591" lon="6.47287">
        <ele>159</ele>
        <time>2013-09-12T12:23:24.000Z</time>
      </trkpt>
      <trkpt lat="43.16592" lon="6.47286">
        <ele>159</ele>
        <time>2013-09-12T12:23:25.000Z</time>
      </trkpt>
      <trkpt lat="43.16593" lon="6.47284">
        <ele>159</ele>
        <time>2013-09-12T12:23:26.000Z</time>
      </trkpt>
      <trkpt lat="43.16594" lon="6.47282">
        <ele>159</ele>
        <time>2013-09-12T12:23:27.000Z</time>
      </trkpt>
      <trkpt lat="43.16595" lon="6.4728">
        <ele>158</ele>
        <time>2013-09-12T12:23:28.000Z</time>
      </trkpt>
      <trkpt lat="43.16595" lon="6.47278">
        <ele>158</ele>
        <time>2013-09-12T12:23:29.000Z</time>
      </trkpt>
      <trkpt lat="43.16596" lon="6.47277">
        <ele>158</ele>
        <time>2013-09-12T12:23:30.000Z</time>
      </trkpt>
      <trkpt lat="43.16596" lon="6.47275">
        <ele>158</ele>
        <time>2013-09-12T12:23:31.000Z</time>
      </trkpt>
      <trkpt lat="43.16597" lon="6.47273">
        <ele>158</ele>
        <time>2013-09-12T12:23:32.000Z</time>
      </trkpt>
      <trkpt lat="43.16597" lon="6.47272">
        <ele>157</ele>
        <time>2013-09-12T12:23:33.000Z</time>
      </trkpt>
      <trkpt lat="43.16598" lon="6.4727">
        <ele>157</ele>
        <time>2013-09-12T12:23:34.000Z</time>
      </trkpt>
      <trkpt lat="43.16598" lon="6.47268">
        <ele>157</ele>
        <time>2013-09-12T12:23:35.000Z</time>
      </trkpt>
      <trkpt lat="43.16599" lon="6.47266">
        <ele>156</ele>
        <time>2013-09-12T12:23:36.000Z</time>
      </trkpt>
      <trkpt lat="43.16599" lon="6.47264">
        <ele>156</ele>
        <time>2013-09-12T12:23:37.000Z</time>
      </trkpt>
      <trkpt lat="43.166" lon="6.47262">
        <ele>156</ele>
        <time>2013-09-12T12:23:38.000Z</time>
      </trkpt>
      <trkpt lat="43.166" lon="6.4726">
        <ele>156</ele>
        <time>2013-09-12T12:23:39.000Z</time>
      </trkpt>
      <trkpt lat="43.16601" lon="6.47258">
        <ele>156</ele>
        <time>2013-09-12T12:23:40.000Z</time>
      </trkpt>
      <trkpt lat="43.16602" lon="6.47256">
        <ele>156</ele>
        <time>2013-09-12T12:23:41.000Z</time>
      </trkpt>
      <trkpt lat="43.16602" lon="6.47255">
        <ele>156</ele>
        <time>2013-09-12T12:23:42.000Z</time>
      </trkpt>
      <trkpt lat="43.16603" lon="6.47253">
        <ele>156</ele>
        <time>2013-09-12T12:23:43.000Z</time>
      </trkpt>
      <trkpt lat="43.16603" lon="6.4725">
        <ele>156</ele>
        <time>2013-09-12T12:23:44.000Z</time>
      </trkpt>
      <trkpt lat="43.16604" lon="6.47249">
        <ele>151</ele>
        <time>2013-09-12T12:23:45.000Z</time>
      </trkpt>
      <trkpt lat="43.16605" lon="6.47247">
        <ele>151</ele>
        <time>2013-09-12T12:23:46.000Z</time>
      </trkpt>
      <trkpt lat="43.16606" lon="6.47245">
        <ele>151</ele>
        <time>2013-09-12T12:23:47.000Z</time>
      </trkpt>
      <trkpt lat="43.16607" lon="6.47243">
        <ele>152</ele>
        <time>2013-09-12T12:23:48.000Z</time>
      </trkpt>
      <trkpt lat="43.16608" lon="6.47241">
        <ele>152</ele>
        <time>2013-09-12T12:23:49.000Z</time>
      </trkpt>
      <trkpt lat="43.16609" lon="6.47239">
        <ele>152</ele>
        <time>2013-09-12T12:23:50.000Z</time>
      </trkpt>
      <trkpt lat="43.1661" lon="6.47237">
        <ele>152</ele>
        <time>2013-09-12T12:23:51.000Z</time>
      </trkpt>
      <trkpt lat="43.16611" lon="6.47235">
        <ele>152</ele>
        <time>2013-09-12T12:23:52.000Z</time>
      </trkpt>
      <trkpt lat="43.16612" lon="6.47233">
        <ele>152</ele>
        <time>2013-09-12T12:23:53.000Z</time>
      </trkpt>
      <trkpt lat="43.16612" lon="6.47231">
        <ele>152</ele>
        <time>2013-09-12T12:23:54.000Z</time>
      </trkpt>
      <trkpt lat="43.16613" lon="6.47229">
        <ele>152</ele>
        <time>2013-09-12T12:23:55.000Z</time>
      </trkpt>
      <trkpt lat="43.16614" lon="6.47227">
        <ele>152</ele>
        <time>2013-09-12T12:23:56.000Z</time>
      </trkpt>
      <trkpt lat="43.16615" lon="6.47225">
        <ele>153</ele>
        <time>2013-09-12T12:23:57.000Z</time>
      </trkpt>
      <trkpt lat="43.16616" lon="6.47223">
        <ele>153</ele>
        <time>2013-09-12T12:23:58.000Z</time>
      </trkpt>
      <trkpt lat="43.16618" lon="6.47221">
        <ele>153</ele>
        <time>2013-09-12T12:23:59.000Z</time>
      </trkpt>
      <trkpt lat="43.16619" lon="6.47219">
        <ele>153</ele>
        <time>2013-09-12T12:24:00.000Z</time>
      </trkpt>
      <trkpt lat="43.1662" lon="6.47217">
        <ele>153</ele>
        <time>2013-09-12T12:24:01.000Z</time>
      </trkpt>
      <trkpt lat="43.1662" lon="6.47215">
        <ele>153</ele>
        <time>2013-09-12T12:24:02.000Z</time>
      </trkpt>
      <trkpt lat="43.16621" lon="6.47214">
        <ele>153</ele>
        <time>2013-09-12T12:24:03.000Z</time>
      </trkpt>
      <trkpt lat="43.16622" lon="6.47212">
        <ele>153</ele>
        <time>2013-09-12T12:24:04.000Z</time>
      </trkpt>
      <trkpt lat="43.16622" lon="6.4721">
        <ele>153</ele>
        <time>2013-09-12T12:24:05.000Z</time>
      </trkpt>
      <trkpt lat="43.16623" lon="6.47208">
        <ele>153</ele>
        <time>2013-09-12T12:24:06.000Z</time>
      </trkpt>
      <trkpt lat="43.16624" lon="6.47206">
        <ele>153</ele>
        <time>2013-09-12T12:24:07.000Z</time>
      </trkpt>
      <trkpt lat="43.16624" lon="6.47205">
        <ele>153</ele>
        <time>2013-09-12T12:24:08.000Z</time>
      </trkpt>
      <trkpt lat="43.16625" lon="6.47203">
        <ele>153</ele>
        <time>2013-09-12T12:24:09.000Z</time>
      </trkpt>
      <trkpt lat="43.16627" lon="6.47201">
        <ele>153</ele>
        <time>2013-09-12T12:24:10.000Z</time>
      </trkpt>
      <trkpt lat="43.16628" lon="6.472">
        <ele>153</ele>
        <time>2013-09-12T12:24:11.000Z</time>
      </trkpt>
      <trkpt lat="43.16629" lon="6.47198">
        <ele>153</ele>
        <time>2013-09-12T12:24:12.000Z</time>
      </trkpt>
      <trkpt lat="43.1663" lon="6.47197">
        <ele>153</ele>
        <time>2013-09-12T12:24:13.000Z</time>
      </trkpt>
      <trkpt lat="43.1663" lon="6.47195">
        <ele>153</ele>
        <time>2013-09-12T12:24:14.000Z</time>
      </trkpt>
      <trkpt lat="43.16632" lon="6.47193">
        <ele>153</ele>
        <time>2013-09-12T12:24:15.000Z</time>
      </trkpt>
      <trkpt lat="43.16633" lon="6.47192">
        <ele>153</ele>
        <time>2013-09-12T12:24:16.000Z</time>
      </trkpt>
      <trkpt lat="43.16635" lon="6.4719">
        <ele>153</ele>
        <time>2013-09-12T12:24:17.000Z</time>
      </trkpt>
      <trkpt lat="43.16636" lon="6.47189">
        <ele>154</ele>
        <time>2013-09-12T12:24:18.000Z</time>
      </trkpt>
      <trkpt lat="43.16638" lon="6.47187">
        <ele>154</ele>
        <time>2013-09-12T12:24:19.000Z</time>
      </trkpt>
      <trkpt lat="43.16639" lon="6.47186">
        <ele>154</ele>
        <time>2013-09-12T12:24:20.000Z</time>
      </trkpt>
      <trkpt lat="43.1664" lon="6.47185">
        <ele>154</ele>
        <time>2013-09-12T12:24:21.000Z</time>
      </trkpt>
      <trkpt lat="43.16642" lon="6.47184">
        <ele>154</ele>
        <time>2013-09-12T12:24:22.000Z</time>
      </trkpt>
      <trkpt lat="43.16643" lon="6.47182">
        <ele>154</ele>
        <time>2013-09-12T12:24:23.000Z</time>
      </trkpt>
      <trkpt lat="43.16645" lon="6.47181">
        <ele>155</ele>
        <time>2013-09-12T12:24:24.000Z</time>
      </trkpt>
      <trkpt lat="43.16646" lon="6.4718">
        <ele>155</ele>
        <time>2013-09-12T12:24:25.000Z</time>
      </trkpt>
      <trkpt lat="43.16648" lon="6.47178">
        <ele>155</ele>
        <time>2013-09-12T12:24:26.000Z</time>
      </trkpt>
      <trkpt lat="43.1665" lon="6.47177">
        <ele>155</ele>
        <time>2013-09-12T12:24:27.000Z</time>
      </trkpt>
      <trkpt lat="43.16652" lon="6.47176">
        <ele>156</ele>
        <time>2013-09-12T12:24:28.000Z</time>
      </trkpt>
      <trkpt lat="43.16653" lon="6.47174">
        <ele>156</ele>
        <time>2013-09-12T12:24:29.000Z</time>
      </trkpt>
      <trkpt lat="43.16655" lon="6.47173">
        <ele>156</ele>
        <time>2013-09-12T12:24:30.000Z</time>
      </trkpt>
      <trkpt lat="43.16657" lon="6.47172">
        <ele>157</ele>
        <time>2013-09-12T12:24:31.000Z</time>
      </trkpt>
      <trkpt lat="43.16659" lon="6.4717">
        <ele>157</ele>
        <time>2013-09-12T12:24:32.000Z</time>
      </trkpt>
      <trkpt lat="43.16661" lon="6.47169">
        <ele>158</ele>
        <time>2013-09-12T12:24:33.000Z</time>
      </trkpt>
      <trkpt lat="43.16662" lon="6.47168">
        <ele>158</ele>
        <time>2013-09-12T12:24:34.000Z</time>
      </trkpt>
      <trkpt lat="43.16664" lon="6.47167">
        <ele>158</ele>
        <time>2013-09-12T12:24:35.000Z</time>
      </trkpt>
      <trkpt lat="43.16665" lon="6.47166">
        <ele>158</ele>
        <time>2013-09-12T12:24:36.000Z</time>
      </trkpt>
      <trkpt lat="43.16667" lon="6.47165">
        <ele>160</ele>
        <time>2013-09-12T12:24:37.000Z</time>
      </trkpt>
      <trkpt lat="43.16669" lon="6.47164">
        <ele>160</ele>
        <time>2013-09-12T12:24:38.000Z</time>
      </trkpt>
      <trkpt lat="43.1667" lon="6.47163">
        <ele>161</ele>
        <time>2013-09-12T12:24:39.000Z</time>
      </trkpt>
      <trkpt lat="43.16672" lon="6.47162">
        <ele>161</ele>
        <time>2013-09-12T12:24:40.000Z</time>
      </trkpt>
      <trkpt lat="43.16673" lon="6.47161">
        <ele>162</ele>
        <time>2013-09-12T12:24:41.000Z</time>
      </trkpt>
      <trkpt lat="43.16675" lon="6.4716">
        <ele>162</ele>
        <time>2013-09-12T12:24:42.000Z</time>
      </trkpt>
      <trkpt lat="43.16676" lon="6.47159">
        <ele>163</ele>
        <time>2013-09-12T12:24:43.000Z</time>
      </trkpt>
      <trkpt lat="43.16678" lon="6.47158">
        <ele>163</ele>
        <time>2013-09-12T12:24:44.000Z</time>
      </trkpt>
      <trkpt lat="43.16679" lon="6.47158">
        <ele>163</ele>
        <time>2013-09-12T12:24:45.000Z</time>
      </trkpt>
      <trkpt lat="43.16681" lon="6.47157">
        <ele>164</ele>
        <time>2013-09-12T12:24:46.000Z</time>
      </trkpt>
      <trkpt lat="43.16683" lon="6.47156">
        <ele>164</ele>
        <time>2013-09-12T12:24:47.000Z</time>
      </trkpt>
      <trkpt lat="43.16684" lon="6.47155">
        <ele>164</ele>
        <time>2013-09-12T12:24:48.000Z</time>
      </trkpt>
      <trkpt lat="43.16686" lon="6.47154">
        <ele>165</ele>
        <time>2013-09-12T12:24:49.000Z</time>
      </trkpt>
      <trkpt lat="43.16687" lon="6.47153">
        <ele>165</ele>
        <time>2013-09-12T12:24:50.000Z</time>
      </trkpt>
      <trkpt lat="43.16688" lon="6.47151">
        <ele>165</ele>
        <time>2013-09-12T12:24:51.000Z</time>
      </trkpt>
      <trkpt lat="43.1669" lon="6.47149">
        <ele>166</ele>
        <time>2013-09-12T12:24:52.000Z</time>
      </trkpt>
      <trkpt lat="43.16691" lon="6.47148">
        <ele>166</ele>
        <time>2013-09-12T12:24:53.000Z</time>
      </trkpt>
      <trkpt lat="43.16692" lon="6.47146">
        <ele>166</ele>
        <time>2013-09-12T12:24:54.000Z</time>
      </trkpt>
      <trkpt lat="43.16693" lon="6.47144">
        <ele>166</ele>
        <time>2013-09-12T12:24:55.000Z</time>
      </trkpt>
      <trkpt lat="43.16693" lon="6.47142">
        <ele>166</ele>
        <time>2013-09-12T12:24:56.000Z</time>
      </trkpt>
      <trkpt lat="43.16694" lon="6.4714">
        <ele>166</ele>
        <time>2013-09-12T12:24:57.000Z</time>
      </trkpt>
      <trkpt lat="43.16694" lon="6.47138">
        <ele>166</ele>
        <time>2013-09-12T12:24:58.000Z</time>
      </trkpt>
      <trkpt lat="43.16695" lon="6.47136">
        <ele>166</ele>
        <time>2013-09-12T12:24:59.000Z</time>
      </trkpt>
      <trkpt lat="43.16695" lon="6.47133">
        <ele>166</ele>
        <time>2013-09-12T12:25:00.000Z</time>
      </trkpt>
      <trkpt lat="43.16696" lon="6.47131">
        <ele>166</ele>
        <time>2013-09-12T12:25:01.000Z</time>
      </trkpt>
      <trkpt lat="43.16696" lon="6.47129">
        <ele>166</ele>
        <time>2013-09-12T12:25:02.000Z</time>
      </trkpt>
      <trkpt lat="43.16696" lon="6.47127">
        <ele>166</ele>
        <time>2013-09-12T12:25:03.000Z</time>
      </trkpt>
      <trkpt lat="43.16697" lon="6.47124">
        <ele>166</ele>
        <time>2013-09-12T12:25:04.000Z</time>
      </trkpt>
      <trkpt lat="43.16697" lon="6.47122">
        <ele>166</ele>
        <time>2013-09-12T12:25:05.000Z</time>
      </trkpt>
      <trkpt lat="43.16698" lon="6.4712">
        <ele>166</ele>
        <time>2013-09-12T12:25:06.000Z</time>
      </trkpt>
      <trkpt lat="43.16698" lon="6.47118">
        <ele>166</ele>
        <time>2013-09-12T12:25:07.000Z</time>
      </trkpt>
      <trkpt lat="43.16699" lon="6.47116">
        <ele>166</ele>
        <time>2013-09-12T12:25:08.000Z</time>
      </trkpt>
      <trkpt lat="43.167" lon="6.47114">
        <ele>166</ele>
        <time>2013-09-12T12:25:09.000Z</time>
      </trkpt>
      <trkpt lat="43.16701" lon="6.47112">
        <ele>166</ele>
        <time>2013-09-12T12:25:10.000Z</time>
      </trkpt>
      <trkpt lat="43.16701" lon="6.4711">
        <ele>166</ele>
        <time>2013-09-12T12:25:11.000Z</time>
      </trkpt>
      <trkpt lat="43.16702" lon="6.47108">
        <ele>167</ele>
        <time>2013-09-12T12:25:12.000Z</time>
      </trkpt>
      <trkpt lat="43.16703" lon="6.47106">
        <ele>167</ele>
        <time>2013-09-12T12:25:13.000Z</time>
      </trkpt>
      <trkpt lat="43.16704" lon="6.47104">
        <ele>167</ele>
        <time>2013-09-12T12:25:14.000Z</time>
      </trkpt>
      <trkpt lat="43.16704" lon="6.47102">
        <ele>167</ele>
        <time>2013-09-12T12:25:15.000Z</time>
      </trkpt>
      <trkpt lat="43.16705" lon="6.471">
        <ele>167</ele>
        <time>2013-09-12T12:25:16.000Z</time>
      </trkpt>
      <trkpt lat="43.16706" lon="6.47098">
        <ele>167</ele>
        <time>2013-09-12T12:25:17.000Z</time>
      </trkpt>
      <trkpt lat="43.16707" lon="6.47096">
        <ele>167</ele>
        <time>2013-09-12T12:25:18.000Z</time>
      </trkpt>
      <trkpt lat="43.16708" lon="6.47094">
        <ele>167</ele>
        <time>2013-09-12T12:25:19.000Z</time>
      </trkpt>
      <trkpt lat="43.16709" lon="6.47092">
        <ele>167</ele>
        <time>2013-09-12T12:25:20.000Z</time>
      </trkpt>
      <trkpt lat="43.16709" lon="6.47089">
        <ele>167</ele>
        <time>2013-09-12T12:25:21.000Z</time>
      </trkpt>
      <trkpt lat="43.1671" lon="6.47088">
        <ele>167</ele>
        <time>2013-09-12T12:25:22.000Z</time>
      </trkpt>
      <trkpt lat="43.16711" lon="6.47086">
        <ele>168</ele>
        <time>2013-09-12T12:25:23.000Z</time>
      </trkpt>
      <trkpt lat="43.16712" lon="6.47084">
        <ele>168</ele>
        <time>2013-09-12T12:25:24.000Z</time>
      </trkpt>
      <trkpt lat="43.16713" lon="6.47082">
        <ele>165</ele>
        <time>2013-09-12T12:25:25.000Z</time>
      </trkpt>
      <trkpt lat="43.16714" lon="6.4708">
        <ele>165</ele>
        <time>2013-09-12T12:25:26.000Z</time>
      </trkpt>
      <trkpt lat="43.16714" lon="6.47077">
        <ele>165</ele>
        <time>2013-09-12T12:25:27.000Z</time>
      </trkpt>
      <trkpt lat="43.16715" lon="6.47075">
        <ele>165</ele>
        <time>2013-09-12T12:25:28.000Z</time>
      </trkpt>
      <trkpt lat="43.16716" lon="6.47073">
        <ele>165</ele>
        <time>2013-09-12T12:25:29.000Z</time>
      </trkpt>
      <trkpt lat="43.16717" lon="6.47072">
        <ele>165</ele>
        <time>2013-09-12T12:25:30.000Z</time>
      </trkpt>
      <trkpt lat="43.16718" lon="6.4707">
        <ele>165</ele>
        <time>2013-09-12T12:25:31.000Z</time>
      </trkpt>
      <trkpt lat="43.16719" lon="6.47068">
        <ele>165</ele>
        <time>2013-09-12T12:25:32.000Z</time>
      </trkpt>
      <trkpt lat="43.1672" lon="6.47066">
        <ele>165</ele>
        <time>2013-09-12T12:25:33.000Z</time>
      </trkpt>
      <trkpt lat="43.16721" lon="6.47064">
        <ele>165</ele>
        <time>2013-09-12T12:25:34.000Z</time>
      </trkpt>
      <trkpt lat="43.16722" lon="6.47062">
        <ele>165</ele>
        <time>2013-09-12T12:25:35.000Z</time>
      </trkpt>
      <trkpt lat="43.16723" lon="6.4706">
        <ele>165</ele>
        <time>2013-09-12T12:25:36.000Z</time>
      </trkpt>
      <trkpt lat="43.16724" lon="6.47058">
        <ele>165</ele>
        <time>2013-09-12T12:25:37.000Z</time>
      </trkpt>
      <trkpt lat="43.16724" lon="6.47056">
        <ele>165</ele>
        <time>2013-09-12T12:25:38.000Z</time>
      </trkpt>
      <trkpt lat="43.16725" lon="6.47054">
        <ele>165</ele>
        <time>2013-09-12T12:25:39.000Z</time>
      </trkpt>
      <trkpt lat="43.16726" lon="6.47052">
        <ele>165</ele>
        <time>2013-09-12T12:25:40.000Z</time>
      </trkpt>
      <trkpt lat="43.16727" lon="6.4705">
        <ele>165</ele>
        <time>2013-09-12T12:25:41.000Z</time>
      </trkpt>
      <trkpt lat="43.16728" lon="6.47048">
        <ele>165</ele>
        <time>2013-09-12T12:25:42.000Z</time>
      </trkpt>
      <trkpt lat="43.16728" lon="6.47046">
        <ele>165</ele>
        <time>2013-09-12T12:25:43.000Z</time>
      </trkpt>
      <trkpt lat="43.16729" lon="6.47044">
        <ele>165</ele>
        <time>2013-09-12T12:25:44.000Z</time>
      </trkpt>
      <trkpt lat="43.16729" lon="6.47043">
        <ele>165</ele>
        <time>2013-09-12T12:25:45.000Z</time>
      </trkpt>
      <trkpt lat="43.16729" lon="6.47041">
        <ele>165</ele>
        <time>2013-09-12T12:25:46.000Z</time>
      </trkpt>
      <trkpt lat="43.1673" lon="6.47039">
        <ele>165</ele>
        <time>2013-09-12T12:25:47.000Z</time>
      </trkpt>
      <trkpt lat="43.16731" lon="6.47037">
        <ele>165</ele>
        <time>2013-09-12T12:25:48.000Z</time>
      </trkpt>
      <trkpt lat="43.16731" lon="6.47035">
        <ele>165</ele>
        <time>2013-09-12T12:25:49.000Z</time>
      </trkpt>
      <trkpt lat="43.16732" lon="6.47033">
        <ele>165</ele>
        <time>2013-09-12T12:25:50.000Z</time>
      </trkpt>
      <trkpt lat="43.16732" lon="6.47032">
        <ele>165</ele>
        <time>2013-09-12T12:25:51.000Z</time>
      </trkpt>
      <trkpt lat="43.16733" lon="6.4703">
        <ele>165</ele>
        <time>2013-09-12T12:25:52.000Z</time>
      </trkpt>
      <trkpt lat="43.16733" lon="6.47028">
        <ele>165</ele>
        <time>2013-09-12T12:25:53.000Z</time>
      </trkpt>
      <trkpt lat="43.16734" lon="6.47027">
        <ele>165</ele>
        <time>2013-09-12T12:25:54.000Z</time>
      </trkpt>
      <trkpt lat="43.16735" lon="6.47025">
        <ele>165</ele>
        <time>2013-09-12T12:25:55.000Z</time>
      </trkpt>
      <trkpt lat="43.16736" lon="6.47023">
        <ele>165</ele>
        <time>2013-09-12T12:25:56.000Z</time>
      </trkpt>
      <trkpt lat="43.16737" lon="6.47021">
        <ele>165</ele>
        <time>2013-09-12T12:25:57.000Z</time>
      </trkpt>
      <trkpt lat="43.16738" lon="6.4702">
        <ele>165</ele>
        <time>2013-09-12T12:25:58.000Z</time>
      </trkpt>
      <trkpt lat="43.16738" lon="6.47018">
        <ele>166</ele>
        <time>2013-09-12T12:25:59.000Z</time>
      </trkpt>
      <trkpt lat="43.16739" lon="6.47016">
        <ele>166</ele>
        <time>2013-09-12T12:26:00.000Z</time>
      </trkpt>
      <trkpt lat="43.1674" lon="6.47014">
        <ele>166</ele>
        <time>2013-09-12T12:26:01.000Z</time>
      </trkpt>
      <trkpt lat="43.16742" lon="6.47013">
        <ele>166</ele>
        <time>2013-09-12T12:26:02.000Z</time>
      </trkpt>
      <trkpt lat="43.16743" lon="6.47011">
        <ele>166</ele>
        <time>2013-09-12T12:26:03.000Z</time>
      </trkpt>
      <trkpt lat="43.16744" lon="6.4701">
        <ele>167</ele>
        <time>2013-09-12T12:26:04.000Z</time>
      </trkpt>
      <trkpt lat="43.16745" lon="6.47008">
        <ele>167</ele>
        <time>2013-09-12T12:26:05.000Z</time>
      </trkpt>
      <trkpt lat="43.16746" lon="6.47006">
        <ele>167</ele>
        <time>2013-09-12T12:26:06.000Z</time>
      </trkpt>
      <trkpt lat="43.16748" lon="6.47005">
        <ele>168</ele>
        <time>2013-09-12T12:26:07.000Z</time>
      </trkpt>
      <trkpt lat="43.16749" lon="6.47003">
        <ele>168</ele>
        <time>2013-09-12T12:26:08.000Z</time>
      </trkpt>
      <trkpt lat="43.16751" lon="6.47001">
        <ele>170</ele>
        <time>2013-09-12T12:26:09.000Z</time>
      </trkpt>
      <trkpt lat="43.16752" lon="6.46999">
        <ele>170</ele>
        <time>2013-09-12T12:26:10.000Z</time>
      </trkpt>
      <trkpt lat="43.16754" lon="6.46998">
        <ele>171</ele>
        <time>2013-09-12T12:26:11.000Z</time>
      </trkpt>
      <trkpt lat="43.16755" lon="6.46996">
        <ele>171</ele>
        <time>2013-09-12T12:26:12.000Z</time>
      </trkpt>
      <trkpt lat="43.16756" lon="6.46994">
        <ele>172</ele>
        <time>2013-09-12T12:26:13.000Z</time>
      </trkpt>
      <trkpt lat="43.16757" lon="6.46993">
        <ele>172</ele>
        <time>2013-09-12T12:26:14.000Z</time>
      </trkpt>
      <trkpt lat="43.16758" lon="6.46991">
        <ele>173</ele>
        <time>2013-09-12T12:26:15.000Z</time>
      </trkpt>
      <trkpt lat="43.16759" lon="6.46989">
        <ele>173</ele>
        <time>2013-09-12T12:26:16.000Z</time>
      </trkpt>
      <trkpt lat="43.16761" lon="6.46987">
        <ele>174</ele>
        <time>2013-09-12T12:26:17.000Z</time>
      </trkpt>
      <trkpt lat="43.16762" lon="6.46984">
        <ele>174</ele>
        <time>2013-09-12T12:26:18.000Z</time>
      </trkpt>
      <trkpt lat="43.16763" lon="6.46982">
        <ele>175</ele>
        <time>2013-09-12T12:26:19.000Z</time>
      </trkpt>
      <trkpt lat="43.16764" lon="6.4698">
        <ele>175</ele>
        <time>2013-09-12T12:26:20.000Z</time>
      </trkpt>
      <trkpt lat="43.16765" lon="6.46978">
        <ele>175</ele>
        <time>2013-09-12T12:26:21.000Z</time>
      </trkpt>
      <trkpt lat="43.16766" lon="6.46977">
        <ele>175</ele>
        <time>2013-09-12T12:26:22.000Z</time>
      </trkpt>
      <trkpt lat="43.16767" lon="6.46974">
        <ele>176</ele>
        <time>2013-09-12T12:26:23.000Z</time>
      </trkpt>
      <trkpt lat="43.16768" lon="6.46972">
        <ele>176</ele>
        <time>2013-09-12T12:26:24.000Z</time>
      </trkpt>
      <trkpt lat="43.16769" lon="6.4697">
        <ele>176</ele>
        <time>2013-09-12T12:26:25.000Z</time>
      </trkpt>
      <trkpt lat="43.1677" lon="6.46969">
        <ele>176</ele>
        <time>2013-09-12T12:26:26.000Z</time>
      </trkpt>
      <trkpt lat="43.16771" lon="6.46967">
        <ele>176</ele>
        <time>2013-09-12T12:26:27.000Z</time>
      </trkpt>
      <trkpt lat="43.16772" lon="6.46965">
        <ele>176</ele>
        <time>2013-09-12T12:26:28.000Z</time>
      </trkpt>
      <trkpt lat="43.16772" lon="6.46963">
        <ele>176</ele>
        <time>2013-09-12T12:26:29.000Z</time>
      </trkpt>
      <trkpt lat="43.16772" lon="6.46961">
        <ele>176</ele>
        <time>2013-09-12T12:26:30.000Z</time>
      </trkpt>
      <trkpt lat="43.16773" lon="6.46959">
        <ele>176</ele>
        <time>2013-09-12T12:26:31.000Z</time>
      </trkpt>
      <trkpt lat="43.16773" lon="6.46957">
        <ele>176</ele>
        <time>2013-09-12T12:26:32.000Z</time>
      </trkpt>
      <trkpt lat="43.16774" lon="6.46955">
        <ele>176</ele>
        <time>2013-09-12T12:26:33.000Z</time>
      </trkpt>
      <trkpt lat="43.16774" lon="6.46953">
        <ele>176</ele>
        <time>2013-09-12T12:26:34.000Z</time>
      </trkpt>
      <trkpt lat="43.16775" lon="6.46951">
        <ele>176</ele>
        <time>2013-09-12T12:26:35.000Z</time>
      </trkpt>
      <trkpt lat="43.16775" lon="6.46949">
        <ele>176</ele>
        <time>2013-09-12T12:26:36.000Z</time>
      </trkpt>
      <trkpt lat="43.16775" lon="6.46947">
        <ele>176</ele>
        <time>2013-09-12T12:26:37.000Z</time>
      </trkpt>
      <trkpt lat="43.16775" lon="6.46945">
        <ele>175</ele>
        <time>2013-09-12T12:26:38.000Z</time>
      </trkpt>
      <trkpt lat="43.16776" lon="6.46942">
        <ele>175</ele>
        <time>2013-09-12T12:26:39.000Z</time>
      </trkpt>
      <trkpt lat="43.16776" lon="6.4694">
        <ele>175</ele>
        <time>2013-09-12T12:26:40.000Z</time>
      </trkpt>
      <trkpt lat="43.16776" lon="6.46938">
        <ele>175</ele>
        <time>2013-09-12T12:26:41.000Z</time>
      </trkpt>
      <trkpt lat="43.16777" lon="6.46936">
        <ele>175</ele>
        <time>2013-09-12T12:26:42.000Z</time>
      </trkpt>
      <trkpt lat="43.16777" lon="6.46934">
        <ele>175</ele>
        <time>2013-09-12T12:26:43.000Z</time>
      </trkpt>
      <trkpt lat="43.16777" lon="6.46932">
        <ele>175</ele>
        <time>2013-09-12T12:26:44.000Z</time>
      </trkpt>
      <trkpt lat="43.16778" lon="6.4693">
        <ele>175</ele>
        <time>2013-09-12T12:26:45.000Z</time>
      </trkpt>
      <trkpt lat="43.16779" lon="6.46928">
        <ele>175</ele>
        <time>2013-09-12T12:26:46.000Z</time>
      </trkpt>
      <trkpt lat="43.1678" lon="6.46926">
        <ele>175</ele>
        <time>2013-09-12T12:26:47.000Z</time>
      </trkpt>
      <trkpt lat="43.16781" lon="6.46924">
        <ele>175</ele>
        <time>2013-09-12T12:26:48.000Z</time>
      </trkpt>
      <trkpt lat="43.16782" lon="6.46923">
        <ele>175</ele>
        <time>2013-09-12T12:26:49.000Z</time>
      </trkpt>
      <trkpt lat="43.16784" lon="6.46922">
        <ele>176</ele>
        <time>2013-09-12T12:26:50.000Z</time>
      </trkpt>
      <trkpt lat="43.16785" lon="6.46921">
        <ele>176</ele>
        <time>2013-09-12T12:26:51.000Z</time>
      </trkpt>
      <trkpt lat="43.16787" lon="6.46921">
        <ele>177</ele>
        <time>2013-09-12T12:26:52.000Z</time>
      </trkpt>
      <trkpt lat="43.16788" lon="6.46921">
        <ele>177</ele>
        <time>2013-09-12T12:26:53.000Z</time>
      </trkpt>
      <trkpt lat="43.16789" lon="6.46922">
        <ele>178</ele>
        <time>2013-09-12T12:26:54.000Z</time>
      </trkpt>
      <trkpt lat="43.1679" lon="6.46923">
        <ele>178</ele>
        <time>2013-09-12T12:26:55.000Z</time>
      </trkpt>
      <trkpt lat="43.16791" lon="6.46924">
        <ele>178</ele>
        <time>2013-09-12T12:26:56.000Z</time>
      </trkpt>
      <trkpt lat="43.16792" lon="6.46925">
        <ele>178</ele>
        <time>2013-09-12T12:26:57.000Z</time>
      </trkpt>
      <trkpt lat="43.16793" lon="6.46927">
        <ele>179</ele>
        <time>2013-09-12T12:26:58.000Z</time>
      </trkpt>
      <trkpt lat="43.16793" lon="6.46929">
        <ele>179</ele>
        <time>2013-09-12T12:26:59.000Z</time>
      </trkpt>
      <trkpt lat="43.16794" lon="6.46931">
        <ele>179</ele>
        <time>2013-09-12T12:27:00.000Z</time>
      </trkpt>
      <trkpt lat="43.16794" lon="6.46932">
        <ele>179</ele>
        <time>2013-09-12T12:27:01.000Z</time>
      </trkpt>
      <trkpt lat="43.16794" lon="6.46936">
        <ele>179</ele>
        <time>2013-09-12T12:27:03.000Z</time>
      </trkpt>
      <trkpt lat="43.16794" lon="6.46938">
        <ele>179</ele>
        <time>2013-09-12T12:27:04.000Z</time>
      </trkpt>
      <trkpt lat="43.16794" lon="6.4694">
        <ele>179</ele>
        <time>2013-09-12T12:27:05.000Z</time>
      </trkpt>
      <trkpt lat="43.16794" lon="6.46945">
        <ele>179</ele>
        <time>2013-09-12T12:27:08.000Z</time>
      </trkpt>
      <trkpt lat="43.16794" lon="6.46947">
        <ele>179</ele>
        <time>2013-09-12T12:27:09.000Z</time>
      </trkpt>
      <trkpt lat="43.16794" lon="6.46949">
        <ele>179</ele>
        <time>2013-09-12T12:27:10.000Z</time>
      </trkpt>
      <trkpt lat="43.16795" lon="6.46953">
        <ele>180</ele>
        <time>2013-09-12T12:27:12.000Z</time>
      </trkpt>
      <trkpt lat="43.16795" lon="6.46955">
        <ele>180</ele>
        <time>2013-09-12T12:27:13.000Z</time>
      </trkpt>
      <trkpt lat="43.16796" lon="6.46957">
        <ele>180</ele>
        <time>2013-09-12T12:27:14.000Z</time>
      </trkpt>
      <trkpt lat="43.16797" lon="6.46959">
        <ele>180</ele>
        <time>2013-09-12T12:27:15.000Z</time>
      </trkpt>
      <trkpt lat="43.16797" lon="6.4696">
        <ele>180</ele>
        <time>2013-09-12T12:27:16.000Z</time>
      </trkpt>
      <trkpt lat="43.16798" lon="6.46962">
        <ele>180</ele>
        <time>2013-09-12T12:27:17.000Z</time>
      </trkpt>
      <trkpt lat="43.16798" lon="6.46963">
        <ele>181</ele>
        <time>2013-09-12T12:27:18.000Z</time>
      </trkpt>
      <trkpt lat="43.16799" lon="6.46965">
        <ele>181</ele>
        <time>2013-09-12T12:27:19.000Z</time>
      </trkpt>
      <trkpt lat="43.168" lon="6.46967">
        <ele>181</ele>
        <time>2013-09-12T12:27:20.000Z</time>
      </trkpt>
      <trkpt lat="43.168" lon="6.46968">
        <ele>181</ele>
        <time>2013-09-12T12:27:21.000Z</time>
      </trkpt>
      <trkpt lat="43.16801" lon="6.4697">
        <ele>181</ele>
        <time>2013-09-12T12:27:22.000Z</time>
      </trkpt>
      <trkpt lat="43.16801" lon="6.46972">
        <ele>181</ele>
        <time>2013-09-12T12:27:23.000Z</time>
      </trkpt>
      <trkpt lat="43.16802" lon="6.46974">
        <ele>182</ele>
        <time>2013-09-12T12:27:24.000Z</time>
      </trkpt>
      <trkpt lat="43.16802" lon="6.46976">
        <ele>182</ele>
        <time>2013-09-12T12:27:25.000Z</time>
      </trkpt>
      <trkpt lat="43.16802" lon="6.46977">
        <ele>182</ele>
        <time>2013-09-12T12:27:26.000Z</time>
      </trkpt>
      <trkpt lat="43.16803" lon="6.46979">
        <ele>182</ele>
        <time>2013-09-12T12:27:27.000Z</time>
      </trkpt>
      <trkpt lat="43.16803" lon="6.46982">
        <ele>182</ele>
        <time>2013-09-12T12:27:29.000Z</time>
      </trkpt>
      <trkpt lat="43.16803" lon="6.46985">
        <ele>183</ele>
        <time>2013-09-12T12:27:31.000Z</time>
      </trkpt>
      <trkpt lat="43.16803" lon="6.46987">
        <ele>183</ele>
        <time>2013-09-12T12:27:32.000Z</time>
      </trkpt>
      <trkpt lat="43.16803" lon="6.46989">
        <ele>183</ele>
        <time>2013-09-12T12:27:33.000Z</time>
      </trkpt>
      <trkpt lat="43.16802" lon="6.46991">
        <ele>183</ele>
        <time>2013-09-12T12:27:34.000Z</time>
      </trkpt>
      <trkpt lat="43.16802" lon="6.46993">
        <ele>183</ele>
        <time>2013-09-12T12:27:35.000Z</time>
      </trkpt>
      <trkpt lat="43.16802" lon="6.46995">
        <ele>183</ele>
        <time>2013-09-12T12:27:36.000Z</time>
      </trkpt>
      <trkpt lat="43.16801" lon="6.46997">
        <ele>183</ele>
        <time>2013-09-12T12:27:37.000Z</time>
      </trkpt>
      <trkpt lat="43.16801" lon="6.46999">
        <ele>183</ele>
        <time>2013-09-12T12:27:38.000Z</time>
      </trkpt>
      <trkpt lat="43.16801" lon="6.47001">
        <ele>187</ele>
        <time>2013-09-12T12:27:39.000Z</time>
      </trkpt>
      <trkpt lat="43.16801" lon="6.47003">
        <ele>187</ele>
        <time>2013-09-12T12:27:40.000Z</time>
      </trkpt>
      <trkpt lat="43.168" lon="6.47005">
        <ele>187</ele>
        <time>2013-09-12T12:27:41.000Z</time>
      </trkpt>
      <trkpt lat="43.168" lon="6.47007">
        <ele>187</ele>
        <time>2013-09-12T12:27:42.000Z</time>
      </trkpt>
      <trkpt lat="43.16799" lon="6.47008">
        <ele>187</ele>
        <time>2013-09-12T12:27:43.000Z</time>
      </trkpt>
      <trkpt lat="43.16799" lon="6.4701">
        <ele>187</ele>
        <time>2013-09-12T12:27:44.000Z</time>
      </trkpt>
      <trkpt lat="43.16798" lon="6.47012">
        <ele>187</ele>
        <time>2013-09-12T12:27:45.000Z</time>
      </trkpt>
      <trkpt lat="43.16797" lon="6.47014">
        <ele>187</ele>
        <time>2013-09-12T12:27:46.000Z</time>
      </trkpt>
      <trkpt lat="43.16797" lon="6.47016">
        <ele>187</ele>
        <time>2013-09-12T12:27:47.000Z</time>
      </trkpt>
      <trkpt lat="43.16797" lon="6.47017">
        <ele>186</ele>
        <time>2013-09-12T12:27:48.000Z</time>
      </trkpt>
      <trkpt lat="43.16796" lon="6.47019">
        <ele>186</ele>
        <time>2013-09-12T12:27:49.000Z</time>
      </trkpt>
      <trkpt lat="43.16795" lon="6.47021">
        <ele>186</ele>
        <time>2013-09-12T12:27:50.000Z</time>
      </trkpt>
      <trkpt lat="43.16795" lon="6.47023">
        <ele>186</ele>
        <time>2013-09-12T12:27:51.000Z</time>
      </trkpt>
      <trkpt lat="43.16794" lon="6.47025">
        <ele>186</ele>
        <time>2013-09-12T12:27:52.000Z</time>
      </trkpt>
      <trkpt lat="43.16794" lon="6.47027">
        <ele>186</ele>
        <time>2013-09-12T12:27:53.000Z</time>
      </trkpt>
      <trkpt lat="43.16793" lon="6.47028">
        <ele>186</ele>
        <time>2013-09-12T12:27:54.000Z</time>
      </trkpt>
      <trkpt lat="43.16792" lon="6.4703">
        <ele>186</ele>
        <time>2013-09-12T12:27:55.000Z</time>
      </trkpt>
      <trkpt lat="43.16792" lon="6.47032">
        <ele>186</ele>
        <time>2013-09-12T12:27:56.000Z</time>
      </trkpt>
      <trkpt lat="43.16791" lon="6.47035">
        <ele>186</ele>
        <time>2013-09-12T12:27:57.000Z</time>
      </trkpt>
      <trkpt lat="43.16791" lon="6.47036">
        <ele>186</ele>
        <time>2013-09-12T12:27:58.000Z</time>
      </trkpt>
      <trkpt lat="43.1679" lon="6.47038">
        <ele>186</ele>
        <time>2013-09-12T12:27:59.000Z</time>
      </trkpt>
      <trkpt lat="43.1679" lon="6.4704">
        <ele>186</ele>
        <time>2013-09-12T12:28:00.000Z</time>
      </trkpt>
      <trkpt lat="43.16789" lon="6.47042">
        <ele>186</ele>
        <time>2013-09-12T12:28:01.000Z</time>
      </trkpt>
      <trkpt lat="43.16789" lon="6.47044">
        <ele>186</ele>
        <time>2013-09-12T12:28:02.000Z</time>
      </trkpt>
      <trkpt lat="43.16788" lon="6.47046">
        <ele>186</ele>
        <time>2013-09-12T12:28:03.000Z</time>
      </trkpt>
      <trkpt lat="43.16787" lon="6.47048">
        <ele>186</ele>
        <time>2013-09-12T12:28:04.000Z</time>
      </trkpt>
      <trkpt lat="43.16787" lon="6.4705">
        <ele>186</ele>
        <time>2013-09-12T12:28:05.000Z</time>
      </trkpt>
      <trkpt lat="43.16786" lon="6.47052">
        <ele>186</ele>
        <time>2013-09-12T12:28:06.000Z</time>
      </trkpt>
      <trkpt lat="43.16785" lon="6.47054">
        <ele>186</ele>
        <time>2013-09-12T12:28:07.000Z</time>
      </trkpt>
      <trkpt lat="43.16785" lon="6.47056">
        <ele>186</ele>
        <time>2013-09-12T12:28:08.000Z</time>
      </trkpt>
      <trkpt lat="43.16784" lon="6.47057">
        <ele>186</ele>
        <time>2013-09-12T12:28:09.000Z</time>
      </trkpt>
      <trkpt lat="43.16783" lon="6.47059">
        <ele>186</ele>
        <time>2013-09-12T12:28:10.000Z</time>
      </trkpt>
      <trkpt lat="43.16782" lon="6.47061">
        <ele>186</ele>
        <time>2013-09-12T12:28:11.000Z</time>
      </trkpt>
      <trkpt lat="43.16782" lon="6.47062">
        <ele>186</ele>
        <time>2013-09-12T12:28:12.000Z</time>
      </trkpt>
      <trkpt lat="43.16781" lon="6.47064">
        <ele>186</ele>
        <time>2013-09-12T12:28:13.000Z</time>
      </trkpt>
      <trkpt lat="43.1678" lon="6.47066">
        <ele>186</ele>
        <time>2013-09-12T12:28:14.000Z</time>
      </trkpt>
      <trkpt lat="43.16779" lon="6.47067">
        <ele>185</ele>
        <time>2013-09-12T12:28:15.000Z</time>
      </trkpt>
      <trkpt lat="43.16778" lon="6.47069">
        <ele>185</ele>
        <time>2013-09-12T12:28:16.000Z</time>
      </trkpt>
      <trkpt lat="43.16778" lon="6.47071">
        <ele>185</ele>
        <time>2013-09-12T12:28:17.000Z</time>
      </trkpt>
      <trkpt lat="43.16777" lon="6.47073">
        <ele>185</ele>
        <time>2013-09-12T12:28:18.000Z</time>
      </trkpt>
      <trkpt lat="43.16776" lon="6.47075">
        <ele>185</ele>
        <time>2013-09-12T12:28:19.000Z</time>
      </trkpt>
      <trkpt lat="43.16776" lon="6.47076">
        <ele>185</ele>
        <time>2013-09-12T12:28:20.000Z</time>
      </trkpt>
      <trkpt lat="43.16775" lon="6.47078">
        <ele>184</ele>
        <time>2013-09-12T12:28:21.000Z</time>
      </trkpt>
      <trkpt lat="43.16774" lon="6.4708">
        <ele>184</ele>
        <time>2013-09-12T12:28:22.000Z</time>
      </trkpt>
      <trkpt lat="43.16773" lon="6.47081">
        <ele>184</ele>
        <time>2013-09-12T12:28:23.000Z</time>
      </trkpt>
      <trkpt lat="43.16772" lon="6.47083">
        <ele>184</ele>
        <time>2013-09-12T12:28:24.000Z</time>
      </trkpt>
      <trkpt lat="43.16771" lon="6.47085">
        <ele>188</ele>
        <time>2013-09-12T12:28:25.000Z</time>
      </trkpt>
      <trkpt lat="43.16771" lon="6.47086">
        <ele>188</ele>
        <time>2013-09-12T12:28:26.000Z</time>
      </trkpt>
      <trkpt lat="43.1677" lon="6.47088">
        <ele>187</ele>
        <time>2013-09-12T12:28:27.000Z</time>
      </trkpt>
      <trkpt lat="43.16769" lon="6.4709">
        <ele>187</ele>
        <time>2013-09-12T12:28:28.000Z</time>
      </trkpt>
      <trkpt lat="43.16768" lon="6.47092">
        <ele>187</ele>
        <time>2013-09-12T12:28:29.000Z</time>
      </trkpt>
      <trkpt lat="43.16767" lon="6.47093">
        <ele>187</ele>
        <time>2013-09-12T12:28:30.000Z</time>
      </trkpt>
      <trkpt lat="43.16766" lon="6.47095">
        <ele>187</ele>
        <time>2013-09-12T12:28:31.000Z</time>
      </trkpt>
      <trkpt lat="43.16766" lon="6.47097">
        <ele>187</ele>
        <time>2013-09-12T12:28:32.000Z</time>
      </trkpt>
      <trkpt lat="43.16765" lon="6.47099">
        <ele>187</ele>
        <time>2013-09-12T12:28:33.000Z</time>
      </trkpt>
      <trkpt lat="43.16764" lon="6.471">
        <ele>188</ele>
        <time>2013-09-12T12:28:34.000Z</time>
      </trkpt>
      <trkpt lat="43.16764" lon="6.47102">
        <ele>188</ele>
        <time>2013-09-12T12:28:35.000Z</time>
      </trkpt>
      <trkpt lat="43.16763" lon="6.47104">
        <ele>188</ele>
        <time>2013-09-12T12:28:36.000Z</time>
      </trkpt>
      <trkpt lat="43.16762" lon="6.47106">
        <ele>188</ele>
        <time>2013-09-12T12:28:37.000Z</time>
      </trkpt>
      <trkpt lat="43.16762" lon="6.47108">
        <ele>189</ele>
        <time>2013-09-12T12:28:38.000Z</time>
      </trkpt>
      <trkpt lat="43.16762" lon="6.4711">
        <ele>189</ele>
        <time>2013-09-12T12:28:39.000Z</time>
      </trkpt>
      <trkpt lat="43.16761" lon="6.47112">
        <ele>189</ele>
        <time>2013-09-12T12:28:40.000Z</time>
      </trkpt>
      <trkpt lat="43.1676" lon="6.47114">
        <ele>189</ele>
        <time>2013-09-12T12:28:41.000Z</time>
      </trkpt>
      <trkpt lat="43.16759" lon="6.47116">
        <ele>189</ele>
        <time>2013-09-12T12:28:42.000Z</time>
      </trkpt>
      <trkpt lat="43.16759" lon="6.47118">
        <ele>189</ele>
        <time>2013-09-12T12:28:43.000Z</time>
      </trkpt>
      <trkpt lat="43.16758" lon="6.4712">
        <ele>190</ele>
        <time>2013-09-12T12:28:44.000Z</time>
      </trkpt>
      <trkpt lat="43.16758" lon="6.47122">
        <ele>190</ele>
        <time>2013-09-12T12:28:45.000Z</time>
      </trkpt>
      <trkpt lat="43.16758" lon="6.47124">
        <ele>190</ele>
        <time>2013-09-12T12:28:46.000Z</time>
      </trkpt>
      <trkpt lat="43.16757" lon="6.47126">
        <ele>190</ele>
        <time>2013-09-12T12:28:47.000Z</time>
      </trkpt>
      <trkpt lat="43.16757" lon="6.47128">
        <ele>190</ele>
        <time>2013-09-12T12:28:48.000Z</time>
      </trkpt>
      <trkpt lat="43.16757" lon="6.4713">
        <ele>190</ele>
        <time>2013-09-12T12:28:49.000Z</time>
      </trkpt>
      <trkpt lat="43.16758" lon="6.47141">
        <ele>190</ele>
        <time>2013-09-12T12:28:54.000Z</time>
      </trkpt>
      <trkpt lat="43.16758" lon="6.47143">
        <ele>189</ele>
        <time>2013-09-12T12:28:55.000Z</time>
      </trkpt>
      <trkpt lat="43.16758" lon="6.47145">
        <ele>189</ele>
        <time>2013-09-12T12:28:56.000Z</time>
      </trkpt>
      <trkpt lat="43.16759" lon="6.47147">
        <ele>189</ele>
        <time>2013-09-12T12:28:57.000Z</time>
      </trkpt>
      <trkpt lat="43.16759" lon="6.47149">
        <ele>189</ele>
        <time>2013-09-12T12:28:58.000Z</time>
      </trkpt>
      <trkpt lat="43.16759" lon="6.47152">
        <ele>188</ele>
        <time>2013-09-12T12:28:59.000Z</time>
      </trkpt>
      <trkpt lat="43.16759" lon="6.47153">
        <ele>188</ele>
        <time>2013-09-12T12:29:00.000Z</time>
      </trkpt>
      <trkpt lat="43.1676" lon="6.47156">
        <ele>188</ele>
        <time>2013-09-12T12:29:01.000Z</time>
      </trkpt>
      <trkpt lat="43.1676" lon="6.47158">
        <ele>188</ele>
        <time>2013-09-12T12:29:02.000Z</time>
      </trkpt>
      <trkpt lat="43.16761" lon="6.47159">
        <ele>188</ele>
        <time>2013-09-12T12:29:03.000Z</time>
      </trkpt>
      <trkpt lat="43.16761" lon="6.47161">
        <ele>187</ele>
        <time>2013-09-12T12:29:04.000Z</time>
      </trkpt>
      <trkpt lat="43.16762" lon="6.47163">
        <ele>187</ele>
        <time>2013-09-12T12:29:05.000Z</time>
      </trkpt>
      <trkpt lat="43.16763" lon="6.47165">
        <ele>188</ele>
        <time>2013-09-12T12:29:06.000Z</time>
      </trkpt>
      <trkpt lat="43.16763" lon="6.47167">
        <ele>191</ele>
        <time>2013-09-12T12:29:07.000Z</time>
      </trkpt>
      <trkpt lat="43.16764" lon="6.47169">
        <ele>191</ele>
        <time>2013-09-12T12:29:08.000Z</time>
      </trkpt>
      <trkpt lat="43.16764" lon="6.47171">
        <ele>191</ele>
        <time>2013-09-12T12:29:09.000Z</time>
      </trkpt>
      <trkpt lat="43.16765" lon="6.47172">
        <ele>192</ele>
        <time>2013-09-12T12:29:10.000Z</time>
      </trkpt>
      <trkpt lat="43.16767" lon="6.47174">
        <ele>193</ele>
        <time>2013-09-12T12:29:11.000Z</time>
      </trkpt>
      <trkpt lat="43.16767" lon="6.47175">
        <ele>193</ele>
        <time>2013-09-12T12:29:12.000Z</time>
      </trkpt>
      <trkpt lat="43.16768" lon="6.47177">
        <ele>194</ele>
        <time>2013-09-12T12:29:13.000Z</time>
      </trkpt>
      <trkpt lat="43.16769" lon="6.47178">
        <ele>195</ele>
        <time>2013-09-12T12:29:14.000Z</time>
      </trkpt>
      <trkpt lat="43.1677" lon="6.4718">
        <ele>195</ele>
        <time>2013-09-12T12:29:15.000Z</time>
      </trkpt>
      <trkpt lat="43.16771" lon="6.47182">
        <ele>196</ele>
        <time>2013-09-12T12:29:16.000Z</time>
      </trkpt>
      <trkpt lat="43.16772" lon="6.47184">
        <ele>196</ele>
        <time>2013-09-12T12:29:17.000Z</time>
      </trkpt>
      <trkpt lat="43.16773" lon="6.47185">
        <ele>197</ele>
        <time>2013-09-12T12:29:18.000Z</time>
      </trkpt>
      <trkpt lat="43.16774" lon="6.47187">
        <ele>197</ele>
        <time>2013-09-12T12:29:19.000Z</time>
      </trkpt>
      <trkpt lat="43.16774" lon="6.47189">
        <ele>198</ele>
        <time>2013-09-12T12:29:20.000Z</time>
      </trkpt>
      <trkpt lat="43.16775" lon="6.47191">
        <ele>198</ele>
        <time>2013-09-12T12:29:21.000Z</time>
      </trkpt>
      <trkpt lat="43.16776" lon="6.47193">
        <ele>198</ele>
        <time>2013-09-12T12:29:22.000Z</time>
      </trkpt>
      <trkpt lat="43.16776" lon="6.47194">
        <ele>199</ele>
        <time>2013-09-12T12:29:23.000Z</time>
      </trkpt>
      <trkpt lat="43.16776" lon="6.47196">
        <ele>199</ele>
        <time>2013-09-12T12:29:24.000Z</time>
      </trkpt>
      <trkpt lat="43.16777" lon="6.47198">
        <ele>199</ele>
        <time>2013-09-12T12:29:25.000Z</time>
      </trkpt>
      <trkpt lat="43.16777" lon="6.472">
        <ele>199</ele>
        <time>2013-09-12T12:29:26.000Z</time>
      </trkpt>
      <trkpt lat="43.16777" lon="6.47203">
        <ele>200</ele>
        <time>2013-09-12T12:29:28.000Z</time>
      </trkpt>
      <trkpt lat="43.16776" lon="6.47205">
        <ele>200</ele>
        <time>2013-09-12T12:29:29.000Z</time>
      </trkpt>
      <trkpt lat="43.16775" lon="6.47207">
        <ele>200</ele>
        <time>2013-09-12T12:29:30.000Z</time>
      </trkpt>
      <trkpt lat="43.16775" lon="6.47209">
        <ele>200</ele>
        <time>2013-09-12T12:29:31.000Z</time>
      </trkpt>
      <trkpt lat="43.16774" lon="6.47211">
        <ele>200</ele>
        <time>2013-09-12T12:29:32.000Z</time>
      </trkpt>
      <trkpt lat="43.16774" lon="6.47213">
        <ele>200</ele>
        <time>2013-09-12T12:29:33.000Z</time>
      </trkpt>
      <trkpt lat="43.16773" lon="6.47214">
        <ele>200</ele>
        <time>2013-09-12T12:29:34.000Z</time>
      </trkpt>
      <trkpt lat="43.16773" lon="6.47216">
        <ele>200</ele>
        <time>2013-09-12T12:29:35.000Z</time>
      </trkpt>
      <trkpt lat="43.16772" lon="6.47218">
        <ele>199</ele>
        <time>2013-09-12T12:29:36.000Z</time>
      </trkpt>
      <trkpt lat="43.16772" lon="6.47219">
        <ele>199</ele>
        <time>2013-09-12T12:29:37.000Z</time>
      </trkpt>
      <trkpt lat="43.16771" lon="6.47221">
        <ele>199</ele>
        <time>2013-09-12T12:29:38.000Z</time>
      </trkpt>
      <trkpt lat="43.16771" lon="6.47223">
        <ele>199</ele>
        <time>2013-09-12T12:29:39.000Z</time>
      </trkpt>
      <trkpt lat="43.1677" lon="6.47225">
        <ele>199</ele>
        <time>2013-09-12T12:29:40.000Z</time>
      </trkpt>
      <trkpt lat="43.1677" lon="6.47227">
        <ele>199</ele>
        <time>2013-09-12T12:29:41.000Z</time>
      </trkpt>
      <trkpt lat="43.16769" lon="6.47229">
        <ele>199</ele>
        <time>2013-09-12T12:29:42.000Z</time>
      </trkpt>
      <trkpt lat="43.16768" lon="6.47231">
        <ele>199</ele>
        <time>2013-09-12T12:29:43.000Z</time>
      </trkpt>
      <trkpt lat="43.16767" lon="6.47232">
        <ele>198</ele>
        <time>2013-09-12T12:29:44.000Z</time>
      </trkpt>
      <trkpt lat="43.16767" lon="6.47233">
        <ele>198</ele>
        <time>2013-09-12T12:29:45.000Z</time>
      </trkpt>
      <trkpt lat="43.16766" lon="6.47235">
        <ele>198</ele>
        <time>2013-09-12T12:29:46.000Z</time>
      </trkpt>
      <trkpt lat="43.16765" lon="6.47236">
        <ele>198</ele>
        <time>2013-09-12T12:29:47.000Z</time>
      </trkpt>
      <trkpt lat="43.16765" lon="6.47238">
        <ele>197</ele>
        <time>2013-09-12T12:29:48.000Z</time>
      </trkpt>
      <trkpt lat="43.16764" lon="6.4724">
        <ele>197</ele>
        <time>2013-09-12T12:29:49.000Z</time>
      </trkpt>
      <trkpt lat="43.16764" lon="6.47242">
        <ele>197</ele>
        <time>2013-09-12T12:29:50.000Z</time>
      </trkpt>
      <trkpt lat="43.16763" lon="6.47244">
        <ele>196</ele>
        <time>2013-09-12T12:29:51.000Z</time>
      </trkpt>
      <trkpt lat="43.16762" lon="6.47246">
        <ele>196</ele>
        <time>2013-09-12T12:29:52.000Z</time>
      </trkpt>
      <trkpt lat="43.16762" lon="6.47248">
        <ele>196</ele>
        <time>2013-09-12T12:29:53.000Z</time>
      </trkpt>
      <trkpt lat="43.16761" lon="6.4725">
        <ele>195</ele>
        <time>2013-09-12T12:29:54.000Z</time>
      </trkpt>
      <trkpt lat="43.1676" lon="6.47252">
        <ele>198</ele>
        <time>2013-09-12T12:29:55.000Z</time>
      </trkpt>
      <trkpt lat="43.1676" lon="6.47253">
        <ele>198</ele>
        <time>2013-09-12T12:29:56.000Z</time>
      </trkpt>
      <trkpt lat="43.16759" lon="6.47255">
        <ele>198</ele>
        <time>2013-09-12T12:29:57.000Z</time>
      </trkpt>
      <trkpt lat="43.16758" lon="6.47257">
        <ele>199</ele>
        <time>2013-09-12T12:29:58.000Z</time>
      </trkpt>
      <trkpt lat="43.16758" lon="6.47259">
        <ele>199</ele>
        <time>2013-09-12T12:29:59.000Z</time>
      </trkpt>
      <trkpt lat="43.16758" lon="6.47261">
        <ele>200</ele>
        <time>2013-09-12T12:30:00.000Z</time>
      </trkpt>
      <trkpt lat="43.16757" lon="6.47263">
        <ele>200</ele>
        <time>2013-09-12T12:30:01.000Z</time>
      </trkpt>
      <trkpt lat="43.16756" lon="6.47265">
        <ele>201</ele>
        <time>2013-09-12T12:30:02.000Z</time>
      </trkpt>
      <trkpt lat="43.16755" lon="6.47268">
        <ele>202</ele>
        <time>2013-09-12T12:30:03.000Z</time>
      </trkpt>
      <trkpt lat="43.16755" lon="6.4727">
        <ele>202</ele>
        <time>2013-09-12T12:30:04.000Z</time>
      </trkpt>
      <trkpt lat="43.16754" lon="6.47272">
        <ele>203</ele>
        <time>2013-09-12T12:30:05.000Z</time>
      </trkpt>
      <trkpt lat="43.16754" lon="6.47274">
        <ele>204</ele>
        <time>2013-09-12T12:30:06.000Z</time>
      </trkpt>
      <trkpt lat="43.16754" lon="6.47276">
        <ele>204</ele>
        <time>2013-09-12T12:30:07.000Z</time>
      </trkpt>
      <trkpt lat="43.16753" lon="6.47277">
        <ele>204</ele>
        <time>2013-09-12T12:30:08.000Z</time>
      </trkpt>
      <trkpt lat="43.16753" lon="6.47279">
        <ele>205</ele>
        <time>2013-09-12T12:30:09.000Z</time>
      </trkpt>
      <trkpt lat="43.16753" lon="6.47281">
        <ele>205</ele>
        <time>2013-09-12T12:30:10.000Z</time>
      </trkpt>
      <trkpt lat="43.16753" lon="6.47282">
        <ele>205</ele>
        <time>2013-09-12T12:30:11.000Z</time>
      </trkpt>
      <trkpt lat="43.16752" lon="6.47283">
        <ele>206</ele>
        <time>2013-09-12T12:30:12.000Z</time>
      </trkpt>
      <trkpt lat="43.16752" lon="6.47285">
        <ele>206</ele>
        <time>2013-09-12T12:30:13.000Z</time>
      </trkpt>
      <trkpt lat="43.16752" lon="6.47287">
        <ele>206</ele>
        <time>2013-09-12T12:30:14.000Z</time>
      </trkpt>
      <trkpt lat="43.16752" lon="6.47289">
        <ele>206</ele>
        <time>2013-09-12T12:30:15.000Z</time>
      </trkpt>
      <trkpt lat="43.16752" lon="6.47291">
        <ele>207</ele>
        <time>2013-09-12T12:30:16.000Z</time>
      </trkpt>
      <trkpt lat="43.16752" lon="6.47293">
        <ele>207</ele>
        <time>2013-09-12T12:30:17.000Z</time>
      </trkpt>
      <trkpt lat="43.16752" lon="6.473">
        <ele>207</ele>
        <time>2013-09-12T12:30:20.000Z</time>
      </trkpt>
      <trkpt lat="43.16751" lon="6.47302">
        <ele>207</ele>
        <time>2013-09-12T12:30:21.000Z</time>
      </trkpt>
      <trkpt lat="43.16751" lon="6.47304">
        <ele>207</ele>
        <time>2013-09-12T12:30:22.000Z</time>
      </trkpt>
      <trkpt lat="43.1675" lon="6.47306">
        <ele>192</ele>
        <time>2013-09-12T12:30:23.000Z</time>
      </trkpt>
      <trkpt lat="43.16749" lon="6.47308">
        <ele>193</ele>
        <time>2013-09-12T12:30:24.000Z</time>
      </trkpt>
      <trkpt lat="43.16749" lon="6.4731">
        <ele>193</ele>
        <time>2013-09-12T12:30:25.000Z</time>
      </trkpt>
      <trkpt lat="43.16748" lon="6.47312">
        <ele>193</ele>
        <time>2013-09-12T12:30:26.000Z</time>
      </trkpt>
      <trkpt lat="43.16748" lon="6.47313">
        <ele>194</ele>
        <time>2013-09-12T12:30:27.000Z</time>
      </trkpt>
      <trkpt lat="43.16747" lon="6.47314">
        <ele>194</ele>
        <time>2013-09-12T12:30:28.000Z</time>
      </trkpt>
      <trkpt lat="43.16747" lon="6.47316">
        <ele>195</ele>
        <time>2013-09-12T12:30:29.000Z</time>
      </trkpt>
      <trkpt lat="43.16747" lon="6.47318">
        <ele>195</ele>
        <time>2013-09-12T12:30:30.000Z</time>
      </trkpt>
      <trkpt lat="43.16746" lon="6.47319">
        <ele>196</ele>
        <time>2013-09-12T12:30:31.000Z</time>
      </trkpt>
      <trkpt lat="43.16746" lon="6.47321">
        <ele>196</ele>
        <time>2013-09-12T12:30:32.000Z</time>
      </trkpt>
      <trkpt lat="43.16745" lon="6.47322">
        <ele>196</ele>
        <time>2013-09-12T12:30:33.000Z</time>
      </trkpt>
      <trkpt lat="43.16744" lon="6.47324">
        <ele>197</ele>
        <time>2013-09-12T12:30:34.000Z</time>
      </trkpt>
      <trkpt lat="43.16744" lon="6.47325">
        <ele>197</ele>
        <time>2013-09-12T12:30:35.000Z</time>
      </trkpt>
      <trkpt lat="43.16743" lon="6.47327">
        <ele>197</ele>
        <time>2013-09-12T12:30:36.000Z</time>
      </trkpt>
      <trkpt lat="43.16742" lon="6.47328">
        <ele>197</ele>
        <time>2013-09-12T12:30:37.000Z</time>
      </trkpt>
      <trkpt lat="43.16741" lon="6.4733">
        <ele>197</ele>
        <time>2013-09-12T12:30:38.000Z</time>
      </trkpt>
      <trkpt lat="43.16739" lon="6.47331">
        <ele>197</ele>
        <time>2013-09-12T12:30:39.000Z</time>
      </trkpt>
      <trkpt lat="43.16738" lon="6.47333">
        <ele>197</ele>
        <time>2013-09-12T12:30:40.000Z</time>
      </trkpt>
      <trkpt lat="43.16737" lon="6.47335">
        <ele>200</ele>
        <time>2013-09-12T12:30:41.000Z</time>
      </trkpt>
      <trkpt lat="43.16736" lon="6.47336">
        <ele>200</ele>
        <time>2013-09-12T12:30:42.000Z</time>
      </trkpt>
      <trkpt lat="43.16735" lon="6.47338">
        <ele>199</ele>
        <time>2013-09-12T12:30:43.000Z</time>
      </trkpt>
      <trkpt lat="43.16734" lon="6.4734">
        <ele>199</ele>
        <time>2013-09-12T12:30:44.000Z</time>
      </trkpt>
      <trkpt lat="43.16733" lon="6.47341">
        <ele>199</ele>
        <time>2013-09-12T12:30:45.000Z</time>
      </trkpt>
      <trkpt lat="43.16732" lon="6.47342">
        <ele>199</ele>
        <time>2013-09-12T12:30:46.000Z</time>
      </trkpt>
      <trkpt lat="43.16731" lon="6.47344">
        <ele>199</ele>
        <time>2013-09-12T12:30:47.000Z</time>
      </trkpt>
      <trkpt lat="43.16731" lon="6.47345">
        <ele>198</ele>
        <time>2013-09-12T12:30:48.000Z</time>
      </trkpt>
      <trkpt lat="43.1673" lon="6.47347">
        <ele>198</ele>
        <time>2013-09-12T12:30:49.000Z</time>
      </trkpt>
      <trkpt lat="43.16729" lon="6.47348">
        <ele>198</ele>
        <time>2013-09-12T12:30:50.000Z</time>
      </trkpt>
      <trkpt lat="43.16729" lon="6.4735">
        <ele>198</ele>
        <time>2013-09-12T12:30:51.000Z</time>
      </trkpt>
      <trkpt lat="43.16728" lon="6.47351">
        <ele>198</ele>
        <time>2013-09-12T12:30:52.000Z</time>
      </trkpt>
      <trkpt lat="43.16727" lon="6.47353">
        <ele>198</ele>
        <time>2013-09-12T12:30:53.000Z</time>
      </trkpt>
      <trkpt lat="43.16726" lon="6.47354">
        <ele>198</ele>
        <time>2013-09-12T12:30:54.000Z</time>
      </trkpt>
      <trkpt lat="43.16724" lon="6.47356">
        <ele>197</ele>
        <time>2013-09-12T12:30:55.000Z</time>
      </trkpt>
      <trkpt lat="43.16723" lon="6.47358">
        <ele>197</ele>
        <time>2013-09-12T12:30:56.000Z</time>
      </trkpt>
      <trkpt lat="43.16722" lon="6.4736">
        <ele>197</ele>
        <time>2013-09-12T12:30:57.000Z</time>
      </trkpt>
      <trkpt lat="43.16721" lon="6.47362">
        <ele>197</ele>
        <time>2013-09-12T12:30:58.000Z</time>
      </trkpt>
      <trkpt lat="43.16721" lon="6.47364">
        <ele>197</ele>
        <time>2013-09-12T12:30:59.000Z</time>
      </trkpt>
      <trkpt lat="43.1672" lon="6.47367">
        <ele>197</ele>
        <time>2013-09-12T12:31:00.000Z</time>
      </trkpt>
      <trkpt lat="43.16719" lon="6.47369">
        <ele>197</ele>
        <time>2013-09-12T12:31:01.000Z</time>
      </trkpt>
      <trkpt lat="43.16719" lon="6.47372">
        <ele>197</ele>
        <time>2013-09-12T12:31:02.000Z</time>
      </trkpt>
      <trkpt lat="43.16719" lon="6.47374">
        <ele>197</ele>
        <time>2013-09-12T12:31:03.000Z</time>
      </trkpt>
      <trkpt lat="43.16719" lon="6.47377">
        <ele>197</ele>
        <time>2013-09-12T12:31:04.000Z</time>
      </trkpt>
      <trkpt lat="43.16718" lon="6.47384">
        <ele>198</ele>
        <time>2013-09-12T12:31:07.000Z</time>
      </trkpt>
      <trkpt lat="43.16719" lon="6.47391">
        <ele>198</ele>
        <time>2013-09-12T12:31:10.000Z</time>
      </trkpt>
      <trkpt lat="43.16719" lon="6.47393">
        <ele>199</ele>
        <time>2013-09-12T12:31:11.000Z</time>
      </trkpt>
      <trkpt lat="43.16719" lon="6.47395">
        <ele>199</ele>
        <time>2013-09-12T12:31:12.000Z</time>
      </trkpt>
      <trkpt lat="43.16719" lon="6.47397">
        <ele>199</ele>
        <time>2013-09-12T12:31:13.000Z</time>
      </trkpt>
      <trkpt lat="43.1672" lon="6.474">
        <ele>199</ele>
        <time>2013-09-12T12:31:14.000Z</time>
      </trkpt>
      <trkpt lat="43.1672" lon="6.47402">
        <ele>200</ele>
        <time>2013-09-12T12:31:15.000Z</time>
      </trkpt>
      <trkpt lat="43.1672" lon="6.47404">
        <ele>200</ele>
        <time>2013-09-12T12:31:16.000Z</time>
      </trkpt>
      <trkpt lat="43.1672" lon="6.47406">
        <ele>200</ele>
        <time>2013-09-12T12:31:17.000Z</time>
      </trkpt>
      <trkpt lat="43.1672" lon="6.47408">
        <ele>200</ele>
        <time>2013-09-12T12:31:18.000Z</time>
      </trkpt>
      <trkpt lat="43.16721" lon="6.4741">
        <ele>200</ele>
        <time>2013-09-12T12:31:19.000Z</time>
      </trkpt>
      <trkpt lat="43.16721" lon="6.47414">
        <ele>201</ele>
        <time>2013-09-12T12:31:21.000Z</time>
      </trkpt>
      <trkpt lat="43.16721" lon="6.47421">
        <ele>206</ele>
        <time>2013-09-12T12:31:24.000Z</time>
      </trkpt>
      <trkpt lat="43.16721" lon="6.47423">
        <ele>206</ele>
        <time>2013-09-12T12:31:25.000Z</time>
      </trkpt>
      <trkpt lat="43.16721" lon="6.47425">
        <ele>206</ele>
        <time>2013-09-12T12:31:26.000Z</time>
      </trkpt>
      <trkpt lat="43.16722" lon="6.47427">
        <ele>206</ele>
        <time>2013-09-12T12:31:27.000Z</time>
      </trkpt>
      <trkpt lat="43.16721" lon="6.47429">
        <ele>206</ele>
        <time>2013-09-12T12:31:28.000Z</time>
      </trkpt>
      <trkpt lat="43.16721" lon="6.47431">
        <ele>206</ele>
        <time>2013-09-12T12:31:29.000Z</time>
      </trkpt>
      <trkpt lat="43.16721" lon="6.47437">
        <ele>206</ele>
        <time>2013-09-12T12:31:32.000Z</time>
      </trkpt>
      <trkpt lat="43.16721" lon="6.47438">
        <ele>206</ele>
        <time>2013-09-12T12:31:33.000Z</time>
      </trkpt>
      <trkpt lat="43.16722" lon="6.47442">
        <ele>206</ele>
        <time>2013-09-12T12:31:35.000Z</time>
      </trkpt>
      <trkpt lat="43.16722" lon="6.47443">
        <ele>206</ele>
        <time>2013-09-12T12:31:36.000Z</time>
      </trkpt>
      <trkpt lat="43.16721" lon="6.47451">
        <ele>206</ele>
        <time>2013-09-12T12:31:41.000Z</time>
      </trkpt>
      <trkpt lat="43.16721" lon="6.47453">
        <ele>206</ele>
        <time>2013-09-12T12:31:42.000Z</time>
      </trkpt>
      <trkpt lat="43.16721" lon="6.47457">
        <ele>206</ele>
        <time>2013-09-12T12:31:44.000Z</time>
      </trkpt>
      <trkpt lat="43.16721" lon="6.47458">
        <ele>206</ele>
        <time>2013-09-12T12:31:45.000Z</time>
      </trkpt>
      <trkpt lat="43.16721" lon="6.4746">
        <ele>206</ele>
        <time>2013-09-12T12:31:46.000Z</time>
      </trkpt>
      <trkpt lat="43.1672" lon="6.47462">
        <ele>206</ele>
        <time>2013-09-12T12:31:47.000Z</time>
      </trkpt>
      <trkpt lat="43.1672" lon="6.47464">
        <ele>206</ele>
        <time>2013-09-12T12:31:48.000Z</time>
      </trkpt>
      <trkpt lat="43.16719" lon="6.47466">
        <ele>207</ele>
        <time>2013-09-12T12:31:49.000Z</time>
      </trkpt>
      <trkpt lat="43.16719" lon="6.47468">
        <ele>207</ele>
        <time>2013-09-12T12:31:50.000Z</time>
      </trkpt>
      <trkpt lat="43.16718" lon="6.4747">
        <ele>207</ele>
        <time>2013-09-12T12:31:51.000Z</time>
      </trkpt>
      <trkpt lat="43.16717" lon="6.47472">
        <ele>207</ele>
        <time>2013-09-12T12:31:52.000Z</time>
      </trkpt>
      <trkpt lat="43.16717" lon="6.47473">
        <ele>207</ele>
        <time>2013-09-12T12:31:53.000Z</time>
      </trkpt>
      <trkpt lat="43.16716" lon="6.47475">
        <ele>207</ele>
        <time>2013-09-12T12:31:54.000Z</time>
      </trkpt>
      <trkpt lat="43.16715" lon="6.47477">
        <ele>207</ele>
        <time>2013-09-12T12:31:55.000Z</time>
      </trkpt>
      <trkpt lat="43.16715" lon="6.47479">
        <ele>207</ele>
        <time>2013-09-12T12:31:56.000Z</time>
      </trkpt>
      <trkpt lat="43.16714" lon="6.47481">
        <ele>207</ele>
        <time>2013-09-12T12:31:57.000Z</time>
      </trkpt>
      <trkpt lat="43.16714" lon="6.47483">
        <ele>207</ele>
        <time>2013-09-12T12:31:58.000Z</time>
      </trkpt>
      <trkpt lat="43.16713" lon="6.47485">
        <ele>207</ele>
        <time>2013-09-12T12:31:59.000Z</time>
      </trkpt>
      <trkpt lat="43.16712" lon="6.47486">
        <ele>206</ele>
        <time>2013-09-12T12:32:00.000Z</time>
      </trkpt>
      <trkpt lat="43.16712" lon="6.47488">
        <ele>206</ele>
        <time>2013-09-12T12:32:01.000Z</time>
      </trkpt>
      <trkpt lat="43.16711" lon="6.4749">
        <ele>206</ele>
        <time>2013-09-12T12:32:02.000Z</time>
      </trkpt>
      <trkpt lat="43.16711" lon="6.47491">
        <ele>206</ele>
        <time>2013-09-12T12:32:04.000Z</time>
      </trkpt>
      <trkpt lat="43.16711" lon="6.47491">
        <ele>206</ele>
        <time>2013-09-12T12:32:05.000Z</time>
      </trkpt>
      <trkpt lat="43.1671" lon="6.47493">
        <ele>206</ele>
        <time>2013-09-12T12:32:07.000Z</time>
      </trkpt>
      <trkpt lat="43.1671" lon="6.47494">
        <ele>206</ele>
        <time>2013-09-12T12:32:08.000Z</time>
      </trkpt>
      <trkpt lat="43.16709" lon="6.47495">
        <ele>206</ele>
        <time>2013-09-12T12:32:09.000Z</time>
      </trkpt>
      <trkpt lat="43.16709" lon="6.47496">
        <ele>206</ele>
        <time>2013-09-12T12:32:10.000Z</time>
      </trkpt>
      <trkpt lat="43.16708" lon="6.47496">
        <ele>206</ele>
        <time>2013-09-12T12:32:16.000Z</time>
      </trkpt>
      <trkpt lat="43.16708" lon="6.47496">
        <ele>206</ele>
        <time>2013-09-12T12:32:21.000Z</time>
      </trkpt>
      <trkpt lat="43.16708" lon="6.47496">
        <ele>206</ele>
        <time>2013-09-12T12:32:23.000Z</time>
      </trkpt>
      <trkpt lat="43.16708" lon="6.47497">
        <ele>206</ele>
        <time>2013-09-12T12:32:26.000Z</time>
      </trkpt>
      <trkpt lat="43.16708" lon="6.47497">
        <ele>206</ele>
        <time>2013-09-12T12:32:30.000Z</time>
      </trkpt>
      <trkpt lat="43.16707" lon="6.47497">
        <ele>206</ele>
        <time>2013-09-12T12:32:33.000Z</time>
      </trkpt>
      <trkpt lat="43.16707" lon="6.47497">
        <ele>206</ele>
        <time>2013-09-12T12:32:36.000Z</time>
      </trkpt>
      <trkpt lat="43.16707" lon="6.47497">
        <ele>205</ele>
        <time>2013-09-12T12:32:40.000Z</time>
      </trkpt>
      <trkpt lat="43.16707" lon="6.47498">
        <ele>205</ele>
        <time>2013-09-12T12:32:43.000Z</time>
      </trkpt>
      <trkpt lat="43.16707" lon="6.47498">
        <ele>205</ele>
        <time>2013-09-12T12:32:46.000Z</time>
      </trkpt>
      <trkpt lat="43.16706" lon="6.47498">
        <ele>205</ele>
        <time>2013-09-12T12:32:53.000Z</time>
      </trkpt>
      <trkpt lat="43.16706" lon="6.47497">
        <ele>205</ele>
        <time>2013-09-12T12:32:56.000Z</time>
      </trkpt>
      <trkpt lat="43.16706" lon="6.47497">
        <ele>205</ele>
        <time>2013-09-12T12:32:58.000Z</time>
      </trkpt>
      <trkpt lat="43.16706" lon="6.47497">
        <ele>205</ele>
        <time>2013-09-12T12:33:00.000Z</time>
      </trkpt>
      <trkpt lat="43.16705" lon="6.47497">
        <ele>205</ele>
        <time>2013-09-12T12:33:05.000Z</time>
      </trkpt>
      <trkpt lat="43.16705" lon="6.47497">
        <ele>205</ele>
        <time>2013-09-12T12:33:06.000Z</time>
      </trkpt>
      <trkpt lat="43.16705" lon="6.47497">
        <ele>205</ele>
        <time>2013-09-12T12:33:11.000Z</time>
      </trkpt>
      <trkpt lat="43.16705" lon="6.47497">
        <ele>205</ele>
        <time>2013-09-12T12:33:17.000Z</time>
      </trkpt>
      <trkpt lat="43.16705" lon="6.47497">
        <ele>205</ele>
        <time>2013-09-12T12:33:31.000Z</time>
      </trkpt>
      <trkpt lat="43.16705" lon="6.47497">
        <ele>205</ele>
        <time>2013-09-12T12:33:44.000Z</time>
      </trkpt>
      <trkpt lat="43.16705" lon="6.47498">
        <ele>205</ele>
        <time>2013-09-12T12:33:46.000Z</time>
      </trkpt>
      <trkpt lat="43.16705" lon="6.47497">
        <ele>205</ele>
        <time>2013-09-12T12:33:51.000Z</time>
      </trkpt>
      <trkpt lat="43.16705" lon="6.47499">
        <ele>205</ele>
        <time>2013-09-12T12:33:52.000Z</time>
      </trkpt>
      <trkpt lat="43.16704" lon="6.475">
        <ele>205</ele>
        <time>2013-09-12T12:33:53.000Z</time>
      </trkpt>
      <trkpt lat="43.16704" lon="6.47502">
        <ele>212</ele>
        <time>2013-09-12T12:33:54.000Z</time>
      </trkpt>
      <trkpt lat="43.16704" lon="6.47503">
        <ele>212</ele>
        <time>2013-09-12T12:33:55.000Z</time>
      </trkpt>
      <trkpt lat="43.16703" lon="6.47505">
        <ele>212</ele>
        <time>2013-09-12T12:33:56.000Z</time>
      </trkpt>
      <trkpt lat="43.16702" lon="6.47507">
        <ele>212</ele>
        <time>2013-09-12T12:33:57.000Z</time>
      </trkpt>
      <trkpt lat="43.16702" lon="6.47509">
        <ele>211</ele>
        <time>2013-09-12T12:33:58.000Z</time>
      </trkpt>
      <trkpt lat="43.16701" lon="6.47511">
        <ele>212</ele>
        <time>2013-09-12T12:33:59.000Z</time>
      </trkpt>
      <trkpt lat="43.16701" lon="6.47513">
        <ele>211</ele>
        <time>2013-09-12T12:34:00.000Z</time>
      </trkpt>
      <trkpt lat="43.167" lon="6.47514">
        <ele>211</ele>
        <time>2013-09-12T12:34:01.000Z</time>
      </trkpt>
      <trkpt lat="43.16699" lon="6.47516">
        <ele>211</ele>
        <time>2013-09-12T12:34:02.000Z</time>
      </trkpt>
      <trkpt lat="43.16699" lon="6.47518">
        <ele>211</ele>
        <time>2013-09-12T12:34:03.000Z</time>
      </trkpt>
      <trkpt lat="43.16698" lon="6.47519">
        <ele>212</ele>
        <time>2013-09-12T12:34:04.000Z</time>
      </trkpt>
      <trkpt lat="43.16698" lon="6.47521">
        <ele>212</ele>
        <time>2013-09-12T12:34:05.000Z</time>
      </trkpt>
      <trkpt lat="43.16697" lon="6.47522">
        <ele>212</ele>
        <time>2013-09-12T12:34:06.000Z</time>
      </trkpt>
      <trkpt lat="43.16696" lon="6.47524">
        <ele>212</ele>
        <time>2013-09-12T12:34:07.000Z</time>
      </trkpt>
      <trkpt lat="43.16696" lon="6.47525">
        <ele>212</ele>
        <time>2013-09-12T12:34:08.000Z</time>
      </trkpt>
      <trkpt lat="43.16695" lon="6.47527">
        <ele>212</ele>
        <time>2013-09-12T12:34:09.000Z</time>
      </trkpt>
      <trkpt lat="43.16694" lon="6.47528">
        <ele>212</ele>
        <time>2013-09-12T12:34:10.000Z</time>
      </trkpt>
      <trkpt lat="43.16693" lon="6.4753">
        <ele>212</ele>
        <time>2013-09-12T12:34:11.000Z</time>
      </trkpt>
      <trkpt lat="43.16692" lon="6.47531">
        <ele>212</ele>
        <time>2013-09-12T12:34:12.000Z</time>
      </trkpt>
      <trkpt lat="43.16692" lon="6.47533">
        <ele>212</ele>
        <time>2013-09-12T12:34:13.000Z</time>
      </trkpt>
      <trkpt lat="43.16691" lon="6.47535">
        <ele>212</ele>
        <time>2013-09-12T12:34:14.000Z</time>
      </trkpt>
      <trkpt lat="43.16691" lon="6.47537">
        <ele>212</ele>
        <time>2013-09-12T12:34:15.000Z</time>
      </trkpt>
      <trkpt lat="43.1669" lon="6.47538">
        <ele>212</ele>
        <time>2013-09-12T12:34:16.000Z</time>
      </trkpt>
      <trkpt lat="43.16689" lon="6.4754">
        <ele>212</ele>
        <time>2013-09-12T12:34:17.000Z</time>
      </trkpt>
      <trkpt lat="43.16689" lon="6.47542">
        <ele>213</ele>
        <time>2013-09-12T12:34:18.000Z</time>
      </trkpt>
      <trkpt lat="43.16688" lon="6.47544">
        <ele>213</ele>
        <time>2013-09-12T12:34:19.000Z</time>
      </trkpt>
      <trkpt lat="43.16687" lon="6.47545">
        <ele>213</ele>
        <time>2013-09-12T12:34:20.000Z</time>
      </trkpt>
      <trkpt lat="43.16686" lon="6.47547">
        <ele>213</ele>
        <time>2013-09-12T12:34:21.000Z</time>
      </trkpt>
      <trkpt lat="43.16685" lon="6.47551">
        <ele>213</ele>
        <time>2013-09-12T12:34:23.000Z</time>
      </trkpt>
      <trkpt lat="43.16684" lon="6.47553">
        <ele>213</ele>
        <time>2013-09-12T12:34:24.000Z</time>
      </trkpt>
      <trkpt lat="43.16684" lon="6.47555">
        <ele>213</ele>
        <time>2013-09-12T12:34:25.000Z</time>
      </trkpt>
      <trkpt lat="43.16683" lon="6.47557">
        <ele>213</ele>
        <time>2013-09-12T12:34:26.000Z</time>
      </trkpt>
      <trkpt lat="43.16682" lon="6.47559">
        <ele>213</ele>
        <time>2013-09-12T12:34:27.000Z</time>
      </trkpt>
      <trkpt lat="43.16682" lon="6.47561">
        <ele>213</ele>
        <time>2013-09-12T12:34:28.000Z</time>
      </trkpt>
      <trkpt lat="43.16681" lon="6.47563">
        <ele>213</ele>
        <time>2013-09-12T12:34:29.000Z</time>
      </trkpt>
      <trkpt lat="43.1668" lon="6.47565">
        <ele>213</ele>
        <time>2013-09-12T12:34:30.000Z</time>
      </trkpt>
      <trkpt lat="43.1668" lon="6.47567">
        <ele>213</ele>
        <time>2013-09-12T12:34:31.000Z</time>
      </trkpt>
      <trkpt lat="43.16679" lon="6.4757">
        <ele>213</ele>
        <time>2013-09-12T12:34:32.000Z</time>
      </trkpt>
      <trkpt lat="43.16678" lon="6.47572">
        <ele>213</ele>
        <time>2013-09-12T12:34:33.000Z</time>
      </trkpt>
      <trkpt lat="43.16678" lon="6.47574">
        <ele>212</ele>
        <time>2013-09-12T12:34:34.000Z</time>
      </trkpt>
      <trkpt lat="43.16678" lon="6.47576">
        <ele>212</ele>
        <time>2013-09-12T12:34:35.000Z</time>
      </trkpt>
      <trkpt lat="43.16677" lon="6.47579">
        <ele>212</ele>
        <time>2013-09-12T12:34:36.000Z</time>
      </trkpt>
      <trkpt lat="43.16677" lon="6.47581">
        <ele>212</ele>
        <time>2013-09-12T12:34:37.000Z</time>
      </trkpt>
      <trkpt lat="43.16676" lon="6.47583">
        <ele>212</ele>
        <time>2013-09-12T12:34:38.000Z</time>
      </trkpt>
      <trkpt lat="43.16676" lon="6.47585">
        <ele>216</ele>
        <time>2013-09-12T12:34:39.000Z</time>
      </trkpt>
      <trkpt lat="43.16676" lon="6.47587">
        <ele>217</ele>
        <time>2013-09-12T12:34:40.000Z</time>
      </trkpt>
      <trkpt lat="43.16676" lon="6.4759">
        <ele>217</ele>
        <time>2013-09-12T12:34:41.000Z</time>
      </trkpt>
      <trkpt lat="43.16675" lon="6.47592">
        <ele>218</ele>
        <time>2013-09-12T12:34:42.000Z</time>
      </trkpt>
      <trkpt lat="43.16674" lon="6.47594">
        <ele>218</ele>
        <time>2013-09-12T12:34:43.000Z</time>
      </trkpt>
      <trkpt lat="43.16674" lon="6.47596">
        <ele>219</ele>
        <time>2013-09-12T12:34:44.000Z</time>
      </trkpt>
      <trkpt lat="43.16673" lon="6.47598">
        <ele>219</ele>
        <time>2013-09-12T12:34:45.000Z</time>
      </trkpt>
      <trkpt lat="43.16672" lon="6.47601">
        <ele>220</ele>
        <time>2013-09-12T12:34:46.000Z</time>
      </trkpt>
      <trkpt lat="43.16672" lon="6.47603">
        <ele>221</ele>
        <time>2013-09-12T12:34:47.000Z</time>
      </trkpt>
      <trkpt lat="43.16671" lon="6.47605">
        <ele>221</ele>
        <time>2013-09-12T12:34:48.000Z</time>
      </trkpt>
      <trkpt lat="43.16671" lon="6.47607">
        <ele>222</ele>
        <time>2013-09-12T12:34:49.000Z</time>
      </trkpt>
      <trkpt lat="43.1667" lon="6.47609">
        <ele>223</ele>
        <time>2013-09-12T12:34:50.000Z</time>
      </trkpt>
      <trkpt lat="43.16669" lon="6.47611">
        <ele>223</ele>
        <time>2013-09-12T12:34:51.000Z</time>
      </trkpt>
      <trkpt lat="43.16669" lon="6.47613">
        <ele>224</ele>
        <time>2013-09-12T12:34:52.000Z</time>
      </trkpt>
      <trkpt lat="43.16668" lon="6.47616">
        <ele>224</ele>
        <time>2013-09-12T12:34:53.000Z</time>
      </trkpt>
      <trkpt lat="43.16667" lon="6.47618">
        <ele>224</ele>
        <time>2013-09-12T12:34:54.000Z</time>
      </trkpt>
      <trkpt lat="43.16667" lon="6.4762">
        <ele>225</ele>
        <time>2013-09-12T12:34:55.000Z</time>
      </trkpt>
      <trkpt lat="43.16666" lon="6.47622">
        <ele>214</ele>
        <time>2013-09-12T12:34:56.000Z</time>
      </trkpt>
      <trkpt lat="43.16666" lon="6.47624">
        <ele>215</ele>
        <time>2013-09-12T12:34:57.000Z</time>
      </trkpt>
      <trkpt lat="43.16665" lon="6.47626">
        <ele>215</ele>
        <time>2013-09-12T12:34:58.000Z</time>
      </trkpt>
      <trkpt lat="43.16664" lon="6.47628">
        <ele>215</ele>
        <time>2013-09-12T12:34:59.000Z</time>
      </trkpt>
      <trkpt lat="43.16663" lon="6.4763">
        <ele>216</ele>
        <time>2013-09-12T12:35:00.000Z</time>
      </trkpt>
      <trkpt lat="43.16663" lon="6.47631">
        <ele>216</ele>
        <time>2013-09-12T12:35:01.000Z</time>
      </trkpt>
      <trkpt lat="43.16662" lon="6.47633">
        <ele>216</ele>
        <time>2013-09-12T12:35:02.000Z</time>
      </trkpt>
      <trkpt lat="43.16661" lon="6.47635">
        <ele>217</ele>
        <time>2013-09-12T12:35:03.000Z</time>
      </trkpt>
      <trkpt lat="43.16661" lon="6.47637">
        <ele>217</ele>
        <time>2013-09-12T12:35:04.000Z</time>
      </trkpt>
      <trkpt lat="43.1666" lon="6.4764">
        <ele>217</ele>
        <time>2013-09-12T12:35:05.000Z</time>
      </trkpt>
      <trkpt lat="43.1666" lon="6.47642">
        <ele>218</ele>
        <time>2013-09-12T12:35:06.000Z</time>
      </trkpt>
      <trkpt lat="43.1666" lon="6.47644">
        <ele>218</ele>
        <time>2013-09-12T12:35:07.000Z</time>
      </trkpt>
      <trkpt lat="43.16659" lon="6.47646">
        <ele>219</ele>
        <time>2013-09-12T12:35:08.000Z</time>
      </trkpt>
      <trkpt lat="43.16658" lon="6.47648">
        <ele>219</ele>
        <time>2013-09-12T12:35:09.000Z</time>
      </trkpt>
      <trkpt lat="43.16658" lon="6.4765">
        <ele>219</ele>
        <time>2013-09-12T12:35:10.000Z</time>
      </trkpt>
      <trkpt lat="43.16656" lon="6.47651">
        <ele>220</ele>
        <time>2013-09-12T12:35:11.000Z</time>
      </trkpt>
      <trkpt lat="43.16655" lon="6.47653">
        <ele>220</ele>
        <time>2013-09-12T12:35:12.000Z</time>
      </trkpt>
      <trkpt lat="43.16655" lon="6.47656">
        <ele>220</ele>
        <time>2013-09-12T12:35:13.000Z</time>
      </trkpt>
      <trkpt lat="43.16654" lon="6.47658">
        <ele>220</ele>
        <time>2013-09-12T12:35:14.000Z</time>
      </trkpt>
      <trkpt lat="43.16653" lon="6.4766">
        <ele>221</ele>
        <time>2013-09-12T12:35:15.000Z</time>
      </trkpt>
      <trkpt lat="43.16652" lon="6.47662">
        <ele>221</ele>
        <time>2013-09-12T12:35:16.000Z</time>
      </trkpt>
      <trkpt lat="43.16651" lon="6.47664">
        <ele>220</ele>
        <time>2013-09-12T12:35:17.000Z</time>
      </trkpt>
      <trkpt lat="43.1665" lon="6.47666">
        <ele>220</ele>
        <time>2013-09-12T12:35:18.000Z</time>
      </trkpt>
      <trkpt lat="43.16649" lon="6.47667">
        <ele>227</ele>
        <time>2013-09-12T12:35:19.000Z</time>
      </trkpt>
      <trkpt lat="43.16648" lon="6.47669">
        <ele>227</ele>
        <time>2013-09-12T12:35:20.000Z</time>
      </trkpt>
      <trkpt lat="43.16647" lon="6.47671">
        <ele>227</ele>
        <time>2013-09-12T12:35:21.000Z</time>
      </trkpt>
      <trkpt lat="43.16646" lon="6.47672">
        <ele>227</ele>
        <time>2013-09-12T12:35:22.000Z</time>
      </trkpt>
      <trkpt lat="43.16645" lon="6.47674">
        <ele>227</ele>
        <time>2013-09-12T12:35:23.000Z</time>
      </trkpt>
      <trkpt lat="43.16643" lon="6.47675">
        <ele>227</ele>
        <time>2013-09-12T12:35:24.000Z</time>
      </trkpt>
      <trkpt lat="43.16642" lon="6.47677">
        <ele>227</ele>
        <time>2013-09-12T12:35:25.000Z</time>
      </trkpt>
      <trkpt lat="43.16641" lon="6.47679">
        <ele>227</ele>
        <time>2013-09-12T12:35:26.000Z</time>
      </trkpt>
      <trkpt lat="43.1664" lon="6.4768">
        <ele>227</ele>
        <time>2013-09-12T12:35:27.000Z</time>
      </trkpt>
      <trkpt lat="43.16639" lon="6.47682">
        <ele>227</ele>
        <time>2013-09-12T12:35:28.000Z</time>
      </trkpt>
      <trkpt lat="43.16638" lon="6.47683">
        <ele>227</ele>
        <time>2013-09-12T12:35:29.000Z</time>
      </trkpt>
      <trkpt lat="43.16637" lon="6.47684">
        <ele>227</ele>
        <time>2013-09-12T12:35:30.000Z</time>
      </trkpt>
      <trkpt lat="43.16636" lon="6.47686">
        <ele>227</ele>
        <time>2013-09-12T12:35:31.000Z</time>
      </trkpt>
      <trkpt lat="43.16635" lon="6.47687">
        <ele>227</ele>
        <time>2013-09-12T12:35:32.000Z</time>
      </trkpt>
      <trkpt lat="43.16634" lon="6.47688">
        <ele>227</ele>
        <time>2013-09-12T12:35:33.000Z</time>
      </trkpt>
      <trkpt lat="43.16633" lon="6.4769">
        <ele>227</ele>
        <time>2013-09-12T12:35:34.000Z</time>
      </trkpt>
      <trkpt lat="43.16632" lon="6.47691">
        <ele>227</ele>
        <time>2013-09-12T12:35:35.000Z</time>
      </trkpt>
      <trkpt lat="43.16631" lon="6.47693">
        <ele>227</ele>
        <time>2013-09-12T12:35:36.000Z</time>
      </trkpt>
      <trkpt lat="43.1663" lon="6.47694">
        <ele>227</ele>
        <time>2013-09-12T12:35:37.000Z</time>
      </trkpt>
      <trkpt lat="43.16629" lon="6.47696">
        <ele>227</ele>
        <time>2013-09-12T12:35:38.000Z</time>
      </trkpt>
      <trkpt lat="43.16628" lon="6.47698">
        <ele>227</ele>
        <time>2013-09-12T12:35:39.000Z</time>
      </trkpt>
      <trkpt lat="43.16626" lon="6.47699">
        <ele>227</ele>
        <time>2013-09-12T12:35:40.000Z</time>
      </trkpt>
      <trkpt lat="43.16625" lon="6.477">
        <ele>227</ele>
        <time>2013-09-12T12:35:41.000Z</time>
      </trkpt>
      <trkpt lat="43.16624" lon="6.47702">
        <ele>227</ele>
        <time>2013-09-12T12:35:42.000Z</time>
      </trkpt>
      <trkpt lat="43.16623" lon="6.47703">
        <ele>227</ele>
        <time>2013-09-12T12:35:43.000Z</time>
      </trkpt>
      <trkpt lat="43.16621" lon="6.47705">
        <ele>227</ele>
        <time>2013-09-12T12:35:44.000Z</time>
      </trkpt>
      <trkpt lat="43.1662" lon="6.47706">
        <ele>227</ele>
        <time>2013-09-12T12:35:45.000Z</time>
      </trkpt>
      <trkpt lat="43.16619" lon="6.47708">
        <ele>227</ele>
        <time>2013-09-12T12:35:46.000Z</time>
      </trkpt>
      <trkpt lat="43.16617" lon="6.47709">
        <ele>227</ele>
        <time>2013-09-12T12:35:47.000Z</time>
      </trkpt>
      <trkpt lat="43.16616" lon="6.47711">
        <ele>228</ele>
        <time>2013-09-12T12:35:48.000Z</time>
      </trkpt>
      <trkpt lat="43.16614" lon="6.47713">
        <ele>228</ele>
        <time>2013-09-12T12:35:49.000Z</time>
      </trkpt>
      <trkpt lat="43.16613" lon="6.47714">
        <ele>228</ele>
        <time>2013-09-12T12:35:50.000Z</time>
      </trkpt>
      <trkpt lat="43.16612" lon="6.47716">
        <ele>228</ele>
        <time>2013-09-12T12:35:51.000Z</time>
      </trkpt>
      <trkpt lat="43.1661" lon="6.47718">
        <ele>228</ele>
        <time>2013-09-12T12:35:52.000Z</time>
      </trkpt>
      <trkpt lat="43.16609" lon="6.47719">
        <ele>228</ele>
        <time>2013-09-12T12:35:53.000Z</time>
      </trkpt>
      <trkpt lat="43.16608" lon="6.47721">
        <ele>228</ele>
        <time>2013-09-12T12:35:54.000Z</time>
      </trkpt>
      <trkpt lat="43.16607" lon="6.47722">
        <ele>228</ele>
        <time>2013-09-12T12:35:55.000Z</time>
      </trkpt>
      <trkpt lat="43.16605" lon="6.47723">
        <ele>228</ele>
        <time>2013-09-12T12:35:56.000Z</time>
      </trkpt>
      <trkpt lat="43.16604" lon="6.47724">
        <ele>228</ele>
        <time>2013-09-12T12:35:57.000Z</time>
      </trkpt>
      <trkpt lat="43.16602" lon="6.47726">
        <ele>228</ele>
        <time>2013-09-12T12:35:58.000Z</time>
      </trkpt>
      <trkpt lat="43.16601" lon="6.47727">
        <ele>228</ele>
        <time>2013-09-12T12:35:59.000Z</time>
      </trkpt>
      <trkpt lat="43.166" lon="6.47729">
        <ele>228</ele>
        <time>2013-09-12T12:36:00.000Z</time>
      </trkpt>
      <trkpt lat="43.16598" lon="6.4773">
        <ele>228</ele>
        <time>2013-09-12T12:36:01.000Z</time>
      </trkpt>
      <trkpt lat="43.16597" lon="6.47732">
        <ele>228</ele>
        <time>2013-09-12T12:36:02.000Z</time>
      </trkpt>
      <trkpt lat="43.16596" lon="6.47733">
        <ele>228</ele>
        <time>2013-09-12T12:36:03.000Z</time>
      </trkpt>
      <trkpt lat="43.16595" lon="6.47734">
        <ele>227</ele>
        <time>2013-09-12T12:36:04.000Z</time>
      </trkpt>
      <trkpt lat="43.16593" lon="6.47735">
        <ele>227</ele>
        <time>2013-09-12T12:36:05.000Z</time>
      </trkpt>
      <trkpt lat="43.16591" lon="6.47736">
        <ele>227</ele>
        <time>2013-09-12T12:36:06.000Z</time>
      </trkpt>
      <trkpt lat="43.1659" lon="6.47736">
        <ele>227</ele>
        <time>2013-09-12T12:36:07.000Z</time>
      </trkpt>
      <trkpt lat="43.16588" lon="6.47736">
        <ele>227</ele>
        <time>2013-09-12T12:36:08.000Z</time>
      </trkpt>
      <trkpt lat="43.16586" lon="6.47737">
        <ele>227</ele>
        <time>2013-09-12T12:36:09.000Z</time>
      </trkpt>
      <trkpt lat="43.16584" lon="6.47737">
        <ele>227</ele>
        <time>2013-09-12T12:36:10.000Z</time>
      </trkpt>
      <trkpt lat="43.16583" lon="6.47737">
        <ele>223</ele>
        <time>2013-09-12T12:36:11.000Z</time>
      </trkpt>
      <trkpt lat="43.16581" lon="6.47737">
        <ele>223</ele>
        <time>2013-09-12T12:36:12.000Z</time>
      </trkpt>
      <trkpt lat="43.16579" lon="6.47736">
        <ele>223</ele>
        <time>2013-09-12T12:36:13.000Z</time>
      </trkpt>
      <trkpt lat="43.16575" lon="6.47736">
        <ele>222</ele>
        <time>2013-09-12T12:36:16.000Z</time>
      </trkpt>
      <trkpt lat="43.16572" lon="6.47736">
        <ele>222</ele>
        <time>2013-09-12T12:36:18.000Z</time>
      </trkpt>
      <trkpt lat="43.1657" lon="6.47735">
        <ele>222</ele>
        <time>2013-09-12T12:36:19.000Z</time>
      </trkpt>
      <trkpt lat="43.16569" lon="6.47735">
        <ele>222</ele>
        <time>2013-09-12T12:36:20.000Z</time>
      </trkpt>
      <trkpt lat="43.16566" lon="6.47735">
        <ele>221</ele>
        <time>2013-09-12T12:36:22.000Z</time>
      </trkpt>
      <trkpt lat="43.16565" lon="6.47736">
        <ele>221</ele>
        <time>2013-09-12T12:36:23.000Z</time>
      </trkpt>
      <trkpt lat="43.16563" lon="6.47736">
        <ele>221</ele>
        <time>2013-09-12T12:36:24.000Z</time>
      </trkpt>
      <trkpt lat="43.16561" lon="6.47736">
        <ele>221</ele>
        <time>2013-09-12T12:36:26.000Z</time>
      </trkpt>
      <trkpt lat="43.1656" lon="6.47737">
        <ele>221</ele>
        <time>2013-09-12T12:36:27.000Z</time>
      </trkpt>
      <trkpt lat="43.16558" lon="6.47738">
        <ele>220</ele>
        <time>2013-09-12T12:36:28.000Z</time>
      </trkpt>
      <trkpt lat="43.16557" lon="6.47738">
        <ele>220</ele>
        <time>2013-09-12T12:36:29.000Z</time>
      </trkpt>
      <trkpt lat="43.16555" lon="6.47739">
        <ele>220</ele>
        <time>2013-09-12T12:36:30.000Z</time>
      </trkpt>
      <trkpt lat="43.16554" lon="6.47741">
        <ele>220</ele>
        <time>2013-09-12T12:36:31.000Z</time>
      </trkpt>
      <trkpt lat="43.16552" lon="6.47742">
        <ele>220</ele>
        <time>2013-09-12T12:36:32.000Z</time>
      </trkpt>
      <trkpt lat="43.16551" lon="6.47743">
        <ele>220</ele>
        <time>2013-09-12T12:36:33.000Z</time>
      </trkpt>
      <trkpt lat="43.1655" lon="6.47745">
        <ele>220</ele>
        <time>2013-09-12T12:36:34.000Z</time>
      </trkpt>
      <trkpt lat="43.16548" lon="6.47746">
        <ele>220</ele>
        <time>2013-09-12T12:36:35.000Z</time>
      </trkpt>
      <trkpt lat="43.16547" lon="6.47748">
        <ele>220</ele>
        <time>2013-09-12T12:36:36.000Z</time>
      </trkpt>
      <trkpt lat="43.16546" lon="6.47749">
        <ele>220</ele>
        <time>2013-09-12T12:36:37.000Z</time>
      </trkpt>
      <trkpt lat="43.16545" lon="6.47751">
        <ele>224</ele>
        <time>2013-09-12T12:36:38.000Z</time>
      </trkpt>
      <trkpt lat="43.16544" lon="6.47753">
        <ele>224</ele>
        <time>2013-09-12T12:36:39.000Z</time>
      </trkpt>
      <trkpt lat="43.16543" lon="6.47755">
        <ele>224</ele>
        <time>2013-09-12T12:36:40.000Z</time>
      </trkpt>
      <trkpt lat="43.16542" lon="6.47757">
        <ele>224</ele>
        <time>2013-09-12T12:36:41.000Z</time>
      </trkpt>
      <trkpt lat="43.16542" lon="6.47758">
        <ele>224</ele>
        <time>2013-09-12T12:36:42.000Z</time>
      </trkpt>
      <trkpt lat="43.16541" lon="6.47761">
        <ele>224</ele>
        <time>2013-09-12T12:36:43.000Z</time>
      </trkpt>
      <trkpt lat="43.16541" lon="6.47763">
        <ele>224</ele>
        <time>2013-09-12T12:36:44.000Z</time>
      </trkpt>
      <trkpt lat="43.1654" lon="6.47765">
        <ele>224</ele>
        <time>2013-09-12T12:36:45.000Z</time>
      </trkpt>
      <trkpt lat="43.1654" lon="6.47767">
        <ele>224</ele>
        <time>2013-09-12T12:36:46.000Z</time>
      </trkpt>
      <trkpt lat="43.1654" lon="6.47769">
        <ele>224</ele>
        <time>2013-09-12T12:36:47.000Z</time>
      </trkpt>
      <trkpt lat="43.16539" lon="6.47771">
        <ele>224</ele>
        <time>2013-09-12T12:36:48.000Z</time>
      </trkpt>
      <trkpt lat="43.16539" lon="6.47772">
        <ele>224</ele>
        <time>2013-09-12T12:36:49.000Z</time>
      </trkpt>
      <trkpt lat="43.16539" lon="6.47778">
        <ele>225</ele>
        <time>2013-09-12T12:36:52.000Z</time>
      </trkpt>
      <trkpt lat="43.16539" lon="6.47784">
        <ele>225</ele>
        <time>2013-09-12T12:36:54.000Z</time>
      </trkpt>
      <trkpt lat="43.16538" lon="6.47786">
        <ele>225</ele>
        <time>2013-09-12T12:36:56.000Z</time>
      </trkpt>
      <trkpt lat="43.16539" lon="6.47792">
        <ele>225</ele>
        <time>2013-09-12T12:36:58.000Z</time>
      </trkpt>
      <trkpt lat="43.16539" lon="6.47794">
        <ele>225</ele>
        <time>2013-09-12T12:37:00.000Z</time>
      </trkpt>
      <trkpt lat="43.16539" lon="6.47796">
        <ele>225</ele>
        <time>2013-09-12T12:37:01.000Z</time>
      </trkpt>
      <trkpt lat="43.1654" lon="6.47797">
        <ele>225</ele>
        <time>2013-09-12T12:37:02.000Z</time>
      </trkpt>
      <trkpt lat="43.16541" lon="6.47801">
        <ele>226</ele>
        <time>2013-09-12T12:37:03.000Z</time>
      </trkpt>
      <trkpt lat="43.16542" lon="6.47803">
        <ele>226</ele>
        <time>2013-09-12T12:37:04.000Z</time>
      </trkpt>
      <trkpt lat="43.16543" lon="6.47804">
        <ele>226</ele>
        <time>2013-09-12T12:37:05.000Z</time>
      </trkpt>
      <trkpt lat="43.16543" lon="6.47806">
        <ele>226</ele>
        <time>2013-09-12T12:37:06.000Z</time>
      </trkpt>
      <trkpt lat="43.16544" lon="6.47807">
        <ele>226</ele>
        <time>2013-09-12T12:37:07.000Z</time>
      </trkpt>
      <trkpt lat="43.16545" lon="6.47809">
        <ele>226</ele>
        <time>2013-09-12T12:37:08.000Z</time>
      </trkpt>
      <trkpt lat="43.16545" lon="6.4781">
        <ele>226</ele>
        <time>2013-09-12T12:37:09.000Z</time>
      </trkpt>
      <trkpt lat="43.16546" lon="6.47812">
        <ele>227</ele>
        <time>2013-09-12T12:37:10.000Z</time>
      </trkpt>
      <trkpt lat="43.16547" lon="6.47813">
        <ele>227</ele>
        <time>2013-09-12T12:37:11.000Z</time>
      </trkpt>
      <trkpt lat="43.16548" lon="6.47815">
        <ele>227</ele>
        <time>2013-09-12T12:37:12.000Z</time>
      </trkpt>
      <trkpt lat="43.16549" lon="6.47816">
        <ele>227</ele>
        <time>2013-09-12T12:37:13.000Z</time>
      </trkpt>
      <trkpt lat="43.16551" lon="6.47817">
        <ele>227</ele>
        <time>2013-09-12T12:37:14.000Z</time>
      </trkpt>
      <trkpt lat="43.16552" lon="6.47818">
        <ele>228</ele>
        <time>2013-09-12T12:37:15.000Z</time>
      </trkpt>
      <trkpt lat="43.16553" lon="6.47819">
        <ele>228</ele>
        <time>2013-09-12T12:37:16.000Z</time>
      </trkpt>
      <trkpt lat="43.16554" lon="6.4782">
        <ele>228</ele>
        <time>2013-09-12T12:37:17.000Z</time>
      </trkpt>
      <trkpt lat="43.16556" lon="6.47821">
        <ele>228</ele>
        <time>2013-09-12T12:37:18.000Z</time>
      </trkpt>
      <trkpt lat="43.16557" lon="6.47822">
        <ele>229</ele>
        <time>2013-09-12T12:37:19.000Z</time>
      </trkpt>
      <trkpt lat="43.16558" lon="6.47822">
        <ele>229</ele>
        <time>2013-09-12T12:37:20.000Z</time>
      </trkpt>
      <trkpt lat="43.1656" lon="6.47823">
        <ele>229</ele>
        <time>2013-09-12T12:37:21.000Z</time>
      </trkpt>
      <trkpt lat="43.16561" lon="6.47823">
        <ele>230</ele>
        <time>2013-09-12T12:37:22.000Z</time>
      </trkpt>
      <trkpt lat="43.16564" lon="6.47823">
        <ele>230</ele>
        <time>2013-09-12T12:37:24.000Z</time>
      </trkpt>
      <trkpt lat="43.16566" lon="6.47824">
        <ele>231</ele>
        <time>2013-09-12T12:37:25.000Z</time>
      </trkpt>
      <trkpt lat="43.16567" lon="6.47825">
        <ele>231</ele>
        <time>2013-09-12T12:37:26.000Z</time>
      </trkpt>
      <trkpt lat="43.16568" lon="6.47825">
        <ele>231</ele>
        <time>2013-09-12T12:37:27.000Z</time>
      </trkpt>
      <trkpt lat="43.1657" lon="6.47825">
        <ele>232</ele>
        <time>2013-09-12T12:37:28.000Z</time>
      </trkpt>
      <trkpt lat="43.16571" lon="6.47825">
        <ele>232</ele>
        <time>2013-09-12T12:37:29.000Z</time>
      </trkpt>
      <trkpt lat="43.16575" lon="6.47825">
        <ele>233</ele>
        <time>2013-09-12T12:37:32.000Z</time>
      </trkpt>
      <trkpt lat="43.16578" lon="6.47825">
        <ele>234</ele>
        <time>2013-09-12T12:37:34.000Z</time>
      </trkpt>
      <trkpt lat="43.1658" lon="6.47825">
        <ele>234</ele>
        <time>2013-09-12T12:37:35.000Z</time>
      </trkpt>
      <trkpt lat="43.16581" lon="6.47824">
        <ele>234</ele>
        <time>2013-09-12T12:37:36.000Z</time>
      </trkpt>
      <trkpt lat="43.16583" lon="6.47824">
        <ele>234</ele>
        <time>2013-09-12T12:37:37.000Z</time>
      </trkpt>
      <trkpt lat="43.16584" lon="6.47823">
        <ele>239</ele>
        <time>2013-09-12T12:37:38.000Z</time>
      </trkpt>
      <trkpt lat="43.16585" lon="6.47823">
        <ele>239</ele>
        <time>2013-09-12T12:37:39.000Z</time>
      </trkpt>
      <trkpt lat="43.16587" lon="6.47822">
        <ele>239</ele>
        <time>2013-09-12T12:37:40.000Z</time>
      </trkpt>
      <trkpt lat="43.16588" lon="6.47821">
        <ele>239</ele>
        <time>2013-09-12T12:37:41.000Z</time>
      </trkpt>
      <trkpt lat="43.1659" lon="6.4782">
        <ele>239</ele>
        <time>2013-09-12T12:37:42.000Z</time>
      </trkpt>
      <trkpt lat="43.16591" lon="6.47819">
        <ele>239</ele>
        <time>2013-09-12T12:37:43.000Z</time>
      </trkpt>
      <trkpt lat="43.16592" lon="6.47817">
        <ele>239</ele>
        <time>2013-09-12T12:37:44.000Z</time>
      </trkpt>
      <trkpt lat="43.16594" lon="6.47817">
        <ele>239</ele>
        <time>2013-09-12T12:37:45.000Z</time>
      </trkpt>
      <trkpt lat="43.16595" lon="6.47816">
        <ele>239</ele>
        <time>2013-09-12T12:37:46.000Z</time>
      </trkpt>
      <trkpt lat="43.16597" lon="6.47814">
        <ele>239</ele>
        <time>2013-09-12T12:37:47.000Z</time>
      </trkpt>
      <trkpt lat="43.16598" lon="6.47813">
        <ele>239</ele>
        <time>2013-09-12T12:37:48.000Z</time>
      </trkpt>
      <trkpt lat="43.16599" lon="6.47812">
        <ele>239</ele>
        <time>2013-09-12T12:37:49.000Z</time>
      </trkpt>
      <trkpt lat="43.16601" lon="6.47811">
        <ele>239</ele>
        <time>2013-09-12T12:37:50.000Z</time>
      </trkpt>
      <trkpt lat="43.16602" lon="6.4781">
        <ele>239</ele>
        <time>2013-09-12T12:37:51.000Z</time>
      </trkpt>
      <trkpt lat="43.16603" lon="6.47809">
        <ele>239</ele>
        <time>2013-09-12T12:37:52.000Z</time>
      </trkpt>
      <trkpt lat="43.16604" lon="6.47807">
        <ele>239</ele>
        <time>2013-09-12T12:37:53.000Z</time>
      </trkpt>
      <trkpt lat="43.16605" lon="6.47806">
        <ele>239</ele>
        <time>2013-09-12T12:37:54.000Z</time>
      </trkpt>
      <trkpt lat="43.16606" lon="6.47805">
        <ele>239</ele>
        <time>2013-09-12T12:37:55.000Z</time>
      </trkpt>
      <trkpt lat="43.16608" lon="6.47803">
        <ele>239</ele>
        <time>2013-09-12T12:37:56.000Z</time>
      </trkpt>
      <trkpt lat="43.16609" lon="6.47802">
        <ele>239</ele>
        <time>2013-09-12T12:37:57.000Z</time>
      </trkpt>
      <trkpt lat="43.1661" lon="6.47801">
        <ele>239</ele>
        <time>2013-09-12T12:37:58.000Z</time>
      </trkpt>
      <trkpt lat="43.16611" lon="6.478">
        <ele>240</ele>
        <time>2013-09-12T12:37:59.000Z</time>
      </trkpt>
      <trkpt lat="43.16612" lon="6.47798">
        <ele>240</ele>
        <time>2013-09-12T12:38:00.000Z</time>
      </trkpt>
      <trkpt lat="43.16614" lon="6.47797">
        <ele>240</ele>
        <time>2013-09-12T12:38:01.000Z</time>
      </trkpt>
      <trkpt lat="43.16615" lon="6.47796">
        <ele>240</ele>
        <time>2013-09-12T12:38:02.000Z</time>
      </trkpt>
      <trkpt lat="43.16616" lon="6.47795">
        <ele>240</ele>
        <time>2013-09-12T12:38:03.000Z</time>
      </trkpt>
      <trkpt lat="43.16617" lon="6.47794">
        <ele>240</ele>
        <time>2013-09-12T12:38:04.000Z</time>
      </trkpt>
      <trkpt lat="43.16618" lon="6.47793">
        <ele>240</ele>
        <time>2013-09-12T12:38:05.000Z</time>
      </trkpt>
      <trkpt lat="43.16619" lon="6.47791">
        <ele>240</ele>
        <time>2013-09-12T12:38:06.000Z</time>
      </trkpt>
      <trkpt lat="43.16621" lon="6.4779">
        <ele>240</ele>
        <time>2013-09-12T12:38:07.000Z</time>
      </trkpt>
      <trkpt lat="43.16622" lon="6.47789">
        <ele>240</ele>
        <time>2013-09-12T12:38:08.000Z</time>
      </trkpt>
      <trkpt lat="43.16623" lon="6.47788">
        <ele>240</ele>
        <time>2013-09-12T12:38:09.000Z</time>
      </trkpt>
      <trkpt lat="43.16624" lon="6.47786">
        <ele>240</ele>
        <time>2013-09-12T12:38:10.000Z</time>
      </trkpt>
      <trkpt lat="43.16626" lon="6.47785">
        <ele>240</ele>
        <time>2013-09-12T12:38:11.000Z</time>
      </trkpt>
      <trkpt lat="43.16627" lon="6.47784">
        <ele>240</ele>
        <time>2013-09-12T12:38:12.000Z</time>
      </trkpt>
      <trkpt lat="43.16628" lon="6.47782">
        <ele>240</ele>
        <time>2013-09-12T12:38:13.000Z</time>
      </trkpt>
      <trkpt lat="43.16629" lon="6.47781">
        <ele>240</ele>
        <time>2013-09-12T12:38:14.000Z</time>
      </trkpt>
      <trkpt lat="43.1663" lon="6.4778">
        <ele>240</ele>
        <time>2013-09-12T12:38:15.000Z</time>
      </trkpt>
      <trkpt lat="43.16631" lon="6.47779">
        <ele>240</ele>
        <time>2013-09-12T12:38:16.000Z</time>
      </trkpt>
      <trkpt lat="43.16632" lon="6.47777">
        <ele>240</ele>
        <time>2013-09-12T12:38:17.000Z</time>
      </trkpt>
      <trkpt lat="43.16634" lon="6.47776">
        <ele>240</ele>
        <time>2013-09-12T12:38:18.000Z</time>
      </trkpt>
      <trkpt lat="43.16635" lon="6.47775">
        <ele>240</ele>
        <time>2013-09-12T12:38:19.000Z</time>
      </trkpt>
      <trkpt lat="43.16636" lon="6.47774">
        <ele>240</ele>
        <time>2013-09-12T12:38:20.000Z</time>
      </trkpt>
      <trkpt lat="43.16637" lon="6.47773">
        <ele>240</ele>
        <time>2013-09-12T12:38:21.000Z</time>
      </trkpt>
      <trkpt lat="43.16638" lon="6.47772">
        <ele>240</ele>
        <time>2013-09-12T12:38:22.000Z</time>
      </trkpt>
      <trkpt lat="43.16639" lon="6.47771">
        <ele>240</ele>
        <time>2013-09-12T12:38:23.000Z</time>
      </trkpt>
      <trkpt lat="43.16641" lon="6.47769">
        <ele>240</ele>
        <time>2013-09-12T12:38:24.000Z</time>
      </trkpt>
      <trkpt lat="43.16642" lon="6.47768">
        <ele>240</ele>
        <time>2013-09-12T12:38:25.000Z</time>
      </trkpt>
      <trkpt lat="43.16643" lon="6.47767">
        <ele>240</ele>
        <time>2013-09-12T12:38:26.000Z</time>
      </trkpt>
      <trkpt lat="43.16644" lon="6.47766">
        <ele>241</ele>
        <time>2013-09-12T12:38:27.000Z</time>
      </trkpt>
      <trkpt lat="43.16645" lon="6.47764">
        <ele>241</ele>
        <time>2013-09-12T12:38:28.000Z</time>
      </trkpt>
      <trkpt lat="43.16647" lon="6.47763">
        <ele>241</ele>
        <time>2013-09-12T12:38:29.000Z</time>
      </trkpt>
      <trkpt lat="43.16648" lon="6.47762">
        <ele>241</ele>
        <time>2013-09-12T12:38:30.000Z</time>
      </trkpt>
      <trkpt lat="43.16649" lon="6.47761">
        <ele>241</ele>
        <time>2013-09-12T12:38:31.000Z</time>
      </trkpt>
      <trkpt lat="43.1665" lon="6.47759">
        <ele>241</ele>
        <time>2013-09-12T12:38:32.000Z</time>
      </trkpt>
      <trkpt lat="43.16651" lon="6.47758">
        <ele>241</ele>
        <time>2013-09-12T12:38:33.000Z</time>
      </trkpt>
      <trkpt lat="43.16653" lon="6.47756">
        <ele>241</ele>
        <time>2013-09-12T12:38:34.000Z</time>
      </trkpt>
      <trkpt lat="43.16654" lon="6.47755">
        <ele>241</ele>
        <time>2013-09-12T12:38:35.000Z</time>
      </trkpt>
      <trkpt lat="43.16655" lon="6.47754">
        <ele>241</ele>
        <time>2013-09-12T12:38:36.000Z</time>
      </trkpt>
      <trkpt lat="43.16656" lon="6.47753">
        <ele>241</ele>
        <time>2013-09-12T12:38:37.000Z</time>
      </trkpt>
      <trkpt lat="43.16658" lon="6.47751">
        <ele>241</ele>
        <time>2013-09-12T12:38:38.000Z</time>
      </trkpt>
      <trkpt lat="43.16659" lon="6.4775">
        <ele>238</ele>
        <time>2013-09-12T12:38:39.000Z</time>
      </trkpt>
      <trkpt lat="43.1666" lon="6.47748">
        <ele>238</ele>
        <time>2013-09-12T12:38:40.000Z</time>
      </trkpt>
      <trkpt lat="43.16661" lon="6.47747">
        <ele>239</ele>
        <time>2013-09-12T12:38:41.000Z</time>
      </trkpt>
      <trkpt lat="43.16662" lon="6.47746">
        <ele>239</ele>
        <time>2013-09-12T12:38:42.000Z</time>
      </trkpt>
      <trkpt lat="43.16663" lon="6.47745">
        <ele>239</ele>
        <time>2013-09-12T12:38:43.000Z</time>
      </trkpt>
      <trkpt lat="43.16664" lon="6.47744">
        <ele>239</ele>
        <time>2013-09-12T12:38:44.000Z</time>
      </trkpt>
      <trkpt lat="43.16665" lon="6.47743">
        <ele>238</ele>
        <time>2013-09-12T12:38:45.000Z</time>
      </trkpt>
      <trkpt lat="43.16666" lon="6.47741">
        <ele>238</ele>
        <time>2013-09-12T12:38:46.000Z</time>
      </trkpt>
      <trkpt lat="43.16668" lon="6.4774">
        <ele>243</ele>
        <time>2013-09-12T12:38:47.000Z</time>
      </trkpt>
      <trkpt lat="43.16669" lon="6.47739">
        <ele>243</ele>
        <time>2013-09-12T12:38:48.000Z</time>
      </trkpt>
      <trkpt lat="43.1667" lon="6.47738">
        <ele>243</ele>
        <time>2013-09-12T12:38:49.000Z</time>
      </trkpt>
      <trkpt lat="43.16671" lon="6.47736">
        <ele>243</ele>
        <time>2013-09-12T12:38:50.000Z</time>
      </trkpt>
      <trkpt lat="43.16672" lon="6.47735">
        <ele>243</ele>
        <time>2013-09-12T12:38:51.000Z</time>
      </trkpt>
      <trkpt lat="43.16673" lon="6.47734">
        <ele>243</ele>
        <time>2013-09-12T12:38:52.000Z</time>
      </trkpt>
      <trkpt lat="43.16674" lon="6.47733">
        <ele>243</ele>
        <time>2013-09-12T12:38:53.000Z</time>
      </trkpt>
      <trkpt lat="43.16676" lon="6.47732">
        <ele>243</ele>
        <time>2013-09-12T12:38:54.000Z</time>
      </trkpt>
      <trkpt lat="43.16677" lon="6.47731">
        <ele>243</ele>
        <time>2013-09-12T12:38:55.000Z</time>
      </trkpt>
      <trkpt lat="43.16678" lon="6.47729">
        <ele>243</ele>
        <time>2013-09-12T12:38:56.000Z</time>
      </trkpt>
      <trkpt lat="43.16679" lon="6.47728">
        <ele>243</ele>
        <time>2013-09-12T12:38:57.000Z</time>
      </trkpt>
      <trkpt lat="43.1668" lon="6.47727">
        <ele>243</ele>
        <time>2013-09-12T12:38:58.000Z</time>
      </trkpt>
      <trkpt lat="43.16681" lon="6.47726">
        <ele>243</ele>
        <time>2013-09-12T12:38:59.000Z</time>
      </trkpt>
      <trkpt lat="43.16682" lon="6.47725">
        <ele>243</ele>
        <time>2013-09-12T12:39:00.000Z</time>
      </trkpt>
      <trkpt lat="43.16683" lon="6.47723">
        <ele>243</ele>
        <time>2013-09-12T12:39:01.000Z</time>
      </trkpt>
      <trkpt lat="43.16685" lon="6.47722">
        <ele>243</ele>
        <time>2013-09-12T12:39:02.000Z</time>
      </trkpt>
      <trkpt lat="43.16686" lon="6.47721">
        <ele>244</ele>
        <time>2013-09-12T12:39:03.000Z</time>
      </trkpt>
      <trkpt lat="43.16687" lon="6.4772">
        <ele>244</ele>
        <time>2013-09-12T12:39:04.000Z</time>
      </trkpt>
      <trkpt lat="43.16688" lon="6.47718">
        <ele>244</ele>
        <time>2013-09-12T12:39:05.000Z</time>
      </trkpt>
      <trkpt lat="43.16689" lon="6.47717">
        <ele>244</ele>
        <time>2013-09-12T12:39:06.000Z</time>
      </trkpt>
      <trkpt lat="43.1669" lon="6.47716">
        <ele>244</ele>
        <time>2013-09-12T12:39:07.000Z</time>
      </trkpt>
      <trkpt lat="43.16691" lon="6.47715">
        <ele>244</ele>
        <time>2013-09-12T12:39:08.000Z</time>
      </trkpt>
      <trkpt lat="43.16692" lon="6.47713">
        <ele>244</ele>
        <time>2013-09-12T12:39:09.000Z</time>
      </trkpt>
      <trkpt lat="43.16694" lon="6.47712">
        <ele>244</ele>
        <time>2013-09-12T12:39:10.000Z</time>
      </trkpt>
      <trkpt lat="43.16695" lon="6.47711">
        <ele>244</ele>
        <time>2013-09-12T12:39:11.000Z</time>
      </trkpt>
      <trkpt lat="43.16696" lon="6.47709">
        <ele>244</ele>
        <time>2013-09-12T12:39:12.000Z</time>
      </trkpt>
      <trkpt lat="43.16697" lon="6.47708">
        <ele>244</ele>
        <time>2013-09-12T12:39:13.000Z</time>
      </trkpt>
      <trkpt lat="43.16698" lon="6.47707">
        <ele>244</ele>
        <time>2013-09-12T12:39:14.000Z</time>
      </trkpt>
      <trkpt lat="43.16699" lon="6.47705">
        <ele>244</ele>
        <time>2013-09-12T12:39:15.000Z</time>
      </trkpt>
      <trkpt lat="43.167" lon="6.47704">
        <ele>244</ele>
        <time>2013-09-12T12:39:16.000Z</time>
      </trkpt>
      <trkpt lat="43.16701" lon="6.47703">
        <ele>244</ele>
        <time>2013-09-12T12:39:17.000Z</time>
      </trkpt>
      <trkpt lat="43.16703" lon="6.47702">
        <ele>244</ele>
        <time>2013-09-12T12:39:18.000Z</time>
      </trkpt>
      <trkpt lat="43.16704" lon="6.477">
        <ele>244</ele>
        <time>2013-09-12T12:39:19.000Z</time>
      </trkpt>
      <trkpt lat="43.16705" lon="6.47699">
        <ele>244</ele>
        <time>2013-09-12T12:39:20.000Z</time>
      </trkpt>
      <trkpt lat="43.16706" lon="6.47698">
        <ele>244</ele>
        <time>2013-09-12T12:39:21.000Z</time>
      </trkpt>
      <trkpt lat="43.16707" lon="6.47697">
        <ele>244</ele>
        <time>2013-09-12T12:39:22.000Z</time>
      </trkpt>
      <trkpt lat="43.16709" lon="6.47696">
        <ele>244</ele>
        <time>2013-09-12T12:39:23.000Z</time>
      </trkpt>
      <trkpt lat="43.1671" lon="6.47696">
        <ele>244</ele>
        <time>2013-09-12T12:39:24.000Z</time>
      </trkpt>
      <trkpt lat="43.16711" lon="6.47695">
        <ele>244</ele>
        <time>2013-09-12T12:39:25.000Z</time>
      </trkpt>
      <trkpt lat="43.16713" lon="6.47694">
        <ele>244</ele>
        <time>2013-09-12T12:39:26.000Z</time>
      </trkpt>
      <trkpt lat="43.16714" lon="6.47693">
        <ele>244</ele>
        <time>2013-09-12T12:39:27.000Z</time>
      </trkpt>
      <trkpt lat="43.16715" lon="6.47692">
        <ele>245</ele>
        <time>2013-09-12T12:39:28.000Z</time>
      </trkpt>
      <trkpt lat="43.16717" lon="6.47691">
        <ele>245</ele>
        <time>2013-09-12T12:39:29.000Z</time>
      </trkpt>
      <trkpt lat="43.16718" lon="6.4769">
        <ele>245</ele>
        <time>2013-09-12T12:39:30.000Z</time>
      </trkpt>
      <trkpt lat="43.1672" lon="6.4769">
        <ele>245</ele>
        <time>2013-09-12T12:39:31.000Z</time>
      </trkpt>
      <trkpt lat="43.16721" lon="6.47689">
        <ele>245</ele>
        <time>2013-09-12T12:39:32.000Z</time>
      </trkpt>
      <trkpt lat="43.16722" lon="6.47688">
        <ele>245</ele>
        <time>2013-09-12T12:39:33.000Z</time>
      </trkpt>
      <trkpt lat="43.16724" lon="6.47687">
        <ele>245</ele>
        <time>2013-09-12T12:39:34.000Z</time>
      </trkpt>
      <trkpt lat="43.16725" lon="6.47686">
        <ele>245</ele>
        <time>2013-09-12T12:39:35.000Z</time>
      </trkpt>
      <trkpt lat="43.16726" lon="6.47686">
        <ele>246</ele>
        <time>2013-09-12T12:39:36.000Z</time>
      </trkpt>
      <trkpt lat="43.16728" lon="6.47685">
        <ele>246</ele>
        <time>2013-09-12T12:39:37.000Z</time>
      </trkpt>
      <trkpt lat="43.16729" lon="6.47684">
        <ele>246</ele>
        <time>2013-09-12T12:39:38.000Z</time>
      </trkpt>
      <trkpt lat="43.16731" lon="6.47684">
        <ele>246</ele>
        <time>2013-09-12T12:39:39.000Z</time>
      </trkpt>
      <trkpt lat="43.16732" lon="6.47683">
        <ele>246</ele>
        <time>2013-09-12T12:39:40.000Z</time>
      </trkpt>
      <trkpt lat="43.16733" lon="6.47683">
        <ele>246</ele>
        <time>2013-09-12T12:39:41.000Z</time>
      </trkpt>
      <trkpt lat="43.16735" lon="6.47683">
        <ele>246</ele>
        <time>2013-09-12T12:39:42.000Z</time>
      </trkpt>
      <trkpt lat="43.16736" lon="6.47682">
        <ele>246</ele>
        <time>2013-09-12T12:39:43.000Z</time>
      </trkpt>
      <trkpt lat="43.16738" lon="6.47682">
        <ele>247</ele>
        <time>2013-09-12T12:39:44.000Z</time>
      </trkpt>
      <trkpt lat="43.16739" lon="6.47682">
        <ele>247</ele>
        <time>2013-09-12T12:39:45.000Z</time>
      </trkpt>
      <trkpt lat="43.16741" lon="6.47681">
        <ele>247</ele>
        <time>2013-09-12T12:39:46.000Z</time>
      </trkpt>
      <trkpt lat="43.16742" lon="6.47681">
        <ele>247</ele>
        <time>2013-09-12T12:39:47.000Z</time>
      </trkpt>
      <trkpt lat="43.16744" lon="6.47681">
        <ele>247</ele>
        <time>2013-09-12T12:39:48.000Z</time>
      </trkpt>
      <trkpt lat="43.16745" lon="6.4768">
        <ele>247</ele>
        <time>2013-09-12T12:39:49.000Z</time>
      </trkpt>
      <trkpt lat="43.16747" lon="6.4768">
        <ele>247</ele>
        <time>2013-09-12T12:39:50.000Z</time>
      </trkpt>
      <trkpt lat="43.16749" lon="6.47679">
        <ele>247</ele>
        <time>2013-09-12T12:39:51.000Z</time>
      </trkpt>
      <trkpt lat="43.16752" lon="6.47679">
        <ele>256</ele>
        <time>2013-09-12T12:39:53.000Z</time>
      </trkpt>
      <trkpt lat="43.16754" lon="6.47679">
        <ele>256</ele>
        <time>2013-09-12T12:39:54.000Z</time>
      </trkpt>
      <trkpt lat="43.16755" lon="6.47679">
        <ele>256</ele>
        <time>2013-09-12T12:39:55.000Z</time>
      </trkpt>
      <trkpt lat="43.16757" lon="6.47679">
        <ele>257</ele>
        <time>2013-09-12T12:39:56.000Z</time>
      </trkpt>
      <trkpt lat="43.16758" lon="6.47678">
        <ele>257</ele>
        <time>2013-09-12T12:39:57.000Z</time>
      </trkpt>
      <trkpt lat="43.1676" lon="6.47678">
        <ele>257</ele>
        <time>2013-09-12T12:39:58.000Z</time>
      </trkpt>
      <trkpt lat="43.16761" lon="6.47677">
        <ele>258</ele>
        <time>2013-09-12T12:39:59.000Z</time>
      </trkpt>
      <trkpt lat="43.16763" lon="6.47677">
        <ele>258</ele>
        <time>2013-09-12T12:40:00.000Z</time>
      </trkpt>
      <trkpt lat="43.16764" lon="6.47676">
        <ele>258</ele>
        <time>2013-09-12T12:40:01.000Z</time>
      </trkpt>
      <trkpt lat="43.16765" lon="6.47674">
        <ele>258</ele>
        <time>2013-09-12T12:40:02.000Z</time>
      </trkpt>
      <trkpt lat="43.16767" lon="6.47673">
        <ele>259</ele>
        <time>2013-09-12T12:40:03.000Z</time>
      </trkpt>
      <trkpt lat="43.16768" lon="6.47672">
        <ele>259</ele>
        <time>2013-09-12T12:40:04.000Z</time>
      </trkpt>
      <trkpt lat="43.16769" lon="6.47671">
        <ele>259</ele>
        <time>2013-09-12T12:40:05.000Z</time>
      </trkpt>
      <trkpt lat="43.1677" lon="6.47669">
        <ele>260</ele>
        <time>2013-09-12T12:40:06.000Z</time>
      </trkpt>
      <trkpt lat="43.16771" lon="6.47667">
        <ele>260</ele>
        <time>2013-09-12T12:40:07.000Z</time>
      </trkpt>
      <trkpt lat="43.16772" lon="6.47666">
        <ele>253</ele>
        <time>2013-09-12T12:40:08.000Z</time>
      </trkpt>
      <trkpt lat="43.16774" lon="6.47664">
        <ele>254</ele>
        <time>2013-09-12T12:40:09.000Z</time>
      </trkpt>
      <trkpt lat="43.16774" lon="6.47662">
        <ele>254</ele>
        <time>2013-09-12T12:40:10.000Z</time>
      </trkpt>
      <trkpt lat="43.16775" lon="6.4766">
        <ele>254</ele>
        <time>2013-09-12T12:40:11.000Z</time>
      </trkpt>
      <trkpt lat="43.16776" lon="6.47658">
        <ele>254</ele>
        <time>2013-09-12T12:40:12.000Z</time>
      </trkpt>
      <trkpt lat="43.16777" lon="6.47656">
        <ele>254</ele>
        <time>2013-09-12T12:40:13.000Z</time>
      </trkpt>
      <trkpt lat="43.16778" lon="6.47654">
        <ele>254</ele>
        <time>2013-09-12T12:40:14.000Z</time>
      </trkpt>
      <trkpt lat="43.16778" lon="6.47652">
        <ele>254</ele>
        <time>2013-09-12T12:40:15.000Z</time>
      </trkpt>
      <trkpt lat="43.16779" lon="6.4765">
        <ele>255</ele>
        <time>2013-09-12T12:40:16.000Z</time>
      </trkpt>
      <trkpt lat="43.1678" lon="6.47649">
        <ele>255</ele>
        <time>2013-09-12T12:40:17.000Z</time>
      </trkpt>
      <trkpt lat="43.16781" lon="6.47647">
        <ele>255</ele>
        <time>2013-09-12T12:40:18.000Z</time>
      </trkpt>
      <trkpt lat="43.16781" lon="6.47645">
        <ele>255</ele>
        <time>2013-09-12T12:40:19.000Z</time>
      </trkpt>
      <trkpt lat="43.16782" lon="6.47643">
        <ele>255</ele>
        <time>2013-09-12T12:40:20.000Z</time>
      </trkpt>
      <trkpt lat="43.16783" lon="6.47641">
        <ele>255</ele>
        <time>2013-09-12T12:40:21.000Z</time>
      </trkpt>
      <trkpt lat="43.16784" lon="6.47639">
        <ele>255</ele>
        <time>2013-09-12T12:40:22.000Z</time>
      </trkpt>
      <trkpt lat="43.16785" lon="6.47637">
        <ele>255</ele>
        <time>2013-09-12T12:40:23.000Z</time>
      </trkpt>
      <trkpt lat="43.16786" lon="6.47636">
        <ele>255</ele>
        <time>2013-09-12T12:40:24.000Z</time>
      </trkpt>
      <trkpt lat="43.16786" lon="6.47634">
        <ele>255</ele>
        <time>2013-09-12T12:40:25.000Z</time>
      </trkpt>
      <trkpt lat="43.16787" lon="6.47632">
        <ele>255</ele>
        <time>2013-09-12T12:40:26.000Z</time>
      </trkpt>
      <trkpt lat="43.16787" lon="6.47629">
        <ele>255</ele>
        <time>2013-09-12T12:40:27.000Z</time>
      </trkpt>
      <trkpt lat="43.16788" lon="6.47627">
        <ele>255</ele>
        <time>2013-09-12T12:40:28.000Z</time>
      </trkpt>
      <trkpt lat="43.16789" lon="6.47625">
        <ele>255</ele>
        <time>2013-09-12T12:40:29.000Z</time>
      </trkpt>
      <trkpt lat="43.1679" lon="6.47623">
        <ele>255</ele>
        <time>2013-09-12T12:40:30.000Z</time>
      </trkpt>
      <trkpt lat="43.1679" lon="6.47622">
        <ele>255</ele>
        <time>2013-09-12T12:40:31.000Z</time>
      </trkpt>
      <trkpt lat="43.16791" lon="6.4762">
        <ele>255</ele>
        <time>2013-09-12T12:40:32.000Z</time>
      </trkpt>
      <trkpt lat="43.16792" lon="6.47618">
        <ele>255</ele>
        <time>2013-09-12T12:40:33.000Z</time>
      </trkpt>
      <trkpt lat="43.16793" lon="6.47616">
        <ele>255</ele>
        <time>2013-09-12T12:40:34.000Z</time>
      </trkpt>
      <trkpt lat="43.16793" lon="6.47614">
        <ele>255</ele>
        <time>2013-09-12T12:40:35.000Z</time>
      </trkpt>
      <trkpt lat="43.16794" lon="6.47612">
        <ele>255</ele>
        <time>2013-09-12T12:40:36.000Z</time>
      </trkpt>
      <trkpt lat="43.16795" lon="6.4761">
        <ele>255</ele>
        <time>2013-09-12T12:40:37.000Z</time>
      </trkpt>
      <trkpt lat="43.16796" lon="6.47608">
        <ele>255</ele>
        <time>2013-09-12T12:40:38.000Z</time>
      </trkpt>
      <trkpt lat="43.16796" lon="6.47606">
        <ele>255</ele>
        <time>2013-09-12T12:40:39.000Z</time>
      </trkpt>
      <trkpt lat="43.16797" lon="6.47604">
        <ele>255</ele>
        <time>2013-09-12T12:40:40.000Z</time>
      </trkpt>
      <trkpt lat="43.16797" lon="6.47603">
        <ele>255</ele>
        <time>2013-09-12T12:40:41.000Z</time>
      </trkpt>
      <trkpt lat="43.16798" lon="6.47601">
        <ele>255</ele>
        <time>2013-09-12T12:40:42.000Z</time>
      </trkpt>
      <trkpt lat="43.16799" lon="6.47599">
        <ele>255</ele>
        <time>2013-09-12T12:40:43.000Z</time>
      </trkpt>
      <trkpt lat="43.16799" lon="6.47597">
        <ele>255</ele>
        <time>2013-09-12T12:40:44.000Z</time>
      </trkpt>
      <trkpt lat="43.168" lon="6.47595">
        <ele>255</ele>
        <time>2013-09-12T12:40:45.000Z</time>
      </trkpt>
      <trkpt lat="43.16801" lon="6.47593">
        <ele>255</ele>
        <time>2013-09-12T12:40:46.000Z</time>
      </trkpt>
      <trkpt lat="43.16802" lon="6.47591">
        <ele>255</ele>
        <time>2013-09-12T12:40:47.000Z</time>
      </trkpt>
      <trkpt lat="43.16803" lon="6.4759">
        <ele>255</ele>
        <time>2013-09-12T12:40:48.000Z</time>
      </trkpt>
      <trkpt lat="43.16803" lon="6.47588">
        <ele>255</ele>
        <time>2013-09-12T12:40:49.000Z</time>
      </trkpt>
      <trkpt lat="43.16804" lon="6.47586">
        <ele>256</ele>
        <time>2013-09-12T12:40:50.000Z</time>
      </trkpt>
      <trkpt lat="43.16805" lon="6.47584">
        <ele>256</ele>
        <time>2013-09-12T12:40:51.000Z</time>
      </trkpt>
      <trkpt lat="43.16806" lon="6.47582">
        <ele>249</ele>
        <time>2013-09-12T12:40:52.000Z</time>
      </trkpt>
      <trkpt lat="43.16807" lon="6.4758">
        <ele>249</ele>
        <time>2013-09-12T12:40:53.000Z</time>
      </trkpt>
      <trkpt lat="43.16808" lon="6.47579">
        <ele>250</ele>
        <time>2013-09-12T12:40:54.000Z</time>
      </trkpt>
      <trkpt lat="43.16809" lon="6.47577">
        <ele>250</ele>
        <time>2013-09-12T12:40:55.000Z</time>
      </trkpt>
      <trkpt lat="43.1681" lon="6.47575">
        <ele>250</ele>
        <time>2013-09-12T12:40:56.000Z</time>
      </trkpt>
      <trkpt lat="43.16811" lon="6.47574">
        <ele>250</ele>
        <time>2013-09-12T12:40:57.000Z</time>
      </trkpt>
      <trkpt lat="43.16812" lon="6.47572">
        <ele>250</ele>
        <time>2013-09-12T12:40:58.000Z</time>
      </trkpt>
      <trkpt lat="43.16813" lon="6.47571">
        <ele>250</ele>
        <time>2013-09-12T12:40:59.000Z</time>
      </trkpt>
      <trkpt lat="43.16814" lon="6.4757">
        <ele>250</ele>
        <time>2013-09-12T12:41:00.000Z</time>
      </trkpt>
      <trkpt lat="43.16815" lon="6.47568">
        <ele>250</ele>
        <time>2013-09-12T12:41:01.000Z</time>
      </trkpt>
      <trkpt lat="43.16816" lon="6.47566">
        <ele>250</ele>
        <time>2013-09-12T12:41:02.000Z</time>
      </trkpt>
      <trkpt lat="43.16817" lon="6.47565">
        <ele>250</ele>
        <time>2013-09-12T12:41:03.000Z</time>
      </trkpt>
      <trkpt lat="43.16819" lon="6.47563">
        <ele>250</ele>
        <time>2013-09-12T12:41:04.000Z</time>
      </trkpt>
      <trkpt lat="43.1682" lon="6.47562">
        <ele>250</ele>
        <time>2013-09-12T12:41:05.000Z</time>
      </trkpt>
      <trkpt lat="43.16821" lon="6.4756">
        <ele>250</ele>
        <time>2013-09-12T12:41:06.000Z</time>
      </trkpt>
      <trkpt lat="43.16822" lon="6.47559">
        <ele>250</ele>
        <time>2013-09-12T12:41:07.000Z</time>
      </trkpt>
      <trkpt lat="43.16823" lon="6.47557">
        <ele>250</ele>
        <time>2013-09-12T12:41:08.000Z</time>
      </trkpt>
      <trkpt lat="43.16824" lon="6.47556">
        <ele>250</ele>
        <time>2013-09-12T12:41:09.000Z</time>
      </trkpt>
      <trkpt lat="43.16826" lon="6.47555">
        <ele>250</ele>
        <time>2013-09-12T12:41:10.000Z</time>
      </trkpt>
      <trkpt lat="43.16827" lon="6.47553">
        <ele>250</ele>
        <time>2013-09-12T12:41:11.000Z</time>
      </trkpt>
      <trkpt lat="43.16828" lon="6.47552">
        <ele>250</ele>
        <time>2013-09-12T12:41:12.000Z</time>
      </trkpt>
      <trkpt lat="43.16829" lon="6.4755">
        <ele>249</ele>
        <time>2013-09-12T12:41:13.000Z</time>
      </trkpt>
      <trkpt lat="43.1683" lon="6.47549">
        <ele>249</ele>
        <time>2013-09-12T12:41:14.000Z</time>
      </trkpt>
      <trkpt lat="43.16831" lon="6.47547">
        <ele>249</ele>
        <time>2013-09-12T12:41:15.000Z</time>
      </trkpt>
      <trkpt lat="43.16832" lon="6.47546">
        <ele>249</ele>
        <time>2013-09-12T12:41:16.000Z</time>
      </trkpt>
      <trkpt lat="43.16833" lon="6.47544">
        <ele>249</ele>
        <time>2013-09-12T12:41:17.000Z</time>
      </trkpt>
      <trkpt lat="43.16834" lon="6.47543">
        <ele>260</ele>
        <time>2013-09-12T12:41:18.000Z</time>
      </trkpt>
      <trkpt lat="43.16835" lon="6.47541">
        <ele>260</ele>
        <time>2013-09-12T12:41:19.000Z</time>
      </trkpt>
      <trkpt lat="43.16836" lon="6.4754">
        <ele>260</ele>
        <time>2013-09-12T12:41:20.000Z</time>
      </trkpt>
      <trkpt lat="43.16837" lon="6.47538">
        <ele>260</ele>
        <time>2013-09-12T12:41:21.000Z</time>
      </trkpt>
      <trkpt lat="43.16838" lon="6.47537">
        <ele>260</ele>
        <time>2013-09-12T12:41:22.000Z</time>
      </trkpt>
      <trkpt lat="43.16839" lon="6.47535">
        <ele>260</ele>
        <time>2013-09-12T12:41:23.000Z</time>
      </trkpt>
      <trkpt lat="43.1684" lon="6.47534">
        <ele>260</ele>
        <time>2013-09-12T12:41:24.000Z</time>
      </trkpt>
      <trkpt lat="43.16841" lon="6.47532">
        <ele>259</ele>
        <time>2013-09-12T12:41:25.000Z</time>
      </trkpt>
      <trkpt lat="43.16842" lon="6.47531">
        <ele>259</ele>
        <time>2013-09-12T12:41:26.000Z</time>
      </trkpt>
      <trkpt lat="43.16843" lon="6.47529">
        <ele>259</ele>
        <time>2013-09-12T12:41:27.000Z</time>
      </trkpt>
      <trkpt lat="43.16844" lon="6.47528">
        <ele>259</ele>
        <time>2013-09-12T12:41:28.000Z</time>
      </trkpt>
      <trkpt lat="43.16845" lon="6.47526">
        <ele>259</ele>
        <time>2013-09-12T12:41:29.000Z</time>
      </trkpt>
      <trkpt lat="43.16846" lon="6.47524">
        <ele>259</ele>
        <time>2013-09-12T12:41:30.000Z</time>
      </trkpt>
      <trkpt lat="43.16847" lon="6.47522">
        <ele>259</ele>
        <time>2013-09-12T12:41:31.000Z</time>
      </trkpt>
      <trkpt lat="43.16848" lon="6.4752">
        <ele>259</ele>
        <time>2013-09-12T12:41:32.000Z</time>
      </trkpt>
      <trkpt lat="43.16849" lon="6.47519">
        <ele>259</ele>
        <time>2013-09-12T12:41:33.000Z</time>
      </trkpt>
      <trkpt lat="43.1685" lon="6.47517">
        <ele>258</ele>
        <time>2013-09-12T12:41:34.000Z</time>
      </trkpt>
      <trkpt lat="43.16851" lon="6.47515">
        <ele>258</ele>
        <time>2013-09-12T12:41:35.000Z</time>
      </trkpt>
      <trkpt lat="43.16851" lon="6.47513">
        <ele>258</ele>
        <time>2013-09-12T12:41:36.000Z</time>
      </trkpt>
      <trkpt lat="43.16852" lon="6.47512">
        <ele>258</ele>
        <time>2013-09-12T12:41:37.000Z</time>
      </trkpt>
      <trkpt lat="43.16853" lon="6.4751">
        <ele>258</ele>
        <time>2013-09-12T12:41:38.000Z</time>
      </trkpt>
      <trkpt lat="43.16853" lon="6.47508">
        <ele>258</ele>
        <time>2013-09-12T12:41:39.000Z</time>
      </trkpt>
      <trkpt lat="43.16854" lon="6.47506">
        <ele>258</ele>
        <time>2013-09-12T12:41:40.000Z</time>
      </trkpt>
      <trkpt lat="43.16854" lon="6.47504">
        <ele>258</ele>
        <time>2013-09-12T12:41:41.000Z</time>
      </trkpt>
      <trkpt lat="43.16855" lon="6.47502">
        <ele>258</ele>
        <time>2013-09-12T12:41:42.000Z</time>
      </trkpt>
      <trkpt lat="43.16856" lon="6.475">
        <ele>258</ele>
        <time>2013-09-12T12:41:43.000Z</time>
      </trkpt>
      <trkpt lat="43.16857" lon="6.47498">
        <ele>255</ele>
        <time>2013-09-12T12:41:44.000Z</time>
      </trkpt>
      <trkpt lat="43.16857" lon="6.47496">
        <ele>255</ele>
        <time>2013-09-12T12:41:45.000Z</time>
      </trkpt>
      <trkpt lat="43.16858" lon="6.47494">
        <ele>255</ele>
        <time>2013-09-12T12:41:46.000Z</time>
      </trkpt>
      <trkpt lat="43.16859" lon="6.47492">
        <ele>255</ele>
        <time>2013-09-12T12:41:47.000Z</time>
      </trkpt>
      <trkpt lat="43.16859" lon="6.4749">
        <ele>255</ele>
        <time>2013-09-12T12:41:48.000Z</time>
      </trkpt>
      <trkpt lat="43.1686" lon="6.47488">
        <ele>255</ele>
        <time>2013-09-12T12:41:49.000Z</time>
      </trkpt>
      <trkpt lat="43.16861" lon="6.47486">
        <ele>255</ele>
        <time>2013-09-12T12:41:50.000Z</time>
      </trkpt>
      <trkpt lat="43.16861" lon="6.47484">
        <ele>256</ele>
        <time>2013-09-12T12:41:51.000Z</time>
      </trkpt>
      <trkpt lat="43.16862" lon="6.47482">
        <ele>256</ele>
        <time>2013-09-12T12:41:52.000Z</time>
      </trkpt>
      <trkpt lat="43.16863" lon="6.4748">
        <ele>256</ele>
        <time>2013-09-12T12:41:53.000Z</time>
      </trkpt>
      <trkpt lat="43.16863" lon="6.47478">
        <ele>256</ele>
        <time>2013-09-12T12:41:54.000Z</time>
      </trkpt>
      <trkpt lat="43.16863" lon="6.47476">
        <ele>256</ele>
        <time>2013-09-12T12:41:55.000Z</time>
      </trkpt>
      <trkpt lat="43.16864" lon="6.47474">
        <ele>256</ele>
        <time>2013-09-12T12:41:56.000Z</time>
      </trkpt>
      <trkpt lat="43.16864" lon="6.47472">
        <ele>256</ele>
        <time>2013-09-12T12:41:57.000Z</time>
      </trkpt>
      <trkpt lat="43.16864" lon="6.4747">
        <ele>256</ele>
        <time>2013-09-12T12:41:58.000Z</time>
      </trkpt>
      <trkpt lat="43.16865" lon="6.47468">
        <ele>256</ele>
        <time>2013-09-12T12:41:59.000Z</time>
      </trkpt>
      <trkpt lat="43.16866" lon="6.47466">
        <ele>256</ele>
        <time>2013-09-12T12:42:00.000Z</time>
      </trkpt>
      <trkpt lat="43.16866" lon="6.47464">
        <ele>256</ele>
        <time>2013-09-12T12:42:01.000Z</time>
      </trkpt>
      <trkpt lat="43.16867" lon="6.47462">
        <ele>256</ele>
        <time>2013-09-12T12:42:02.000Z</time>
      </trkpt>
      <trkpt lat="43.16868" lon="6.4746">
        <ele>256</ele>
        <time>2013-09-12T12:42:03.000Z</time>
      </trkpt>
      <trkpt lat="43.16868" lon="6.47458">
        <ele>256</ele>
        <time>2013-09-12T12:42:04.000Z</time>
      </trkpt>
      <trkpt lat="43.16869" lon="6.47456">
        <ele>256</ele>
        <time>2013-09-12T12:42:05.000Z</time>
      </trkpt>
      <trkpt lat="43.16869" lon="6.47454">
        <ele>256</ele>
        <time>2013-09-12T12:42:06.000Z</time>
      </trkpt>
      <trkpt lat="43.1687" lon="6.47452">
        <ele>256</ele>
        <time>2013-09-12T12:42:07.000Z</time>
      </trkpt>
      <trkpt lat="43.16871" lon="6.4745">
        <ele>256</ele>
        <time>2013-09-12T12:42:08.000Z</time>
      </trkpt>
      <trkpt lat="43.16872" lon="6.47448">
        <ele>256</ele>
        <time>2013-09-12T12:42:09.000Z</time>
      </trkpt>
      <trkpt lat="43.16872" lon="6.47446">
        <ele>256</ele>
        <time>2013-09-12T12:42:10.000Z</time>
      </trkpt>
      <trkpt lat="43.16873" lon="6.47444">
        <ele>256</ele>
        <time>2013-09-12T12:42:11.000Z</time>
      </trkpt>
      <trkpt lat="43.16874" lon="6.47442">
        <ele>256</ele>
        <time>2013-09-12T12:42:12.000Z</time>
      </trkpt>
      <trkpt lat="43.16875" lon="6.4744">
        <ele>256</ele>
        <time>2013-09-12T12:42:13.000Z</time>
      </trkpt>
      <trkpt lat="43.16876" lon="6.47439">
        <ele>256</ele>
        <time>2013-09-12T12:42:14.000Z</time>
      </trkpt>
      <trkpt lat="43.16877" lon="6.47436">
        <ele>256</ele>
        <time>2013-09-12T12:42:15.000Z</time>
      </trkpt>
      <trkpt lat="43.16877" lon="6.47434">
        <ele>256</ele>
        <time>2013-09-12T12:42:16.000Z</time>
      </trkpt>
      <trkpt lat="43.16878" lon="6.47432">
        <ele>256</ele>
        <time>2013-09-12T12:42:17.000Z</time>
      </trkpt>
      <trkpt lat="43.16879" lon="6.4743">
        <ele>256</ele>
        <time>2013-09-12T12:42:18.000Z</time>
      </trkpt>
      <trkpt lat="43.16879" lon="6.47428">
        <ele>256</ele>
        <time>2013-09-12T12:42:19.000Z</time>
      </trkpt>
      <trkpt lat="43.1688" lon="6.47426">
        <ele>257</ele>
        <time>2013-09-12T12:42:20.000Z</time>
      </trkpt>
      <trkpt lat="43.16881" lon="6.47424">
        <ele>257</ele>
        <time>2013-09-12T12:42:21.000Z</time>
      </trkpt>
      <trkpt lat="43.16882" lon="6.47422">
        <ele>257</ele>
        <time>2013-09-12T12:42:22.000Z</time>
      </trkpt>
      <trkpt lat="43.16882" lon="6.4742">
        <ele>257</ele>
        <time>2013-09-12T12:42:23.000Z</time>
      </trkpt>
      <trkpt lat="43.16883" lon="6.47418">
        <ele>257</ele>
        <time>2013-09-12T12:42:24.000Z</time>
      </trkpt>
      <trkpt lat="43.16884" lon="6.47416">
        <ele>255</ele>
        <time>2013-09-12T12:42:25.000Z</time>
      </trkpt>
      <trkpt lat="43.16885" lon="6.47413">
        <ele>255</ele>
        <time>2013-09-12T12:42:26.000Z</time>
      </trkpt>
      <trkpt lat="43.16885" lon="6.47411">
        <ele>255</ele>
        <time>2013-09-12T12:42:27.000Z</time>
      </trkpt>
      <trkpt lat="43.16886" lon="6.47409">
        <ele>255</ele>
        <time>2013-09-12T12:42:28.000Z</time>
      </trkpt>
      <trkpt lat="43.16887" lon="6.47407">
        <ele>255</ele>
        <time>2013-09-12T12:42:29.000Z</time>
      </trkpt>
      <trkpt lat="43.16887" lon="6.47405">
        <ele>255</ele>
        <time>2013-09-12T12:42:30.000Z</time>
      </trkpt>
      <trkpt lat="43.16888" lon="6.47402">
        <ele>255</ele>
        <time>2013-09-12T12:42:31.000Z</time>
      </trkpt>
      <trkpt lat="43.16888" lon="6.474">
        <ele>255</ele>
        <time>2013-09-12T12:42:32.000Z</time>
      </trkpt>
      <trkpt lat="43.16889" lon="6.47398">
        <ele>255</ele>
        <time>2013-09-12T12:42:33.000Z</time>
      </trkpt>
      <trkpt lat="43.16889" lon="6.47395">
        <ele>255</ele>
        <time>2013-09-12T12:42:34.000Z</time>
      </trkpt>
      <trkpt lat="43.16889" lon="6.47393">
        <ele>255</ele>
        <time>2013-09-12T12:42:35.000Z</time>
      </trkpt>
      <trkpt lat="43.1689" lon="6.47391">
        <ele>255</ele>
        <time>2013-09-12T12:42:36.000Z</time>
      </trkpt>
      <trkpt lat="43.1689" lon="6.47388">
        <ele>255</ele>
        <time>2013-09-12T12:42:37.000Z</time>
      </trkpt>
      <trkpt lat="43.1689" lon="6.47386">
        <ele>255</ele>
        <time>2013-09-12T12:42:38.000Z</time>
      </trkpt>
      <trkpt lat="43.1689" lon="6.47384">
        <ele>255</ele>
        <time>2013-09-12T12:42:39.000Z</time>
      </trkpt>
      <trkpt lat="43.16891" lon="6.47381">
        <ele>255</ele>
        <time>2013-09-12T12:42:40.000Z</time>
      </trkpt>
      <trkpt lat="43.16891" lon="6.47379">
        <ele>255</ele>
        <time>2013-09-12T12:42:41.000Z</time>
      </trkpt>
      <trkpt lat="43.16891" lon="6.47377">
        <ele>255</ele>
        <time>2013-09-12T12:42:42.000Z</time>
      </trkpt>
      <trkpt lat="43.16892" lon="6.47374">
        <ele>255</ele>
        <time>2013-09-12T12:42:43.000Z</time>
      </trkpt>
      <trkpt lat="43.16892" lon="6.47372">
        <ele>255</ele>
        <time>2013-09-12T12:42:44.000Z</time>
      </trkpt>
      <trkpt lat="43.16892" lon="6.4737">
        <ele>255</ele>
        <time>2013-09-12T12:42:45.000Z</time>
      </trkpt>
      <trkpt lat="43.16893" lon="6.47367">
        <ele>255</ele>
        <time>2013-09-12T12:42:46.000Z</time>
      </trkpt>
      <trkpt lat="43.16893" lon="6.47365">
        <ele>255</ele>
        <time>2013-09-12T12:42:47.000Z</time>
      </trkpt>
      <trkpt lat="43.16894" lon="6.47363">
        <ele>255</ele>
        <time>2013-09-12T12:42:48.000Z</time>
      </trkpt>
      <trkpt lat="43.16894" lon="6.47361">
        <ele>255</ele>
        <time>2013-09-12T12:42:49.000Z</time>
      </trkpt>
      <trkpt lat="43.16895" lon="6.47359">
        <ele>256</ele>
        <time>2013-09-12T12:42:50.000Z</time>
      </trkpt>
      <trkpt lat="43.16896" lon="6.47358">
        <ele>256</ele>
        <time>2013-09-12T12:42:51.000Z</time>
      </trkpt>
      <trkpt lat="43.16897" lon="6.47356">
        <ele>256</ele>
        <time>2013-09-12T12:42:52.000Z</time>
      </trkpt>
      <trkpt lat="43.16898" lon="6.47354">
        <ele>257</ele>
        <time>2013-09-12T12:42:53.000Z</time>
      </trkpt>
      <trkpt lat="43.169" lon="6.47353">
        <ele>257</ele>
        <time>2013-09-12T12:42:54.000Z</time>
      </trkpt>
      <trkpt lat="43.16901" lon="6.47353">
        <ele>257</ele>
        <time>2013-09-12T12:42:55.000Z</time>
      </trkpt>
      <trkpt lat="43.16903" lon="6.47352">
        <ele>258</ele>
        <time>2013-09-12T12:42:56.000Z</time>
      </trkpt>
      <trkpt lat="43.16904" lon="6.47352">
        <ele>258</ele>
        <time>2013-09-12T12:42:57.000Z</time>
      </trkpt>
      <trkpt lat="43.16905" lon="6.47352">
        <ele>258</ele>
        <time>2013-09-12T12:42:58.000Z</time>
      </trkpt>
      <trkpt lat="43.16907" lon="6.47352">
        <ele>258</ele>
        <time>2013-09-12T12:42:59.000Z</time>
      </trkpt>
      <trkpt lat="43.16908" lon="6.47353">
        <ele>258</ele>
        <time>2013-09-12T12:43:00.000Z</time>
      </trkpt>
      <trkpt lat="43.16909" lon="6.47354">
        <ele>258</ele>
        <time>2013-09-12T12:43:01.000Z</time>
      </trkpt>
      <trkpt lat="43.1691" lon="6.47355">
        <ele>258</ele>
        <time>2013-09-12T12:43:02.000Z</time>
      </trkpt>
      <trkpt lat="43.16911" lon="6.47357">
        <ele>258</ele>
        <time>2013-09-12T12:43:03.000Z</time>
      </trkpt>
      <trkpt lat="43.16911" lon="6.47358">
        <ele>258</ele>
        <time>2013-09-12T12:43:04.000Z</time>
      </trkpt>
      <trkpt lat="43.16912" lon="6.4736">
        <ele>258</ele>
        <time>2013-09-12T12:43:05.000Z</time>
      </trkpt>
      <trkpt lat="43.16911" lon="6.47364">
        <ele>257</ele>
        <time>2013-09-12T12:43:07.000Z</time>
      </trkpt>
      <trkpt lat="43.16911" lon="6.47365">
        <ele>257</ele>
        <time>2013-09-12T12:43:08.000Z</time>
      </trkpt>
      <trkpt lat="43.1691" lon="6.47367">
        <ele>257</ele>
        <time>2013-09-12T12:43:09.000Z</time>
      </trkpt>
      <trkpt lat="43.16909" lon="6.47368">
        <ele>257</ele>
        <time>2013-09-12T12:43:10.000Z</time>
      </trkpt>
      <trkpt lat="43.16909" lon="6.47369">
        <ele>257</ele>
        <time>2013-09-12T12:43:11.000Z</time>
      </trkpt>
      <trkpt lat="43.16909" lon="6.47371">
        <ele>257</ele>
        <time>2013-09-12T12:43:14.000Z</time>
      </trkpt>
      <trkpt lat="43.16909" lon="6.47371">
        <ele>257</ele>
        <time>2013-09-12T12:43:15.000Z</time>
      </trkpt>
      <trkpt lat="43.16909" lon="6.47372">
        <ele>257</ele>
        <time>2013-09-12T12:43:16.000Z</time>
      </trkpt>
      <trkpt lat="43.16908" lon="6.47372">
        <ele>257</ele>
        <time>2013-09-12T12:43:19.000Z</time>
      </trkpt>
      <trkpt lat="43.16909" lon="6.47372">
        <ele>257</ele>
        <time>2013-09-12T12:43:20.000Z</time>
      </trkpt>
      <trkpt lat="43.16908" lon="6.47372">
        <ele>257</ele>
        <time>2013-09-12T12:43:24.000Z</time>
      </trkpt>
      <trkpt lat="43.16909" lon="6.47372">
        <ele>257</ele>
        <time>2013-09-12T12:43:26.000Z</time>
      </trkpt>
      <trkpt lat="43.16909" lon="6.47371">
        <ele>257</ele>
        <time>2013-09-12T12:43:27.000Z</time>
      </trkpt>
      <trkpt lat="43.16909" lon="6.47371">
        <ele>257</ele>
        <time>2013-09-12T12:43:28.000Z</time>
      </trkpt>
      <trkpt lat="43.16909" lon="6.47371">
        <ele>257</ele>
        <time>2013-09-12T12:43:32.000Z</time>
      </trkpt>
      <trkpt lat="43.16909" lon="6.47371">
        <ele>257</ele>
        <time>2013-09-12T12:43:36.000Z</time>
      </trkpt>
      <trkpt lat="43.16909" lon="6.47371">
        <ele>257</ele>
        <time>2013-09-12T12:43:41.000Z</time>
      </trkpt>
      <trkpt lat="43.16909" lon="6.47371">
        <ele>257</ele>
        <time>2013-09-12T12:43:44.000Z</time>
      </trkpt>
      <trkpt lat="43.16909" lon="6.4737">
        <ele>257</ele>
        <time>2013-09-12T12:43:52.000Z</time>
      </trkpt>
      <trkpt lat="43.16909" lon="6.47371">
        <ele>257</ele>
        <time>2013-09-12T12:43:56.000Z</time>
      </trkpt>
      <trkpt lat="43.16909" lon="6.47371">
        <ele>257</ele>
        <time>2013-09-12T12:44:00.000Z</time>
      </trkpt>
      <trkpt lat="43.16909" lon="6.47371">
        <ele>257</ele>
        <time>2013-09-12T12:44:08.000Z</time>
      </trkpt>
      <trkpt lat="43.16909" lon="6.47371">
        <ele>257</ele>
        <time>2013-09-12T12:44:25.000Z</time>
      </trkpt>
      <trkpt lat="43.16909" lon="6.47371">
        <ele>257</ele>
        <time>2013-09-12T12:44:26.000Z</time>
      </trkpt>
      <trkpt lat="43.1691" lon="6.47371">
        <ele>257</ele>
        <time>2013-09-12T12:44:28.000Z</time>
      </trkpt>
      <trkpt lat="43.16909" lon="6.47371">
        <ele>257</ele>
        <time>2013-09-12T12:44:29.000Z</time>
      </trkpt>
      <trkpt lat="43.1691" lon="6.4737">
        <ele>257</ele>
        <time>2013-09-12T12:44:30.000Z</time>
      </trkpt>
      <trkpt lat="43.1691" lon="6.47369">
        <ele>257</ele>
        <time>2013-09-12T12:44:31.000Z</time>
      </trkpt>
      <trkpt lat="43.1691" lon="6.47365">
        <ele>257</ele>
        <time>2013-09-12T12:44:35.000Z</time>
      </trkpt>
      <trkpt lat="43.1691" lon="6.47365">
        <ele>257</ele>
        <time>2013-09-12T12:44:36.000Z</time>
      </trkpt>
      <trkpt lat="43.1691" lon="6.47365">
        <ele>257</ele>
        <time>2013-09-12T12:44:37.000Z</time>
      </trkpt>
      <trkpt lat="43.16909" lon="6.47365">
        <ele>257</ele>
        <time>2013-09-12T12:44:38.000Z</time>
      </trkpt>
      <trkpt lat="43.16909" lon="6.47365">
        <ele>257</ele>
        <time>2013-09-12T12:44:39.000Z</time>
      </trkpt>
      <trkpt lat="43.16909" lon="6.47365">
        <ele>257</ele>
        <time>2013-09-12T12:44:40.000Z</time>
      </trkpt>
      <trkpt lat="43.16909" lon="6.47365">
        <ele>257</ele>
        <time>2013-09-12T12:44:47.000Z</time>
      </trkpt>
      <trkpt lat="43.16908" lon="6.47365">
        <ele>257</ele>
        <time>2013-09-12T12:44:52.000Z</time>
      </trkpt>
      <trkpt lat="43.16908" lon="6.47365">
        <ele>257</ele>
        <time>2013-09-12T12:44:56.000Z</time>
      </trkpt>
      <trkpt lat="43.16908" lon="6.47366">
        <ele>257</ele>
        <time>2013-09-12T12:45:55.000Z</time>
      </trkpt>
      <trkpt lat="43.16909" lon="6.47367">
        <ele>257</ele>
        <time>2013-09-12T12:46:00.000Z</time>
      </trkpt>
      <trkpt lat="43.16909" lon="6.47367">
        <ele>257</ele>
        <time>2013-09-12T12:46:01.000Z</time>
      </trkpt>
      <trkpt lat="43.16909" lon="6.47367">
        <ele>257</ele>
        <time>2013-09-12T12:46:02.000Z</time>
      </trkpt>
      <trkpt lat="43.16909" lon="6.47368">
        <ele>257</ele>
        <time>2013-09-12T12:46:05.000Z</time>
      </trkpt>
      <trkpt lat="43.16909" lon="6.47369">
        <ele>257</ele>
        <time>2013-09-12T12:46:06.000Z</time>
      </trkpt>
      <trkpt lat="43.16909" lon="6.4737">
        <ele>257</ele>
        <time>2013-09-12T12:46:08.000Z</time>
      </trkpt>
      <trkpt lat="43.16909" lon="6.4737">
        <ele>257</ele>
        <time>2013-09-12T12:46:14.000Z</time>
      </trkpt>
      <trkpt lat="43.16909" lon="6.4737">
        <ele>257</ele>
        <time>2013-09-12T12:46:17.000Z</time>
      </trkpt>
      <trkpt lat="43.16909" lon="6.4737">
        <ele>257</ele>
        <time>2013-09-12T12:46:19.000Z</time>
      </trkpt>
      <trkpt lat="43.16908" lon="6.4737">
        <ele>257</ele>
        <time>2013-09-12T12:46:22.000Z</time>
      </trkpt>
      <trkpt lat="43.16908" lon="6.4737">
        <ele>257</ele>
        <time>2013-09-12T12:46:24.000Z</time>
      </trkpt>
      <trkpt lat="43.16908" lon="6.4737">
        <ele>257</ele>
        <time>2013-09-12T12:46:28.000Z</time>
      </trkpt>
      <trkpt lat="43.16908" lon="6.4737">
        <ele>257</ele>
        <time>2013-09-12T12:46:29.000Z</time>
      </trkpt>
      <trkpt lat="43.16908" lon="6.47371">
        <ele>257</ele>
        <time>2013-09-12T12:46:32.000Z</time>
      </trkpt>
      <trkpt lat="43.16908" lon="6.47371">
        <ele>257</ele>
        <time>2013-09-12T12:46:37.000Z</time>
      </trkpt>
      <trkpt lat="43.16907" lon="6.4737">
        <ele>257</ele>
        <time>2013-09-12T12:46:45.000Z</time>
      </trkpt>
      <trkpt lat="43.16907" lon="6.47371">
        <ele>257</ele>
        <time>2013-09-12T12:46:47.000Z</time>
      </trkpt>
      <trkpt lat="43.16908" lon="6.47373">
        <ele>257</ele>
        <time>2013-09-12T12:46:49.000Z</time>
      </trkpt>
      <trkpt lat="43.16907" lon="6.47373">
        <ele>257</ele>
        <time>2013-09-12T12:46:50.000Z</time>
      </trkpt>
      <trkpt lat="43.16908" lon="6.47374">
        <ele>257</ele>
        <time>2013-09-12T12:46:52.000Z</time>
      </trkpt>
      <trkpt lat="43.16908" lon="6.47374">
        <ele>257</ele>
        <time>2013-09-12T12:46:54.000Z</time>
      </trkpt>
      <trkpt lat="43.16908" lon="6.47374">
        <ele>257</ele>
        <time>2013-09-12T12:46:58.000Z</time>
      </trkpt>
      <trkpt lat="43.16907" lon="6.47375">
        <ele>257</ele>
        <time>2013-09-12T12:47:03.000Z</time>
      </trkpt>
      <trkpt lat="43.16907" lon="6.47376">
        <ele>257</ele>
        <time>2013-09-12T12:47:04.000Z</time>
      </trkpt>
      <trkpt lat="43.16906" lon="6.47378">
        <ele>257</ele>
        <time>2013-09-12T12:47:05.000Z</time>
      </trkpt>
      <trkpt lat="43.16906" lon="6.4738">
        <ele>257</ele>
        <time>2013-09-12T12:47:06.000Z</time>
      </trkpt>
      <trkpt lat="43.16905" lon="6.47381">
        <ele>257</ele>
        <time>2013-09-12T12:47:07.000Z</time>
      </trkpt>
      <trkpt lat="43.16904" lon="6.47383">
        <ele>257</ele>
        <time>2013-09-12T12:47:08.000Z</time>
      </trkpt>
      <trkpt lat="43.16904" lon="6.47386">
        <ele>257</ele>
        <time>2013-09-12T12:47:09.000Z</time>
      </trkpt>
      <trkpt lat="43.16903" lon="6.47388">
        <ele>257</ele>
        <time>2013-09-12T12:47:10.000Z</time>
      </trkpt>
      <trkpt lat="43.16903" lon="6.4739">
        <ele>257</ele>
        <time>2013-09-12T12:47:11.000Z</time>
      </trkpt>
      <trkpt lat="43.16902" lon="6.47393">
        <ele>257</ele>
        <time>2013-09-12T12:47:12.000Z</time>
      </trkpt>
      <trkpt lat="43.16902" lon="6.47395">
        <ele>258</ele>
        <time>2013-09-12T12:47:13.000Z</time>
      </trkpt>
      <trkpt lat="43.16901" lon="6.47398">
        <ele>258</ele>
        <time>2013-09-12T12:47:14.000Z</time>
      </trkpt>
      <trkpt lat="43.16901" lon="6.47402">
        <ele>258</ele>
        <time>2013-09-12T12:47:15.000Z</time>
      </trkpt>
      <trkpt lat="43.169" lon="6.47405">
        <ele>258</ele>
        <time>2013-09-12T12:47:16.000Z</time>
      </trkpt>
      <trkpt lat="43.169" lon="6.47409">
        <ele>259</ele>
        <time>2013-09-12T12:47:17.000Z</time>
      </trkpt>
      <trkpt lat="43.169" lon="6.47413">
        <ele>259</ele>
        <time>2013-09-12T12:47:18.000Z</time>
      </trkpt>
      <trkpt lat="43.16899" lon="6.47418">
        <ele>261</ele>
        <time>2013-09-12T12:47:19.000Z</time>
      </trkpt>
      <trkpt lat="43.16899" lon="6.47422">
        <ele>260</ele>
        <time>2013-09-12T12:47:20.000Z</time>
      </trkpt>
      <trkpt lat="43.16899" lon="6.47433">
        <ele>260</ele>
        <time>2013-09-12T12:47:22.000Z</time>
      </trkpt>
      <trkpt lat="43.16899" lon="6.47439">
        <ele>259</ele>
        <time>2013-09-12T12:47:23.000Z</time>
      </trkpt>
      <trkpt lat="43.16898" lon="6.47445">
        <ele>259</ele>
        <time>2013-09-12T12:47:24.000Z</time>
      </trkpt>
      <trkpt lat="43.16897" lon="6.47452">
        <ele>258</ele>
        <time>2013-09-12T12:47:25.000Z</time>
      </trkpt>
      <trkpt lat="43.16896" lon="6.47458">
        <ele>258</ele>
        <time>2013-09-12T12:47:26.000Z</time>
      </trkpt>
      <trkpt lat="43.16894" lon="6.47466">
        <ele>258</ele>
        <time>2013-09-12T12:47:27.000Z</time>
      </trkpt>
      <trkpt lat="43.16893" lon="6.47473">
        <ele>258</ele>
        <time>2013-09-12T12:47:28.000Z</time>
      </trkpt>
      <trkpt lat="43.16892" lon="6.4748">
        <ele>258</ele>
        <time>2013-09-12T12:47:29.000Z</time>
      </trkpt>
      <trkpt lat="43.16891" lon="6.47488">
        <ele>258</ele>
        <time>2013-09-12T12:47:30.000Z</time>
      </trkpt>
      <trkpt lat="43.1689" lon="6.47495">
        <ele>259</ele>
        <time>2013-09-12T12:47:31.000Z</time>
      </trkpt>
      <trkpt lat="43.1689" lon="6.47501">
        <ele>261</ele>
        <time>2013-09-12T12:47:32.000Z</time>
      </trkpt>
      <trkpt lat="43.16889" lon="6.47506">
        <ele>261</ele>
        <time>2013-09-12T12:47:33.000Z</time>
      </trkpt>
      <trkpt lat="43.16888" lon="6.47511">
        <ele>261</ele>
        <time>2013-09-12T12:47:34.000Z</time>
      </trkpt>
      <trkpt lat="43.16888" lon="6.47515">
        <ele>262</ele>
        <time>2013-09-12T12:47:35.000Z</time>
      </trkpt>
      <trkpt lat="43.16887" lon="6.47518">
        <ele>262</ele>
        <time>2013-09-12T12:47:36.000Z</time>
      </trkpt>
      <trkpt lat="43.16887" lon="6.4752">
        <ele>262</ele>
        <time>2013-09-12T12:47:37.000Z</time>
      </trkpt>
      <trkpt lat="43.16887" lon="6.47521">
        <ele>262</ele>
        <time>2013-09-12T12:47:38.000Z</time>
      </trkpt>
      <trkpt lat="43.16887" lon="6.47521">
        <ele>262</ele>
        <time>2013-09-12T12:47:40.000Z</time>
      </trkpt>
      <trkpt lat="43.16887" lon="6.47521">
        <ele>262</ele>
        <time>2013-09-12T12:47:42.000Z</time>
      </trkpt>
      <trkpt lat="43.16886" lon="6.47521">
        <ele>262</ele>
        <time>2013-09-12T12:47:46.000Z</time>
      </trkpt>
      <trkpt lat="43.16885" lon="6.47522">
        <ele>262</ele>
        <time>2013-09-12T12:48:07.000Z</time>
      </trkpt>
      <trkpt lat="43.16886" lon="6.47522">
        <ele>262</ele>
        <time>2013-09-12T12:48:14.000Z</time>
      </trkpt>
      <trkpt lat="43.16885" lon="6.47523">
        <ele>262</ele>
        <time>2013-09-12T12:48:16.000Z</time>
      </trkpt>
      <trkpt lat="43.16885" lon="6.47524">
        <ele>262</ele>
        <time>2013-09-12T12:48:17.000Z</time>
      </trkpt>
      <trkpt lat="43.16885" lon="6.47526">
        <ele>262</ele>
        <time>2013-09-12T12:48:18.000Z</time>
      </trkpt>
      <trkpt lat="43.16885" lon="6.47528">
        <ele>262</ele>
        <time>2013-09-12T12:48:19.000Z</time>
      </trkpt>
      <trkpt lat="43.16884" lon="6.4753">
        <ele>262</ele>
        <time>2013-09-12T12:48:20.000Z</time>
      </trkpt>
      <trkpt lat="43.16884" lon="6.47532">
        <ele>262</ele>
        <time>2013-09-12T12:48:21.000Z</time>
      </trkpt>
      <trkpt lat="43.16883" lon="6.47534">
        <ele>262</ele>
        <time>2013-09-12T12:48:22.000Z</time>
      </trkpt>
      <trkpt lat="43.16883" lon="6.47536">
        <ele>262</ele>
        <time>2013-09-12T12:48:23.000Z</time>
      </trkpt>
      <trkpt lat="43.16882" lon="6.47538">
        <ele>262</ele>
        <time>2013-09-12T12:48:24.000Z</time>
      </trkpt>
      <trkpt lat="43.16882" lon="6.47539">
        <ele>262</ele>
        <time>2013-09-12T12:48:25.000Z</time>
      </trkpt>
      <trkpt lat="43.16881" lon="6.47541">
        <ele>262</ele>
        <time>2013-09-12T12:48:26.000Z</time>
      </trkpt>
      <trkpt lat="43.16881" lon="6.47543">
        <ele>262</ele>
        <time>2013-09-12T12:48:27.000Z</time>
      </trkpt>
      <trkpt lat="43.1688" lon="6.47545">
        <ele>262</ele>
        <time>2013-09-12T12:48:28.000Z</time>
      </trkpt>
      <trkpt lat="43.1688" lon="6.47546">
        <ele>262</ele>
        <time>2013-09-12T12:48:29.000Z</time>
      </trkpt>
      <trkpt lat="43.16879" lon="6.47548">
        <ele>262</ele>
        <time>2013-09-12T12:48:30.000Z</time>
      </trkpt>
      <trkpt lat="43.16879" lon="6.4755">
        <ele>262</ele>
        <time>2013-09-12T12:48:31.000Z</time>
      </trkpt>
      <trkpt lat="43.16878" lon="6.47552">
        <ele>262</ele>
        <time>2013-09-12T12:48:32.000Z</time>
      </trkpt>
      <trkpt lat="43.16877" lon="6.47553">
        <ele>262</ele>
        <time>2013-09-12T12:48:33.000Z</time>
      </trkpt>
      <trkpt lat="43.16876" lon="6.47555">
        <ele>262</ele>
        <time>2013-09-12T12:48:34.000Z</time>
      </trkpt>
      <trkpt lat="43.16875" lon="6.47556">
        <ele>262</ele>
        <time>2013-09-12T12:48:35.000Z</time>
      </trkpt>
      <trkpt lat="43.16875" lon="6.47558">
        <ele>262</ele>
        <time>2013-09-12T12:48:36.000Z</time>
      </trkpt>
      <trkpt lat="43.16874" lon="6.4756">
        <ele>262</ele>
        <time>2013-09-12T12:48:37.000Z</time>
      </trkpt>
      <trkpt lat="43.16873" lon="6.47562">
        <ele>263</ele>
        <time>2013-09-12T12:48:38.000Z</time>
      </trkpt>
      <trkpt lat="43.16873" lon="6.47563">
        <ele>263</ele>
        <time>2013-09-12T12:48:39.000Z</time>
      </trkpt>
      <trkpt lat="43.16872" lon="6.47565">
        <ele>263</ele>
        <time>2013-09-12T12:48:40.000Z</time>
      </trkpt>
      <trkpt lat="43.16872" lon="6.47567">
        <ele>263</ele>
        <time>2013-09-12T12:48:41.000Z</time>
      </trkpt>
      <trkpt lat="43.16871" lon="6.47569">
        <ele>263</ele>
        <time>2013-09-12T12:48:42.000Z</time>
      </trkpt>
      <trkpt lat="43.16871" lon="6.47571">
        <ele>263</ele>
        <time>2013-09-12T12:48:43.000Z</time>
      </trkpt>
      <trkpt lat="43.1687" lon="6.47573">
        <ele>263</ele>
        <time>2013-09-12T12:48:44.000Z</time>
      </trkpt>
      <trkpt lat="43.16869" lon="6.47574">
        <ele>263</ele>
        <time>2013-09-12T12:48:45.000Z</time>
      </trkpt>
      <trkpt lat="43.16869" lon="6.47576">
        <ele>263</ele>
        <time>2013-09-12T12:48:46.000Z</time>
      </trkpt>
      <trkpt lat="43.16868" lon="6.47578">
        <ele>263</ele>
        <time>2013-09-12T12:48:47.000Z</time>
      </trkpt>
      <trkpt lat="43.16868" lon="6.4758">
        <ele>263</ele>
        <time>2013-09-12T12:48:48.000Z</time>
      </trkpt>
      <trkpt lat="43.16867" lon="6.47582">
        <ele>263</ele>
        <time>2013-09-12T12:48:49.000Z</time>
      </trkpt>
      <trkpt lat="43.16867" lon="6.47584">
        <ele>269</ele>
        <time>2013-09-12T12:48:50.000Z</time>
      </trkpt>
      <trkpt lat="43.16867" lon="6.47586">
        <ele>269</ele>
        <time>2013-09-12T12:48:51.000Z</time>
      </trkpt>
      <trkpt lat="43.16866" lon="6.47588">
        <ele>269</ele>
        <time>2013-09-12T12:48:52.000Z</time>
      </trkpt>
      <trkpt lat="43.16866" lon="6.4759">
        <ele>269</ele>
        <time>2013-09-12T12:48:53.000Z</time>
      </trkpt>
      <trkpt lat="43.16865" lon="6.47592">
        <ele>269</ele>
        <time>2013-09-12T12:48:54.000Z</time>
      </trkpt>
      <trkpt lat="43.16865" lon="6.47594">
        <ele>269</ele>
        <time>2013-09-12T12:48:55.000Z</time>
      </trkpt>
      <trkpt lat="43.16864" lon="6.47596">
        <ele>269</ele>
        <time>2013-09-12T12:48:56.000Z</time>
      </trkpt>
      <trkpt lat="43.16864" lon="6.47598">
        <ele>269</ele>
        <time>2013-09-12T12:48:57.000Z</time>
      </trkpt>
      <trkpt lat="43.16863" lon="6.476">
        <ele>269</ele>
        <time>2013-09-12T12:48:58.000Z</time>
      </trkpt>
      <trkpt lat="43.16863" lon="6.47601">
        <ele>269</ele>
        <time>2013-09-12T12:48:59.000Z</time>
      </trkpt>
      <trkpt lat="43.16863" lon="6.47603">
        <ele>270</ele>
        <time>2013-09-12T12:49:00.000Z</time>
      </trkpt>
      <trkpt lat="43.16862" lon="6.47605">
        <ele>270</ele>
        <time>2013-09-12T12:49:01.000Z</time>
      </trkpt>
      <trkpt lat="43.16862" lon="6.47607">
        <ele>270</ele>
        <time>2013-09-12T12:49:02.000Z</time>
      </trkpt>
      <trkpt lat="43.16862" lon="6.47609">
        <ele>270</ele>
        <time>2013-09-12T12:49:03.000Z</time>
      </trkpt>
      <trkpt lat="43.16861" lon="6.47611">
        <ele>270</ele>
        <time>2013-09-12T12:49:04.000Z</time>
      </trkpt>
      <trkpt lat="43.16861" lon="6.47613">
        <ele>270</ele>
        <time>2013-09-12T12:49:05.000Z</time>
      </trkpt>
      <trkpt lat="43.1686" lon="6.47615">
        <ele>271</ele>
        <time>2013-09-12T12:49:06.000Z</time>
      </trkpt>
      <trkpt lat="43.1686" lon="6.47618">
        <ele>271</ele>
        <time>2013-09-12T12:49:07.000Z</time>
      </trkpt>
      <trkpt lat="43.16859" lon="6.4762">
        <ele>271</ele>
        <time>2013-09-12T12:49:08.000Z</time>
      </trkpt>
      <trkpt lat="43.16859" lon="6.47622">
        <ele>271</ele>
        <time>2013-09-12T12:49:09.000Z</time>
      </trkpt>
      <trkpt lat="43.16858" lon="6.47624">
        <ele>271</ele>
        <time>2013-09-12T12:49:10.000Z</time>
      </trkpt>
      <trkpt lat="43.16857" lon="6.47626">
        <ele>272</ele>
        <time>2013-09-12T12:49:11.000Z</time>
      </trkpt>
      <trkpt lat="43.16856" lon="6.47628">
        <ele>272</ele>
        <time>2013-09-12T12:49:12.000Z</time>
      </trkpt>
      <trkpt lat="43.16856" lon="6.4763">
        <ele>272</ele>
        <time>2013-09-12T12:49:13.000Z</time>
      </trkpt>
      <trkpt lat="43.16855" lon="6.47633">
        <ele>272</ele>
        <time>2013-09-12T12:49:14.000Z</time>
      </trkpt>
      <trkpt lat="43.16854" lon="6.47635">
        <ele>272</ele>
        <time>2013-09-12T12:49:15.000Z</time>
      </trkpt>
      <trkpt lat="43.16854" lon="6.47637">
        <ele>272</ele>
        <time>2013-09-12T12:49:16.000Z</time>
      </trkpt>
      <trkpt lat="43.16853" lon="6.47639">
        <ele>273</ele>
        <time>2013-09-12T12:49:17.000Z</time>
      </trkpt>
      <trkpt lat="43.16852" lon="6.47641">
        <ele>273</ele>
        <time>2013-09-12T12:49:18.000Z</time>
      </trkpt>
      <trkpt lat="43.16851" lon="6.47643">
        <ele>273</ele>
        <time>2013-09-12T12:49:19.000Z</time>
      </trkpt>
      <trkpt lat="43.1685" lon="6.47645">
        <ele>273</ele>
        <time>2013-09-12T12:49:20.000Z</time>
      </trkpt>
      <trkpt lat="43.16849" lon="6.47646">
        <ele>273</ele>
        <time>2013-09-12T12:49:21.000Z</time>
      </trkpt>
      <trkpt lat="43.16848" lon="6.47648">
        <ele>273</ele>
        <time>2013-09-12T12:49:22.000Z</time>
      </trkpt>
      <trkpt lat="43.16847" lon="6.4765">
        <ele>274</ele>
        <time>2013-09-12T12:49:23.000Z</time>
      </trkpt>
      <trkpt lat="43.16847" lon="6.47652">
        <ele>274</ele>
        <time>2013-09-12T12:49:24.000Z</time>
      </trkpt>
      <trkpt lat="43.16846" lon="6.47653">
        <ele>274</ele>
        <time>2013-09-12T12:49:25.000Z</time>
      </trkpt>
      <trkpt lat="43.16846" lon="6.47655">
        <ele>274</ele>
        <time>2013-09-12T12:49:26.000Z</time>
      </trkpt>
      <trkpt lat="43.16845" lon="6.47657">
        <ele>274</ele>
        <time>2013-09-12T12:49:27.000Z</time>
      </trkpt>
      <trkpt lat="43.16844" lon="6.47659">
        <ele>274</ele>
        <time>2013-09-12T12:49:28.000Z</time>
      </trkpt>
      <trkpt lat="43.16844" lon="6.47661">
        <ele>275</ele>
        <time>2013-09-12T12:49:29.000Z</time>
      </trkpt>
      <trkpt lat="43.16843" lon="6.47663">
        <ele>275</ele>
        <time>2013-09-12T12:49:30.000Z</time>
      </trkpt>
      <trkpt lat="43.16843" lon="6.47665">
        <ele>275</ele>
        <time>2013-09-12T12:49:31.000Z</time>
      </trkpt>
      <trkpt lat="43.16842" lon="6.47667">
        <ele>279</ele>
        <time>2013-09-12T12:49:32.000Z</time>
      </trkpt>
      <trkpt lat="43.16842" lon="6.47669">
        <ele>279</ele>
        <time>2013-09-12T12:49:33.000Z</time>
      </trkpt>
      <trkpt lat="43.16841" lon="6.47671">
        <ele>279</ele>
        <time>2013-09-12T12:49:34.000Z</time>
      </trkpt>
      <trkpt lat="43.16841" lon="6.47673">
        <ele>279</ele>
        <time>2013-09-12T12:49:35.000Z</time>
      </trkpt>
      <trkpt lat="43.1684" lon="6.47675">
        <ele>279</ele>
        <time>2013-09-12T12:49:36.000Z</time>
      </trkpt>
      <trkpt lat="43.16839" lon="6.47677">
        <ele>279</ele>
        <time>2013-09-12T12:49:37.000Z</time>
      </trkpt>
      <trkpt lat="43.16839" lon="6.47678">
        <ele>280</ele>
        <time>2013-09-12T12:49:38.000Z</time>
      </trkpt>
      <trkpt lat="43.16838" lon="6.4768">
        <ele>280</ele>
        <time>2013-09-12T12:49:39.000Z</time>
      </trkpt>
      <trkpt lat="43.16838" lon="6.47682">
        <ele>280</ele>
        <time>2013-09-12T12:49:40.000Z</time>
      </trkpt>
      <trkpt lat="43.16837" lon="6.47684">
        <ele>281</ele>
        <time>2013-09-12T12:49:41.000Z</time>
      </trkpt>
      <trkpt lat="43.16836" lon="6.47685">
        <ele>281</ele>
        <time>2013-09-12T12:49:42.000Z</time>
      </trkpt>
      <trkpt lat="43.16835" lon="6.47687">
        <ele>281</ele>
        <time>2013-09-12T12:49:43.000Z</time>
      </trkpt>
      <trkpt lat="43.16835" lon="6.47689">
        <ele>281</ele>
        <time>2013-09-12T12:49:44.000Z</time>
      </trkpt>
      <trkpt lat="43.16834" lon="6.4769">
        <ele>282</ele>
        <time>2013-09-12T12:49:45.000Z</time>
      </trkpt>
      <trkpt lat="43.16834" lon="6.47692">
        <ele>282</ele>
        <time>2013-09-12T12:49:46.000Z</time>
      </trkpt>
      <trkpt lat="43.16833" lon="6.47694">
        <ele>273</ele>
        <time>2013-09-12T12:49:47.000Z</time>
      </trkpt>
      <trkpt lat="43.16833" lon="6.47696">
        <ele>273</ele>
        <time>2013-09-12T12:49:48.000Z</time>
      </trkpt>
      <trkpt lat="43.16832" lon="6.47698">
        <ele>273</ele>
        <time>2013-09-12T12:49:49.000Z</time>
      </trkpt>
      <trkpt lat="43.16832" lon="6.477">
        <ele>273</ele>
        <time>2013-09-12T12:49:50.000Z</time>
      </trkpt>
      <trkpt lat="43.16831" lon="6.47702">
        <ele>273</ele>
        <time>2013-09-12T12:49:51.000Z</time>
      </trkpt>
      <trkpt lat="43.16831" lon="6.47704">
        <ele>274</ele>
        <time>2013-09-12T12:49:52.000Z</time>
      </trkpt>
      <trkpt lat="43.1683" lon="6.47706">
        <ele>274</ele>
        <time>2013-09-12T12:49:53.000Z</time>
      </trkpt>
      <trkpt lat="43.1683" lon="6.47708">
        <ele>274</ele>
        <time>2013-09-12T12:49:54.000Z</time>
      </trkpt>
      <trkpt lat="43.16829" lon="6.4771">
        <ele>274</ele>
        <time>2013-09-12T12:49:55.000Z</time>
      </trkpt>
      <trkpt lat="43.16829" lon="6.47712">
        <ele>274</ele>
        <time>2013-09-12T12:49:56.000Z</time>
      </trkpt>
      <trkpt lat="43.16828" lon="6.47714">
        <ele>275</ele>
        <time>2013-09-12T12:49:57.000Z</time>
      </trkpt>
      <trkpt lat="43.16828" lon="6.47716">
        <ele>275</ele>
        <time>2013-09-12T12:49:58.000Z</time>
      </trkpt>
      <trkpt lat="43.16828" lon="6.47717">
        <ele>275</ele>
        <time>2013-09-12T12:49:59.000Z</time>
      </trkpt>
      <trkpt lat="43.16827" lon="6.47719">
        <ele>275</ele>
        <time>2013-09-12T12:50:00.000Z</time>
      </trkpt>
      <trkpt lat="43.16827" lon="6.47723">
        <ele>276</ele>
        <time>2013-09-12T12:50:02.000Z</time>
      </trkpt>
      <trkpt lat="43.16827" lon="6.47725">
        <ele>277</ele>
        <time>2013-09-12T12:50:03.000Z</time>
      </trkpt>
      <trkpt lat="43.16826" lon="6.47727">
        <ele>277</ele>
        <time>2013-09-12T12:50:04.000Z</time>
      </trkpt>
      <trkpt lat="43.16825" lon="6.47729">
        <ele>277</ele>
        <time>2013-09-12T12:50:05.000Z</time>
      </trkpt>
      <trkpt lat="43.16825" lon="6.47731">
        <ele>278</ele>
        <time>2013-09-12T12:50:06.000Z</time>
      </trkpt>
      <trkpt lat="43.16824" lon="6.47732">
        <ele>278</ele>
        <time>2013-09-12T12:50:07.000Z</time>
      </trkpt>
      <trkpt lat="43.16824" lon="6.47734">
        <ele>279</ele>
        <time>2013-09-12T12:50:08.000Z</time>
      </trkpt>
      <trkpt lat="43.16823" lon="6.47736">
        <ele>279</ele>
        <time>2013-09-12T12:50:09.000Z</time>
      </trkpt>
      <trkpt lat="43.16823" lon="6.47738">
        <ele>279</ele>
        <time>2013-09-12T12:50:10.000Z</time>
      </trkpt>
      <trkpt lat="43.16822" lon="6.4774">
        <ele>280</ele>
        <time>2013-09-12T12:50:11.000Z</time>
      </trkpt>
      <trkpt lat="43.16822" lon="6.47741">
        <ele>280</ele>
        <time>2013-09-12T12:50:12.000Z</time>
      </trkpt>
      <trkpt lat="43.16821" lon="6.47743">
        <ele>280</ele>
        <time>2013-09-12T12:50:13.000Z</time>
      </trkpt>
      <trkpt lat="43.1682" lon="6.47745">
        <ele>280</ele>
        <time>2013-09-12T12:50:14.000Z</time>
      </trkpt>
      <trkpt lat="43.1682" lon="6.47747">
        <ele>280</ele>
        <time>2013-09-12T12:50:15.000Z</time>
      </trkpt>
      <trkpt lat="43.1682" lon="6.47749">
        <ele>281</ele>
        <time>2013-09-12T12:50:16.000Z</time>
      </trkpt>
      <trkpt lat="43.16819" lon="6.47751">
        <ele>286</ele>
        <time>2013-09-12T12:50:17.000Z</time>
      </trkpt>
      <trkpt lat="43.16819" lon="6.47752">
        <ele>286</ele>
        <time>2013-09-12T12:50:18.000Z</time>
      </trkpt>
      <trkpt lat="43.16819" lon="6.47754">
        <ele>285</ele>
        <time>2013-09-12T12:50:19.000Z</time>
      </trkpt>
      <trkpt lat="43.16819" lon="6.47756">
        <ele>285</ele>
        <time>2013-09-12T12:50:20.000Z</time>
      </trkpt>
      <trkpt lat="43.16819" lon="6.4776">
        <ele>285</ele>
        <time>2013-09-12T12:50:22.000Z</time>
      </trkpt>
      <trkpt lat="43.16818" lon="6.47762">
        <ele>285</ele>
        <time>2013-09-12T12:50:23.000Z</time>
      </trkpt>
      <trkpt lat="43.16818" lon="6.47764">
        <ele>285</ele>
        <time>2013-09-12T12:50:24.000Z</time>
      </trkpt>
      <trkpt lat="43.16818" lon="6.47768">
        <ele>285</ele>
        <time>2013-09-12T12:50:26.000Z</time>
      </trkpt>
      <trkpt lat="43.16817" lon="6.4777">
        <ele>285</ele>
        <time>2013-09-12T12:50:27.000Z</time>
      </trkpt>
      <trkpt lat="43.16817" lon="6.47772">
        <ele>285</ele>
        <time>2013-09-12T12:50:28.000Z</time>
      </trkpt>
      <trkpt lat="43.16817" lon="6.47774">
        <ele>285</ele>
        <time>2013-09-12T12:50:29.000Z</time>
      </trkpt>
      <trkpt lat="43.16816" lon="6.47776">
        <ele>285</ele>
        <time>2013-09-12T12:50:30.000Z</time>
      </trkpt>
      <trkpt lat="43.16816" lon="6.47778">
        <ele>285</ele>
        <time>2013-09-12T12:50:31.000Z</time>
      </trkpt>
      <trkpt lat="43.16816" lon="6.4778">
        <ele>285</ele>
        <time>2013-09-12T12:50:32.000Z</time>
      </trkpt>
      <trkpt lat="43.16816" lon="6.47782">
        <ele>285</ele>
        <time>2013-09-12T12:50:33.000Z</time>
      </trkpt>
      <trkpt lat="43.16815" lon="6.47784">
        <ele>285</ele>
        <time>2013-09-12T12:50:34.000Z</time>
      </trkpt>
      <trkpt lat="43.16816" lon="6.47788">
        <ele>285</ele>
        <time>2013-09-12T12:50:36.000Z</time>
      </trkpt>
      <trkpt lat="43.16815" lon="6.47793">
        <ele>285</ele>
        <time>2013-09-12T12:50:38.000Z</time>
      </trkpt>
      <trkpt lat="43.16815" lon="6.47795">
        <ele>286</ele>
        <time>2013-09-12T12:50:39.000Z</time>
      </trkpt>
      <trkpt lat="43.16815" lon="6.47797">
        <ele>286</ele>
        <time>2013-09-12T12:50:40.000Z</time>
      </trkpt>
      <trkpt lat="43.16815" lon="6.47799">
        <ele>286</ele>
        <time>2013-09-12T12:50:41.000Z</time>
      </trkpt>
      <trkpt lat="43.16814" lon="6.47801">
        <ele>286</ele>
        <time>2013-09-12T12:50:42.000Z</time>
      </trkpt>
      <trkpt lat="43.16814" lon="6.47803">
        <ele>286</ele>
        <time>2013-09-12T12:50:43.000Z</time>
      </trkpt>
      <trkpt lat="43.16814" lon="6.47805">
        <ele>287</ele>
        <time>2013-09-12T12:50:44.000Z</time>
      </trkpt>
      <trkpt lat="43.16813" lon="6.47807">
        <ele>287</ele>
        <time>2013-09-12T12:50:45.000Z</time>
      </trkpt>
      <trkpt lat="43.16813" lon="6.47809">
        <ele>287</ele>
        <time>2013-09-12T12:50:46.000Z</time>
      </trkpt>
      <trkpt lat="43.16813" lon="6.47811">
        <ele>287</ele>
        <time>2013-09-12T12:50:47.000Z</time>
      </trkpt>
      <trkpt lat="43.16812" lon="6.47813">
        <ele>287</ele>
        <time>2013-09-12T12:50:48.000Z</time>
      </trkpt>
      <trkpt lat="43.16812" lon="6.47815">
        <ele>288</ele>
        <time>2013-09-12T12:50:49.000Z</time>
      </trkpt>
      <trkpt lat="43.16811" lon="6.47817">
        <ele>288</ele>
        <time>2013-09-12T12:50:50.000Z</time>
      </trkpt>
      <trkpt lat="43.16811" lon="6.47819">
        <ele>288</ele>
        <time>2013-09-12T12:50:51.000Z</time>
      </trkpt>
      <trkpt lat="43.1681" lon="6.47821">
        <ele>288</ele>
        <time>2013-09-12T12:50:52.000Z</time>
      </trkpt>
      <trkpt lat="43.16809" lon="6.47823">
        <ele>288</ele>
        <time>2013-09-12T12:50:53.000Z</time>
      </trkpt>
      <trkpt lat="43.16809" lon="6.47825">
        <ele>288</ele>
        <time>2013-09-12T12:50:54.000Z</time>
      </trkpt>
      <trkpt lat="43.16808" lon="6.47827">
        <ele>288</ele>
        <time>2013-09-12T12:50:55.000Z</time>
      </trkpt>
      <trkpt lat="43.16808" lon="6.47829">
        <ele>288</ele>
        <time>2013-09-12T12:50:56.000Z</time>
      </trkpt>
      <trkpt lat="43.16807" lon="6.47831">
        <ele>288</ele>
        <time>2013-09-12T12:50:57.000Z</time>
      </trkpt>
      <trkpt lat="43.16806" lon="6.47833">
        <ele>288</ele>
        <time>2013-09-12T12:50:58.000Z</time>
      </trkpt>
      <trkpt lat="43.16806" lon="6.47835">
        <ele>292</ele>
        <time>2013-09-12T12:50:59.000Z</time>
      </trkpt>
      <trkpt lat="43.16805" lon="6.47837">
        <ele>292</ele>
        <time>2013-09-12T12:51:00.000Z</time>
      </trkpt>
      <trkpt lat="43.16804" lon="6.47838">
        <ele>292</ele>
        <time>2013-09-12T12:51:01.000Z</time>
      </trkpt>
      <trkpt lat="43.16803" lon="6.4784">
        <ele>292</ele>
        <time>2013-09-12T12:51:02.000Z</time>
      </trkpt>
      <trkpt lat="43.16803" lon="6.47842">
        <ele>292</ele>
        <time>2013-09-12T12:51:03.000Z</time>
      </trkpt>
      <trkpt lat="43.16802" lon="6.47844">
        <ele>292</ele>
        <time>2013-09-12T12:51:04.000Z</time>
      </trkpt>
      <trkpt lat="43.16802" lon="6.47846">
        <ele>291</ele>
        <time>2013-09-12T12:51:05.000Z</time>
      </trkpt>
      <trkpt lat="43.16801" lon="6.47848">
        <ele>291</ele>
        <time>2013-09-12T12:51:06.000Z</time>
      </trkpt>
      <trkpt lat="43.168" lon="6.4785">
        <ele>291</ele>
        <time>2013-09-12T12:51:07.000Z</time>
      </trkpt>
      <trkpt lat="43.16799" lon="6.47851">
        <ele>291</ele>
        <time>2013-09-12T12:51:08.000Z</time>
      </trkpt>
      <trkpt lat="43.16798" lon="6.47853">
        <ele>291</ele>
        <time>2013-09-12T12:51:09.000Z</time>
      </trkpt>
      <trkpt lat="43.16797" lon="6.47855">
        <ele>291</ele>
        <time>2013-09-12T12:51:10.000Z</time>
      </trkpt>
      <trkpt lat="43.16796" lon="6.47856">
        <ele>290</ele>
        <time>2013-09-12T12:51:11.000Z</time>
      </trkpt>
      <trkpt lat="43.16795" lon="6.47858">
        <ele>290</ele>
        <time>2013-09-12T12:51:12.000Z</time>
      </trkpt>
      <trkpt lat="43.16794" lon="6.4786">
        <ele>290</ele>
        <time>2013-09-12T12:51:13.000Z</time>
      </trkpt>
      <trkpt lat="43.16793" lon="6.47862">
        <ele>290</ele>
        <time>2013-09-12T12:51:14.000Z</time>
      </trkpt>
      <trkpt lat="43.16792" lon="6.47863">
        <ele>290</ele>
        <time>2013-09-12T12:51:15.000Z</time>
      </trkpt>
      <trkpt lat="43.16791" lon="6.47865">
        <ele>290</ele>
        <time>2013-09-12T12:51:16.000Z</time>
      </trkpt>
      <trkpt lat="43.1679" lon="6.47867">
        <ele>290</ele>
        <time>2013-09-12T12:51:17.000Z</time>
      </trkpt>
      <trkpt lat="43.16789" lon="6.47869">
        <ele>290</ele>
        <time>2013-09-12T12:51:18.000Z</time>
      </trkpt>
      <trkpt lat="43.16788" lon="6.47871">
        <ele>290</ele>
        <time>2013-09-12T12:51:19.000Z</time>
      </trkpt>
      <trkpt lat="43.16787" lon="6.47872">
        <ele>290</ele>
        <time>2013-09-12T12:51:20.000Z</time>
      </trkpt>
      <trkpt lat="43.16787" lon="6.47874">
        <ele>290</ele>
        <time>2013-09-12T12:51:21.000Z</time>
      </trkpt>
      <trkpt lat="43.16786" lon="6.47875">
        <ele>290</ele>
        <time>2013-09-12T12:51:22.000Z</time>
      </trkpt>
      <trkpt lat="43.16785" lon="6.47876">
        <ele>290</ele>
        <time>2013-09-12T12:51:23.000Z</time>
      </trkpt>
      <trkpt lat="43.16785" lon="6.47876">
        <ele>290</ele>
        <time>2013-09-12T12:51:24.000Z</time>
      </trkpt>
      <trkpt lat="43.16785" lon="6.47876">
        <ele>290</ele>
        <time>2013-09-12T12:51:25.000Z</time>
      </trkpt>
      <trkpt lat="43.16784" lon="6.47876">
        <ele>289</ele>
        <time>2013-09-12T12:51:26.000Z</time>
      </trkpt>
      <trkpt lat="43.16784" lon="6.47876">
        <ele>289</ele>
        <time>2013-09-12T12:51:27.000Z</time>
      </trkpt>
      <trkpt lat="43.16784" lon="6.47876">
        <ele>289</ele>
        <time>2013-09-12T12:51:28.000Z</time>
      </trkpt>
      <trkpt lat="43.16784" lon="6.47876">
        <ele>289</ele>
        <time>2013-09-12T12:51:30.000Z</time>
      </trkpt>
      <trkpt lat="43.16783" lon="6.47876">
        <ele>289</ele>
        <time>2013-09-12T12:51:31.000Z</time>
      </trkpt>
      <trkpt lat="43.16783" lon="6.47875">
        <ele>289</ele>
        <time>2013-09-12T12:51:32.000Z</time>
      </trkpt>
      <trkpt lat="43.16783" lon="6.47875">
        <ele>289</ele>
        <time>2013-09-12T12:51:34.000Z</time>
      </trkpt>
      <trkpt lat="43.16783" lon="6.47875">
        <ele>289</ele>
        <time>2013-09-12T12:51:35.000Z</time>
      </trkpt>
      <trkpt lat="43.16782" lon="6.47875">
        <ele>289</ele>
        <time>2013-09-12T12:51:37.000Z</time>
      </trkpt>
      <trkpt lat="43.16782" lon="6.47875">
        <ele>289</ele>
        <time>2013-09-12T12:51:39.000Z</time>
      </trkpt>
      <trkpt lat="43.16782" lon="6.47875">
        <ele>289</ele>
        <time>2013-09-12T12:51:41.000Z</time>
      </trkpt>
      <trkpt lat="43.16782" lon="6.47874">
        <ele>289</ele>
        <time>2013-09-12T12:51:42.000Z</time>
      </trkpt>
      <trkpt lat="43.16781" lon="6.47874">
        <ele>289</ele>
        <time>2013-09-12T12:51:44.000Z</time>
      </trkpt>
      <trkpt lat="43.16781" lon="6.47874">
        <ele>289</ele>
        <time>2013-09-12T12:51:46.000Z</time>
      </trkpt>
      <trkpt lat="43.16781" lon="6.47874">
        <ele>289</ele>
        <time>2013-09-12T12:51:48.000Z</time>
      </trkpt>
      <trkpt lat="43.1678" lon="6.47874">
        <ele>289</ele>
        <time>2013-09-12T12:51:51.000Z</time>
      </trkpt>
      <trkpt lat="43.1678" lon="6.47874">
        <ele>289</ele>
        <time>2013-09-12T12:51:54.000Z</time>
      </trkpt>
      <trkpt lat="43.1678" lon="6.47873">
        <ele>289</ele>
        <time>2013-09-12T12:51:59.000Z</time>
      </trkpt>
      <trkpt lat="43.16779" lon="6.47873">
        <ele>289</ele>
        <time>2013-09-12T12:52:03.000Z</time>
      </trkpt>
      <trkpt lat="43.16779" lon="6.47873">
        <ele>289</ele>
        <time>2013-09-12T12:52:11.000Z</time>
      </trkpt>
      <trkpt lat="43.16778" lon="6.47873">
        <ele>289</ele>
        <time>2013-09-12T12:52:16.000Z</time>
      </trkpt>
      <trkpt lat="43.16778" lon="6.47873">
        <ele>289</ele>
        <time>2013-09-12T12:52:20.000Z</time>
      </trkpt>
      <trkpt lat="43.16778" lon="6.47873">
        <ele>289</ele>
        <time>2013-09-12T12:52:24.000Z</time>
      </trkpt>
      <trkpt lat="43.16778" lon="6.47873">
        <ele>289</ele>
        <time>2013-09-12T12:52:27.000Z</time>
      </trkpt>
      <trkpt lat="43.16778" lon="6.47873">
        <ele>289</ele>
        <time>2013-09-12T12:52:28.000Z</time>
      </trkpt>
      <trkpt lat="43.16778" lon="6.47873">
        <ele>289</ele>
        <time>2013-09-12T12:52:32.000Z</time>
      </trkpt>
      <trkpt lat="43.16778" lon="6.47874">
        <ele>289</ele>
        <time>2013-09-12T12:52:33.000Z</time>
      </trkpt>
      <trkpt lat="43.16777" lon="6.47875">
        <ele>289</ele>
        <time>2013-09-12T12:52:34.000Z</time>
      </trkpt>
      <trkpt lat="43.16777" lon="6.47877">
        <ele>289</ele>
        <time>2013-09-12T12:52:35.000Z</time>
      </trkpt>
      <trkpt lat="43.16776" lon="6.47879">
        <ele>289</ele>
        <time>2013-09-12T12:52:36.000Z</time>
      </trkpt>
      <trkpt lat="43.16776" lon="6.47881">
        <ele>289</ele>
        <time>2013-09-12T12:52:37.000Z</time>
      </trkpt>
      <trkpt lat="43.16775" lon="6.47883">
        <ele>289</ele>
        <time>2013-09-12T12:52:38.000Z</time>
      </trkpt>
      <trkpt lat="43.16774" lon="6.47885">
        <ele>289</ele>
        <time>2013-09-12T12:52:39.000Z</time>
      </trkpt>
      <trkpt lat="43.16773" lon="6.47886">
        <ele>289</ele>
        <time>2013-09-12T12:52:40.000Z</time>
      </trkpt>
      <trkpt lat="43.16773" lon="6.47888">
        <ele>289</ele>
        <time>2013-09-12T12:52:41.000Z</time>
      </trkpt>
      <trkpt lat="43.16772" lon="6.4789">
        <ele>289</ele>
        <time>2013-09-12T12:52:42.000Z</time>
      </trkpt>
      <trkpt lat="43.16772" lon="6.47892">
        <ele>289</ele>
        <time>2013-09-12T12:52:43.000Z</time>
      </trkpt>
      <trkpt lat="43.16772" lon="6.47896">
        <ele>289</ele>
        <time>2013-09-12T12:52:45.000Z</time>
      </trkpt>
      <trkpt lat="43.16771" lon="6.47898">
        <ele>289</ele>
        <time>2013-09-12T12:52:46.000Z</time>
      </trkpt>
      <trkpt lat="43.1677" lon="6.479">
        <ele>289</ele>
        <time>2013-09-12T12:52:47.000Z</time>
      </trkpt>
      <trkpt lat="43.16769" lon="6.47902">
        <ele>289</ele>
        <time>2013-09-12T12:52:48.000Z</time>
      </trkpt>
      <trkpt lat="43.16769" lon="6.47904">
        <ele>288</ele>
        <time>2013-09-12T12:52:49.000Z</time>
      </trkpt>
      <trkpt lat="43.16768" lon="6.47906">
        <ele>288</ele>
        <time>2013-09-12T12:52:50.000Z</time>
      </trkpt>
      <trkpt lat="43.16767" lon="6.47908">
        <ele>288</ele>
        <time>2013-09-12T12:52:51.000Z</time>
      </trkpt>
      <trkpt lat="43.16767" lon="6.4791">
        <ele>288</ele>
        <time>2013-09-12T12:52:52.000Z</time>
      </trkpt>
      <trkpt lat="43.16766" lon="6.47913">
        <ele>288</ele>
        <time>2013-09-12T12:52:53.000Z</time>
      </trkpt>
      <trkpt lat="43.16766" lon="6.47915">
        <ele>288</ele>
        <time>2013-09-12T12:52:54.000Z</time>
      </trkpt>
      <trkpt lat="43.16765" lon="6.47917">
        <ele>288</ele>
        <time>2013-09-12T12:52:55.000Z</time>
      </trkpt>
      <trkpt lat="43.16764" lon="6.47919">
        <ele>288</ele>
        <time>2013-09-12T12:52:56.000Z</time>
      </trkpt>
      <trkpt lat="43.16764" lon="6.47922">
        <ele>288</ele>
        <time>2013-09-12T12:52:57.000Z</time>
      </trkpt>
      <trkpt lat="43.16764" lon="6.47924">
        <ele>288</ele>
        <time>2013-09-12T12:52:58.000Z</time>
      </trkpt>
      <trkpt lat="43.16764" lon="6.47932">
        <ele>289</ele>
        <time>2013-09-12T12:53:01.000Z</time>
      </trkpt>
      <trkpt lat="43.16764" lon="6.47934">
        <ele>289</ele>
        <time>2013-09-12T12:53:02.000Z</time>
      </trkpt>
      <trkpt lat="43.16765" lon="6.47936">
        <ele>289</ele>
        <time>2013-09-12T12:53:03.000Z</time>
      </trkpt>
      <trkpt lat="43.16765" lon="6.47939">
        <ele>289</ele>
        <time>2013-09-12T12:53:04.000Z</time>
      </trkpt>
      <trkpt lat="43.16765" lon="6.47941">
        <ele>289</ele>
        <time>2013-09-12T12:53:05.000Z</time>
      </trkpt>
      <trkpt lat="43.16766" lon="6.47943">
        <ele>289</ele>
        <time>2013-09-12T12:53:06.000Z</time>
      </trkpt>
      <trkpt lat="43.16767" lon="6.47946">
        <ele>290</ele>
        <time>2013-09-12T12:53:07.000Z</time>
      </trkpt>
      <trkpt lat="43.16767" lon="6.47948">
        <ele>290</ele>
        <time>2013-09-12T12:53:08.000Z</time>
      </trkpt>
      <trkpt lat="43.16769" lon="6.4795">
        <ele>290</ele>
        <time>2013-09-12T12:53:09.000Z</time>
      </trkpt>
      <trkpt lat="43.1677" lon="6.47952">
        <ele>290</ele>
        <time>2013-09-12T12:53:10.000Z</time>
      </trkpt>
      <trkpt lat="43.16771" lon="6.47954">
        <ele>290</ele>
        <time>2013-09-12T12:53:11.000Z</time>
      </trkpt>
      <trkpt lat="43.16772" lon="6.47956">
        <ele>290</ele>
        <time>2013-09-12T12:53:12.000Z</time>
      </trkpt>
      <trkpt lat="43.16773" lon="6.47958">
        <ele>290</ele>
        <time>2013-09-12T12:53:13.000Z</time>
      </trkpt>
      <trkpt lat="43.16774" lon="6.4796">
        <ele>290</ele>
        <time>2013-09-12T12:53:14.000Z</time>
      </trkpt>
      <trkpt lat="43.16774" lon="6.47963">
        <ele>290</ele>
        <time>2013-09-12T12:53:15.000Z</time>
      </trkpt>
      <trkpt lat="43.16775" lon="6.47966">
        <ele>290</ele>
        <time>2013-09-12T12:53:16.000Z</time>
      </trkpt>
      <trkpt lat="43.16775" lon="6.47968">
        <ele>290</ele>
        <time>2013-09-12T12:53:17.000Z</time>
      </trkpt>
      <trkpt lat="43.16775" lon="6.47971">
        <ele>290</ele>
        <time>2013-09-12T12:53:18.000Z</time>
      </trkpt>
      <trkpt lat="43.16775" lon="6.47974">
        <ele>290</ele>
        <time>2013-09-12T12:53:19.000Z</time>
      </trkpt>
      <trkpt lat="43.16774" lon="6.47977">
        <ele>290</ele>
        <time>2013-09-12T12:53:20.000Z</time>
      </trkpt>
      <trkpt lat="43.16773" lon="6.47979">
        <ele>290</ele>
        <time>2013-09-12T12:53:21.000Z</time>
      </trkpt>
      <trkpt lat="43.16772" lon="6.47981">
        <ele>290</ele>
        <time>2013-09-12T12:53:22.000Z</time>
      </trkpt>
      <trkpt lat="43.16771" lon="6.47983">
        <ele>290</ele>
        <time>2013-09-12T12:53:23.000Z</time>
      </trkpt>
      <trkpt lat="43.1677" lon="6.47985">
        <ele>290</ele>
        <time>2013-09-12T12:53:24.000Z</time>
      </trkpt>
      <trkpt lat="43.16768" lon="6.47986">
        <ele>290</ele>
        <time>2013-09-12T12:53:25.000Z</time>
      </trkpt>
      <trkpt lat="43.16767" lon="6.47988">
        <ele>291</ele>
        <time>2013-09-12T12:53:26.000Z</time>
      </trkpt>
      <trkpt lat="43.16765" lon="6.4799">
        <ele>291</ele>
        <time>2013-09-12T12:53:27.000Z</time>
      </trkpt>
      <trkpt lat="43.16764" lon="6.47992">
        <ele>291</ele>
        <time>2013-09-12T12:53:28.000Z</time>
      </trkpt>
      <trkpt lat="43.16762" lon="6.47993">
        <ele>291</ele>
        <time>2013-09-12T12:53:29.000Z</time>
      </trkpt>
      <trkpt lat="43.16761" lon="6.47995">
        <ele>291</ele>
        <time>2013-09-12T12:53:30.000Z</time>
      </trkpt>
      <trkpt lat="43.16759" lon="6.47997">
        <ele>291</ele>
        <time>2013-09-12T12:53:31.000Z</time>
      </trkpt>
      <trkpt lat="43.16758" lon="6.48">
        <ele>291</ele>
        <time>2013-09-12T12:53:32.000Z</time>
      </trkpt>
      <trkpt lat="43.16756" lon="6.48002">
        <ele>290</ele>
        <time>2013-09-12T12:53:33.000Z</time>
      </trkpt>
      <trkpt lat="43.16754" lon="6.48004">
        <ele>290</ele>
        <time>2013-09-12T12:53:34.000Z</time>
      </trkpt>
      <trkpt lat="43.16753" lon="6.48006">
        <ele>290</ele>
        <time>2013-09-12T12:53:35.000Z</time>
      </trkpt>
      <trkpt lat="43.16751" lon="6.48008">
        <ele>290</ele>
        <time>2013-09-12T12:53:36.000Z</time>
      </trkpt>
      <trkpt lat="43.1675" lon="6.4801">
        <ele>292</ele>
        <time>2013-09-12T12:53:37.000Z</time>
      </trkpt>
      <trkpt lat="43.16748" lon="6.48012">
        <ele>292</ele>
        <time>2013-09-12T12:53:38.000Z</time>
      </trkpt>
      <trkpt lat="43.16746" lon="6.48014">
        <ele>292</ele>
        <time>2013-09-12T12:53:39.000Z</time>
      </trkpt>
      <trkpt lat="43.16745" lon="6.48016">
        <ele>292</ele>
        <time>2013-09-12T12:53:40.000Z</time>
      </trkpt>
      <trkpt lat="43.16743" lon="6.48018">
        <ele>292</ele>
        <time>2013-09-12T12:53:41.000Z</time>
      </trkpt>
      <trkpt lat="43.16742" lon="6.48021">
        <ele>292</ele>
        <time>2013-09-12T12:53:42.000Z</time>
      </trkpt>
      <trkpt lat="43.1674" lon="6.48023">
        <ele>293</ele>
        <time>2013-09-12T12:53:43.000Z</time>
      </trkpt>
      <trkpt lat="43.16739" lon="6.48025">
        <ele>293</ele>
        <time>2013-09-12T12:53:44.000Z</time>
      </trkpt>
      <trkpt lat="43.16737" lon="6.48026">
        <ele>293</ele>
        <time>2013-09-12T12:53:45.000Z</time>
      </trkpt>
      <trkpt lat="43.16736" lon="6.48028">
        <ele>293</ele>
        <time>2013-09-12T12:53:46.000Z</time>
      </trkpt>
      <trkpt lat="43.16734" lon="6.4803">
        <ele>293</ele>
        <time>2013-09-12T12:53:47.000Z</time>
      </trkpt>
      <trkpt lat="43.16733" lon="6.48032">
        <ele>293</ele>
        <time>2013-09-12T12:53:48.000Z</time>
      </trkpt>
      <trkpt lat="43.16731" lon="6.48033">
        <ele>293</ele>
        <time>2013-09-12T12:53:49.000Z</time>
      </trkpt>
      <trkpt lat="43.1673" lon="6.48035">
        <ele>293</ele>
        <time>2013-09-12T12:53:50.000Z</time>
      </trkpt>
      <trkpt lat="43.16729" lon="6.48037">
        <ele>293</ele>
        <time>2013-09-12T12:53:51.000Z</time>
      </trkpt>
      <trkpt lat="43.16728" lon="6.48038">
        <ele>293</ele>
        <time>2013-09-12T12:53:52.000Z</time>
      </trkpt>
      <trkpt lat="43.16727" lon="6.4804">
        <ele>293</ele>
        <time>2013-09-12T12:53:53.000Z</time>
      </trkpt>
      <trkpt lat="43.16726" lon="6.48042">
        <ele>293</ele>
        <time>2013-09-12T12:53:54.000Z</time>
      </trkpt>
      <trkpt lat="43.16725" lon="6.48043">
        <ele>293</ele>
        <time>2013-09-12T12:53:55.000Z</time>
      </trkpt>
      <trkpt lat="43.16724" lon="6.48044">
        <ele>293</ele>
        <time>2013-09-12T12:53:56.000Z</time>
      </trkpt>
      <trkpt lat="43.16723" lon="6.48046">
        <ele>293</ele>
        <time>2013-09-12T12:53:57.000Z</time>
      </trkpt>
      <trkpt lat="43.16722" lon="6.48047">
        <ele>293</ele>
        <time>2013-09-12T12:53:58.000Z</time>
      </trkpt>
      <trkpt lat="43.16721" lon="6.48049">
        <ele>293</ele>
        <time>2013-09-12T12:53:59.000Z</time>
      </trkpt>
      <trkpt lat="43.1672" lon="6.48051">
        <ele>293</ele>
        <time>2013-09-12T12:54:00.000Z</time>
      </trkpt>
      <trkpt lat="43.16719" lon="6.48052">
        <ele>293</ele>
        <time>2013-09-12T12:54:01.000Z</time>
      </trkpt>
      <trkpt lat="43.16719" lon="6.48054">
        <ele>293</ele>
        <time>2013-09-12T12:54:02.000Z</time>
      </trkpt>
      <trkpt lat="43.16718" lon="6.48055">
        <ele>293</ele>
        <time>2013-09-12T12:54:03.000Z</time>
      </trkpt>
      <trkpt lat="43.16717" lon="6.48057">
        <ele>294</ele>
        <time>2013-09-12T12:54:04.000Z</time>
      </trkpt>
      <trkpt lat="43.16716" lon="6.48059">
        <ele>294</ele>
        <time>2013-09-12T12:54:05.000Z</time>
      </trkpt>
      <trkpt lat="43.16715" lon="6.4806">
        <ele>294</ele>
        <time>2013-09-12T12:54:06.000Z</time>
      </trkpt>
      <trkpt lat="43.16714" lon="6.48062">
        <ele>294</ele>
        <time>2013-09-12T12:54:07.000Z</time>
      </trkpt>
      <trkpt lat="43.16713" lon="6.48063">
        <ele>294</ele>
        <time>2013-09-12T12:54:08.000Z</time>
      </trkpt>
      <trkpt lat="43.16712" lon="6.48065">
        <ele>294</ele>
        <time>2013-09-12T12:54:09.000Z</time>
      </trkpt>
      <trkpt lat="43.16711" lon="6.48066">
        <ele>294</ele>
        <time>2013-09-12T12:54:10.000Z</time>
      </trkpt>
      <trkpt lat="43.1671" lon="6.48068">
        <ele>294</ele>
        <time>2013-09-12T12:54:11.000Z</time>
      </trkpt>
      <trkpt lat="43.16709" lon="6.48069">
        <ele>294</ele>
        <time>2013-09-12T12:54:12.000Z</time>
      </trkpt>
      <trkpt lat="43.16708" lon="6.48071">
        <ele>294</ele>
        <time>2013-09-12T12:54:13.000Z</time>
      </trkpt>
      <trkpt lat="43.16706" lon="6.48073">
        <ele>294</ele>
        <time>2013-09-12T12:54:14.000Z</time>
      </trkpt>
      <trkpt lat="43.16705" lon="6.48074">
        <ele>295</ele>
        <time>2013-09-12T12:54:15.000Z</time>
      </trkpt>
      <trkpt lat="43.16704" lon="6.48076">
        <ele>295</ele>
        <time>2013-09-12T12:54:16.000Z</time>
      </trkpt>
      <trkpt lat="43.16703" lon="6.48077">
        <ele>295</ele>
        <time>2013-09-12T12:54:17.000Z</time>
      </trkpt>
      <trkpt lat="43.16702" lon="6.48079">
        <ele>295</ele>
        <time>2013-09-12T12:54:18.000Z</time>
      </trkpt>
      <trkpt lat="43.167" lon="6.4808">
        <ele>295</ele>
        <time>2013-09-12T12:54:19.000Z</time>
      </trkpt>
      <trkpt lat="43.16699" lon="6.48081">
        <ele>295</ele>
        <time>2013-09-12T12:54:20.000Z</time>
      </trkpt>
      <trkpt lat="43.16697" lon="6.48082">
        <ele>295</ele>
        <time>2013-09-12T12:54:21.000Z</time>
      </trkpt>
      <trkpt lat="43.16696" lon="6.48084">
        <ele>297</ele>
        <time>2013-09-12T12:54:22.000Z</time>
      </trkpt>
      <trkpt lat="43.16695" lon="6.48085">
        <ele>297</ele>
        <time>2013-09-12T12:54:23.000Z</time>
      </trkpt>
      <trkpt lat="43.16694" lon="6.48087">
        <ele>297</ele>
        <time>2013-09-12T12:54:24.000Z</time>
      </trkpt>
      <trkpt lat="43.16692" lon="6.48088">
        <ele>297</ele>
        <time>2013-09-12T12:54:25.000Z</time>
      </trkpt>
      <trkpt lat="43.16691" lon="6.48089">
        <ele>297</ele>
        <time>2013-09-12T12:54:26.000Z</time>
      </trkpt>
      <trkpt lat="43.16689" lon="6.4809">
        <ele>297</ele>
        <time>2013-09-12T12:54:27.000Z</time>
      </trkpt>
      <trkpt lat="43.16688" lon="6.48091">
        <ele>297</ele>
        <time>2013-09-12T12:54:28.000Z</time>
      </trkpt>
      <trkpt lat="43.16687" lon="6.48092">
        <ele>297</ele>
        <time>2013-09-12T12:54:29.000Z</time>
      </trkpt>
      <trkpt lat="43.16686" lon="6.48093">
        <ele>297</ele>
        <time>2013-09-12T12:54:30.000Z</time>
      </trkpt>
      <trkpt lat="43.16684" lon="6.48095">
        <ele>298</ele>
        <time>2013-09-12T12:54:31.000Z</time>
      </trkpt>
      <trkpt lat="43.16683" lon="6.48096">
        <ele>298</ele>
        <time>2013-09-12T12:54:32.000Z</time>
      </trkpt>
      <trkpt lat="43.16682" lon="6.48097">
        <ele>298</ele>
        <time>2013-09-12T12:54:33.000Z</time>
      </trkpt>
      <trkpt lat="43.16681" lon="6.48098">
        <ele>298</ele>
        <time>2013-09-12T12:54:34.000Z</time>
      </trkpt>
      <trkpt lat="43.1668" lon="6.48099">
        <ele>298</ele>
        <time>2013-09-12T12:54:35.000Z</time>
      </trkpt>
      <trkpt lat="43.16678" lon="6.48101">
        <ele>298</ele>
        <time>2013-09-12T12:54:36.000Z</time>
      </trkpt>
      <trkpt lat="43.16677" lon="6.48102">
        <ele>298</ele>
        <time>2013-09-12T12:54:37.000Z</time>
      </trkpt>
      <trkpt lat="43.16676" lon="6.48103">
        <ele>298</ele>
        <time>2013-09-12T12:54:38.000Z</time>
      </trkpt>
      <trkpt lat="43.16675" lon="6.48104">
        <ele>298</ele>
        <time>2013-09-12T12:54:39.000Z</time>
      </trkpt>
      <trkpt lat="43.16673" lon="6.48106">
        <ele>298</ele>
        <time>2013-09-12T12:54:40.000Z</time>
      </trkpt>
      <trkpt lat="43.16672" lon="6.48107">
        <ele>297</ele>
        <time>2013-09-12T12:54:41.000Z</time>
      </trkpt>
      <trkpt lat="43.16671" lon="6.48109">
        <ele>297</ele>
        <time>2013-09-12T12:54:42.000Z</time>
      </trkpt>
      <trkpt lat="43.1667" lon="6.4811">
        <ele>297</ele>
        <time>2013-09-12T12:54:43.000Z</time>
      </trkpt>
      <trkpt lat="43.16669" lon="6.48111">
        <ele>297</ele>
        <time>2013-09-12T12:54:44.000Z</time>
      </trkpt>
      <trkpt lat="43.16667" lon="6.48112">
        <ele>297</ele>
        <time>2013-09-12T12:54:45.000Z</time>
      </trkpt>
      <trkpt lat="43.16666" lon="6.48114">
        <ele>300</ele>
        <time>2013-09-12T12:54:46.000Z</time>
      </trkpt>
      <trkpt lat="43.16665" lon="6.48115">
        <ele>300</ele>
        <time>2013-09-12T12:54:47.000Z</time>
      </trkpt>
      <trkpt lat="43.16664" lon="6.48117">
        <ele>300</ele>
        <time>2013-09-12T12:54:48.000Z</time>
      </trkpt>
      <trkpt lat="43.16663" lon="6.48118">
        <ele>300</ele>
        <time>2013-09-12T12:54:49.000Z</time>
      </trkpt>
      <trkpt lat="43.16661" lon="6.48119">
        <ele>300</ele>
        <time>2013-09-12T12:54:50.000Z</time>
      </trkpt>
      <trkpt lat="43.1666" lon="6.4812">
        <ele>300</ele>
        <time>2013-09-12T12:54:51.000Z</time>
      </trkpt>
      <trkpt lat="43.16659" lon="6.48121">
        <ele>300</ele>
        <time>2013-09-12T12:54:52.000Z</time>
      </trkpt>
      <trkpt lat="43.16658" lon="6.48122">
        <ele>300</ele>
        <time>2013-09-12T12:54:53.000Z</time>
      </trkpt>
      <trkpt lat="43.16657" lon="6.48123">
        <ele>300</ele>
        <time>2013-09-12T12:54:54.000Z</time>
      </trkpt>
      <trkpt lat="43.16655" lon="6.48123">
        <ele>300</ele>
        <time>2013-09-12T12:54:55.000Z</time>
      </trkpt>
      <trkpt lat="43.16654" lon="6.48124">
        <ele>300</ele>
        <time>2013-09-12T12:54:56.000Z</time>
      </trkpt>
      <trkpt lat="43.16653" lon="6.48125">
        <ele>300</ele>
        <time>2013-09-12T12:54:57.000Z</time>
      </trkpt>
      <trkpt lat="43.16651" lon="6.48126">
        <ele>300</ele>
        <time>2013-09-12T12:54:58.000Z</time>
      </trkpt>
      <trkpt lat="43.1665" lon="6.48127">
        <ele>300</ele>
        <time>2013-09-12T12:54:59.000Z</time>
      </trkpt>
      <trkpt lat="43.16649" lon="6.48128">
        <ele>300</ele>
        <time>2013-09-12T12:55:00.000Z</time>
      </trkpt>
      <trkpt lat="43.16648" lon="6.48128">
        <ele>300</ele>
        <time>2013-09-12T12:55:01.000Z</time>
      </trkpt>
      <trkpt lat="43.16646" lon="6.48128">
        <ele>300</ele>
        <time>2013-09-12T12:55:02.000Z</time>
      </trkpt>
      <trkpt lat="43.16644" lon="6.48129">
        <ele>300</ele>
        <time>2013-09-12T12:55:04.000Z</time>
      </trkpt>
      <trkpt lat="43.16643" lon="6.48129">
        <ele>300</ele>
        <time>2013-09-12T12:55:05.000Z</time>
      </trkpt>
      <trkpt lat="43.16642" lon="6.48129">
        <ele>300</ele>
        <time>2013-09-12T12:55:08.000Z</time>
      </trkpt>
      <trkpt lat="43.16642" lon="6.48129">
        <ele>300</ele>
        <time>2013-09-12T12:55:12.000Z</time>
      </trkpt>
      <trkpt lat="43.16642" lon="6.48129">
        <ele>300</ele>
        <time>2013-09-12T12:55:13.000Z</time>
      </trkpt>
      <trkpt lat="43.16641" lon="6.48129">
        <ele>300</ele>
        <time>2013-09-12T12:55:22.000Z</time>
      </trkpt>
      <trkpt lat="43.16641" lon="6.48129">
        <ele>300</ele>
        <time>2013-09-12T12:55:33.000Z</time>
      </trkpt>
      <trkpt lat="43.16641" lon="6.48129">
        <ele>300</ele>
        <time>2013-09-12T12:55:36.000Z</time>
      </trkpt>
      <trkpt lat="43.1664" lon="6.48129">
        <ele>300</ele>
        <time>2013-09-12T12:55:43.000Z</time>
      </trkpt>
      <trkpt lat="43.1664" lon="6.48129">
        <ele>300</ele>
        <time>2013-09-12T12:55:46.000Z</time>
      </trkpt>
      <trkpt lat="43.1664" lon="6.48129">
        <ele>300</ele>
        <time>2013-09-12T12:55:50.000Z</time>
      </trkpt>
      <trkpt lat="43.1664" lon="6.48129">
        <ele>300</ele>
        <time>2013-09-12T12:55:55.000Z</time>
      </trkpt>
      <trkpt lat="43.1664" lon="6.4813">
        <ele>300</ele>
        <time>2013-09-12T12:55:58.000Z</time>
      </trkpt>
      <trkpt lat="43.1664" lon="6.4813">
        <ele>300</ele>
        <time>2013-09-12T12:56:09.000Z</time>
      </trkpt>
      <trkpt lat="43.1664" lon="6.4813">
        <ele>300</ele>
        <time>2013-09-12T12:56:13.000Z</time>
      </trkpt>
      <trkpt lat="43.1664" lon="6.4813">
        <ele>300</ele>
        <time>2013-09-12T12:56:23.000Z</time>
      </trkpt>
      <trkpt lat="43.1664" lon="6.4813">
        <ele>300</ele>
        <time>2013-09-12T12:56:28.000Z</time>
      </trkpt>
      <trkpt lat="43.1664" lon="6.4813">
        <ele>300</ele>
        <time>2013-09-12T12:56:35.000Z</time>
      </trkpt>
      <trkpt lat="43.1664" lon="6.4813">
        <ele>300</ele>
        <time>2013-09-12T12:56:47.000Z</time>
      </trkpt>
      <trkpt lat="43.1664" lon="6.4813">
        <ele>300</ele>
        <time>2013-09-12T12:56:57.000Z</time>
      </trkpt>
      <trkpt lat="43.1664" lon="6.4813">
        <ele>300</ele>
        <time>2013-09-12T12:57:01.000Z</time>
      </trkpt>
      <trkpt lat="43.1664" lon="6.4813">
        <ele>300</ele>
        <time>2013-09-12T12:57:20.000Z</time>
      </trkpt>
    </trkseg>
  </trk>
</gpx>